<?xml version="1.0" encoding="UTF-8" standalone="no" ?>
<gpx xmlns="http://www.topografix.com/GPX/1/1" xmlns:xsi="http://www.w3.org/2001/XMLSchema-instance" xsi:schemaLocation="http://www.topografix.com/GPX/1/1 http://www.topografix.com/GPX/1/1/gpx.xsd" version="1.1" creator="VisuGPX - https://www.visugpx.com">
  <metadata>
    <name>dury métropolitaine</name>
  </metadata>
  <trk>
    <name><![CDATA[dury métropolitaine_1]]></name>
    <trkseg>
      <trkpt lat="49.84585" lon="2.2658">
        <ele>100.1</ele>
        <time>2023-11-25T13:05:31Z</time>
      </trkpt>
      <trkpt lat="49.84585" lon="2.2658">
        <ele>100.1</ele>
        <time>2023-11-25T13:05:32Z</time>
      </trkpt>
      <trkpt lat="49.84585" lon="2.2658">
        <ele>100.1</ele>
        <time>2023-11-25T13:05:33Z</time>
      </trkpt>
      <trkpt lat="49.84585" lon="2.2658">
        <ele>100.1</ele>
        <time>2023-11-25T13:05:34Z</time>
      </trkpt>
      <trkpt lat="49.84585" lon="2.2658">
        <ele>100.1</ele>
        <time>2023-11-25T13:05:35Z</time>
      </trkpt>
      <trkpt lat="49.84585" lon="2.2658">
        <ele>100.1</ele>
        <time>2023-11-25T13:05:36Z</time>
      </trkpt>
      <trkpt lat="49.84585" lon="2.2658">
        <ele>100.1</ele>
        <time>2023-11-25T13:05:37Z</time>
      </trkpt>
      <trkpt lat="49.84585" lon="2.2658">
        <ele>100.1</ele>
        <time>2023-11-25T13:05:38Z</time>
      </trkpt>
      <trkpt lat="49.84585" lon="2.2658">
        <ele>100.1</ele>
        <time>2023-11-25T13:05:39Z</time>
      </trkpt>
      <trkpt lat="49.84585" lon="2.2658">
        <ele>100.1</ele>
        <time>2023-11-25T13:05:40Z</time>
      </trkpt>
      <trkpt lat="49.84585" lon="2.2658">
        <ele>100.1</ele>
        <time>2023-11-25T13:05:41Z</time>
      </trkpt>
      <trkpt lat="49.84581" lon="2.2658">
        <ele>100.1</ele>
        <time>2023-11-25T13:06:03Z</time>
      </trkpt>
      <trkpt lat="49.84581" lon="2.2658">
        <ele>100.1</ele>
        <time>2023-11-25T13:06:04Z</time>
      </trkpt>
      <trkpt lat="49.8458" lon="2.2658">
        <ele>100.1</ele>
        <time>2023-11-25T13:06:05Z</time>
      </trkpt>
      <trkpt lat="49.84579" lon="2.2658">
        <ele>100.1</ele>
        <time>2023-11-25T13:06:06Z</time>
      </trkpt>
      <trkpt lat="49.84578" lon="2.26581">
        <ele>100.1</ele>
        <time>2023-11-25T13:06:07Z</time>
      </trkpt>
      <trkpt lat="49.84578" lon="2.26581">
        <ele>100.1</ele>
        <time>2023-11-25T13:06:08Z</time>
      </trkpt>
      <trkpt lat="49.84577" lon="2.26581">
        <ele>100.1</ele>
        <time>2023-11-25T13:06:09Z</time>
      </trkpt>
      <trkpt lat="49.84576" lon="2.2658">
        <ele>100.1</ele>
        <time>2023-11-25T13:06:10Z</time>
      </trkpt>
      <trkpt lat="49.84576" lon="2.2658">
        <ele>100.1</ele>
        <time>2023-11-25T13:06:11Z</time>
      </trkpt>
      <trkpt lat="49.84575" lon="2.26579">
        <ele>100.1</ele>
        <time>2023-11-25T13:06:12Z</time>
      </trkpt>
      <trkpt lat="49.84574" lon="2.26579">
        <ele>100.1</ele>
        <time>2023-11-25T13:06:13Z</time>
      </trkpt>
      <trkpt lat="49.84573" lon="2.26578">
        <ele>100.1</ele>
        <time>2023-11-25T13:06:14Z</time>
      </trkpt>
      <trkpt lat="49.84573" lon="2.26577">
        <ele>100.1</ele>
        <time>2023-11-25T13:06:15Z</time>
      </trkpt>
      <trkpt lat="49.84572" lon="2.26577">
        <ele>100.1</ele>
        <time>2023-11-25T13:06:16Z</time>
      </trkpt>
      <trkpt lat="49.84571" lon="2.26576">
        <ele>100.1</ele>
        <time>2023-11-25T13:06:17Z</time>
      </trkpt>
      <trkpt lat="49.84571" lon="2.26575">
        <ele>100.1</ele>
        <time>2023-11-25T13:06:18Z</time>
      </trkpt>
      <trkpt lat="49.8457" lon="2.26575">
        <ele>100.1</ele>
        <time>2023-11-25T13:06:19Z</time>
      </trkpt>
      <trkpt lat="49.8457" lon="2.26574">
        <ele>100.1</ele>
        <time>2023-11-25T13:06:20Z</time>
      </trkpt>
      <trkpt lat="49.84569" lon="2.26574">
        <ele>100.1</ele>
        <time>2023-11-25T13:06:21Z</time>
      </trkpt>
      <trkpt lat="49.84568" lon="2.26572">
        <ele>100.1</ele>
        <time>2023-11-25T13:06:22Z</time>
      </trkpt>
      <trkpt lat="49.84568" lon="2.26571">
        <ele>100.1</ele>
        <time>2023-11-25T13:06:24Z</time>
      </trkpt>
      <trkpt lat="49.84567" lon="2.26571">
        <ele>100.1</ele>
        <time>2023-11-25T13:06:25Z</time>
      </trkpt>
      <trkpt lat="49.84567" lon="2.2657">
        <ele>100.1</ele>
        <time>2023-11-25T13:06:27Z</time>
      </trkpt>
      <trkpt lat="49.84566" lon="2.2657">
        <ele>100.1</ele>
        <time>2023-11-25T13:06:28Z</time>
      </trkpt>
      <trkpt lat="49.84566" lon="2.26569">
        <ele>100.1</ele>
        <time>2023-11-25T13:06:29Z</time>
      </trkpt>
      <trkpt lat="49.84565" lon="2.26569">
        <ele>100.1</ele>
        <time>2023-11-25T13:06:31Z</time>
      </trkpt>
      <trkpt lat="49.84565" lon="2.26568">
        <ele>100.1</ele>
        <time>2023-11-25T13:06:32Z</time>
      </trkpt>
      <trkpt lat="49.84564" lon="2.26567">
        <ele>100.1</ele>
        <time>2023-11-25T13:06:34Z</time>
      </trkpt>
      <trkpt lat="49.84564" lon="2.26567">
        <ele>100.1</ele>
        <time>2023-11-25T13:06:35Z</time>
      </trkpt>
      <trkpt lat="49.84564" lon="2.26566">
        <ele>100.1</ele>
        <time>2023-11-25T13:06:37Z</time>
      </trkpt>
      <trkpt lat="49.84563" lon="2.26566">
        <ele>100.1</ele>
        <time>2023-11-25T13:06:38Z</time>
      </trkpt>
      <trkpt lat="49.84563" lon="2.26565">
        <ele>100.1</ele>
        <time>2023-11-25T13:06:54Z</time>
      </trkpt>
      <trkpt lat="49.84562" lon="2.26565">
        <ele>100.1</ele>
        <time>2023-11-25T13:06:55Z</time>
      </trkpt>
      <trkpt lat="49.84562" lon="2.26564">
        <ele>100.1</ele>
        <time>2023-11-25T13:06:56Z</time>
      </trkpt>
      <trkpt lat="49.84561" lon="2.26561">
        <ele>100.1</ele>
        <time>2023-11-25T13:06:57Z</time>
      </trkpt>
      <trkpt lat="49.8456" lon="2.2656">
        <ele>100.1</ele>
        <time>2023-11-25T13:06:58Z</time>
      </trkpt>
      <trkpt lat="49.84559" lon="2.26558">
        <ele>100.1</ele>
        <time>2023-11-25T13:07:00Z</time>
      </trkpt>
      <trkpt lat="49.84559" lon="2.26557">
        <ele>100.1</ele>
        <time>2023-11-25T13:07:01Z</time>
      </trkpt>
      <trkpt lat="49.84558" lon="2.26556">
        <ele>100.1</ele>
        <time>2023-11-25T13:07:02Z</time>
      </trkpt>
      <trkpt lat="49.84558" lon="2.26555">
        <ele>100.1</ele>
        <time>2023-11-25T13:07:03Z</time>
      </trkpt>
      <trkpt lat="49.84557" lon="2.26553">
        <ele>100.1</ele>
        <time>2023-11-25T13:07:04Z</time>
      </trkpt>
      <trkpt lat="49.84557" lon="2.26551">
        <ele>100.2</ele>
        <time>2023-11-25T13:07:05Z</time>
      </trkpt>
      <trkpt lat="49.84557" lon="2.2655">
        <ele>100.1</ele>
        <time>2023-11-25T13:07:06Z</time>
      </trkpt>
      <trkpt lat="49.84557" lon="2.26548">
        <ele>100.2</ele>
        <time>2023-11-25T13:07:08Z</time>
      </trkpt>
      <trkpt lat="49.84557" lon="2.26546">
        <ele>100.1</ele>
        <time>2023-11-25T13:07:09Z</time>
      </trkpt>
      <trkpt lat="49.84557" lon="2.26541">
        <ele>100.1</ele>
        <time>2023-11-25T13:07:10Z</time>
      </trkpt>
      <trkpt lat="49.84557" lon="2.2654">
        <ele>100.1</ele>
        <time>2023-11-25T13:07:11Z</time>
      </trkpt>
      <trkpt lat="49.84557" lon="2.26538">
        <ele>100.2</ele>
        <time>2023-11-25T13:07:12Z</time>
      </trkpt>
      <trkpt lat="49.84557" lon="2.26536">
        <ele>100.1</ele>
        <time>2023-11-25T13:07:13Z</time>
      </trkpt>
      <trkpt lat="49.84557" lon="2.26534">
        <ele>100.2</ele>
        <time>2023-11-25T13:07:15Z</time>
      </trkpt>
      <trkpt lat="49.84558" lon="2.26533">
        <ele>100.1</ele>
        <time>2023-11-25T13:07:16Z</time>
      </trkpt>
      <trkpt lat="49.84559" lon="2.26532">
        <ele>100.2</ele>
        <time>2023-11-25T13:07:17Z</time>
      </trkpt>
      <trkpt lat="49.8456" lon="2.26531">
        <ele>100</ele>
        <time>2023-11-25T13:07:18Z</time>
      </trkpt>
      <trkpt lat="49.84561" lon="2.26529">
        <ele>100.1</ele>
        <time>2023-11-25T13:07:19Z</time>
      </trkpt>
      <trkpt lat="49.84561" lon="2.26528">
        <ele>100</ele>
        <time>2023-11-25T13:07:20Z</time>
      </trkpt>
      <trkpt lat="49.84562" lon="2.26526">
        <ele>100.1</ele>
        <time>2023-11-25T13:07:22Z</time>
      </trkpt>
      <trkpt lat="49.84562" lon="2.26526">
        <ele>99.9</ele>
        <time>2023-11-25T13:07:23Z</time>
      </trkpt>
      <trkpt lat="49.84563" lon="2.26525">
        <ele>100</ele>
        <time>2023-11-25T13:07:24Z</time>
      </trkpt>
      <trkpt lat="49.84563" lon="2.26524">
        <ele>99.9</ele>
        <time>2023-11-25T13:07:25Z</time>
      </trkpt>
      <trkpt lat="49.84564" lon="2.26523">
        <ele>99.9</ele>
        <time>2023-11-25T13:07:26Z</time>
      </trkpt>
      <trkpt lat="49.84565" lon="2.26521">
        <ele>100</ele>
        <time>2023-11-25T13:07:27Z</time>
      </trkpt>
      <trkpt lat="49.84565" lon="2.26519">
        <ele>99.7</ele>
        <time>2023-11-25T13:07:28Z</time>
      </trkpt>
      <trkpt lat="49.84566" lon="2.26516">
        <ele>99.8</ele>
        <time>2023-11-25T13:07:29Z</time>
      </trkpt>
      <trkpt lat="49.84566" lon="2.26514">
        <ele>99.7</ele>
        <time>2023-11-25T13:07:31Z</time>
      </trkpt>
      <trkpt lat="49.84567" lon="2.26511">
        <ele>99.6</ele>
        <time>2023-11-25T13:07:32Z</time>
      </trkpt>
      <trkpt lat="49.84568" lon="2.26509">
        <ele>99.7</ele>
        <time>2023-11-25T13:07:33Z</time>
      </trkpt>
      <trkpt lat="49.84568" lon="2.26505">
        <ele>99.4</ele>
        <time>2023-11-25T13:07:34Z</time>
      </trkpt>
      <trkpt lat="49.84568" lon="2.26504">
        <ele>99.5</ele>
        <time>2023-11-25T13:07:35Z</time>
      </trkpt>
      <trkpt lat="49.84569" lon="2.26499">
        <ele>99.4</ele>
        <time>2023-11-25T13:07:37Z</time>
      </trkpt>
      <trkpt lat="49.8457" lon="2.26497">
        <ele>99.3</ele>
        <time>2023-11-25T13:07:38Z</time>
      </trkpt>
      <trkpt lat="49.8457" lon="2.26495">
        <ele>99.4</ele>
        <time>2023-11-25T13:07:39Z</time>
      </trkpt>
      <trkpt lat="49.84571" lon="2.26493">
        <ele>99.1</ele>
        <time>2023-11-25T13:07:40Z</time>
      </trkpt>
      <trkpt lat="49.84572" lon="2.2649">
        <ele>99.1</ele>
        <time>2023-11-25T13:07:41Z</time>
      </trkpt>
      <trkpt lat="49.84572" lon="2.26489">
        <ele>99.1</ele>
        <time>2023-11-25T13:07:42Z</time>
      </trkpt>
      <trkpt lat="49.84572" lon="2.26488">
        <ele>99.2</ele>
        <time>2023-11-25T13:07:43Z</time>
      </trkpt>
      <trkpt lat="49.84573" lon="2.26484">
        <ele>99.1</ele>
        <time>2023-11-25T13:07:45Z</time>
      </trkpt>
      <trkpt lat="49.84573" lon="2.26483">
        <ele>99.2</ele>
        <time>2023-11-25T13:07:46Z</time>
      </trkpt>
      <trkpt lat="49.84573" lon="2.26481">
        <ele>99.2</ele>
        <time>2023-11-25T13:07:47Z</time>
      </trkpt>
      <trkpt lat="49.84573" lon="2.2648">
        <ele>99.3</ele>
        <time>2023-11-25T13:07:48Z</time>
      </trkpt>
      <trkpt lat="49.84572" lon="2.2648">
        <ele>99.3</ele>
        <time>2023-11-25T13:07:49Z</time>
      </trkpt>
      <trkpt lat="49.84572" lon="2.26479">
        <ele>99.3</ele>
        <time>2023-11-25T13:07:50Z</time>
      </trkpt>
      <trkpt lat="49.84571" lon="2.26477">
        <ele>99.4</ele>
        <time>2023-11-25T13:07:52Z</time>
      </trkpt>
      <trkpt lat="49.8457" lon="2.26476">
        <ele>99.5</ele>
        <time>2023-11-25T13:07:53Z</time>
      </trkpt>
      <trkpt lat="49.84569" lon="2.26475">
        <ele>99.5</ele>
        <time>2023-11-25T13:07:54Z</time>
      </trkpt>
      <trkpt lat="49.84568" lon="2.26475">
        <ele>99.6</ele>
        <time>2023-11-25T13:07:55Z</time>
      </trkpt>
      <trkpt lat="49.84567" lon="2.26474">
        <ele>99.6</ele>
        <time>2023-11-25T13:07:56Z</time>
      </trkpt>
      <trkpt lat="49.84566" lon="2.26474">
        <ele>99.7</ele>
        <time>2023-11-25T13:07:57Z</time>
      </trkpt>
      <trkpt lat="49.84565" lon="2.26474">
        <ele>99.7</ele>
        <time>2023-11-25T13:07:59Z</time>
      </trkpt>
      <trkpt lat="49.84564" lon="2.26474">
        <ele>99.7</ele>
        <time>2023-11-25T13:08:00Z</time>
      </trkpt>
      <trkpt lat="49.84563" lon="2.26474">
        <ele>99.8</ele>
        <time>2023-11-25T13:08:01Z</time>
      </trkpt>
      <trkpt lat="49.84563" lon="2.26473">
        <ele>99.8</ele>
        <time>2023-11-25T13:08:02Z</time>
      </trkpt>
      <trkpt lat="49.84562" lon="2.26473">
        <ele>99.8</ele>
        <time>2023-11-25T13:08:03Z</time>
      </trkpt>
      <trkpt lat="49.84561" lon="2.26473">
        <ele>99.9</ele>
        <time>2023-11-25T13:08:05Z</time>
      </trkpt>
      <trkpt lat="49.8456" lon="2.26472">
        <ele>99.9</ele>
        <time>2023-11-25T13:08:06Z</time>
      </trkpt>
      <trkpt lat="49.84559" lon="2.26471">
        <ele>100</ele>
        <time>2023-11-25T13:08:07Z</time>
      </trkpt>
      <trkpt lat="49.84559" lon="2.2647">
        <ele>100</ele>
        <time>2023-11-25T13:08:08Z</time>
      </trkpt>
      <trkpt lat="49.84558" lon="2.26469">
        <ele>100</ele>
        <time>2023-11-25T13:08:09Z</time>
      </trkpt>
      <trkpt lat="49.84557" lon="2.26469">
        <ele>100.1</ele>
        <time>2023-11-25T13:08:10Z</time>
      </trkpt>
      <trkpt lat="49.84557" lon="2.26468">
        <ele>100.1</ele>
        <time>2023-11-25T13:08:11Z</time>
      </trkpt>
      <trkpt lat="49.84556" lon="2.26468">
        <ele>100.1</ele>
        <time>2023-11-25T13:08:13Z</time>
      </trkpt>
      <trkpt lat="49.84556" lon="2.26468">
        <ele>100.2</ele>
        <time>2023-11-25T13:08:14Z</time>
      </trkpt>
      <trkpt lat="49.84555" lon="2.26468">
        <ele>100.2</ele>
        <time>2023-11-25T13:08:15Z</time>
      </trkpt>
      <trkpt lat="49.84555" lon="2.26467">
        <ele>100.2</ele>
        <time>2023-11-25T13:08:16Z</time>
      </trkpt>
      <trkpt lat="49.84554" lon="2.26467">
        <ele>100.2</ele>
        <time>2023-11-25T13:08:17Z</time>
      </trkpt>
      <trkpt lat="49.84554" lon="2.26467">
        <ele>100.2</ele>
        <time>2023-11-25T13:08:18Z</time>
      </trkpt>
      <trkpt lat="49.84553" lon="2.26466">
        <ele>100.3</ele>
        <time>2023-11-25T13:08:19Z</time>
      </trkpt>
      <trkpt lat="49.84552" lon="2.26465">
        <ele>100.3</ele>
        <time>2023-11-25T13:08:21Z</time>
      </trkpt>
      <trkpt lat="49.84552" lon="2.26464">
        <ele>100.3</ele>
        <time>2023-11-25T13:08:22Z</time>
      </trkpt>
      <trkpt lat="49.84551" lon="2.26463">
        <ele>100.4</ele>
        <time>2023-11-25T13:08:23Z</time>
      </trkpt>
      <trkpt lat="49.8455" lon="2.26462">
        <ele>100.4</ele>
        <time>2023-11-25T13:08:24Z</time>
      </trkpt>
      <trkpt lat="49.8455" lon="2.26461">
        <ele>100.5</ele>
        <time>2023-11-25T13:08:25Z</time>
      </trkpt>
      <trkpt lat="49.84549" lon="2.2646">
        <ele>100.5</ele>
        <time>2023-11-25T13:08:26Z</time>
      </trkpt>
      <trkpt lat="49.84548" lon="2.26458">
        <ele>100.6</ele>
        <time>2023-11-25T13:08:28Z</time>
      </trkpt>
      <trkpt lat="49.84547" lon="2.26457">
        <ele>100.6</ele>
        <time>2023-11-25T13:08:29Z</time>
      </trkpt>
      <trkpt lat="49.84546" lon="2.26455">
        <ele>100.6</ele>
        <time>2023-11-25T13:08:30Z</time>
      </trkpt>
      <trkpt lat="49.84545" lon="2.26454">
        <ele>100.7</ele>
        <time>2023-11-25T13:08:31Z</time>
      </trkpt>
      <trkpt lat="49.84545" lon="2.26454">
        <ele>100.7</ele>
        <time>2023-11-25T13:08:32Z</time>
      </trkpt>
      <trkpt lat="49.84544" lon="2.26453">
        <ele>100.8</ele>
        <time>2023-11-25T13:08:33Z</time>
      </trkpt>
      <trkpt lat="49.84543" lon="2.26452">
        <ele>100.8</ele>
        <time>2023-11-25T13:08:35Z</time>
      </trkpt>
      <trkpt lat="49.84542" lon="2.26451">
        <ele>100.8</ele>
        <time>2023-11-25T13:08:36Z</time>
      </trkpt>
      <trkpt lat="49.84541" lon="2.2645">
        <ele>100.9</ele>
        <time>2023-11-25T13:08:37Z</time>
      </trkpt>
      <trkpt lat="49.8454" lon="2.2645">
        <ele>100.9</ele>
        <time>2023-11-25T13:08:38Z</time>
      </trkpt>
      <trkpt lat="49.84539" lon="2.2645">
        <ele>100.9</ele>
        <time>2023-11-25T13:08:39Z</time>
      </trkpt>
      <trkpt lat="49.84537" lon="2.2645">
        <ele>101</ele>
        <time>2023-11-25T13:08:41Z</time>
      </trkpt>
      <trkpt lat="49.84536" lon="2.2645">
        <ele>101</ele>
        <time>2023-11-25T13:08:43Z</time>
      </trkpt>
      <trkpt lat="49.84535" lon="2.26449">
        <ele>101.1</ele>
        <time>2023-11-25T13:08:44Z</time>
      </trkpt>
      <trkpt lat="49.84534" lon="2.26448">
        <ele>101.1</ele>
        <time>2023-11-25T13:08:45Z</time>
      </trkpt>
      <trkpt lat="49.84533" lon="2.26448">
        <ele>101.1</ele>
        <time>2023-11-25T13:08:46Z</time>
      </trkpt>
      <trkpt lat="49.84532" lon="2.26447">
        <ele>101.2</ele>
        <time>2023-11-25T13:08:47Z</time>
      </trkpt>
      <trkpt lat="49.8453" lon="2.26447">
        <ele>101.2</ele>
        <time>2023-11-25T13:08:48Z</time>
      </trkpt>
      <trkpt lat="49.84529" lon="2.26446">
        <ele>101.2</ele>
        <time>2023-11-25T13:08:50Z</time>
      </trkpt>
      <trkpt lat="49.84528" lon="2.26446">
        <ele>101.3</ele>
        <time>2023-11-25T13:08:51Z</time>
      </trkpt>
      <trkpt lat="49.84527" lon="2.26445">
        <ele>101.3</ele>
        <time>2023-11-25T13:08:52Z</time>
      </trkpt>
      <trkpt lat="49.84526" lon="2.26444">
        <ele>101.3</ele>
        <time>2023-11-25T13:08:53Z</time>
      </trkpt>
      <trkpt lat="49.84525" lon="2.26444">
        <ele>101.3</ele>
        <time>2023-11-25T13:08:54Z</time>
      </trkpt>
      <trkpt lat="49.84523" lon="2.26443">
        <ele>101.4</ele>
        <time>2023-11-25T13:08:55Z</time>
      </trkpt>
      <trkpt lat="49.84522" lon="2.26443">
        <ele>101.4</ele>
        <time>2023-11-25T13:08:56Z</time>
      </trkpt>
      <trkpt lat="49.84521" lon="2.26442">
        <ele>101.4</ele>
        <time>2023-11-25T13:08:58Z</time>
      </trkpt>
      <trkpt lat="49.8452" lon="2.26442">
        <ele>101.4</ele>
        <time>2023-11-25T13:08:59Z</time>
      </trkpt>
      <trkpt lat="49.84518" lon="2.26442">
        <ele>101.5</ele>
        <time>2023-11-25T13:09:00Z</time>
      </trkpt>
      <trkpt lat="49.84517" lon="2.26442">
        <ele>101.5</ele>
        <time>2023-11-25T13:09:01Z</time>
      </trkpt>
      <trkpt lat="49.84516" lon="2.26442">
        <ele>101.5</ele>
        <time>2023-11-25T13:09:02Z</time>
      </trkpt>
      <trkpt lat="49.84515" lon="2.26442">
        <ele>101.5</ele>
        <time>2023-11-25T13:09:03Z</time>
      </trkpt>
      <trkpt lat="49.84515" lon="2.26441">
        <ele>101.5</ele>
        <time>2023-11-25T13:09:05Z</time>
      </trkpt>
      <trkpt lat="49.84514" lon="2.2644">
        <ele>101.5</ele>
        <time>2023-11-25T13:09:06Z</time>
      </trkpt>
      <trkpt lat="49.84513" lon="2.26439">
        <ele>101.5</ele>
        <time>2023-11-25T13:09:07Z</time>
      </trkpt>
      <trkpt lat="49.84512" lon="2.26438">
        <ele>101.5</ele>
        <time>2023-11-25T13:09:08Z</time>
      </trkpt>
      <trkpt lat="49.84511" lon="2.26437">
        <ele>101.5</ele>
        <time>2023-11-25T13:09:09Z</time>
      </trkpt>
      <trkpt lat="49.8451" lon="2.26434">
        <ele>101.6</ele>
        <time>2023-11-25T13:09:10Z</time>
      </trkpt>
      <trkpt lat="49.84509" lon="2.26434">
        <ele>101.6</ele>
        <time>2023-11-25T13:09:12Z</time>
      </trkpt>
      <trkpt lat="49.84509" lon="2.26433">
        <ele>101.6</ele>
        <time>2023-11-25T13:09:13Z</time>
      </trkpt>
      <trkpt lat="49.84507" lon="2.26431">
        <ele>101.6</ele>
        <time>2023-11-25T13:09:14Z</time>
      </trkpt>
      <trkpt lat="49.84506" lon="2.2643">
        <ele>101.6</ele>
        <time>2023-11-25T13:09:15Z</time>
      </trkpt>
      <trkpt lat="49.84505" lon="2.2643">
        <ele>101.6</ele>
        <time>2023-11-25T13:09:16Z</time>
      </trkpt>
      <trkpt lat="49.84504" lon="2.26429">
        <ele>101.6</ele>
        <time>2023-11-25T13:09:17Z</time>
      </trkpt>
      <trkpt lat="49.84503" lon="2.26427">
        <ele>101.6</ele>
        <time>2023-11-25T13:09:18Z</time>
      </trkpt>
      <trkpt lat="49.84501" lon="2.26425">
        <ele>101.6</ele>
        <time>2023-11-25T13:09:20Z</time>
      </trkpt>
      <trkpt lat="49.845" lon="2.26425">
        <ele>101.6</ele>
        <time>2023-11-25T13:09:21Z</time>
      </trkpt>
      <trkpt lat="49.845" lon="2.26424">
        <ele>101.6</ele>
        <time>2023-11-25T13:09:22Z</time>
      </trkpt>
      <trkpt lat="49.84498" lon="2.26423">
        <ele>101.6</ele>
        <time>2023-11-25T13:09:23Z</time>
      </trkpt>
      <trkpt lat="49.84497" lon="2.26422">
        <ele>101.6</ele>
        <time>2023-11-25T13:09:24Z</time>
      </trkpt>
      <trkpt lat="49.84496" lon="2.26422">
        <ele>101.6</ele>
        <time>2023-11-25T13:09:25Z</time>
      </trkpt>
      <trkpt lat="49.84495" lon="2.26421">
        <ele>101.6</ele>
        <time>2023-11-25T13:09:26Z</time>
      </trkpt>
      <trkpt lat="49.84493" lon="2.2642">
        <ele>101.6</ele>
        <time>2023-11-25T13:09:28Z</time>
      </trkpt>
      <trkpt lat="49.84492" lon="2.26419">
        <ele>101.5</ele>
        <time>2023-11-25T13:09:29Z</time>
      </trkpt>
      <trkpt lat="49.84491" lon="2.26418">
        <ele>101.5</ele>
        <time>2023-11-25T13:09:30Z</time>
      </trkpt>
      <trkpt lat="49.84489" lon="2.26417">
        <ele>101.5</ele>
        <time>2023-11-25T13:09:31Z</time>
      </trkpt>
      <trkpt lat="49.84488" lon="2.26416">
        <ele>101.5</ele>
        <time>2023-11-25T13:09:32Z</time>
      </trkpt>
      <trkpt lat="49.84488" lon="2.26415">
        <ele>101.5</ele>
        <time>2023-11-25T13:09:33Z</time>
      </trkpt>
      <trkpt lat="49.84486" lon="2.26413">
        <ele>101.5</ele>
        <time>2023-11-25T13:09:35Z</time>
      </trkpt>
      <trkpt lat="49.84485" lon="2.26413">
        <ele>101.5</ele>
        <time>2023-11-25T13:09:36Z</time>
      </trkpt>
      <trkpt lat="49.84485" lon="2.26412">
        <ele>101.5</ele>
        <time>2023-11-25T13:09:37Z</time>
      </trkpt>
      <trkpt lat="49.84484" lon="2.26411">
        <ele>101.4</ele>
        <time>2023-11-25T13:09:38Z</time>
      </trkpt>
      <trkpt lat="49.84483" lon="2.2641">
        <ele>101.4</ele>
        <time>2023-11-25T13:09:39Z</time>
      </trkpt>
      <trkpt lat="49.84482" lon="2.26408">
        <ele>101.4</ele>
        <time>2023-11-25T13:09:41Z</time>
      </trkpt>
      <trkpt lat="49.84481" lon="2.26407">
        <ele>101.4</ele>
        <time>2023-11-25T13:09:42Z</time>
      </trkpt>
      <trkpt lat="49.8448" lon="2.26406">
        <ele>101.4</ele>
        <time>2023-11-25T13:09:43Z</time>
      </trkpt>
      <trkpt lat="49.84479" lon="2.26405">
        <ele>101.4</ele>
        <time>2023-11-25T13:09:44Z</time>
      </trkpt>
      <trkpt lat="49.84478" lon="2.26404">
        <ele>101.4</ele>
        <time>2023-11-25T13:09:45Z</time>
      </trkpt>
      <trkpt lat="49.84477" lon="2.26403">
        <ele>101.4</ele>
        <time>2023-11-25T13:09:47Z</time>
      </trkpt>
      <trkpt lat="49.84476" lon="2.26402">
        <ele>101.4</ele>
        <time>2023-11-25T13:09:48Z</time>
      </trkpt>
      <trkpt lat="49.84475" lon="2.26401">
        <ele>101.4</ele>
        <time>2023-11-25T13:09:49Z</time>
      </trkpt>
      <trkpt lat="49.84474" lon="2.26399">
        <ele>101.4</ele>
        <time>2023-11-25T13:09:50Z</time>
      </trkpt>
      <trkpt lat="49.84474" lon="2.26398">
        <ele>101.4</ele>
        <time>2023-11-25T13:09:51Z</time>
      </trkpt>
      <trkpt lat="49.84473" lon="2.26397">
        <ele>101.5</ele>
        <time>2023-11-25T13:09:52Z</time>
      </trkpt>
      <trkpt lat="49.84472" lon="2.26396">
        <ele>101.5</ele>
        <time>2023-11-25T13:09:54Z</time>
      </trkpt>
      <trkpt lat="49.84471" lon="2.26395">
        <ele>101.5</ele>
        <time>2023-11-25T13:09:55Z</time>
      </trkpt>
      <trkpt lat="49.8447" lon="2.26394">
        <ele>101.5</ele>
        <time>2023-11-25T13:09:56Z</time>
      </trkpt>
      <trkpt lat="49.8447" lon="2.26392">
        <ele>101.5</ele>
        <time>2023-11-25T13:09:57Z</time>
      </trkpt>
      <trkpt lat="49.84469" lon="2.26392">
        <ele>101.5</ele>
        <time>2023-11-25T13:09:58Z</time>
      </trkpt>
      <trkpt lat="49.84468" lon="2.26391">
        <ele>101.5</ele>
        <time>2023-11-25T13:09:59Z</time>
      </trkpt>
      <trkpt lat="49.84467" lon="2.26389">
        <ele>101.5</ele>
        <time>2023-11-25T13:10:01Z</time>
      </trkpt>
      <trkpt lat="49.84466" lon="2.26388">
        <ele>101.5</ele>
        <time>2023-11-25T13:10:02Z</time>
      </trkpt>
      <trkpt lat="49.84465" lon="2.26387">
        <ele>101.5</ele>
        <time>2023-11-25T13:10:03Z</time>
      </trkpt>
      <trkpt lat="49.84464" lon="2.26386">
        <ele>101.5</ele>
        <time>2023-11-25T13:10:04Z</time>
      </trkpt>
      <trkpt lat="49.84464" lon="2.26385">
        <ele>101.6</ele>
        <time>2023-11-25T13:10:05Z</time>
      </trkpt>
      <trkpt lat="49.84462" lon="2.26382">
        <ele>101.6</ele>
        <time>2023-11-25T13:10:07Z</time>
      </trkpt>
      <trkpt lat="49.84462" lon="2.26381">
        <ele>101.6</ele>
        <time>2023-11-25T13:10:08Z</time>
      </trkpt>
      <trkpt lat="49.84461" lon="2.2638">
        <ele>101.6</ele>
        <time>2023-11-25T13:10:09Z</time>
      </trkpt>
      <trkpt lat="49.84461" lon="2.26379">
        <ele>101.6</ele>
        <time>2023-11-25T13:10:10Z</time>
      </trkpt>
      <trkpt lat="49.8446" lon="2.26378">
        <ele>101.6</ele>
        <time>2023-11-25T13:10:11Z</time>
      </trkpt>
      <trkpt lat="49.84459" lon="2.26377">
        <ele>101.6</ele>
        <time>2023-11-25T13:10:12Z</time>
      </trkpt>
      <trkpt lat="49.84459" lon="2.26376">
        <ele>101.6</ele>
        <time>2023-11-25T13:10:13Z</time>
      </trkpt>
      <trkpt lat="49.84458" lon="2.26375">
        <ele>101.7</ele>
        <time>2023-11-25T13:10:14Z</time>
      </trkpt>
      <trkpt lat="49.84457" lon="2.26374">
        <ele>101.7</ele>
        <time>2023-11-25T13:10:16Z</time>
      </trkpt>
      <trkpt lat="49.84456" lon="2.26373">
        <ele>101.7</ele>
        <time>2023-11-25T13:10:17Z</time>
      </trkpt>
      <trkpt lat="49.84455" lon="2.26372">
        <ele>101.7</ele>
        <time>2023-11-25T13:10:18Z</time>
      </trkpt>
      <trkpt lat="49.84454" lon="2.26371">
        <ele>101.7</ele>
        <time>2023-11-25T13:10:19Z</time>
      </trkpt>
      <trkpt lat="49.84454" lon="2.26371">
        <ele>101.7</ele>
        <time>2023-11-25T13:10:20Z</time>
      </trkpt>
      <trkpt lat="49.84453" lon="2.2637">
        <ele>101.7</ele>
        <time>2023-11-25T13:10:22Z</time>
      </trkpt>
      <trkpt lat="49.84452" lon="2.2637">
        <ele>101.7</ele>
        <time>2023-11-25T13:10:23Z</time>
      </trkpt>
      <trkpt lat="49.84451" lon="2.26369">
        <ele>101.7</ele>
        <time>2023-11-25T13:10:24Z</time>
      </trkpt>
      <trkpt lat="49.8445" lon="2.26369">
        <ele>101.8</ele>
        <time>2023-11-25T13:10:25Z</time>
      </trkpt>
      <trkpt lat="49.84449" lon="2.26368">
        <ele>101.8</ele>
        <time>2023-11-25T13:10:26Z</time>
      </trkpt>
      <trkpt lat="49.84448" lon="2.26368">
        <ele>101.8</ele>
        <time>2023-11-25T13:10:27Z</time>
      </trkpt>
      <trkpt lat="49.84447" lon="2.26367">
        <ele>101.8</ele>
        <time>2023-11-25T13:10:28Z</time>
      </trkpt>
      <trkpt lat="49.84446" lon="2.26367">
        <ele>101.8</ele>
        <time>2023-11-25T13:10:30Z</time>
      </trkpt>
      <trkpt lat="49.84445" lon="2.26366">
        <ele>101.8</ele>
        <time>2023-11-25T13:10:31Z</time>
      </trkpt>
      <trkpt lat="49.84444" lon="2.26366">
        <ele>101.8</ele>
        <time>2023-11-25T13:10:32Z</time>
      </trkpt>
      <trkpt lat="49.84443" lon="2.26365">
        <ele>101.8</ele>
        <time>2023-11-25T13:10:33Z</time>
      </trkpt>
      <trkpt lat="49.84442" lon="2.26365">
        <ele>101.8</ele>
        <time>2023-11-25T13:10:34Z</time>
      </trkpt>
      <trkpt lat="49.84441" lon="2.26364">
        <ele>101.8</ele>
        <time>2023-11-25T13:10:35Z</time>
      </trkpt>
      <trkpt lat="49.8444" lon="2.26363">
        <ele>101.9</ele>
        <time>2023-11-25T13:10:37Z</time>
      </trkpt>
      <trkpt lat="49.84439" lon="2.26363">
        <ele>101.9</ele>
        <time>2023-11-25T13:10:38Z</time>
      </trkpt>
      <trkpt lat="49.84438" lon="2.26363">
        <ele>101.9</ele>
        <time>2023-11-25T13:10:39Z</time>
      </trkpt>
      <trkpt lat="49.84437" lon="2.26363">
        <ele>101.9</ele>
        <time>2023-11-25T13:10:40Z</time>
      </trkpt>
      <trkpt lat="49.84437" lon="2.26362">
        <ele>101.9</ele>
        <time>2023-11-25T13:10:41Z</time>
      </trkpt>
      <trkpt lat="49.84435" lon="2.26362">
        <ele>101.9</ele>
        <time>2023-11-25T13:10:42Z</time>
      </trkpt>
      <trkpt lat="49.84434" lon="2.26362">
        <ele>101.9</ele>
        <time>2023-11-25T13:10:43Z</time>
      </trkpt>
      <trkpt lat="49.84433" lon="2.26361">
        <ele>101.9</ele>
        <time>2023-11-25T13:10:44Z</time>
      </trkpt>
      <trkpt lat="49.84432" lon="2.26361">
        <ele>101.9</ele>
        <time>2023-11-25T13:10:46Z</time>
      </trkpt>
      <trkpt lat="49.84431" lon="2.2636">
        <ele>101.9</ele>
        <time>2023-11-25T13:10:47Z</time>
      </trkpt>
      <trkpt lat="49.8443" lon="2.2636">
        <ele>101.9</ele>
        <time>2023-11-25T13:10:48Z</time>
      </trkpt>
      <trkpt lat="49.84429" lon="2.2636">
        <ele>101.9</ele>
        <time>2023-11-25T13:10:49Z</time>
      </trkpt>
      <trkpt lat="49.84428" lon="2.2636">
        <ele>101.9</ele>
        <time>2023-11-25T13:10:50Z</time>
      </trkpt>
      <trkpt lat="49.84428" lon="2.26359">
        <ele>101.9</ele>
        <time>2023-11-25T13:10:52Z</time>
      </trkpt>
      <trkpt lat="49.84427" lon="2.26358">
        <ele>102</ele>
        <time>2023-11-25T13:10:53Z</time>
      </trkpt>
      <trkpt lat="49.84426" lon="2.26357">
        <ele>102</ele>
        <time>2023-11-25T13:10:54Z</time>
      </trkpt>
      <trkpt lat="49.84426" lon="2.26356">
        <ele>102</ele>
        <time>2023-11-25T13:10:55Z</time>
      </trkpt>
      <trkpt lat="49.84425" lon="2.26355">
        <ele>102</ele>
        <time>2023-11-25T13:10:56Z</time>
      </trkpt>
      <trkpt lat="49.84424" lon="2.26354">
        <ele>102</ele>
        <time>2023-11-25T13:10:57Z</time>
      </trkpt>
      <trkpt lat="49.84423" lon="2.26353">
        <ele>102</ele>
        <time>2023-11-25T13:10:59Z</time>
      </trkpt>
      <trkpt lat="49.84422" lon="2.26352">
        <ele>102</ele>
        <time>2023-11-25T13:11:00Z</time>
      </trkpt>
      <trkpt lat="49.84421" lon="2.26352">
        <ele>102</ele>
        <time>2023-11-25T13:11:01Z</time>
      </trkpt>
      <trkpt lat="49.8442" lon="2.26352">
        <ele>102</ele>
        <time>2023-11-25T13:11:02Z</time>
      </trkpt>
      <trkpt lat="49.84419" lon="2.26351">
        <ele>102</ele>
        <time>2023-11-25T13:11:03Z</time>
      </trkpt>
      <trkpt lat="49.84418" lon="2.2635">
        <ele>102</ele>
        <time>2023-11-25T13:11:05Z</time>
      </trkpt>
      <trkpt lat="49.84417" lon="2.2635">
        <ele>102</ele>
        <time>2023-11-25T13:11:06Z</time>
      </trkpt>
      <trkpt lat="49.84417" lon="2.26349">
        <ele>102</ele>
        <time>2023-11-25T13:11:07Z</time>
      </trkpt>
      <trkpt lat="49.84416" lon="2.26349">
        <ele>102</ele>
        <time>2023-11-25T13:11:08Z</time>
      </trkpt>
      <trkpt lat="49.84415" lon="2.26349">
        <ele>102</ele>
        <time>2023-11-25T13:11:09Z</time>
      </trkpt>
      <trkpt lat="49.84415" lon="2.26348">
        <ele>102</ele>
        <time>2023-11-25T13:11:10Z</time>
      </trkpt>
      <trkpt lat="49.84414" lon="2.26347">
        <ele>102</ele>
        <time>2023-11-25T13:11:12Z</time>
      </trkpt>
      <trkpt lat="49.84413" lon="2.26346">
        <ele>102</ele>
        <time>2023-11-25T13:11:13Z</time>
      </trkpt>
      <trkpt lat="49.84412" lon="2.26345">
        <ele>102</ele>
        <time>2023-11-25T13:11:14Z</time>
      </trkpt>
      <trkpt lat="49.84411" lon="2.26343">
        <ele>102.1</ele>
        <time>2023-11-25T13:11:15Z</time>
      </trkpt>
      <trkpt lat="49.8441" lon="2.26342">
        <ele>102.1</ele>
        <time>2023-11-25T13:11:16Z</time>
      </trkpt>
      <trkpt lat="49.8441" lon="2.26341">
        <ele>102.1</ele>
        <time>2023-11-25T13:11:18Z</time>
      </trkpt>
      <trkpt lat="49.84409" lon="2.2634">
        <ele>102.1</ele>
        <time>2023-11-25T13:11:19Z</time>
      </trkpt>
      <trkpt lat="49.84408" lon="2.26338">
        <ele>102.1</ele>
        <time>2023-11-25T13:11:20Z</time>
      </trkpt>
      <trkpt lat="49.84407" lon="2.26337">
        <ele>102.1</ele>
        <time>2023-11-25T13:11:21Z</time>
      </trkpt>
      <trkpt lat="49.84406" lon="2.26336">
        <ele>102.1</ele>
        <time>2023-11-25T13:11:22Z</time>
      </trkpt>
      <trkpt lat="49.84405" lon="2.26335">
        <ele>102.1</ele>
        <time>2023-11-25T13:11:23Z</time>
      </trkpt>
      <trkpt lat="49.84404" lon="2.26334">
        <ele>102.1</ele>
        <time>2023-11-25T13:11:25Z</time>
      </trkpt>
      <trkpt lat="49.84402" lon="2.26334">
        <ele>102.1</ele>
        <time>2023-11-25T13:11:26Z</time>
      </trkpt>
      <trkpt lat="49.84401" lon="2.26333">
        <ele>102.1</ele>
        <time>2023-11-25T13:11:27Z</time>
      </trkpt>
      <trkpt lat="49.844" lon="2.26333">
        <ele>102.1</ele>
        <time>2023-11-25T13:11:28Z</time>
      </trkpt>
      <trkpt lat="49.84399" lon="2.26333">
        <ele>102.1</ele>
        <time>2023-11-25T13:11:29Z</time>
      </trkpt>
      <trkpt lat="49.84398" lon="2.26332">
        <ele>102.1</ele>
        <time>2023-11-25T13:11:30Z</time>
      </trkpt>
      <trkpt lat="49.84397" lon="2.26332">
        <ele>102.1</ele>
        <time>2023-11-25T13:11:31Z</time>
      </trkpt>
      <trkpt lat="49.84394" lon="2.26332">
        <ele>102.1</ele>
        <time>2023-11-25T13:11:32Z</time>
      </trkpt>
      <trkpt lat="49.84394" lon="2.26332">
        <ele>102.1</ele>
        <time>2023-11-25T13:11:33Z</time>
      </trkpt>
      <trkpt lat="49.84393" lon="2.26331">
        <ele>102.1</ele>
        <time>2023-11-25T13:11:34Z</time>
      </trkpt>
      <trkpt lat="49.84391" lon="2.26331">
        <ele>102.1</ele>
        <time>2023-11-25T13:11:36Z</time>
      </trkpt>
      <trkpt lat="49.84389" lon="2.2633">
        <ele>102.2</ele>
        <time>2023-11-25T13:11:37Z</time>
      </trkpt>
      <trkpt lat="49.84388" lon="2.2633">
        <ele>102.2</ele>
        <time>2023-11-25T13:11:39Z</time>
      </trkpt>
      <trkpt lat="49.84386" lon="2.26329">
        <ele>102.2</ele>
        <time>2023-11-25T13:11:40Z</time>
      </trkpt>
      <trkpt lat="49.84385" lon="2.26328">
        <ele>102.2</ele>
        <time>2023-11-25T13:11:41Z</time>
      </trkpt>
      <trkpt lat="49.84384" lon="2.26327">
        <ele>102.2</ele>
        <time>2023-11-25T13:11:42Z</time>
      </trkpt>
      <trkpt lat="49.84383" lon="2.26327">
        <ele>102.2</ele>
        <time>2023-11-25T13:11:43Z</time>
      </trkpt>
      <trkpt lat="49.84381" lon="2.26326">
        <ele>102.2</ele>
        <time>2023-11-25T13:11:45Z</time>
      </trkpt>
      <trkpt lat="49.8438" lon="2.26325">
        <ele>102.2</ele>
        <time>2023-11-25T13:11:46Z</time>
      </trkpt>
      <trkpt lat="49.84379" lon="2.26324">
        <ele>102.2</ele>
        <time>2023-11-25T13:11:47Z</time>
      </trkpt>
      <trkpt lat="49.84378" lon="2.26324">
        <ele>102.2</ele>
        <time>2023-11-25T13:11:48Z</time>
      </trkpt>
      <trkpt lat="49.84377" lon="2.26323">
        <ele>102.2</ele>
        <time>2023-11-25T13:11:49Z</time>
      </trkpt>
      <trkpt lat="49.84376" lon="2.26322">
        <ele>102.3</ele>
        <time>2023-11-25T13:11:50Z</time>
      </trkpt>
      <trkpt lat="49.84376" lon="2.26321">
        <ele>102.3</ele>
        <time>2023-11-25T13:11:52Z</time>
      </trkpt>
      <trkpt lat="49.84376" lon="2.26318">
        <ele>102.3</ele>
        <time>2023-11-25T13:11:53Z</time>
      </trkpt>
      <trkpt lat="49.84377" lon="2.26316">
        <ele>102.3</ele>
        <time>2023-11-25T13:11:55Z</time>
      </trkpt>
      <trkpt lat="49.84377" lon="2.26315">
        <ele>102.3</ele>
        <time>2023-11-25T13:11:56Z</time>
      </trkpt>
      <trkpt lat="49.84377" lon="2.26315">
        <ele>102.2</ele>
        <time>2023-11-25T13:11:58Z</time>
      </trkpt>
      <trkpt lat="49.84378" lon="2.26315">
        <ele>102.2</ele>
        <time>2023-11-25T13:11:59Z</time>
      </trkpt>
      <trkpt lat="49.84378" lon="2.26316">
        <ele>102.2</ele>
        <time>2023-11-25T13:12:01Z</time>
      </trkpt>
      <trkpt lat="49.84378" lon="2.26316">
        <ele>102.2</ele>
        <time>2023-11-25T13:12:02Z</time>
      </trkpt>
      <trkpt lat="49.84378" lon="2.26316">
        <ele>102.2</ele>
        <time>2023-11-25T13:12:03Z</time>
      </trkpt>
      <trkpt lat="49.84378" lon="2.26316">
        <ele>102.2</ele>
        <time>2023-11-25T13:12:05Z</time>
      </trkpt>
      <trkpt lat="49.84378" lon="2.26315">
        <ele>102.2</ele>
        <time>2023-11-25T13:12:07Z</time>
      </trkpt>
      <trkpt lat="49.84379" lon="2.26315">
        <ele>102.2</ele>
        <time>2023-11-25T13:12:09Z</time>
      </trkpt>
      <trkpt lat="49.84379" lon="2.26315">
        <ele>102.2</ele>
        <time>2023-11-25T13:12:10Z</time>
      </trkpt>
      <trkpt lat="49.84379" lon="2.26315">
        <ele>102.1</ele>
        <time>2023-11-25T13:12:12Z</time>
      </trkpt>
      <trkpt lat="49.84379" lon="2.26316">
        <ele>102.1</ele>
        <time>2023-11-25T13:12:26Z</time>
      </trkpt>
      <trkpt lat="49.8438" lon="2.26316">
        <ele>102</ele>
        <time>2023-11-25T13:12:28Z</time>
      </trkpt>
      <trkpt lat="49.84381" lon="2.26317">
        <ele>102</ele>
        <time>2023-11-25T13:12:29Z</time>
      </trkpt>
      <trkpt lat="49.84381" lon="2.26317">
        <ele>102</ele>
        <time>2023-11-25T13:12:30Z</time>
      </trkpt>
      <trkpt lat="49.84381" lon="2.26317">
        <ele>102</ele>
        <time>2023-11-25T13:12:32Z</time>
      </trkpt>
      <trkpt lat="49.84382" lon="2.26317">
        <ele>101.9</ele>
        <time>2023-11-25T13:12:33Z</time>
      </trkpt>
      <trkpt lat="49.84382" lon="2.26317">
        <ele>101.9</ele>
        <time>2023-11-25T13:12:34Z</time>
      </trkpt>
      <trkpt lat="49.84383" lon="2.26317">
        <ele>101.9</ele>
        <time>2023-11-25T13:12:35Z</time>
      </trkpt>
      <trkpt lat="49.84384" lon="2.26316">
        <ele>101.8</ele>
        <time>2023-11-25T13:12:36Z</time>
      </trkpt>
      <trkpt lat="49.84385" lon="2.26315">
        <ele>101.7</ele>
        <time>2023-11-25T13:12:37Z</time>
      </trkpt>
      <trkpt lat="49.84386" lon="2.26313">
        <ele>101.7</ele>
        <time>2023-11-25T13:12:38Z</time>
      </trkpt>
      <trkpt lat="49.84386" lon="2.26312">
        <ele>101.6</ele>
        <time>2023-11-25T13:12:39Z</time>
      </trkpt>
      <trkpt lat="49.84387" lon="2.2631">
        <ele>101.5</ele>
        <time>2023-11-25T13:12:41Z</time>
      </trkpt>
      <trkpt lat="49.84388" lon="2.26308">
        <ele>101.4</ele>
        <time>2023-11-25T13:12:42Z</time>
      </trkpt>
      <trkpt lat="49.8439" lon="2.26307">
        <ele>101.4</ele>
        <time>2023-11-25T13:12:43Z</time>
      </trkpt>
      <trkpt lat="49.8439" lon="2.26306">
        <ele>101.3</ele>
        <time>2023-11-25T13:12:44Z</time>
      </trkpt>
      <trkpt lat="49.84391" lon="2.26305">
        <ele>101.3</ele>
        <time>2023-11-25T13:12:45Z</time>
      </trkpt>
      <trkpt lat="49.84392" lon="2.26304">
        <ele>101.2</ele>
        <time>2023-11-25T13:12:46Z</time>
      </trkpt>
      <trkpt lat="49.84392" lon="2.26303">
        <ele>101.2</ele>
        <time>2023-11-25T13:12:48Z</time>
      </trkpt>
      <trkpt lat="49.84394" lon="2.26301">
        <ele>101</ele>
        <time>2023-11-25T13:12:49Z</time>
      </trkpt>
      <trkpt lat="49.84394" lon="2.263">
        <ele>101</ele>
        <time>2023-11-25T13:12:50Z</time>
      </trkpt>
      <trkpt lat="49.84395" lon="2.26299">
        <ele>101</ele>
        <time>2023-11-25T13:12:51Z</time>
      </trkpt>
      <trkpt lat="49.84396" lon="2.26296">
        <ele>100.8</ele>
        <time>2023-11-25T13:12:52Z</time>
      </trkpt>
      <trkpt lat="49.84397" lon="2.26295">
        <ele>100.8</ele>
        <time>2023-11-25T13:12:54Z</time>
      </trkpt>
      <trkpt lat="49.84397" lon="2.26294">
        <ele>100.7</ele>
        <time>2023-11-25T13:12:55Z</time>
      </trkpt>
      <trkpt lat="49.84398" lon="2.26292">
        <ele>100.7</ele>
        <time>2023-11-25T13:12:56Z</time>
      </trkpt>
      <trkpt lat="49.84399" lon="2.2629">
        <ele>100.6</ele>
        <time>2023-11-25T13:12:57Z</time>
      </trkpt>
      <trkpt lat="49.844" lon="2.26289">
        <ele>100.5</ele>
        <time>2023-11-25T13:12:58Z</time>
      </trkpt>
      <trkpt lat="49.84401" lon="2.26287">
        <ele>100.4</ele>
        <time>2023-11-25T13:12:59Z</time>
      </trkpt>
      <trkpt lat="49.84402" lon="2.26285">
        <ele>100.4</ele>
        <time>2023-11-25T13:13:01Z</time>
      </trkpt>
      <trkpt lat="49.84403" lon="2.26284">
        <ele>100.3</ele>
        <time>2023-11-25T13:13:02Z</time>
      </trkpt>
      <trkpt lat="49.84404" lon="2.26282">
        <ele>100.2</ele>
        <time>2023-11-25T13:13:03Z</time>
      </trkpt>
      <trkpt lat="49.84404" lon="2.26281">
        <ele>100.2</ele>
        <time>2023-11-25T13:13:04Z</time>
      </trkpt>
      <trkpt lat="49.84405" lon="2.2628">
        <ele>100.1</ele>
        <time>2023-11-25T13:13:05Z</time>
      </trkpt>
      <trkpt lat="49.84406" lon="2.26278">
        <ele>100.1</ele>
        <time>2023-11-25T13:13:07Z</time>
      </trkpt>
      <trkpt lat="49.84406" lon="2.26277">
        <ele>100</ele>
        <time>2023-11-25T13:13:08Z</time>
      </trkpt>
      <trkpt lat="49.84407" lon="2.26275">
        <ele>100</ele>
        <time>2023-11-25T13:13:09Z</time>
      </trkpt>
      <trkpt lat="49.84407" lon="2.26274">
        <ele>99.9</ele>
        <time>2023-11-25T13:13:10Z</time>
      </trkpt>
      <trkpt lat="49.84408" lon="2.26272">
        <ele>99.9</ele>
        <time>2023-11-25T13:13:11Z</time>
      </trkpt>
      <trkpt lat="49.84408" lon="2.26271">
        <ele>99.8</ele>
        <time>2023-11-25T13:13:12Z</time>
      </trkpt>
      <trkpt lat="49.84409" lon="2.26269">
        <ele>99.8</ele>
        <time>2023-11-25T13:13:14Z</time>
      </trkpt>
      <trkpt lat="49.84409" lon="2.26267">
        <ele>99.7</ele>
        <time>2023-11-25T13:13:15Z</time>
      </trkpt>
      <trkpt lat="49.8441" lon="2.26266">
        <ele>99.6</ele>
        <time>2023-11-25T13:13:16Z</time>
      </trkpt>
      <trkpt lat="49.8441" lon="2.26264">
        <ele>99.6</ele>
        <time>2023-11-25T13:13:17Z</time>
      </trkpt>
      <trkpt lat="49.84411" lon="2.26262">
        <ele>99.5</ele>
        <time>2023-11-25T13:13:18Z</time>
      </trkpt>
      <trkpt lat="49.84411" lon="2.26261">
        <ele>99.5</ele>
        <time>2023-11-25T13:13:19Z</time>
      </trkpt>
      <trkpt lat="49.84412" lon="2.26259">
        <ele>99.4</ele>
        <time>2023-11-25T13:13:20Z</time>
      </trkpt>
      <trkpt lat="49.84413" lon="2.26256">
        <ele>99.3</ele>
        <time>2023-11-25T13:13:22Z</time>
      </trkpt>
      <trkpt lat="49.84414" lon="2.26255">
        <ele>99.3</ele>
        <time>2023-11-25T13:13:23Z</time>
      </trkpt>
      <trkpt lat="49.84414" lon="2.26254">
        <ele>99.2</ele>
        <time>2023-11-25T13:13:24Z</time>
      </trkpt>
      <trkpt lat="49.84415" lon="2.26252">
        <ele>99.2</ele>
        <time>2023-11-25T13:13:25Z</time>
      </trkpt>
      <trkpt lat="49.84416" lon="2.2625">
        <ele>99.1</ele>
        <time>2023-11-25T13:13:26Z</time>
      </trkpt>
      <trkpt lat="49.84417" lon="2.26249">
        <ele>99.1</ele>
        <time>2023-11-25T13:13:28Z</time>
      </trkpt>
      <trkpt lat="49.84417" lon="2.26248">
        <ele>99</ele>
        <time>2023-11-25T13:13:29Z</time>
      </trkpt>
      <trkpt lat="49.84418" lon="2.26247">
        <ele>99</ele>
        <time>2023-11-25T13:13:30Z</time>
      </trkpt>
      <trkpt lat="49.84419" lon="2.26246">
        <ele>98.9</ele>
        <time>2023-11-25T13:13:31Z</time>
      </trkpt>
      <trkpt lat="49.8442" lon="2.26244">
        <ele>98.9</ele>
        <time>2023-11-25T13:13:32Z</time>
      </trkpt>
      <trkpt lat="49.84421" lon="2.26243">
        <ele>98.8</ele>
        <time>2023-11-25T13:13:33Z</time>
      </trkpt>
      <trkpt lat="49.84422" lon="2.26242">
        <ele>98.7</ele>
        <time>2023-11-25T13:13:34Z</time>
      </trkpt>
      <trkpt lat="49.84423" lon="2.2624">
        <ele>98.7</ele>
        <time>2023-11-25T13:13:36Z</time>
      </trkpt>
      <trkpt lat="49.84424" lon="2.26239">
        <ele>98.6</ele>
        <time>2023-11-25T13:13:37Z</time>
      </trkpt>
      <trkpt lat="49.84424" lon="2.26238">
        <ele>98.6</ele>
        <time>2023-11-25T13:13:38Z</time>
      </trkpt>
      <trkpt lat="49.84425" lon="2.26236">
        <ele>98.5</ele>
        <time>2023-11-25T13:13:39Z</time>
      </trkpt>
      <trkpt lat="49.84426" lon="2.26235">
        <ele>98.5</ele>
        <time>2023-11-25T13:13:40Z</time>
      </trkpt>
      <trkpt lat="49.84427" lon="2.26234">
        <ele>98.4</ele>
        <time>2023-11-25T13:13:41Z</time>
      </trkpt>
      <trkpt lat="49.84428" lon="2.26233">
        <ele>98.3</ele>
        <time>2023-11-25T13:13:42Z</time>
      </trkpt>
      <trkpt lat="49.84429" lon="2.26232">
        <ele>98.3</ele>
        <time>2023-11-25T13:13:44Z</time>
      </trkpt>
      <trkpt lat="49.8443" lon="2.2623">
        <ele>98.2</ele>
        <time>2023-11-25T13:13:45Z</time>
      </trkpt>
      <trkpt lat="49.8443" lon="2.26229">
        <ele>98.2</ele>
        <time>2023-11-25T13:13:46Z</time>
      </trkpt>
      <trkpt lat="49.84431" lon="2.26228">
        <ele>98.1</ele>
        <time>2023-11-25T13:13:47Z</time>
      </trkpt>
      <trkpt lat="49.84432" lon="2.26226">
        <ele>98.1</ele>
        <time>2023-11-25T13:13:48Z</time>
      </trkpt>
      <trkpt lat="49.84433" lon="2.26225">
        <ele>98</ele>
        <time>2023-11-25T13:13:50Z</time>
      </trkpt>
      <trkpt lat="49.84433" lon="2.26224">
        <ele>98</ele>
        <time>2023-11-25T13:13:51Z</time>
      </trkpt>
      <trkpt lat="49.84434" lon="2.26222">
        <ele>97.9</ele>
        <time>2023-11-25T13:13:52Z</time>
      </trkpt>
      <trkpt lat="49.84435" lon="2.26221">
        <ele>97.9</ele>
        <time>2023-11-25T13:13:53Z</time>
      </trkpt>
      <trkpt lat="49.84436" lon="2.2622">
        <ele>97.8</ele>
        <time>2023-11-25T13:13:54Z</time>
      </trkpt>
      <trkpt lat="49.84436" lon="2.26219">
        <ele>97.8</ele>
        <time>2023-11-25T13:13:55Z</time>
      </trkpt>
      <trkpt lat="49.84437" lon="2.26217">
        <ele>97.7</ele>
        <time>2023-11-25T13:13:57Z</time>
      </trkpt>
      <trkpt lat="49.84438" lon="2.26216">
        <ele>97.6</ele>
        <time>2023-11-25T13:13:58Z</time>
      </trkpt>
      <trkpt lat="49.84439" lon="2.26214">
        <ele>97.6</ele>
        <time>2023-11-25T13:13:59Z</time>
      </trkpt>
      <trkpt lat="49.8444" lon="2.26213">
        <ele>97.5</ele>
        <time>2023-11-25T13:14:00Z</time>
      </trkpt>
      <trkpt lat="49.8444" lon="2.26212">
        <ele>97.5</ele>
        <time>2023-11-25T13:14:01Z</time>
      </trkpt>
      <trkpt lat="49.84441" lon="2.2621">
        <ele>97.4</ele>
        <time>2023-11-25T13:14:02Z</time>
      </trkpt>
      <trkpt lat="49.84442" lon="2.26209">
        <ele>97.4</ele>
        <time>2023-11-25T13:14:04Z</time>
      </trkpt>
      <trkpt lat="49.84442" lon="2.26207">
        <ele>97.3</ele>
        <time>2023-11-25T13:14:05Z</time>
      </trkpt>
      <trkpt lat="49.84444" lon="2.26205">
        <ele>97.2</ele>
        <time>2023-11-25T13:14:06Z</time>
      </trkpt>
      <trkpt lat="49.84444" lon="2.26204">
        <ele>97.2</ele>
        <time>2023-11-25T13:14:07Z</time>
      </trkpt>
      <trkpt lat="49.84445" lon="2.26203">
        <ele>97.1</ele>
        <time>2023-11-25T13:14:08Z</time>
      </trkpt>
      <trkpt lat="49.84445" lon="2.26201">
        <ele>97.1</ele>
        <time>2023-11-25T13:14:09Z</time>
      </trkpt>
      <trkpt lat="49.84446" lon="2.262">
        <ele>97</ele>
        <time>2023-11-25T13:14:10Z</time>
      </trkpt>
      <trkpt lat="49.84447" lon="2.26199">
        <ele>97</ele>
        <time>2023-11-25T13:14:12Z</time>
      </trkpt>
      <trkpt lat="49.84447" lon="2.26197">
        <ele>96.9</ele>
        <time>2023-11-25T13:14:13Z</time>
      </trkpt>
      <trkpt lat="49.84448" lon="2.26195">
        <ele>96.9</ele>
        <time>2023-11-25T13:14:14Z</time>
      </trkpt>
      <trkpt lat="49.84449" lon="2.26194">
        <ele>96.8</ele>
        <time>2023-11-25T13:14:15Z</time>
      </trkpt>
      <trkpt lat="49.8445" lon="2.26191">
        <ele>96.7</ele>
        <time>2023-11-25T13:14:16Z</time>
      </trkpt>
      <trkpt lat="49.8445" lon="2.2619">
        <ele>96.6</ele>
        <time>2023-11-25T13:14:17Z</time>
      </trkpt>
      <trkpt lat="49.84451" lon="2.26189">
        <ele>96.6</ele>
        <time>2023-11-25T13:14:19Z</time>
      </trkpt>
      <trkpt lat="49.84452" lon="2.26188">
        <ele>96.5</ele>
        <time>2023-11-25T13:14:20Z</time>
      </trkpt>
      <trkpt lat="49.84452" lon="2.26187">
        <ele>96.5</ele>
        <time>2023-11-25T13:14:21Z</time>
      </trkpt>
      <trkpt lat="49.84453" lon="2.26185">
        <ele>96.5</ele>
        <time>2023-11-25T13:14:22Z</time>
      </trkpt>
      <trkpt lat="49.84454" lon="2.26184">
        <ele>96.4</ele>
        <time>2023-11-25T13:14:23Z</time>
      </trkpt>
      <trkpt lat="49.84454" lon="2.26183">
        <ele>96.4</ele>
        <time>2023-11-25T13:14:24Z</time>
      </trkpt>
      <trkpt lat="49.84455" lon="2.26182">
        <ele>96.3</ele>
        <time>2023-11-25T13:14:25Z</time>
      </trkpt>
      <trkpt lat="49.84456" lon="2.2618">
        <ele>96.2</ele>
        <time>2023-11-25T13:14:26Z</time>
      </trkpt>
      <trkpt lat="49.84457" lon="2.26179">
        <ele>96.2</ele>
        <time>2023-11-25T13:14:28Z</time>
      </trkpt>
      <trkpt lat="49.84457" lon="2.26178">
        <ele>96.1</ele>
        <time>2023-11-25T13:14:29Z</time>
      </trkpt>
      <trkpt lat="49.84458" lon="2.26176">
        <ele>96.1</ele>
        <time>2023-11-25T13:14:30Z</time>
      </trkpt>
      <trkpt lat="49.84459" lon="2.26175">
        <ele>96</ele>
        <time>2023-11-25T13:14:31Z</time>
      </trkpt>
      <trkpt lat="49.8446" lon="2.26174">
        <ele>95.9</ele>
        <time>2023-11-25T13:14:32Z</time>
      </trkpt>
      <trkpt lat="49.84461" lon="2.26173">
        <ele>95.9</ele>
        <time>2023-11-25T13:14:33Z</time>
      </trkpt>
      <trkpt lat="49.84462" lon="2.26172">
        <ele>95.8</ele>
        <time>2023-11-25T13:14:34Z</time>
      </trkpt>
      <trkpt lat="49.84463" lon="2.2617">
        <ele>95.8</ele>
        <time>2023-11-25T13:14:35Z</time>
      </trkpt>
      <trkpt lat="49.84464" lon="2.26169">
        <ele>95.7</ele>
        <time>2023-11-25T13:14:37Z</time>
      </trkpt>
      <trkpt lat="49.84465" lon="2.26168">
        <ele>95.7</ele>
        <time>2023-11-25T13:14:38Z</time>
      </trkpt>
      <trkpt lat="49.84466" lon="2.26165">
        <ele>95.6</ele>
        <time>2023-11-25T13:14:39Z</time>
      </trkpt>
      <trkpt lat="49.84467" lon="2.26164">
        <ele>95.5</ele>
        <time>2023-11-25T13:14:40Z</time>
      </trkpt>
      <trkpt lat="49.84467" lon="2.26164">
        <ele>95.5</ele>
        <time>2023-11-25T13:14:41Z</time>
      </trkpt>
      <trkpt lat="49.84468" lon="2.26162">
        <ele>95.4</ele>
        <time>2023-11-25T13:14:42Z</time>
      </trkpt>
      <trkpt lat="49.84469" lon="2.26161">
        <ele>95.4</ele>
        <time>2023-11-25T13:14:43Z</time>
      </trkpt>
      <trkpt lat="49.8447" lon="2.2616">
        <ele>95.3</ele>
        <time>2023-11-25T13:14:44Z</time>
      </trkpt>
      <trkpt lat="49.84472" lon="2.26158">
        <ele>95.2</ele>
        <time>2023-11-25T13:14:45Z</time>
      </trkpt>
      <trkpt lat="49.84472" lon="2.26157">
        <ele>95.2</ele>
        <time>2023-11-25T13:14:47Z</time>
      </trkpt>
      <trkpt lat="49.84473" lon="2.26157">
        <ele>95.2</ele>
        <time>2023-11-25T13:14:48Z</time>
      </trkpt>
      <trkpt lat="49.84474" lon="2.26156">
        <ele>95.1</ele>
        <time>2023-11-25T13:14:49Z</time>
      </trkpt>
      <trkpt lat="49.84475" lon="2.26155">
        <ele>95.1</ele>
        <time>2023-11-25T13:14:50Z</time>
      </trkpt>
      <trkpt lat="49.84476" lon="2.26153">
        <ele>95</ele>
        <time>2023-11-25T13:14:51Z</time>
      </trkpt>
      <trkpt lat="49.84477" lon="2.26152">
        <ele>94.9</ele>
        <time>2023-11-25T13:14:52Z</time>
      </trkpt>
      <trkpt lat="49.84477" lon="2.26151">
        <ele>94.9</ele>
        <time>2023-11-25T13:14:53Z</time>
      </trkpt>
      <trkpt lat="49.84478" lon="2.26149">
        <ele>94.9</ele>
        <time>2023-11-25T13:14:54Z</time>
      </trkpt>
      <trkpt lat="49.84479" lon="2.26147">
        <ele>94.8</ele>
        <time>2023-11-25T13:14:55Z</time>
      </trkpt>
      <trkpt lat="49.8448" lon="2.26146">
        <ele>94.7</ele>
        <time>2023-11-25T13:14:57Z</time>
      </trkpt>
      <trkpt lat="49.8448" lon="2.26145">
        <ele>94.7</ele>
        <time>2023-11-25T13:14:58Z</time>
      </trkpt>
      <trkpt lat="49.84482" lon="2.26142">
        <ele>94.6</ele>
        <time>2023-11-25T13:14:59Z</time>
      </trkpt>
      <trkpt lat="49.84482" lon="2.26141">
        <ele>94.6</ele>
        <time>2023-11-25T13:15:00Z</time>
      </trkpt>
      <trkpt lat="49.84483" lon="2.2614">
        <ele>94.5</ele>
        <time>2023-11-25T13:15:01Z</time>
      </trkpt>
      <trkpt lat="49.84483" lon="2.26139">
        <ele>94.5</ele>
        <time>2023-11-25T13:15:02Z</time>
      </trkpt>
      <trkpt lat="49.84484" lon="2.26137">
        <ele>94.4</ele>
        <time>2023-11-25T13:15:03Z</time>
      </trkpt>
      <trkpt lat="49.84485" lon="2.26136">
        <ele>94.4</ele>
        <time>2023-11-25T13:15:04Z</time>
      </trkpt>
      <trkpt lat="49.84486" lon="2.26133">
        <ele>94.3</ele>
        <time>2023-11-25T13:15:05Z</time>
      </trkpt>
      <trkpt lat="49.84487" lon="2.26132">
        <ele>94.3</ele>
        <time>2023-11-25T13:15:07Z</time>
      </trkpt>
      <trkpt lat="49.84487" lon="2.26131">
        <ele>94.2</ele>
        <time>2023-11-25T13:15:08Z</time>
      </trkpt>
      <trkpt lat="49.84488" lon="2.26129">
        <ele>94.2</ele>
        <time>2023-11-25T13:15:09Z</time>
      </trkpt>
      <trkpt lat="49.84489" lon="2.26128">
        <ele>94.1</ele>
        <time>2023-11-25T13:15:10Z</time>
      </trkpt>
      <trkpt lat="49.84489" lon="2.26126">
        <ele>94.1</ele>
        <time>2023-11-25T13:15:11Z</time>
      </trkpt>
      <trkpt lat="49.8449" lon="2.26125">
        <ele>94.1</ele>
        <time>2023-11-25T13:15:12Z</time>
      </trkpt>
      <trkpt lat="49.84491" lon="2.26123">
        <ele>94</ele>
        <time>2023-11-25T13:15:13Z</time>
      </trkpt>
      <trkpt lat="49.84492" lon="2.2612">
        <ele>94</ele>
        <time>2023-11-25T13:15:15Z</time>
      </trkpt>
      <trkpt lat="49.84492" lon="2.26119">
        <ele>93.9</ele>
        <time>2023-11-25T13:15:16Z</time>
      </trkpt>
      <trkpt lat="49.84493" lon="2.26118">
        <ele>93.9</ele>
        <time>2023-11-25T13:15:17Z</time>
      </trkpt>
      <trkpt lat="49.84494" lon="2.26115">
        <ele>93.8</ele>
        <time>2023-11-25T13:15:18Z</time>
      </trkpt>
      <trkpt lat="49.84494" lon="2.26114">
        <ele>93.8</ele>
        <time>2023-11-25T13:15:19Z</time>
      </trkpt>
      <trkpt lat="49.84494" lon="2.26113">
        <ele>93.8</ele>
        <time>2023-11-25T13:15:20Z</time>
      </trkpt>
      <trkpt lat="49.84496" lon="2.26111">
        <ele>93.7</ele>
        <time>2023-11-25T13:15:21Z</time>
      </trkpt>
      <trkpt lat="49.84497" lon="2.2611">
        <ele>93.7</ele>
        <time>2023-11-25T13:15:22Z</time>
      </trkpt>
      <trkpt lat="49.84497" lon="2.26109">
        <ele>93.6</ele>
        <time>2023-11-25T13:15:24Z</time>
      </trkpt>
      <trkpt lat="49.84498" lon="2.26107">
        <ele>93.6</ele>
        <time>2023-11-25T13:15:25Z</time>
      </trkpt>
      <trkpt lat="49.84499" lon="2.26106">
        <ele>93.6</ele>
        <time>2023-11-25T13:15:26Z</time>
      </trkpt>
      <trkpt lat="49.845" lon="2.26105">
        <ele>93.5</ele>
        <time>2023-11-25T13:15:27Z</time>
      </trkpt>
      <trkpt lat="49.84501" lon="2.26104">
        <ele>93.5</ele>
        <time>2023-11-25T13:15:28Z</time>
      </trkpt>
      <trkpt lat="49.84501" lon="2.26102">
        <ele>93.5</ele>
        <time>2023-11-25T13:15:29Z</time>
      </trkpt>
      <trkpt lat="49.84502" lon="2.26101">
        <ele>93.4</ele>
        <time>2023-11-25T13:15:30Z</time>
      </trkpt>
      <trkpt lat="49.84503" lon="2.26099">
        <ele>93.3</ele>
        <time>2023-11-25T13:15:31Z</time>
      </trkpt>
      <trkpt lat="49.84504" lon="2.26098">
        <ele>93.3</ele>
        <time>2023-11-25T13:15:33Z</time>
      </trkpt>
      <trkpt lat="49.84505" lon="2.26097">
        <ele>93.3</ele>
        <time>2023-11-25T13:15:34Z</time>
      </trkpt>
      <trkpt lat="49.84506" lon="2.26095">
        <ele>93.2</ele>
        <time>2023-11-25T13:15:35Z</time>
      </trkpt>
      <trkpt lat="49.84507" lon="2.26094">
        <ele>93.1</ele>
        <time>2023-11-25T13:15:36Z</time>
      </trkpt>
      <trkpt lat="49.84507" lon="2.26093">
        <ele>93.1</ele>
        <time>2023-11-25T13:15:37Z</time>
      </trkpt>
      <trkpt lat="49.84508" lon="2.26091">
        <ele>93.1</ele>
        <time>2023-11-25T13:15:38Z</time>
      </trkpt>
      <trkpt lat="49.84509" lon="2.2609">
        <ele>93</ele>
        <time>2023-11-25T13:15:39Z</time>
      </trkpt>
      <trkpt lat="49.8451" lon="2.26089">
        <ele>93</ele>
        <time>2023-11-25T13:15:40Z</time>
      </trkpt>
      <trkpt lat="49.84511" lon="2.26087">
        <ele>92.9</ele>
        <time>2023-11-25T13:15:41Z</time>
      </trkpt>
      <trkpt lat="49.84511" lon="2.26086">
        <ele>92.8</ele>
        <time>2023-11-25T13:15:43Z</time>
      </trkpt>
      <trkpt lat="49.84512" lon="2.26085">
        <ele>92.8</ele>
        <time>2023-11-25T13:15:44Z</time>
      </trkpt>
      <trkpt lat="49.84513" lon="2.26082">
        <ele>92.7</ele>
        <time>2023-11-25T13:15:45Z</time>
      </trkpt>
      <trkpt lat="49.84514" lon="2.26081">
        <ele>92.6</ele>
        <time>2023-11-25T13:15:46Z</time>
      </trkpt>
      <trkpt lat="49.84514" lon="2.26079">
        <ele>92.6</ele>
        <time>2023-11-25T13:15:47Z</time>
      </trkpt>
      <trkpt lat="49.84515" lon="2.26077">
        <ele>92.5</ele>
        <time>2023-11-25T13:15:48Z</time>
      </trkpt>
      <trkpt lat="49.84516" lon="2.26076">
        <ele>92.4</ele>
        <time>2023-11-25T13:15:49Z</time>
      </trkpt>
      <trkpt lat="49.84516" lon="2.26075">
        <ele>92.4</ele>
        <time>2023-11-25T13:15:50Z</time>
      </trkpt>
      <trkpt lat="49.84517" lon="2.26073">
        <ele>92.3</ele>
        <time>2023-11-25T13:15:51Z</time>
      </trkpt>
      <trkpt lat="49.84518" lon="2.26072">
        <ele>92.3</ele>
        <time>2023-11-25T13:15:53Z</time>
      </trkpt>
      <trkpt lat="49.84518" lon="2.26071">
        <ele>92.2</ele>
        <time>2023-11-25T13:15:54Z</time>
      </trkpt>
      <trkpt lat="49.8452" lon="2.26068">
        <ele>92.1</ele>
        <time>2023-11-25T13:15:55Z</time>
      </trkpt>
      <trkpt lat="49.8452" lon="2.26067">
        <ele>92.1</ele>
        <time>2023-11-25T13:15:56Z</time>
      </trkpt>
      <trkpt lat="49.84521" lon="2.26066">
        <ele>92</ele>
        <time>2023-11-25T13:15:57Z</time>
      </trkpt>
      <trkpt lat="49.84522" lon="2.26065">
        <ele>92</ele>
        <time>2023-11-25T13:15:58Z</time>
      </trkpt>
      <trkpt lat="49.84523" lon="2.26064">
        <ele>91.9</ele>
        <time>2023-11-25T13:15:59Z</time>
      </trkpt>
      <trkpt lat="49.84523" lon="2.26062">
        <ele>91.8</ele>
        <time>2023-11-25T13:16:00Z</time>
      </trkpt>
      <trkpt lat="49.84524" lon="2.26061">
        <ele>91.8</ele>
        <time>2023-11-25T13:16:01Z</time>
      </trkpt>
      <trkpt lat="49.84525" lon="2.2606">
        <ele>91.7</ele>
        <time>2023-11-25T13:16:02Z</time>
      </trkpt>
      <trkpt lat="49.84526" lon="2.26059">
        <ele>91.7</ele>
        <time>2023-11-25T13:16:04Z</time>
      </trkpt>
      <trkpt lat="49.84527" lon="2.26057">
        <ele>91.6</ele>
        <time>2023-11-25T13:16:05Z</time>
      </trkpt>
      <trkpt lat="49.84528" lon="2.26056">
        <ele>91.5</ele>
        <time>2023-11-25T13:16:06Z</time>
      </trkpt>
      <trkpt lat="49.84529" lon="2.26053">
        <ele>91.4</ele>
        <time>2023-11-25T13:16:07Z</time>
      </trkpt>
      <trkpt lat="49.8453" lon="2.26053">
        <ele>91.4</ele>
        <time>2023-11-25T13:16:09Z</time>
      </trkpt>
      <trkpt lat="49.8453" lon="2.26052">
        <ele>91.3</ele>
        <time>2023-11-25T13:16:10Z</time>
      </trkpt>
      <trkpt lat="49.84532" lon="2.26049">
        <ele>91.2</ele>
        <time>2023-11-25T13:16:11Z</time>
      </trkpt>
      <trkpt lat="49.84532" lon="2.26049">
        <ele>91.2</ele>
        <time>2023-11-25T13:16:12Z</time>
      </trkpt>
      <trkpt lat="49.84533" lon="2.26048">
        <ele>91.1</ele>
        <time>2023-11-25T13:16:13Z</time>
      </trkpt>
      <trkpt lat="49.84534" lon="2.26046">
        <ele>91.1</ele>
        <time>2023-11-25T13:16:14Z</time>
      </trkpt>
      <trkpt lat="49.84534" lon="2.26044">
        <ele>91</ele>
        <time>2023-11-25T13:16:15Z</time>
      </trkpt>
      <trkpt lat="49.84535" lon="2.26043">
        <ele>90.9</ele>
        <time>2023-11-25T13:16:17Z</time>
      </trkpt>
      <trkpt lat="49.84536" lon="2.26042">
        <ele>90.9</ele>
        <time>2023-11-25T13:16:18Z</time>
      </trkpt>
      <trkpt lat="49.84537" lon="2.2604">
        <ele>90.8</ele>
        <time>2023-11-25T13:16:19Z</time>
      </trkpt>
      <trkpt lat="49.84537" lon="2.26039">
        <ele>90.8</ele>
        <time>2023-11-25T13:16:20Z</time>
      </trkpt>
      <trkpt lat="49.84539" lon="2.26036">
        <ele>90.7</ele>
        <time>2023-11-25T13:16:21Z</time>
      </trkpt>
      <trkpt lat="49.84539" lon="2.26035">
        <ele>90.6</ele>
        <time>2023-11-25T13:16:22Z</time>
      </trkpt>
      <trkpt lat="49.8454" lon="2.26034">
        <ele>90.6</ele>
        <time>2023-11-25T13:16:23Z</time>
      </trkpt>
      <trkpt lat="49.84541" lon="2.26032">
        <ele>90.5</ele>
        <time>2023-11-25T13:16:24Z</time>
      </trkpt>
      <trkpt lat="49.84542" lon="2.26031">
        <ele>90.5</ele>
        <time>2023-11-25T13:16:25Z</time>
      </trkpt>
      <trkpt lat="49.84542" lon="2.2603">
        <ele>90.4</ele>
        <time>2023-11-25T13:16:27Z</time>
      </trkpt>
      <trkpt lat="49.84544" lon="2.26027">
        <ele>90.3</ele>
        <time>2023-11-25T13:16:28Z</time>
      </trkpt>
      <trkpt lat="49.84544" lon="2.26026">
        <ele>90.2</ele>
        <time>2023-11-25T13:16:29Z</time>
      </trkpt>
      <trkpt lat="49.84545" lon="2.26025">
        <ele>90.2</ele>
        <time>2023-11-25T13:16:30Z</time>
      </trkpt>
      <trkpt lat="49.84546" lon="2.26024">
        <ele>90.1</ele>
        <time>2023-11-25T13:16:31Z</time>
      </trkpt>
      <trkpt lat="49.84547" lon="2.26023">
        <ele>90</ele>
        <time>2023-11-25T13:16:32Z</time>
      </trkpt>
      <trkpt lat="49.84549" lon="2.26021">
        <ele>89.9</ele>
        <time>2023-11-25T13:16:33Z</time>
      </trkpt>
      <trkpt lat="49.8455" lon="2.2602">
        <ele>89.8</ele>
        <time>2023-11-25T13:16:35Z</time>
      </trkpt>
      <trkpt lat="49.8455" lon="2.26019">
        <ele>89.8</ele>
        <time>2023-11-25T13:16:36Z</time>
      </trkpt>
      <trkpt lat="49.84551" lon="2.26018">
        <ele>89.7</ele>
        <time>2023-11-25T13:16:37Z</time>
      </trkpt>
      <trkpt lat="49.84552" lon="2.26017">
        <ele>89.6</ele>
        <time>2023-11-25T13:16:38Z</time>
      </trkpt>
      <trkpt lat="49.84554" lon="2.26016">
        <ele>89.6</ele>
        <time>2023-11-25T13:16:39Z</time>
      </trkpt>
      <trkpt lat="49.84555" lon="2.26015">
        <ele>89.4</ele>
        <time>2023-11-25T13:16:40Z</time>
      </trkpt>
      <trkpt lat="49.84556" lon="2.26014">
        <ele>89.4</ele>
        <time>2023-11-25T13:16:41Z</time>
      </trkpt>
      <trkpt lat="49.84557" lon="2.26014">
        <ele>89.3</ele>
        <time>2023-11-25T13:16:42Z</time>
      </trkpt>
      <trkpt lat="49.84558" lon="2.26013">
        <ele>89.2</ele>
        <time>2023-11-25T13:16:43Z</time>
      </trkpt>
      <trkpt lat="49.84559" lon="2.26013">
        <ele>89.2</ele>
        <time>2023-11-25T13:16:44Z</time>
      </trkpt>
      <trkpt lat="49.84561" lon="2.26012">
        <ele>89</ele>
        <time>2023-11-25T13:16:46Z</time>
      </trkpt>
      <trkpt lat="49.84562" lon="2.26011">
        <ele>88.9</ele>
        <time>2023-11-25T13:16:47Z</time>
      </trkpt>
      <trkpt lat="49.84563" lon="2.2601">
        <ele>88.9</ele>
        <time>2023-11-25T13:16:48Z</time>
      </trkpt>
      <trkpt lat="49.84564" lon="2.2601">
        <ele>88.8</ele>
        <time>2023-11-25T13:16:50Z</time>
      </trkpt>
      <trkpt lat="49.84566" lon="2.26009">
        <ele>88.6</ele>
        <time>2023-11-25T13:16:51Z</time>
      </trkpt>
      <trkpt lat="49.84567" lon="2.26008">
        <ele>88.5</ele>
        <time>2023-11-25T13:16:52Z</time>
      </trkpt>
      <trkpt lat="49.84569" lon="2.26007">
        <ele>88.4</ele>
        <time>2023-11-25T13:16:53Z</time>
      </trkpt>
      <trkpt lat="49.8457" lon="2.26006">
        <ele>88.3</ele>
        <time>2023-11-25T13:16:54Z</time>
      </trkpt>
      <trkpt lat="49.8457" lon="2.26006">
        <ele>88.3</ele>
        <time>2023-11-25T13:16:55Z</time>
      </trkpt>
      <trkpt lat="49.84571" lon="2.26005">
        <ele>88.2</ele>
        <time>2023-11-25T13:16:56Z</time>
      </trkpt>
      <trkpt lat="49.84572" lon="2.26004">
        <ele>88.1</ele>
        <time>2023-11-25T13:16:57Z</time>
      </trkpt>
      <trkpt lat="49.84574" lon="2.26003">
        <ele>88</ele>
        <time>2023-11-25T13:16:58Z</time>
      </trkpt>
      <trkpt lat="49.84576" lon="2.26003">
        <ele>87.8</ele>
        <time>2023-11-25T13:17:00Z</time>
      </trkpt>
      <trkpt lat="49.84576" lon="2.26002">
        <ele>87.8</ele>
        <time>2023-11-25T13:17:01Z</time>
      </trkpt>
      <trkpt lat="49.84577" lon="2.26002">
        <ele>87.7</ele>
        <time>2023-11-25T13:17:02Z</time>
      </trkpt>
      <trkpt lat="49.84578" lon="2.26001">
        <ele>87.6</ele>
        <time>2023-11-25T13:17:03Z</time>
      </trkpt>
      <trkpt lat="49.8458" lon="2.26">
        <ele>87.5</ele>
        <time>2023-11-25T13:17:04Z</time>
      </trkpt>
      <trkpt lat="49.84581" lon="2.25999">
        <ele>87.4</ele>
        <time>2023-11-25T13:17:05Z</time>
      </trkpt>
      <trkpt lat="49.84582" lon="2.25999">
        <ele>87.3</ele>
        <time>2023-11-25T13:17:06Z</time>
      </trkpt>
      <trkpt lat="49.84584" lon="2.25998">
        <ele>87.2</ele>
        <time>2023-11-25T13:17:08Z</time>
      </trkpt>
      <trkpt lat="49.84585" lon="2.25996">
        <ele>87.1</ele>
        <time>2023-11-25T13:17:09Z</time>
      </trkpt>
      <trkpt lat="49.84586" lon="2.25995">
        <ele>87</ele>
        <time>2023-11-25T13:17:10Z</time>
      </trkpt>
      <trkpt lat="49.84587" lon="2.25994">
        <ele>87</ele>
        <time>2023-11-25T13:17:11Z</time>
      </trkpt>
      <trkpt lat="49.84588" lon="2.25993">
        <ele>86.8</ele>
        <time>2023-11-25T13:17:12Z</time>
      </trkpt>
      <trkpt lat="49.84589" lon="2.25991">
        <ele>86.8</ele>
        <time>2023-11-25T13:17:13Z</time>
      </trkpt>
      <trkpt lat="49.8459" lon="2.2599">
        <ele>86.7</ele>
        <time>2023-11-25T13:17:14Z</time>
      </trkpt>
      <trkpt lat="49.84591" lon="2.25988">
        <ele>86.5</ele>
        <time>2023-11-25T13:17:15Z</time>
      </trkpt>
      <trkpt lat="49.84593" lon="2.25987">
        <ele>86.4</ele>
        <time>2023-11-25T13:17:17Z</time>
      </trkpt>
      <trkpt lat="49.84594" lon="2.25986">
        <ele>86.3</ele>
        <time>2023-11-25T13:17:18Z</time>
      </trkpt>
      <trkpt lat="49.84595" lon="2.25984">
        <ele>86.2</ele>
        <time>2023-11-25T13:17:19Z</time>
      </trkpt>
      <trkpt lat="49.84596" lon="2.25983">
        <ele>86.1</ele>
        <time>2023-11-25T13:17:20Z</time>
      </trkpt>
      <trkpt lat="49.84597" lon="2.25982">
        <ele>86.1</ele>
        <time>2023-11-25T13:17:21Z</time>
      </trkpt>
      <trkpt lat="49.84598" lon="2.25981">
        <ele>86</ele>
        <time>2023-11-25T13:17:22Z</time>
      </trkpt>
      <trkpt lat="49.84599" lon="2.2598">
        <ele>85.9</ele>
        <time>2023-11-25T13:17:24Z</time>
      </trkpt>
      <trkpt lat="49.84601" lon="2.25978">
        <ele>85.8</ele>
        <time>2023-11-25T13:17:25Z</time>
      </trkpt>
      <trkpt lat="49.84602" lon="2.25978">
        <ele>85.7</ele>
        <time>2023-11-25T13:17:26Z</time>
      </trkpt>
      <trkpt lat="49.84603" lon="2.25977">
        <ele>85.7</ele>
        <time>2023-11-25T13:17:27Z</time>
      </trkpt>
      <trkpt lat="49.84605" lon="2.25976">
        <ele>85.5</ele>
        <time>2023-11-25T13:17:28Z</time>
      </trkpt>
      <trkpt lat="49.84605" lon="2.25975">
        <ele>85.5</ele>
        <time>2023-11-25T13:17:29Z</time>
      </trkpt>
      <trkpt lat="49.84606" lon="2.25975">
        <ele>85.4</ele>
        <time>2023-11-25T13:17:30Z</time>
      </trkpt>
      <trkpt lat="49.84607" lon="2.25974">
        <ele>85.3</ele>
        <time>2023-11-25T13:17:31Z</time>
      </trkpt>
      <trkpt lat="49.84609" lon="2.25973">
        <ele>85.3</ele>
        <time>2023-11-25T13:17:33Z</time>
      </trkpt>
      <trkpt lat="49.8461" lon="2.25972">
        <ele>85.2</ele>
        <time>2023-11-25T13:17:34Z</time>
      </trkpt>
      <trkpt lat="49.84611" lon="2.25971">
        <ele>85.1</ele>
        <time>2023-11-25T13:17:35Z</time>
      </trkpt>
      <trkpt lat="49.84612" lon="2.25971">
        <ele>85.1</ele>
        <time>2023-11-25T13:17:36Z</time>
      </trkpt>
      <trkpt lat="49.84614" lon="2.2597">
        <ele>84.9</ele>
        <time>2023-11-25T13:17:37Z</time>
      </trkpt>
      <trkpt lat="49.84615" lon="2.2597">
        <ele>84.9</ele>
        <time>2023-11-25T13:17:39Z</time>
      </trkpt>
      <trkpt lat="49.84616" lon="2.25969">
        <ele>84.8</ele>
        <time>2023-11-25T13:17:40Z</time>
      </trkpt>
      <trkpt lat="49.84617" lon="2.25969">
        <ele>84.7</ele>
        <time>2023-11-25T13:17:41Z</time>
      </trkpt>
      <trkpt lat="49.84618" lon="2.25968">
        <ele>84.7</ele>
        <time>2023-11-25T13:17:42Z</time>
      </trkpt>
      <trkpt lat="49.8462" lon="2.25967">
        <ele>84.6</ele>
        <time>2023-11-25T13:17:43Z</time>
      </trkpt>
      <trkpt lat="49.84621" lon="2.25967">
        <ele>84.5</ele>
        <time>2023-11-25T13:17:44Z</time>
      </trkpt>
      <trkpt lat="49.84622" lon="2.25966">
        <ele>84.4</ele>
        <time>2023-11-25T13:17:45Z</time>
      </trkpt>
      <trkpt lat="49.84623" lon="2.25966">
        <ele>84.4</ele>
        <time>2023-11-25T13:17:46Z</time>
      </trkpt>
      <trkpt lat="49.84624" lon="2.25965">
        <ele>84.3</ele>
        <time>2023-11-25T13:17:47Z</time>
      </trkpt>
      <trkpt lat="49.84626" lon="2.25964">
        <ele>84.2</ele>
        <time>2023-11-25T13:17:49Z</time>
      </trkpt>
      <trkpt lat="49.84627" lon="2.25963">
        <ele>84.1</ele>
        <time>2023-11-25T13:17:50Z</time>
      </trkpt>
      <trkpt lat="49.84627" lon="2.25962">
        <ele>84.1</ele>
        <time>2023-11-25T13:17:51Z</time>
      </trkpt>
      <trkpt lat="49.84629" lon="2.25961">
        <ele>84</ele>
        <time>2023-11-25T13:17:52Z</time>
      </trkpt>
      <trkpt lat="49.8463" lon="2.2596">
        <ele>83.9</ele>
        <time>2023-11-25T13:17:53Z</time>
      </trkpt>
      <trkpt lat="49.84631" lon="2.2596">
        <ele>83.9</ele>
        <time>2023-11-25T13:17:54Z</time>
      </trkpt>
      <trkpt lat="49.84632" lon="2.25959">
        <ele>83.8</ele>
        <time>2023-11-25T13:17:55Z</time>
      </trkpt>
      <trkpt lat="49.84632" lon="2.25958">
        <ele>83.7</ele>
        <time>2023-11-25T13:17:56Z</time>
      </trkpt>
      <trkpt lat="49.84633" lon="2.25957">
        <ele>83.7</ele>
        <time>2023-11-25T13:17:57Z</time>
      </trkpt>
      <trkpt lat="49.84635" lon="2.25956">
        <ele>83.6</ele>
        <time>2023-11-25T13:17:58Z</time>
      </trkpt>
      <trkpt lat="49.84636" lon="2.25955">
        <ele>83.5</ele>
        <time>2023-11-25T13:18:00Z</time>
      </trkpt>
      <trkpt lat="49.84637" lon="2.25954">
        <ele>83.4</ele>
        <time>2023-11-25T13:18:01Z</time>
      </trkpt>
      <trkpt lat="49.84639" lon="2.25953">
        <ele>83.3</ele>
        <time>2023-11-25T13:18:02Z</time>
      </trkpt>
      <trkpt lat="49.8464" lon="2.25952">
        <ele>83.3</ele>
        <time>2023-11-25T13:18:03Z</time>
      </trkpt>
      <trkpt lat="49.8464" lon="2.25952">
        <ele>83.2</ele>
        <time>2023-11-25T13:18:04Z</time>
      </trkpt>
      <trkpt lat="49.84642" lon="2.2595">
        <ele>83.1</ele>
        <time>2023-11-25T13:18:05Z</time>
      </trkpt>
      <trkpt lat="49.84643" lon="2.25949">
        <ele>83.1</ele>
        <time>2023-11-25T13:18:06Z</time>
      </trkpt>
      <trkpt lat="49.84643" lon="2.25949">
        <ele>83</ele>
        <time>2023-11-25T13:18:07Z</time>
      </trkpt>
      <trkpt lat="49.84645" lon="2.25946">
        <ele>82.9</ele>
        <time>2023-11-25T13:18:08Z</time>
      </trkpt>
      <trkpt lat="49.84646" lon="2.25946">
        <ele>82.8</ele>
        <time>2023-11-25T13:18:10Z</time>
      </trkpt>
      <trkpt lat="49.84647" lon="2.25945">
        <ele>82.8</ele>
        <time>2023-11-25T13:18:11Z</time>
      </trkpt>
      <trkpt lat="49.84648" lon="2.25943">
        <ele>82.7</ele>
        <time>2023-11-25T13:18:12Z</time>
      </trkpt>
      <trkpt lat="49.84649" lon="2.25942">
        <ele>82.6</ele>
        <time>2023-11-25T13:18:13Z</time>
      </trkpt>
      <trkpt lat="49.84651" lon="2.2594">
        <ele>82.5</ele>
        <time>2023-11-25T13:18:14Z</time>
      </trkpt>
      <trkpt lat="49.84651" lon="2.2594">
        <ele>82.5</ele>
        <time>2023-11-25T13:18:15Z</time>
      </trkpt>
      <trkpt lat="49.84652" lon="2.25939">
        <ele>82.4</ele>
        <time>2023-11-25T13:18:16Z</time>
      </trkpt>
      <trkpt lat="49.84654" lon="2.25937">
        <ele>82.3</ele>
        <time>2023-11-25T13:18:17Z</time>
      </trkpt>
      <trkpt lat="49.84655" lon="2.25937">
        <ele>82.3</ele>
        <time>2023-11-25T13:18:18Z</time>
      </trkpt>
      <trkpt lat="49.84656" lon="2.25936">
        <ele>82.2</ele>
        <time>2023-11-25T13:18:20Z</time>
      </trkpt>
      <trkpt lat="49.84657" lon="2.25935">
        <ele>82.2</ele>
        <time>2023-11-25T13:18:21Z</time>
      </trkpt>
      <trkpt lat="49.84657" lon="2.25934">
        <ele>82.1</ele>
        <time>2023-11-25T13:18:22Z</time>
      </trkpt>
      <trkpt lat="49.84658" lon="2.25934">
        <ele>82.1</ele>
        <time>2023-11-25T13:18:23Z</time>
      </trkpt>
      <trkpt lat="49.84659" lon="2.25932">
        <ele>82</ele>
        <time>2023-11-25T13:18:24Z</time>
      </trkpt>
      <trkpt lat="49.8466" lon="2.25931">
        <ele>81.9</ele>
        <time>2023-11-25T13:18:25Z</time>
      </trkpt>
      <trkpt lat="49.84661" lon="2.2593">
        <ele>81.9</ele>
        <time>2023-11-25T13:18:26Z</time>
      </trkpt>
      <trkpt lat="49.84662" lon="2.25929">
        <ele>81.8</ele>
        <time>2023-11-25T13:18:27Z</time>
      </trkpt>
      <trkpt lat="49.84663" lon="2.25929">
        <ele>81.8</ele>
        <time>2023-11-25T13:18:28Z</time>
      </trkpt>
      <trkpt lat="49.84664" lon="2.25928">
        <ele>81.7</ele>
        <time>2023-11-25T13:18:30Z</time>
      </trkpt>
      <trkpt lat="49.84665" lon="2.25927">
        <ele>81.7</ele>
        <time>2023-11-25T13:18:31Z</time>
      </trkpt>
      <trkpt lat="49.84666" lon="2.25926">
        <ele>81.6</ele>
        <time>2023-11-25T13:18:32Z</time>
      </trkpt>
      <trkpt lat="49.84667" lon="2.25926">
        <ele>81.6</ele>
        <time>2023-11-25T13:18:33Z</time>
      </trkpt>
      <trkpt lat="49.84669" lon="2.25924">
        <ele>81.4</ele>
        <time>2023-11-25T13:18:34Z</time>
      </trkpt>
      <trkpt lat="49.8467" lon="2.25924">
        <ele>81.4</ele>
        <time>2023-11-25T13:18:35Z</time>
      </trkpt>
      <trkpt lat="49.84671" lon="2.25923">
        <ele>81.4</ele>
        <time>2023-11-25T13:18:36Z</time>
      </trkpt>
      <trkpt lat="49.84672" lon="2.25923">
        <ele>81.3</ele>
        <time>2023-11-25T13:18:37Z</time>
      </trkpt>
      <trkpt lat="49.84673" lon="2.25922">
        <ele>81.3</ele>
        <time>2023-11-25T13:18:38Z</time>
      </trkpt>
      <trkpt lat="49.84674" lon="2.25921">
        <ele>81.2</ele>
        <time>2023-11-25T13:18:39Z</time>
      </trkpt>
      <trkpt lat="49.84675" lon="2.2592">
        <ele>81.1</ele>
        <time>2023-11-25T13:18:41Z</time>
      </trkpt>
      <trkpt lat="49.84676" lon="2.2592">
        <ele>81.1</ele>
        <time>2023-11-25T13:18:42Z</time>
      </trkpt>
      <trkpt lat="49.84677" lon="2.25919">
        <ele>81</ele>
        <time>2023-11-25T13:18:43Z</time>
      </trkpt>
      <trkpt lat="49.84679" lon="2.25917">
        <ele>80.9</ele>
        <time>2023-11-25T13:18:44Z</time>
      </trkpt>
      <trkpt lat="49.8468" lon="2.25917">
        <ele>80.9</ele>
        <time>2023-11-25T13:18:45Z</time>
      </trkpt>
      <trkpt lat="49.84681" lon="2.25916">
        <ele>80.8</ele>
        <time>2023-11-25T13:18:46Z</time>
      </trkpt>
      <trkpt lat="49.84682" lon="2.25915">
        <ele>80.8</ele>
        <time>2023-11-25T13:18:47Z</time>
      </trkpt>
      <trkpt lat="49.84683" lon="2.25914">
        <ele>80.7</ele>
        <time>2023-11-25T13:18:48Z</time>
      </trkpt>
      <trkpt lat="49.84684" lon="2.25913">
        <ele>80.7</ele>
        <time>2023-11-25T13:18:49Z</time>
      </trkpt>
      <trkpt lat="49.84685" lon="2.25912">
        <ele>80.6</ele>
        <time>2023-11-25T13:18:51Z</time>
      </trkpt>
      <trkpt lat="49.84686" lon="2.25911">
        <ele>80.5</ele>
        <time>2023-11-25T13:18:52Z</time>
      </trkpt>
      <trkpt lat="49.84687" lon="2.2591">
        <ele>80.5</ele>
        <time>2023-11-25T13:18:53Z</time>
      </trkpt>
      <trkpt lat="49.84689" lon="2.25909">
        <ele>80.4</ele>
        <time>2023-11-25T13:18:54Z</time>
      </trkpt>
      <trkpt lat="49.8469" lon="2.25908">
        <ele>80.4</ele>
        <time>2023-11-25T13:18:55Z</time>
      </trkpt>
      <trkpt lat="49.8469" lon="2.25908">
        <ele>80.3</ele>
        <time>2023-11-25T13:18:56Z</time>
      </trkpt>
      <trkpt lat="49.84692" lon="2.25906">
        <ele>80.2</ele>
        <time>2023-11-25T13:18:57Z</time>
      </trkpt>
      <trkpt lat="49.84693" lon="2.25905">
        <ele>80.2</ele>
        <time>2023-11-25T13:18:58Z</time>
      </trkpt>
      <trkpt lat="49.84693" lon="2.25904">
        <ele>80.2</ele>
        <time>2023-11-25T13:18:59Z</time>
      </trkpt>
      <trkpt lat="49.84695" lon="2.25903">
        <ele>80.1</ele>
        <time>2023-11-25T13:19:00Z</time>
      </trkpt>
      <trkpt lat="49.84696" lon="2.25902">
        <ele>80.1</ele>
        <time>2023-11-25T13:19:02Z</time>
      </trkpt>
      <trkpt lat="49.84697" lon="2.25901">
        <ele>80</ele>
        <time>2023-11-25T13:19:03Z</time>
      </trkpt>
      <trkpt lat="49.84698" lon="2.259">
        <ele>79.9</ele>
        <time>2023-11-25T13:19:04Z</time>
      </trkpt>
      <trkpt lat="49.847" lon="2.25899">
        <ele>79.9</ele>
        <time>2023-11-25T13:19:05Z</time>
      </trkpt>
      <trkpt lat="49.84701" lon="2.25898">
        <ele>79.8</ele>
        <time>2023-11-25T13:19:06Z</time>
      </trkpt>
      <trkpt lat="49.84703" lon="2.25897">
        <ele>79.7</ele>
        <time>2023-11-25T13:19:07Z</time>
      </trkpt>
      <trkpt lat="49.84704" lon="2.25896">
        <ele>79.7</ele>
        <time>2023-11-25T13:19:08Z</time>
      </trkpt>
      <trkpt lat="49.84704" lon="2.25896">
        <ele>79.7</ele>
        <time>2023-11-25T13:19:09Z</time>
      </trkpt>
      <trkpt lat="49.84706" lon="2.25895">
        <ele>79.6</ele>
        <time>2023-11-25T13:19:11Z</time>
      </trkpt>
      <trkpt lat="49.84707" lon="2.25894">
        <ele>79.6</ele>
        <time>2023-11-25T13:19:12Z</time>
      </trkpt>
      <trkpt lat="49.84708" lon="2.25893">
        <ele>79.5</ele>
        <time>2023-11-25T13:19:13Z</time>
      </trkpt>
      <trkpt lat="49.8471" lon="2.25891">
        <ele>79.5</ele>
        <time>2023-11-25T13:19:14Z</time>
      </trkpt>
      <trkpt lat="49.84711" lon="2.2589">
        <ele>79.4</ele>
        <time>2023-11-25T13:19:15Z</time>
      </trkpt>
      <trkpt lat="49.84712" lon="2.25889">
        <ele>79.4</ele>
        <time>2023-11-25T13:19:16Z</time>
      </trkpt>
      <trkpt lat="49.84713" lon="2.25889">
        <ele>79.4</ele>
        <time>2023-11-25T13:19:17Z</time>
      </trkpt>
      <trkpt lat="49.84714" lon="2.25888">
        <ele>79.3</ele>
        <time>2023-11-25T13:19:18Z</time>
      </trkpt>
      <trkpt lat="49.84715" lon="2.25887">
        <ele>79.3</ele>
        <time>2023-11-25T13:19:19Z</time>
      </trkpt>
      <trkpt lat="49.84716" lon="2.25886">
        <ele>79.3</ele>
        <time>2023-11-25T13:19:20Z</time>
      </trkpt>
      <trkpt lat="49.84718" lon="2.25885">
        <ele>79.2</ele>
        <time>2023-11-25T13:19:22Z</time>
      </trkpt>
      <trkpt lat="49.84718" lon="2.25884">
        <ele>79.2</ele>
        <time>2023-11-25T13:19:23Z</time>
      </trkpt>
      <trkpt lat="49.84719" lon="2.25883">
        <ele>79.2</ele>
        <time>2023-11-25T13:19:24Z</time>
      </trkpt>
      <trkpt lat="49.8472" lon="2.25882">
        <ele>79.1</ele>
        <time>2023-11-25T13:19:25Z</time>
      </trkpt>
      <trkpt lat="49.84721" lon="2.25881">
        <ele>79.1</ele>
        <time>2023-11-25T13:19:26Z</time>
      </trkpt>
      <trkpt lat="49.84722" lon="2.2588">
        <ele>79.1</ele>
        <time>2023-11-25T13:19:27Z</time>
      </trkpt>
      <trkpt lat="49.84723" lon="2.2588">
        <ele>79.1</ele>
        <time>2023-11-25T13:19:28Z</time>
      </trkpt>
      <trkpt lat="49.84724" lon="2.25881">
        <ele>79.1</ele>
        <time>2023-11-25T13:19:30Z</time>
      </trkpt>
      <trkpt lat="49.84723" lon="2.25882">
        <ele>79.1</ele>
        <time>2023-11-25T13:19:31Z</time>
      </trkpt>
      <trkpt lat="49.84722" lon="2.25884">
        <ele>79</ele>
        <time>2023-11-25T13:19:33Z</time>
      </trkpt>
      <trkpt lat="49.84721" lon="2.25885">
        <ele>79</ele>
        <time>2023-11-25T13:19:34Z</time>
      </trkpt>
      <trkpt lat="49.8472" lon="2.25885">
        <ele>79</ele>
        <time>2023-11-25T13:19:36Z</time>
      </trkpt>
      <trkpt lat="49.8472" lon="2.25885">
        <ele>79</ele>
        <time>2023-11-25T13:19:37Z</time>
      </trkpt>
      <trkpt lat="49.8472" lon="2.25884">
        <ele>79</ele>
        <time>2023-11-25T13:19:38Z</time>
      </trkpt>
      <trkpt lat="49.84721" lon="2.25883">
        <ele>79</ele>
        <time>2023-11-25T13:19:40Z</time>
      </trkpt>
      <trkpt lat="49.84722" lon="2.25883">
        <ele>79</ele>
        <time>2023-11-25T13:19:41Z</time>
      </trkpt>
      <trkpt lat="49.84723" lon="2.25882">
        <ele>78.9</ele>
        <time>2023-11-25T13:19:42Z</time>
      </trkpt>
      <trkpt lat="49.84724" lon="2.25881">
        <ele>78.9</ele>
        <time>2023-11-25T13:19:44Z</time>
      </trkpt>
      <trkpt lat="49.84725" lon="2.2588">
        <ele>78.9</ele>
        <time>2023-11-25T13:19:45Z</time>
      </trkpt>
      <trkpt lat="49.84726" lon="2.25879">
        <ele>78.9</ele>
        <time>2023-11-25T13:19:46Z</time>
      </trkpt>
      <trkpt lat="49.84727" lon="2.25878">
        <ele>78.9</ele>
        <time>2023-11-25T13:19:47Z</time>
      </trkpt>
      <trkpt lat="49.84728" lon="2.25877">
        <ele>78.9</ele>
        <time>2023-11-25T13:19:49Z</time>
      </trkpt>
      <trkpt lat="49.84729" lon="2.25876">
        <ele>78.8</ele>
        <time>2023-11-25T13:19:50Z</time>
      </trkpt>
      <trkpt lat="49.8473" lon="2.25874">
        <ele>78.8</ele>
        <time>2023-11-25T13:19:51Z</time>
      </trkpt>
      <trkpt lat="49.8473" lon="2.25874">
        <ele>78.8</ele>
        <time>2023-11-25T13:19:52Z</time>
      </trkpt>
      <trkpt lat="49.8473" lon="2.25873">
        <ele>78.8</ele>
        <time>2023-11-25T13:19:54Z</time>
      </trkpt>
      <trkpt lat="49.8473" lon="2.25873">
        <ele>78.8</ele>
        <time>2023-11-25T13:19:55Z</time>
      </trkpt>
      <trkpt lat="49.8473" lon="2.25872">
        <ele>78.8</ele>
        <time>2023-11-25T13:19:56Z</time>
      </trkpt>
      <trkpt lat="49.8473" lon="2.25872">
        <ele>78.8</ele>
        <time>2023-11-25T13:19:57Z</time>
      </trkpt>
      <trkpt lat="49.8473" lon="2.25871">
        <ele>78.8</ele>
        <time>2023-11-25T13:19:59Z</time>
      </trkpt>
      <trkpt lat="49.8473" lon="2.25871">
        <ele>78.8</ele>
        <time>2023-11-25T13:20:00Z</time>
      </trkpt>
      <trkpt lat="49.8473" lon="2.2587">
        <ele>78.8</ele>
        <time>2023-11-25T13:20:02Z</time>
      </trkpt>
      <trkpt lat="49.8473" lon="2.2587">
        <ele>78.8</ele>
        <time>2023-11-25T13:20:03Z</time>
      </trkpt>
      <trkpt lat="49.8473" lon="2.25869">
        <ele>78.8</ele>
        <time>2023-11-25T13:20:04Z</time>
      </trkpt>
      <trkpt lat="49.84731" lon="2.25869">
        <ele>78.7</ele>
        <time>2023-11-25T13:20:06Z</time>
      </trkpt>
      <trkpt lat="49.84731" lon="2.25868">
        <ele>78.7</ele>
        <time>2023-11-25T13:20:07Z</time>
      </trkpt>
      <trkpt lat="49.84731" lon="2.25868">
        <ele>78.7</ele>
        <time>2023-11-25T13:20:09Z</time>
      </trkpt>
      <trkpt lat="49.84731" lon="2.25867">
        <ele>78.7</ele>
        <time>2023-11-25T13:20:10Z</time>
      </trkpt>
      <trkpt lat="49.84731" lon="2.25867">
        <ele>78.7</ele>
        <time>2023-11-25T13:20:24Z</time>
      </trkpt>
      <trkpt lat="49.84731" lon="2.25866">
        <ele>78.7</ele>
        <time>2023-11-25T13:20:26Z</time>
      </trkpt>
      <trkpt lat="49.84731" lon="2.25866">
        <ele>78.7</ele>
        <time>2023-11-25T13:20:27Z</time>
      </trkpt>
      <trkpt lat="49.84731" lon="2.25865">
        <ele>78.7</ele>
        <time>2023-11-25T13:20:28Z</time>
      </trkpt>
      <trkpt lat="49.84732" lon="2.25863">
        <ele>78.7</ele>
        <time>2023-11-25T13:20:29Z</time>
      </trkpt>
      <trkpt lat="49.84732" lon="2.25861">
        <ele>78.6</ele>
        <time>2023-11-25T13:20:30Z</time>
      </trkpt>
      <trkpt lat="49.84732" lon="2.25858">
        <ele>78.5</ele>
        <time>2023-11-25T13:20:32Z</time>
      </trkpt>
      <trkpt lat="49.84732" lon="2.25856">
        <ele>78.5</ele>
        <time>2023-11-25T13:20:33Z</time>
      </trkpt>
      <trkpt lat="49.84732" lon="2.25854">
        <ele>78.4</ele>
        <time>2023-11-25T13:20:34Z</time>
      </trkpt>
      <trkpt lat="49.84732" lon="2.25852">
        <ele>78.4</ele>
        <time>2023-11-25T13:20:35Z</time>
      </trkpt>
      <trkpt lat="49.84732" lon="2.25849">
        <ele>78.3</ele>
        <time>2023-11-25T13:20:36Z</time>
      </trkpt>
      <trkpt lat="49.84732" lon="2.25847">
        <ele>78.3</ele>
        <time>2023-11-25T13:20:37Z</time>
      </trkpt>
      <trkpt lat="49.84732" lon="2.25843">
        <ele>78.2</ele>
        <time>2023-11-25T13:20:39Z</time>
      </trkpt>
      <trkpt lat="49.84731" lon="2.25842">
        <ele>78.1</ele>
        <time>2023-11-25T13:20:40Z</time>
      </trkpt>
      <trkpt lat="49.84731" lon="2.25841">
        <ele>78.1</ele>
        <time>2023-11-25T13:20:41Z</time>
      </trkpt>
      <trkpt lat="49.84731" lon="2.25839">
        <ele>78</ele>
        <time>2023-11-25T13:20:42Z</time>
      </trkpt>
      <trkpt lat="49.84731" lon="2.25837">
        <ele>78</ele>
        <time>2023-11-25T13:20:43Z</time>
      </trkpt>
      <trkpt lat="49.8473" lon="2.25834">
        <ele>77.9</ele>
        <time>2023-11-25T13:20:44Z</time>
      </trkpt>
      <trkpt lat="49.8473" lon="2.25832">
        <ele>77.9</ele>
        <time>2023-11-25T13:20:45Z</time>
      </trkpt>
      <trkpt lat="49.8473" lon="2.25828">
        <ele>77.8</ele>
        <time>2023-11-25T13:20:46Z</time>
      </trkpt>
      <trkpt lat="49.8473" lon="2.25827">
        <ele>77.7</ele>
        <time>2023-11-25T13:20:48Z</time>
      </trkpt>
      <trkpt lat="49.8473" lon="2.25825">
        <ele>77.7</ele>
        <time>2023-11-25T13:20:49Z</time>
      </trkpt>
      <trkpt lat="49.8473" lon="2.25823">
        <ele>77.7</ele>
        <time>2023-11-25T13:20:50Z</time>
      </trkpt>
      <trkpt lat="49.8473" lon="2.25822">
        <ele>77.6</ele>
        <time>2023-11-25T13:20:51Z</time>
      </trkpt>
      <trkpt lat="49.8473" lon="2.25819">
        <ele>77.5</ele>
        <time>2023-11-25T13:20:52Z</time>
      </trkpt>
      <trkpt lat="49.8473" lon="2.25817">
        <ele>77.5</ele>
        <time>2023-11-25T13:20:53Z</time>
      </trkpt>
      <trkpt lat="49.8473" lon="2.25816">
        <ele>77.5</ele>
        <time>2023-11-25T13:20:54Z</time>
      </trkpt>
      <trkpt lat="49.84729" lon="2.25813">
        <ele>77.4</ele>
        <time>2023-11-25T13:20:55Z</time>
      </trkpt>
      <trkpt lat="49.84729" lon="2.25812">
        <ele>77.4</ele>
        <time>2023-11-25T13:20:57Z</time>
      </trkpt>
      <trkpt lat="49.84729" lon="2.2581">
        <ele>77.3</ele>
        <time>2023-11-25T13:20:58Z</time>
      </trkpt>
      <trkpt lat="49.84729" lon="2.25809">
        <ele>77.3</ele>
        <time>2023-11-25T13:20:59Z</time>
      </trkpt>
      <trkpt lat="49.84728" lon="2.25807">
        <ele>77.3</ele>
        <time>2023-11-25T13:21:00Z</time>
      </trkpt>
      <trkpt lat="49.84728" lon="2.25805">
        <ele>77.2</ele>
        <time>2023-11-25T13:21:01Z</time>
      </trkpt>
      <trkpt lat="49.84728" lon="2.25802">
        <ele>77.1</ele>
        <time>2023-11-25T13:21:02Z</time>
      </trkpt>
      <trkpt lat="49.84728" lon="2.25801">
        <ele>77.1</ele>
        <time>2023-11-25T13:21:03Z</time>
      </trkpt>
      <trkpt lat="49.84728" lon="2.25799">
        <ele>77.1</ele>
        <time>2023-11-25T13:21:04Z</time>
      </trkpt>
      <trkpt lat="49.84727" lon="2.25796">
        <ele>77</ele>
        <time>2023-11-25T13:21:05Z</time>
      </trkpt>
      <trkpt lat="49.84727" lon="2.25795">
        <ele>77</ele>
        <time>2023-11-25T13:21:07Z</time>
      </trkpt>
      <trkpt lat="49.84727" lon="2.25794">
        <ele>76.9</ele>
        <time>2023-11-25T13:21:08Z</time>
      </trkpt>
      <trkpt lat="49.84727" lon="2.25792">
        <ele>76.9</ele>
        <time>2023-11-25T13:21:09Z</time>
      </trkpt>
      <trkpt lat="49.84726" lon="2.2579">
        <ele>76.9</ele>
        <time>2023-11-25T13:21:10Z</time>
      </trkpt>
      <trkpt lat="49.84726" lon="2.25788">
        <ele>76.8</ele>
        <time>2023-11-25T13:21:11Z</time>
      </trkpt>
      <trkpt lat="49.84726" lon="2.25787">
        <ele>76.8</ele>
        <time>2023-11-25T13:21:12Z</time>
      </trkpt>
      <trkpt lat="49.84726" lon="2.25785">
        <ele>76.7</ele>
        <time>2023-11-25T13:21:13Z</time>
      </trkpt>
      <trkpt lat="49.84726" lon="2.25783">
        <ele>76.7</ele>
        <time>2023-11-25T13:21:14Z</time>
      </trkpt>
      <trkpt lat="49.84726" lon="2.25781">
        <ele>76.7</ele>
        <time>2023-11-25T13:21:15Z</time>
      </trkpt>
      <trkpt lat="49.84726" lon="2.25779">
        <ele>76.6</ele>
        <time>2023-11-25T13:21:17Z</time>
      </trkpt>
      <trkpt lat="49.84725" lon="2.25777">
        <ele>76.6</ele>
        <time>2023-11-25T13:21:18Z</time>
      </trkpt>
      <trkpt lat="49.84725" lon="2.25775">
        <ele>76.5</ele>
        <time>2023-11-25T13:21:19Z</time>
      </trkpt>
      <trkpt lat="49.84725" lon="2.25773">
        <ele>76.5</ele>
        <time>2023-11-25T13:21:20Z</time>
      </trkpt>
      <trkpt lat="49.84724" lon="2.2577">
        <ele>76.4</ele>
        <time>2023-11-25T13:21:21Z</time>
      </trkpt>
      <trkpt lat="49.84724" lon="2.25768">
        <ele>76.4</ele>
        <time>2023-11-25T13:21:23Z</time>
      </trkpt>
      <trkpt lat="49.84724" lon="2.25767">
        <ele>76.4</ele>
        <time>2023-11-25T13:21:24Z</time>
      </trkpt>
      <trkpt lat="49.84724" lon="2.25765">
        <ele>76.3</ele>
        <time>2023-11-25T13:21:25Z</time>
      </trkpt>
      <trkpt lat="49.84724" lon="2.25763">
        <ele>76.3</ele>
        <time>2023-11-25T13:21:26Z</time>
      </trkpt>
      <trkpt lat="49.84723" lon="2.2576">
        <ele>76.2</ele>
        <time>2023-11-25T13:21:27Z</time>
      </trkpt>
      <trkpt lat="49.84723" lon="2.25759">
        <ele>76.2</ele>
        <time>2023-11-25T13:21:28Z</time>
      </trkpt>
      <trkpt lat="49.84723" lon="2.25758">
        <ele>76.2</ele>
        <time>2023-11-25T13:21:29Z</time>
      </trkpt>
      <trkpt lat="49.84723" lon="2.25754">
        <ele>76.1</ele>
        <time>2023-11-25T13:21:30Z</time>
      </trkpt>
      <trkpt lat="49.84723" lon="2.25753">
        <ele>76.1</ele>
        <time>2023-11-25T13:21:32Z</time>
      </trkpt>
      <trkpt lat="49.84723" lon="2.25752">
        <ele>76.1</ele>
        <time>2023-11-25T13:21:33Z</time>
      </trkpt>
      <trkpt lat="49.84722" lon="2.25749">
        <ele>76</ele>
        <time>2023-11-25T13:21:34Z</time>
      </trkpt>
      <trkpt lat="49.84722" lon="2.25747">
        <ele>76</ele>
        <time>2023-11-25T13:21:35Z</time>
      </trkpt>
      <trkpt lat="49.84722" lon="2.25746">
        <ele>76</ele>
        <time>2023-11-25T13:21:36Z</time>
      </trkpt>
      <trkpt lat="49.84722" lon="2.25744">
        <ele>75.9</ele>
        <time>2023-11-25T13:21:37Z</time>
      </trkpt>
      <trkpt lat="49.84721" lon="2.25742">
        <ele>75.9</ele>
        <time>2023-11-25T13:21:38Z</time>
      </trkpt>
      <trkpt lat="49.84721" lon="2.2574">
        <ele>75.9</ele>
        <time>2023-11-25T13:21:40Z</time>
      </trkpt>
      <trkpt lat="49.8472" lon="2.25738">
        <ele>75.8</ele>
        <time>2023-11-25T13:21:41Z</time>
      </trkpt>
      <trkpt lat="49.8472" lon="2.25736">
        <ele>75.8</ele>
        <time>2023-11-25T13:21:42Z</time>
      </trkpt>
      <trkpt lat="49.84719" lon="2.25733">
        <ele>75.7</ele>
        <time>2023-11-25T13:21:43Z</time>
      </trkpt>
      <trkpt lat="49.84719" lon="2.25732">
        <ele>75.7</ele>
        <time>2023-11-25T13:21:44Z</time>
      </trkpt>
      <trkpt lat="49.84719" lon="2.2573">
        <ele>75.6</ele>
        <time>2023-11-25T13:21:45Z</time>
      </trkpt>
      <trkpt lat="49.84719" lon="2.25728">
        <ele>75.6</ele>
        <time>2023-11-25T13:21:46Z</time>
      </trkpt>
      <trkpt lat="49.84718" lon="2.25726">
        <ele>75.6</ele>
        <time>2023-11-25T13:21:47Z</time>
      </trkpt>
      <trkpt lat="49.84718" lon="2.25724">
        <ele>75.5</ele>
        <time>2023-11-25T13:21:49Z</time>
      </trkpt>
      <trkpt lat="49.84717" lon="2.25723">
        <ele>75.5</ele>
        <time>2023-11-25T13:21:50Z</time>
      </trkpt>
      <trkpt lat="49.84717" lon="2.25721">
        <ele>75.4</ele>
        <time>2023-11-25T13:21:51Z</time>
      </trkpt>
      <trkpt lat="49.84717" lon="2.25719">
        <ele>75.4</ele>
        <time>2023-11-25T13:21:52Z</time>
      </trkpt>
      <trkpt lat="49.84716" lon="2.25716">
        <ele>75.3</ele>
        <time>2023-11-25T13:21:53Z</time>
      </trkpt>
      <trkpt lat="49.84716" lon="2.25715">
        <ele>75.3</ele>
        <time>2023-11-25T13:21:54Z</time>
      </trkpt>
      <trkpt lat="49.84716" lon="2.25713">
        <ele>75.3</ele>
        <time>2023-11-25T13:21:55Z</time>
      </trkpt>
      <trkpt lat="49.84715" lon="2.25711">
        <ele>75.2</ele>
        <time>2023-11-25T13:21:56Z</time>
      </trkpt>
      <trkpt lat="49.84715" lon="2.25709">
        <ele>75.2</ele>
        <time>2023-11-25T13:21:57Z</time>
      </trkpt>
      <trkpt lat="49.84714" lon="2.25706">
        <ele>75.1</ele>
        <time>2023-11-25T13:21:59Z</time>
      </trkpt>
      <trkpt lat="49.84714" lon="2.25705">
        <ele>75.1</ele>
        <time>2023-11-25T13:22:00Z</time>
      </trkpt>
      <trkpt lat="49.84714" lon="2.25703">
        <ele>75</ele>
        <time>2023-11-25T13:22:01Z</time>
      </trkpt>
      <trkpt lat="49.84713" lon="2.257">
        <ele>75</ele>
        <time>2023-11-25T13:22:02Z</time>
      </trkpt>
      <trkpt lat="49.84713" lon="2.25699">
        <ele>74.9</ele>
        <time>2023-11-25T13:22:03Z</time>
      </trkpt>
      <trkpt lat="49.84713" lon="2.25698">
        <ele>74.9</ele>
        <time>2023-11-25T13:22:04Z</time>
      </trkpt>
      <trkpt lat="49.84712" lon="2.25696">
        <ele>74.9</ele>
        <time>2023-11-25T13:22:05Z</time>
      </trkpt>
      <trkpt lat="49.84712" lon="2.25694">
        <ele>74.8</ele>
        <time>2023-11-25T13:22:06Z</time>
      </trkpt>
      <trkpt lat="49.84711" lon="2.25692">
        <ele>74.8</ele>
        <time>2023-11-25T13:22:07Z</time>
      </trkpt>
      <trkpt lat="49.84711" lon="2.2569">
        <ele>74.7</ele>
        <time>2023-11-25T13:22:08Z</time>
      </trkpt>
      <trkpt lat="49.84711" lon="2.25687">
        <ele>74.7</ele>
        <time>2023-11-25T13:22:10Z</time>
      </trkpt>
      <trkpt lat="49.8471" lon="2.25685">
        <ele>74.6</ele>
        <time>2023-11-25T13:22:11Z</time>
      </trkpt>
      <trkpt lat="49.8471" lon="2.25684">
        <ele>74.6</ele>
        <time>2023-11-25T13:22:12Z</time>
      </trkpt>
      <trkpt lat="49.8471" lon="2.25681">
        <ele>74.5</ele>
        <time>2023-11-25T13:22:13Z</time>
      </trkpt>
      <trkpt lat="49.8471" lon="2.25679">
        <ele>74.5</ele>
        <time>2023-11-25T13:22:14Z</time>
      </trkpt>
      <trkpt lat="49.84709" lon="2.25678">
        <ele>74.5</ele>
        <time>2023-11-25T13:22:15Z</time>
      </trkpt>
      <trkpt lat="49.84709" lon="2.25675">
        <ele>74.4</ele>
        <time>2023-11-25T13:22:16Z</time>
      </trkpt>
      <trkpt lat="49.84709" lon="2.25673">
        <ele>74.4</ele>
        <time>2023-11-25T13:22:17Z</time>
      </trkpt>
      <trkpt lat="49.84709" lon="2.25672">
        <ele>74.4</ele>
        <time>2023-11-25T13:22:18Z</time>
      </trkpt>
      <trkpt lat="49.84708" lon="2.2567">
        <ele>74.3</ele>
        <time>2023-11-25T13:22:19Z</time>
      </trkpt>
      <trkpt lat="49.84708" lon="2.25667">
        <ele>74.3</ele>
        <time>2023-11-25T13:22:21Z</time>
      </trkpt>
      <trkpt lat="49.84708" lon="2.25665">
        <ele>74.2</ele>
        <time>2023-11-25T13:22:22Z</time>
      </trkpt>
      <trkpt lat="49.84708" lon="2.25664">
        <ele>74.2</ele>
        <time>2023-11-25T13:22:23Z</time>
      </trkpt>
      <trkpt lat="49.84708" lon="2.25662">
        <ele>74.1</ele>
        <time>2023-11-25T13:22:24Z</time>
      </trkpt>
      <trkpt lat="49.84707" lon="2.2566">
        <ele>74.1</ele>
        <time>2023-11-25T13:22:26Z</time>
      </trkpt>
      <trkpt lat="49.84707" lon="2.25658">
        <ele>74.1</ele>
        <time>2023-11-25T13:22:27Z</time>
      </trkpt>
      <trkpt lat="49.84707" lon="2.25656">
        <ele>74</ele>
        <time>2023-11-25T13:22:28Z</time>
      </trkpt>
      <trkpt lat="49.84707" lon="2.25653">
        <ele>74</ele>
        <time>2023-11-25T13:22:29Z</time>
      </trkpt>
      <trkpt lat="49.84707" lon="2.25651">
        <ele>73.9</ele>
        <time>2023-11-25T13:22:30Z</time>
      </trkpt>
      <trkpt lat="49.84706" lon="2.25649">
        <ele>73.9</ele>
        <time>2023-11-25T13:22:31Z</time>
      </trkpt>
      <trkpt lat="49.84706" lon="2.25648">
        <ele>73.9</ele>
        <time>2023-11-25T13:22:32Z</time>
      </trkpt>
      <trkpt lat="49.84706" lon="2.25644">
        <ele>73.8</ele>
        <time>2023-11-25T13:22:34Z</time>
      </trkpt>
      <trkpt lat="49.84706" lon="2.25643">
        <ele>73.8</ele>
        <time>2023-11-25T13:22:35Z</time>
      </trkpt>
      <trkpt lat="49.84705" lon="2.25641">
        <ele>73.7</ele>
        <time>2023-11-25T13:22:36Z</time>
      </trkpt>
      <trkpt lat="49.84705" lon="2.25638">
        <ele>73.7</ele>
        <time>2023-11-25T13:22:38Z</time>
      </trkpt>
      <trkpt lat="49.84705" lon="2.25636">
        <ele>73.6</ele>
        <time>2023-11-25T13:22:39Z</time>
      </trkpt>
      <trkpt lat="49.84705" lon="2.25634">
        <ele>73.6</ele>
        <time>2023-11-25T13:22:40Z</time>
      </trkpt>
      <trkpt lat="49.84704" lon="2.2563">
        <ele>73.5</ele>
        <time>2023-11-25T13:22:41Z</time>
      </trkpt>
      <trkpt lat="49.84704" lon="2.25629">
        <ele>73.5</ele>
        <time>2023-11-25T13:22:42Z</time>
      </trkpt>
      <trkpt lat="49.84704" lon="2.25628">
        <ele>73.5</ele>
        <time>2023-11-25T13:22:43Z</time>
      </trkpt>
      <trkpt lat="49.84704" lon="2.25624">
        <ele>73.4</ele>
        <time>2023-11-25T13:22:44Z</time>
      </trkpt>
      <trkpt lat="49.84704" lon="2.25623">
        <ele>73.4</ele>
        <time>2023-11-25T13:22:46Z</time>
      </trkpt>
      <trkpt lat="49.84704" lon="2.25622">
        <ele>73.4</ele>
        <time>2023-11-25T13:22:47Z</time>
      </trkpt>
      <trkpt lat="49.84704" lon="2.25619">
        <ele>73.3</ele>
        <time>2023-11-25T13:22:48Z</time>
      </trkpt>
      <trkpt lat="49.84704" lon="2.25617">
        <ele>73.3</ele>
        <time>2023-11-25T13:22:49Z</time>
      </trkpt>
      <trkpt lat="49.84704" lon="2.25616">
        <ele>73.3</ele>
        <time>2023-11-25T13:22:50Z</time>
      </trkpt>
      <trkpt lat="49.84704" lon="2.25614">
        <ele>73.2</ele>
        <time>2023-11-25T13:22:51Z</time>
      </trkpt>
      <trkpt lat="49.84703" lon="2.25613">
        <ele>73.2</ele>
        <time>2023-11-25T13:22:52Z</time>
      </trkpt>
      <trkpt lat="49.84703" lon="2.25611">
        <ele>73.2</ele>
        <time>2023-11-25T13:22:53Z</time>
      </trkpt>
      <trkpt lat="49.84703" lon="2.25608">
        <ele>73.1</ele>
        <time>2023-11-25T13:22:54Z</time>
      </trkpt>
      <trkpt lat="49.84702" lon="2.25606">
        <ele>73.1</ele>
        <time>2023-11-25T13:22:56Z</time>
      </trkpt>
      <trkpt lat="49.84702" lon="2.25605">
        <ele>73.1</ele>
        <time>2023-11-25T13:22:57Z</time>
      </trkpt>
      <trkpt lat="49.84701" lon="2.25604">
        <ele>73.1</ele>
        <time>2023-11-25T13:22:58Z</time>
      </trkpt>
      <trkpt lat="49.84701" lon="2.25602">
        <ele>73</ele>
        <time>2023-11-25T13:22:59Z</time>
      </trkpt>
      <trkpt lat="49.847" lon="2.25601">
        <ele>73</ele>
        <time>2023-11-25T13:23:00Z</time>
      </trkpt>
      <trkpt lat="49.847" lon="2.25599">
        <ele>73</ele>
        <time>2023-11-25T13:23:01Z</time>
      </trkpt>
      <trkpt lat="49.847" lon="2.25597">
        <ele>72.9</ele>
        <time>2023-11-25T13:23:02Z</time>
      </trkpt>
      <trkpt lat="49.84699" lon="2.25595">
        <ele>72.9</ele>
        <time>2023-11-25T13:23:04Z</time>
      </trkpt>
      <trkpt lat="49.84698" lon="2.25592">
        <ele>72.8</ele>
        <time>2023-11-25T13:23:05Z</time>
      </trkpt>
      <trkpt lat="49.84698" lon="2.25591">
        <ele>72.8</ele>
        <time>2023-11-25T13:23:06Z</time>
      </trkpt>
      <trkpt lat="49.84698" lon="2.25589">
        <ele>72.8</ele>
        <time>2023-11-25T13:23:07Z</time>
      </trkpt>
      <trkpt lat="49.84698" lon="2.25588">
        <ele>72.8</ele>
        <time>2023-11-25T13:23:08Z</time>
      </trkpt>
      <trkpt lat="49.84697" lon="2.25585">
        <ele>72.7</ele>
        <time>2023-11-25T13:23:09Z</time>
      </trkpt>
      <trkpt lat="49.84697" lon="2.25582">
        <ele>72.7</ele>
        <time>2023-11-25T13:23:10Z</time>
      </trkpt>
      <trkpt lat="49.84696" lon="2.25581">
        <ele>72.7</ele>
        <time>2023-11-25T13:23:11Z</time>
      </trkpt>
      <trkpt lat="49.84696" lon="2.2558">
        <ele>72.6</ele>
        <time>2023-11-25T13:23:12Z</time>
      </trkpt>
      <trkpt lat="49.84695" lon="2.25577">
        <ele>72.6</ele>
        <time>2023-11-25T13:23:13Z</time>
      </trkpt>
      <trkpt lat="49.84695" lon="2.25576">
        <ele>72.6</ele>
        <time>2023-11-25T13:23:15Z</time>
      </trkpt>
      <trkpt lat="49.84695" lon="2.25574">
        <ele>72.5</ele>
        <time>2023-11-25T13:23:16Z</time>
      </trkpt>
      <trkpt lat="49.84694" lon="2.25571">
        <ele>72.5</ele>
        <time>2023-11-25T13:23:17Z</time>
      </trkpt>
      <trkpt lat="49.84694" lon="2.2557">
        <ele>72.5</ele>
        <time>2023-11-25T13:23:18Z</time>
      </trkpt>
      <trkpt lat="49.84694" lon="2.25569">
        <ele>72.4</ele>
        <time>2023-11-25T13:23:19Z</time>
      </trkpt>
      <trkpt lat="49.84694" lon="2.25567">
        <ele>72.4</ele>
        <time>2023-11-25T13:23:20Z</time>
      </trkpt>
      <trkpt lat="49.84693" lon="2.25565">
        <ele>72.4</ele>
        <time>2023-11-25T13:23:21Z</time>
      </trkpt>
      <trkpt lat="49.84693" lon="2.25564">
        <ele>72.4</ele>
        <time>2023-11-25T13:23:22Z</time>
      </trkpt>
      <trkpt lat="49.84693" lon="2.25561">
        <ele>72.3</ele>
        <time>2023-11-25T13:23:24Z</time>
      </trkpt>
      <trkpt lat="49.84692" lon="2.2556">
        <ele>72.3</ele>
        <time>2023-11-25T13:23:25Z</time>
      </trkpt>
      <trkpt lat="49.84692" lon="2.25558">
        <ele>72.3</ele>
        <time>2023-11-25T13:23:26Z</time>
      </trkpt>
      <trkpt lat="49.84692" lon="2.25556">
        <ele>72.2</ele>
        <time>2023-11-25T13:23:27Z</time>
      </trkpt>
      <trkpt lat="49.84691" lon="2.25554">
        <ele>72.2</ele>
        <time>2023-11-25T13:23:28Z</time>
      </trkpt>
      <trkpt lat="49.84691" lon="2.25552">
        <ele>72.2</ele>
        <time>2023-11-25T13:23:29Z</time>
      </trkpt>
      <trkpt lat="49.84691" lon="2.25551">
        <ele>72.2</ele>
        <time>2023-11-25T13:23:30Z</time>
      </trkpt>
      <trkpt lat="49.84691" lon="2.25549">
        <ele>72.1</ele>
        <time>2023-11-25T13:23:31Z</time>
      </trkpt>
      <trkpt lat="49.8469" lon="2.25548">
        <ele>72.1</ele>
        <time>2023-11-25T13:23:32Z</time>
      </trkpt>
      <trkpt lat="49.8469" lon="2.25546">
        <ele>72.1</ele>
        <time>2023-11-25T13:23:34Z</time>
      </trkpt>
      <trkpt lat="49.8469" lon="2.25544">
        <ele>72.1</ele>
        <time>2023-11-25T13:23:35Z</time>
      </trkpt>
      <trkpt lat="49.8469" lon="2.25541">
        <ele>72</ele>
        <time>2023-11-25T13:23:36Z</time>
      </trkpt>
      <trkpt lat="49.8469" lon="2.2554">
        <ele>72</ele>
        <time>2023-11-25T13:23:37Z</time>
      </trkpt>
      <trkpt lat="49.8469" lon="2.25538">
        <ele>72</ele>
        <time>2023-11-25T13:23:38Z</time>
      </trkpt>
      <trkpt lat="49.84689" lon="2.25537">
        <ele>72</ele>
        <time>2023-11-25T13:23:39Z</time>
      </trkpt>
      <trkpt lat="49.84689" lon="2.25535">
        <ele>71.9</ele>
        <time>2023-11-25T13:23:40Z</time>
      </trkpt>
      <trkpt lat="49.84689" lon="2.25534">
        <ele>71.9</ele>
        <time>2023-11-25T13:23:42Z</time>
      </trkpt>
      <trkpt lat="49.84688" lon="2.25532">
        <ele>71.9</ele>
        <time>2023-11-25T13:23:43Z</time>
      </trkpt>
      <trkpt lat="49.84688" lon="2.2553">
        <ele>71.9</ele>
        <time>2023-11-25T13:23:44Z</time>
      </trkpt>
      <trkpt lat="49.84688" lon="2.25528">
        <ele>71.8</ele>
        <time>2023-11-25T13:23:45Z</time>
      </trkpt>
      <trkpt lat="49.84688" lon="2.25526">
        <ele>71.8</ele>
        <time>2023-11-25T13:23:46Z</time>
      </trkpt>
      <trkpt lat="49.84688" lon="2.25525">
        <ele>71.8</ele>
        <time>2023-11-25T13:23:47Z</time>
      </trkpt>
      <trkpt lat="49.84688" lon="2.25523">
        <ele>71.8</ele>
        <time>2023-11-25T13:23:48Z</time>
      </trkpt>
      <trkpt lat="49.84688" lon="2.25522">
        <ele>71.7</ele>
        <time>2023-11-25T13:23:49Z</time>
      </trkpt>
      <trkpt lat="49.84687" lon="2.2552">
        <ele>71.7</ele>
        <time>2023-11-25T13:23:51Z</time>
      </trkpt>
      <trkpt lat="49.84687" lon="2.25518">
        <ele>71.7</ele>
        <time>2023-11-25T13:23:52Z</time>
      </trkpt>
      <trkpt lat="49.84687" lon="2.25516">
        <ele>71.7</ele>
        <time>2023-11-25T13:23:53Z</time>
      </trkpt>
      <trkpt lat="49.84688" lon="2.25514">
        <ele>71.6</ele>
        <time>2023-11-25T13:23:54Z</time>
      </trkpt>
      <trkpt lat="49.84688" lon="2.25513">
        <ele>71.6</ele>
        <time>2023-11-25T13:23:55Z</time>
      </trkpt>
      <trkpt lat="49.84688" lon="2.25511">
        <ele>71.6</ele>
        <time>2023-11-25T13:23:56Z</time>
      </trkpt>
      <trkpt lat="49.84688" lon="2.25509">
        <ele>71.6</ele>
        <time>2023-11-25T13:23:57Z</time>
      </trkpt>
      <trkpt lat="49.84687" lon="2.25508">
        <ele>71.5</ele>
        <time>2023-11-25T13:23:59Z</time>
      </trkpt>
      <trkpt lat="49.84687" lon="2.25506">
        <ele>71.5</ele>
        <time>2023-11-25T13:24:00Z</time>
      </trkpt>
      <trkpt lat="49.84687" lon="2.25504">
        <ele>71.5</ele>
        <time>2023-11-25T13:24:01Z</time>
      </trkpt>
      <trkpt lat="49.84687" lon="2.25502">
        <ele>71.5</ele>
        <time>2023-11-25T13:24:02Z</time>
      </trkpt>
      <trkpt lat="49.84687" lon="2.25501">
        <ele>71.4</ele>
        <time>2023-11-25T13:24:03Z</time>
      </trkpt>
      <trkpt lat="49.84687" lon="2.25499">
        <ele>71.4</ele>
        <time>2023-11-25T13:24:04Z</time>
      </trkpt>
      <trkpt lat="49.84686" lon="2.25498">
        <ele>71.4</ele>
        <time>2023-11-25T13:24:05Z</time>
      </trkpt>
      <trkpt lat="49.84686" lon="2.25495">
        <ele>71.3</ele>
        <time>2023-11-25T13:24:06Z</time>
      </trkpt>
      <trkpt lat="49.84685" lon="2.25494">
        <ele>71.3</ele>
        <time>2023-11-25T13:24:07Z</time>
      </trkpt>
      <trkpt lat="49.84685" lon="2.25493">
        <ele>71.3</ele>
        <time>2023-11-25T13:24:09Z</time>
      </trkpt>
      <trkpt lat="49.84684" lon="2.25491">
        <ele>71.3</ele>
        <time>2023-11-25T13:24:10Z</time>
      </trkpt>
      <trkpt lat="49.84684" lon="2.2549">
        <ele>71.3</ele>
        <time>2023-11-25T13:24:11Z</time>
      </trkpt>
      <trkpt lat="49.84684" lon="2.25488">
        <ele>71.2</ele>
        <time>2023-11-25T13:24:12Z</time>
      </trkpt>
      <trkpt lat="49.84683" lon="2.25486">
        <ele>71.2</ele>
        <time>2023-11-25T13:24:13Z</time>
      </trkpt>
      <trkpt lat="49.84683" lon="2.25485">
        <ele>71.2</ele>
        <time>2023-11-25T13:24:14Z</time>
      </trkpt>
      <trkpt lat="49.84683" lon="2.25483">
        <ele>71.2</ele>
        <time>2023-11-25T13:24:15Z</time>
      </trkpt>
      <trkpt lat="49.84682" lon="2.2548">
        <ele>71.1</ele>
        <time>2023-11-25T13:24:16Z</time>
      </trkpt>
      <trkpt lat="49.84682" lon="2.25479">
        <ele>71.1</ele>
        <time>2023-11-25T13:24:18Z</time>
      </trkpt>
      <trkpt lat="49.84682" lon="2.25478">
        <ele>71.1</ele>
        <time>2023-11-25T13:24:19Z</time>
      </trkpt>
      <trkpt lat="49.84681" lon="2.25474">
        <ele>71</ele>
        <time>2023-11-25T13:24:20Z</time>
      </trkpt>
      <trkpt lat="49.84681" lon="2.25473">
        <ele>71</ele>
        <time>2023-11-25T13:24:21Z</time>
      </trkpt>
      <trkpt lat="49.84681" lon="2.25472">
        <ele>71</ele>
        <time>2023-11-25T13:24:22Z</time>
      </trkpt>
      <trkpt lat="49.8468" lon="2.2547">
        <ele>71</ele>
        <time>2023-11-25T13:24:23Z</time>
      </trkpt>
      <trkpt lat="49.8468" lon="2.25468">
        <ele>70.9</ele>
        <time>2023-11-25T13:24:24Z</time>
      </trkpt>
      <trkpt lat="49.8468" lon="2.25466">
        <ele>70.9</ele>
        <time>2023-11-25T13:24:26Z</time>
      </trkpt>
      <trkpt lat="49.8468" lon="2.25463">
        <ele>70.9</ele>
        <time>2023-11-25T13:24:27Z</time>
      </trkpt>
      <trkpt lat="49.84679" lon="2.25462">
        <ele>70.9</ele>
        <time>2023-11-25T13:24:28Z</time>
      </trkpt>
      <trkpt lat="49.84679" lon="2.2546">
        <ele>70.8</ele>
        <time>2023-11-25T13:24:29Z</time>
      </trkpt>
      <trkpt lat="49.84679" lon="2.25458">
        <ele>70.8</ele>
        <time>2023-11-25T13:24:30Z</time>
      </trkpt>
      <trkpt lat="49.84678" lon="2.25456">
        <ele>70.8</ele>
        <time>2023-11-25T13:24:31Z</time>
      </trkpt>
      <trkpt lat="49.84678" lon="2.25454">
        <ele>70.7</ele>
        <time>2023-11-25T13:24:32Z</time>
      </trkpt>
      <trkpt lat="49.84678" lon="2.25453">
        <ele>70.7</ele>
        <time>2023-11-25T13:24:33Z</time>
      </trkpt>
      <trkpt lat="49.84678" lon="2.25451">
        <ele>70.7</ele>
        <time>2023-11-25T13:24:34Z</time>
      </trkpt>
      <trkpt lat="49.84678" lon="2.25449">
        <ele>70.7</ele>
        <time>2023-11-25T13:24:36Z</time>
      </trkpt>
      <trkpt lat="49.84677" lon="2.25448">
        <ele>70.7</ele>
        <time>2023-11-25T13:24:37Z</time>
      </trkpt>
      <trkpt lat="49.84677" lon="2.25446">
        <ele>70.6</ele>
        <time>2023-11-25T13:24:38Z</time>
      </trkpt>
      <trkpt lat="49.84677" lon="2.25445">
        <ele>70.6</ele>
        <time>2023-11-25T13:24:39Z</time>
      </trkpt>
      <trkpt lat="49.84677" lon="2.25443">
        <ele>70.6</ele>
        <time>2023-11-25T13:24:40Z</time>
      </trkpt>
      <trkpt lat="49.84676" lon="2.25441">
        <ele>70.5</ele>
        <time>2023-11-25T13:24:42Z</time>
      </trkpt>
      <trkpt lat="49.84676" lon="2.25439">
        <ele>70.5</ele>
        <time>2023-11-25T13:24:43Z</time>
      </trkpt>
      <trkpt lat="49.84676" lon="2.25438">
        <ele>70.5</ele>
        <time>2023-11-25T13:24:44Z</time>
      </trkpt>
      <trkpt lat="49.84676" lon="2.25436">
        <ele>70.5</ele>
        <time>2023-11-25T13:24:45Z</time>
      </trkpt>
      <trkpt lat="49.84675" lon="2.25433">
        <ele>70.4</ele>
        <time>2023-11-25T13:24:46Z</time>
      </trkpt>
      <trkpt lat="49.84675" lon="2.25431">
        <ele>70.4</ele>
        <time>2023-11-25T13:24:48Z</time>
      </trkpt>
      <trkpt lat="49.84675" lon="2.2543">
        <ele>70.4</ele>
        <time>2023-11-25T13:24:49Z</time>
      </trkpt>
      <trkpt lat="49.84674" lon="2.25427">
        <ele>70.4</ele>
        <time>2023-11-25T13:24:50Z</time>
      </trkpt>
      <trkpt lat="49.84674" lon="2.25426">
        <ele>70.3</ele>
        <time>2023-11-25T13:24:51Z</time>
      </trkpt>
      <trkpt lat="49.84674" lon="2.25425">
        <ele>70.3</ele>
        <time>2023-11-25T13:24:52Z</time>
      </trkpt>
      <trkpt lat="49.84673" lon="2.25423">
        <ele>70.3</ele>
        <time>2023-11-25T13:24:53Z</time>
      </trkpt>
      <trkpt lat="49.84673" lon="2.25421">
        <ele>70.3</ele>
        <time>2023-11-25T13:24:54Z</time>
      </trkpt>
      <trkpt lat="49.84672" lon="2.25419">
        <ele>70.2</ele>
        <time>2023-11-25T13:24:56Z</time>
      </trkpt>
      <trkpt lat="49.84671" lon="2.25416">
        <ele>70.2</ele>
        <time>2023-11-25T13:24:57Z</time>
      </trkpt>
      <trkpt lat="49.84671" lon="2.25415">
        <ele>70.2</ele>
        <time>2023-11-25T13:24:58Z</time>
      </trkpt>
      <trkpt lat="49.84671" lon="2.25413">
        <ele>70.2</ele>
        <time>2023-11-25T13:24:59Z</time>
      </trkpt>
      <trkpt lat="49.84671" lon="2.25411">
        <ele>70.1</ele>
        <time>2023-11-25T13:25:00Z</time>
      </trkpt>
      <trkpt lat="49.84671" lon="2.2541">
        <ele>70.1</ele>
        <time>2023-11-25T13:25:01Z</time>
      </trkpt>
      <trkpt lat="49.84671" lon="2.25407">
        <ele>70.1</ele>
        <time>2023-11-25T13:25:03Z</time>
      </trkpt>
      <trkpt lat="49.84671" lon="2.25404">
        <ele>70.1</ele>
        <time>2023-11-25T13:25:04Z</time>
      </trkpt>
      <trkpt lat="49.8467" lon="2.25403">
        <ele>70</ele>
        <time>2023-11-25T13:25:05Z</time>
      </trkpt>
      <trkpt lat="49.8467" lon="2.25401">
        <ele>70</ele>
        <time>2023-11-25T13:25:06Z</time>
      </trkpt>
      <trkpt lat="49.8467" lon="2.25399">
        <ele>70</ele>
        <time>2023-11-25T13:25:07Z</time>
      </trkpt>
      <trkpt lat="49.8467" lon="2.25397">
        <ele>70</ele>
        <time>2023-11-25T13:25:08Z</time>
      </trkpt>
      <trkpt lat="49.8467" lon="2.25395">
        <ele>69.9</ele>
        <time>2023-11-25T13:25:10Z</time>
      </trkpt>
      <trkpt lat="49.8467" lon="2.25392">
        <ele>69.9</ele>
        <time>2023-11-25T13:25:11Z</time>
      </trkpt>
      <trkpt lat="49.84669" lon="2.25391">
        <ele>69.9</ele>
        <time>2023-11-25T13:25:12Z</time>
      </trkpt>
      <trkpt lat="49.84669" lon="2.2539">
        <ele>69.9</ele>
        <time>2023-11-25T13:25:13Z</time>
      </trkpt>
      <trkpt lat="49.84669" lon="2.25386">
        <ele>69.8</ele>
        <time>2023-11-25T13:25:14Z</time>
      </trkpt>
      <trkpt lat="49.84668" lon="2.25385">
        <ele>69.8</ele>
        <time>2023-11-25T13:25:15Z</time>
      </trkpt>
      <trkpt lat="49.84668" lon="2.25384">
        <ele>69.8</ele>
        <time>2023-11-25T13:25:16Z</time>
      </trkpt>
      <trkpt lat="49.84668" lon="2.25382">
        <ele>69.8</ele>
        <time>2023-11-25T13:25:17Z</time>
      </trkpt>
      <trkpt lat="49.84668" lon="2.2538">
        <ele>69.7</ele>
        <time>2023-11-25T13:25:18Z</time>
      </trkpt>
      <trkpt lat="49.84668" lon="2.25378">
        <ele>69.7</ele>
        <time>2023-11-25T13:25:20Z</time>
      </trkpt>
      <trkpt lat="49.84667" lon="2.25374">
        <ele>69.7</ele>
        <time>2023-11-25T13:25:21Z</time>
      </trkpt>
      <trkpt lat="49.84667" lon="2.25373">
        <ele>69.6</ele>
        <time>2023-11-25T13:25:22Z</time>
      </trkpt>
      <trkpt lat="49.84667" lon="2.25372">
        <ele>69.6</ele>
        <time>2023-11-25T13:25:23Z</time>
      </trkpt>
      <trkpt lat="49.84667" lon="2.2537">
        <ele>69.6</ele>
        <time>2023-11-25T13:25:24Z</time>
      </trkpt>
      <trkpt lat="49.84666" lon="2.25368">
        <ele>69.6</ele>
        <time>2023-11-25T13:25:25Z</time>
      </trkpt>
      <trkpt lat="49.84666" lon="2.25366">
        <ele>69.5</ele>
        <time>2023-11-25T13:25:27Z</time>
      </trkpt>
      <trkpt lat="49.84666" lon="2.25363">
        <ele>69.5</ele>
        <time>2023-11-25T13:25:28Z</time>
      </trkpt>
      <trkpt lat="49.84665" lon="2.25362">
        <ele>69.5</ele>
        <time>2023-11-25T13:25:29Z</time>
      </trkpt>
      <trkpt lat="49.84665" lon="2.2536">
        <ele>69.5</ele>
        <time>2023-11-25T13:25:30Z</time>
      </trkpt>
      <trkpt lat="49.84665" lon="2.25359">
        <ele>69.4</ele>
        <time>2023-11-25T13:25:31Z</time>
      </trkpt>
      <trkpt lat="49.84665" lon="2.25357">
        <ele>69.4</ele>
        <time>2023-11-25T13:25:32Z</time>
      </trkpt>
      <trkpt lat="49.84665" lon="2.25356">
        <ele>69.4</ele>
        <time>2023-11-25T13:25:33Z</time>
      </trkpt>
      <trkpt lat="49.84665" lon="2.25354">
        <ele>69.4</ele>
        <time>2023-11-25T13:25:35Z</time>
      </trkpt>
      <trkpt lat="49.84665" lon="2.25352">
        <ele>69.4</ele>
        <time>2023-11-25T13:25:36Z</time>
      </trkpt>
      <trkpt lat="49.84665" lon="2.2535">
        <ele>69.3</ele>
        <time>2023-11-25T13:25:37Z</time>
      </trkpt>
      <trkpt lat="49.84665" lon="2.25349">
        <ele>69.3</ele>
        <time>2023-11-25T13:25:38Z</time>
      </trkpt>
      <trkpt lat="49.84665" lon="2.25347">
        <ele>69.3</ele>
        <time>2023-11-25T13:25:39Z</time>
      </trkpt>
      <trkpt lat="49.84665" lon="2.25346">
        <ele>69.3</ele>
        <time>2023-11-25T13:25:40Z</time>
      </trkpt>
      <trkpt lat="49.84665" lon="2.25344">
        <ele>69.3</ele>
        <time>2023-11-25T13:25:41Z</time>
      </trkpt>
      <trkpt lat="49.84665" lon="2.25342">
        <ele>69.3</ele>
        <time>2023-11-25T13:25:43Z</time>
      </trkpt>
      <trkpt lat="49.84665" lon="2.2534">
        <ele>69.2</ele>
        <time>2023-11-25T13:25:44Z</time>
      </trkpt>
      <trkpt lat="49.84665" lon="2.25339">
        <ele>69.2</ele>
        <time>2023-11-25T13:25:45Z</time>
      </trkpt>
      <trkpt lat="49.84665" lon="2.25337">
        <ele>69.2</ele>
        <time>2023-11-25T13:25:46Z</time>
      </trkpt>
      <trkpt lat="49.84665" lon="2.25336">
        <ele>69.2</ele>
        <time>2023-11-25T13:25:47Z</time>
      </trkpt>
      <trkpt lat="49.84665" lon="2.25334">
        <ele>69.2</ele>
        <time>2023-11-25T13:25:49Z</time>
      </trkpt>
      <trkpt lat="49.84665" lon="2.25332">
        <ele>69.2</ele>
        <time>2023-11-25T13:25:50Z</time>
      </trkpt>
      <trkpt lat="49.84665" lon="2.25331">
        <ele>69.2</ele>
        <time>2023-11-25T13:25:51Z</time>
      </trkpt>
      <trkpt lat="49.84665" lon="2.25329">
        <ele>69.2</ele>
        <time>2023-11-25T13:25:53Z</time>
      </trkpt>
      <trkpt lat="49.84665" lon="2.25328">
        <ele>69.2</ele>
        <time>2023-11-25T13:25:54Z</time>
      </trkpt>
      <trkpt lat="49.84665" lon="2.25327">
        <ele>69.1</ele>
        <time>2023-11-25T13:25:56Z</time>
      </trkpt>
      <trkpt lat="49.84665" lon="2.25327">
        <ele>69.1</ele>
        <time>2023-11-25T13:25:57Z</time>
      </trkpt>
      <trkpt lat="49.84665" lon="2.25327">
        <ele>69.1</ele>
        <time>2023-11-25T13:25:58Z</time>
      </trkpt>
      <trkpt lat="49.84666" lon="2.25326">
        <ele>69.2</ele>
        <time>2023-11-25T13:25:59Z</time>
      </trkpt>
      <trkpt lat="49.84666" lon="2.25325">
        <ele>69.2</ele>
        <time>2023-11-25T13:26:01Z</time>
      </trkpt>
      <trkpt lat="49.84667" lon="2.25324">
        <ele>69.2</ele>
        <time>2023-11-25T13:26:02Z</time>
      </trkpt>
      <trkpt lat="49.84667" lon="2.25323">
        <ele>69.2</ele>
        <time>2023-11-25T13:26:03Z</time>
      </trkpt>
      <trkpt lat="49.84668" lon="2.25323">
        <ele>69.2</ele>
        <time>2023-11-25T13:26:04Z</time>
      </trkpt>
      <trkpt lat="49.84669" lon="2.25322">
        <ele>69.2</ele>
        <time>2023-11-25T13:26:05Z</time>
      </trkpt>
      <trkpt lat="49.8467" lon="2.25321">
        <ele>69.2</ele>
        <time>2023-11-25T13:26:06Z</time>
      </trkpt>
      <trkpt lat="49.84672" lon="2.2532">
        <ele>69.3</ele>
        <time>2023-11-25T13:26:08Z</time>
      </trkpt>
      <trkpt lat="49.84672" lon="2.25319">
        <ele>69.3</ele>
        <time>2023-11-25T13:26:09Z</time>
      </trkpt>
      <trkpt lat="49.84673" lon="2.25319">
        <ele>69.3</ele>
        <time>2023-11-25T13:26:10Z</time>
      </trkpt>
      <trkpt lat="49.84674" lon="2.25318">
        <ele>69.3</ele>
        <time>2023-11-25T13:26:11Z</time>
      </trkpt>
      <trkpt lat="49.84676" lon="2.25317">
        <ele>69.3</ele>
        <time>2023-11-25T13:26:12Z</time>
      </trkpt>
      <trkpt lat="49.84677" lon="2.25317">
        <ele>69.4</ele>
        <time>2023-11-25T13:26:14Z</time>
      </trkpt>
      <trkpt lat="49.84679" lon="2.25317">
        <ele>69.4</ele>
        <time>2023-11-25T13:26:15Z</time>
      </trkpt>
      <trkpt lat="49.8468" lon="2.25317">
        <ele>69.4</ele>
        <time>2023-11-25T13:26:16Z</time>
      </trkpt>
      <trkpt lat="49.84681" lon="2.25317">
        <ele>69.4</ele>
        <time>2023-11-25T13:26:17Z</time>
      </trkpt>
      <trkpt lat="49.84682" lon="2.25318">
        <ele>69.5</ele>
        <time>2023-11-25T13:26:18Z</time>
      </trkpt>
      <trkpt lat="49.84683" lon="2.25318">
        <ele>69.5</ele>
        <time>2023-11-25T13:26:19Z</time>
      </trkpt>
      <trkpt lat="49.84685" lon="2.25319">
        <ele>69.5</ele>
        <time>2023-11-25T13:26:21Z</time>
      </trkpt>
      <trkpt lat="49.84687" lon="2.2532">
        <ele>69.6</ele>
        <time>2023-11-25T13:26:22Z</time>
      </trkpt>
      <trkpt lat="49.84688" lon="2.2532">
        <ele>69.6</ele>
        <time>2023-11-25T13:26:23Z</time>
      </trkpt>
      <trkpt lat="49.84688" lon="2.2532">
        <ele>69.6</ele>
        <time>2023-11-25T13:26:24Z</time>
      </trkpt>
      <trkpt lat="49.84689" lon="2.25321">
        <ele>69.6</ele>
        <time>2023-11-25T13:26:25Z</time>
      </trkpt>
      <trkpt lat="49.84691" lon="2.25322">
        <ele>69.7</ele>
        <time>2023-11-25T13:26:26Z</time>
      </trkpt>
      <trkpt lat="49.84692" lon="2.25323">
        <ele>69.7</ele>
        <time>2023-11-25T13:26:28Z</time>
      </trkpt>
      <trkpt lat="49.84694" lon="2.25324">
        <ele>69.8</ele>
        <time>2023-11-25T13:26:29Z</time>
      </trkpt>
      <trkpt lat="49.84695" lon="2.25324">
        <ele>69.8</ele>
        <time>2023-11-25T13:26:30Z</time>
      </trkpt>
      <trkpt lat="49.84696" lon="2.25325">
        <ele>69.8</ele>
        <time>2023-11-25T13:26:31Z</time>
      </trkpt>
      <trkpt lat="49.84697" lon="2.25325">
        <ele>69.8</ele>
        <time>2023-11-25T13:26:32Z</time>
      </trkpt>
      <trkpt lat="49.84698" lon="2.25326">
        <ele>69.9</ele>
        <time>2023-11-25T13:26:34Z</time>
      </trkpt>
      <trkpt lat="49.847" lon="2.25327">
        <ele>69.9</ele>
        <time>2023-11-25T13:26:35Z</time>
      </trkpt>
      <trkpt lat="49.84701" lon="2.25327">
        <ele>70</ele>
        <time>2023-11-25T13:26:36Z</time>
      </trkpt>
      <trkpt lat="49.84703" lon="2.25328">
        <ele>70</ele>
        <time>2023-11-25T13:26:37Z</time>
      </trkpt>
      <trkpt lat="49.84704" lon="2.25328">
        <ele>70</ele>
        <time>2023-11-25T13:26:39Z</time>
      </trkpt>
      <trkpt lat="49.84704" lon="2.25328">
        <ele>70.1</ele>
        <time>2023-11-25T13:26:40Z</time>
      </trkpt>
      <trkpt lat="49.84706" lon="2.25329">
        <ele>70.1</ele>
        <time>2023-11-25T13:26:41Z</time>
      </trkpt>
      <trkpt lat="49.84707" lon="2.25329">
        <ele>70.1</ele>
        <time>2023-11-25T13:26:42Z</time>
      </trkpt>
      <trkpt lat="49.84708" lon="2.25329">
        <ele>70.1</ele>
        <time>2023-11-25T13:26:43Z</time>
      </trkpt>
      <trkpt lat="49.84709" lon="2.2533">
        <ele>70.2</ele>
        <time>2023-11-25T13:26:44Z</time>
      </trkpt>
      <trkpt lat="49.8471" lon="2.2533">
        <ele>70.2</ele>
        <time>2023-11-25T13:26:46Z</time>
      </trkpt>
      <trkpt lat="49.84711" lon="2.2533">
        <ele>70.2</ele>
        <time>2023-11-25T13:26:47Z</time>
      </trkpt>
      <trkpt lat="49.84712" lon="2.25331">
        <ele>70.3</ele>
        <time>2023-11-25T13:26:48Z</time>
      </trkpt>
      <trkpt lat="49.84713" lon="2.25331">
        <ele>70.3</ele>
        <time>2023-11-25T13:26:49Z</time>
      </trkpt>
      <trkpt lat="49.84713" lon="2.25331">
        <ele>70.3</ele>
        <time>2023-11-25T13:26:50Z</time>
      </trkpt>
      <trkpt lat="49.84714" lon="2.25331">
        <ele>70.3</ele>
        <time>2023-11-25T13:26:51Z</time>
      </trkpt>
      <trkpt lat="49.84715" lon="2.25332">
        <ele>70.3</ele>
        <time>2023-11-25T13:26:53Z</time>
      </trkpt>
      <trkpt lat="49.84716" lon="2.25332">
        <ele>70.4</ele>
        <time>2023-11-25T13:26:54Z</time>
      </trkpt>
      <trkpt lat="49.84717" lon="2.25332">
        <ele>70.4</ele>
        <time>2023-11-25T13:26:55Z</time>
      </trkpt>
      <trkpt lat="49.84718" lon="2.25333">
        <ele>70.4</ele>
        <time>2023-11-25T13:26:56Z</time>
      </trkpt>
      <trkpt lat="49.84719" lon="2.25333">
        <ele>70.4</ele>
        <time>2023-11-25T13:26:57Z</time>
      </trkpt>
      <trkpt lat="49.8472" lon="2.25333">
        <ele>70.5</ele>
        <time>2023-11-25T13:26:59Z</time>
      </trkpt>
      <trkpt lat="49.8472" lon="2.25333">
        <ele>70.5</ele>
        <time>2023-11-25T13:27:00Z</time>
      </trkpt>
      <trkpt lat="49.84721" lon="2.25333">
        <ele>70.5</ele>
        <time>2023-11-25T13:27:01Z</time>
      </trkpt>
      <trkpt lat="49.84722" lon="2.25334">
        <ele>70.5</ele>
        <time>2023-11-25T13:27:02Z</time>
      </trkpt>
      <trkpt lat="49.84723" lon="2.25334">
        <ele>70.6</ele>
        <time>2023-11-25T13:27:03Z</time>
      </trkpt>
      <trkpt lat="49.84724" lon="2.25335">
        <ele>70.6</ele>
        <time>2023-11-25T13:27:04Z</time>
      </trkpt>
      <trkpt lat="49.84725" lon="2.25335">
        <ele>70.6</ele>
        <time>2023-11-25T13:27:05Z</time>
      </trkpt>
      <trkpt lat="49.84726" lon="2.25335">
        <ele>70.6</ele>
        <time>2023-11-25T13:27:07Z</time>
      </trkpt>
      <trkpt lat="49.84727" lon="2.25336">
        <ele>70.7</ele>
        <time>2023-11-25T13:27:08Z</time>
      </trkpt>
      <trkpt lat="49.84728" lon="2.25336">
        <ele>70.7</ele>
        <time>2023-11-25T13:27:09Z</time>
      </trkpt>
      <trkpt lat="49.84729" lon="2.25336">
        <ele>70.7</ele>
        <time>2023-11-25T13:27:10Z</time>
      </trkpt>
      <trkpt lat="49.8473" lon="2.25336">
        <ele>70.8</ele>
        <time>2023-11-25T13:27:12Z</time>
      </trkpt>
      <trkpt lat="49.84731" lon="2.25336">
        <ele>70.8</ele>
        <time>2023-11-25T13:27:13Z</time>
      </trkpt>
      <trkpt lat="49.84732" lon="2.25337">
        <ele>70.8</ele>
        <time>2023-11-25T13:27:14Z</time>
      </trkpt>
      <trkpt lat="49.84733" lon="2.25337">
        <ele>70.8</ele>
        <time>2023-11-25T13:27:15Z</time>
      </trkpt>
      <trkpt lat="49.84734" lon="2.25337">
        <ele>70.9</ele>
        <time>2023-11-25T13:27:16Z</time>
      </trkpt>
      <trkpt lat="49.84735" lon="2.25337">
        <ele>70.9</ele>
        <time>2023-11-25T13:27:17Z</time>
      </trkpt>
      <trkpt lat="49.84736" lon="2.25337">
        <ele>70.9</ele>
        <time>2023-11-25T13:27:18Z</time>
      </trkpt>
      <trkpt lat="49.84737" lon="2.25338">
        <ele>71</ele>
        <time>2023-11-25T13:27:19Z</time>
      </trkpt>
      <trkpt lat="49.84738" lon="2.25338">
        <ele>71</ele>
        <time>2023-11-25T13:27:21Z</time>
      </trkpt>
      <trkpt lat="49.8474" lon="2.25338">
        <ele>71</ele>
        <time>2023-11-25T13:27:22Z</time>
      </trkpt>
      <trkpt lat="49.84741" lon="2.25338">
        <ele>71</ele>
        <time>2023-11-25T13:27:23Z</time>
      </trkpt>
      <trkpt lat="49.84742" lon="2.25338">
        <ele>71.1</ele>
        <time>2023-11-25T13:27:24Z</time>
      </trkpt>
      <trkpt lat="49.84743" lon="2.25338">
        <ele>71.1</ele>
        <time>2023-11-25T13:27:25Z</time>
      </trkpt>
      <trkpt lat="49.84744" lon="2.25338">
        <ele>71.1</ele>
        <time>2023-11-25T13:27:26Z</time>
      </trkpt>
      <trkpt lat="49.84745" lon="2.25338">
        <ele>71.2</ele>
        <time>2023-11-25T13:27:28Z</time>
      </trkpt>
      <trkpt lat="49.84747" lon="2.25339">
        <ele>71.2</ele>
        <time>2023-11-25T13:27:29Z</time>
      </trkpt>
      <trkpt lat="49.84748" lon="2.25339">
        <ele>71.2</ele>
        <time>2023-11-25T13:27:30Z</time>
      </trkpt>
      <trkpt lat="49.84749" lon="2.25339">
        <ele>71.2</ele>
        <time>2023-11-25T13:27:31Z</time>
      </trkpt>
      <trkpt lat="49.8475" lon="2.2534">
        <ele>71.3</ele>
        <time>2023-11-25T13:27:32Z</time>
      </trkpt>
      <trkpt lat="49.84751" lon="2.2534">
        <ele>71.3</ele>
        <time>2023-11-25T13:27:34Z</time>
      </trkpt>
      <trkpt lat="49.84752" lon="2.2534">
        <ele>71.3</ele>
        <time>2023-11-25T13:27:35Z</time>
      </trkpt>
      <trkpt lat="49.84753" lon="2.25341">
        <ele>71.3</ele>
        <time>2023-11-25T13:27:36Z</time>
      </trkpt>
      <trkpt lat="49.84754" lon="2.25341">
        <ele>71.4</ele>
        <time>2023-11-25T13:27:37Z</time>
      </trkpt>
      <trkpt lat="49.84756" lon="2.25341">
        <ele>71.4</ele>
        <time>2023-11-25T13:27:38Z</time>
      </trkpt>
      <trkpt lat="49.84757" lon="2.25341">
        <ele>71.4</ele>
        <time>2023-11-25T13:27:39Z</time>
      </trkpt>
      <trkpt lat="49.84758" lon="2.25341">
        <ele>71.4</ele>
        <time>2023-11-25T13:27:40Z</time>
      </trkpt>
      <trkpt lat="49.84759" lon="2.25341">
        <ele>71.5</ele>
        <time>2023-11-25T13:27:42Z</time>
      </trkpt>
      <trkpt lat="49.84762" lon="2.25342">
        <ele>71.5</ele>
        <time>2023-11-25T13:27:43Z</time>
      </trkpt>
      <trkpt lat="49.84762" lon="2.25342">
        <ele>71.5</ele>
        <time>2023-11-25T13:27:44Z</time>
      </trkpt>
      <trkpt lat="49.84763" lon="2.25342">
        <ele>71.5</ele>
        <time>2023-11-25T13:27:45Z</time>
      </trkpt>
      <trkpt lat="49.84765" lon="2.25343">
        <ele>71.6</ele>
        <time>2023-11-25T13:27:47Z</time>
      </trkpt>
      <trkpt lat="49.84766" lon="2.25343">
        <ele>71.6</ele>
        <time>2023-11-25T13:27:48Z</time>
      </trkpt>
      <trkpt lat="49.84767" lon="2.25343">
        <ele>71.6</ele>
        <time>2023-11-25T13:27:49Z</time>
      </trkpt>
      <trkpt lat="49.84768" lon="2.25343">
        <ele>71.6</ele>
        <time>2023-11-25T13:27:50Z</time>
      </trkpt>
      <trkpt lat="49.84769" lon="2.25343">
        <ele>71.6</ele>
        <time>2023-11-25T13:27:51Z</time>
      </trkpt>
      <trkpt lat="49.8477" lon="2.25344">
        <ele>71.7</ele>
        <time>2023-11-25T13:27:52Z</time>
      </trkpt>
      <trkpt lat="49.84771" lon="2.25344">
        <ele>71.7</ele>
        <time>2023-11-25T13:27:53Z</time>
      </trkpt>
      <trkpt lat="49.84772" lon="2.25344">
        <ele>71.7</ele>
        <time>2023-11-25T13:27:55Z</time>
      </trkpt>
      <trkpt lat="49.84773" lon="2.25345">
        <ele>71.7</ele>
        <time>2023-11-25T13:27:56Z</time>
      </trkpt>
      <trkpt lat="49.84774" lon="2.25345">
        <ele>71.7</ele>
        <time>2023-11-25T13:27:57Z</time>
      </trkpt>
      <trkpt lat="49.84775" lon="2.25346">
        <ele>71.7</ele>
        <time>2023-11-25T13:27:58Z</time>
      </trkpt>
      <trkpt lat="49.84776" lon="2.25346">
        <ele>71.8</ele>
        <time>2023-11-25T13:27:59Z</time>
      </trkpt>
      <trkpt lat="49.84777" lon="2.25346">
        <ele>71.8</ele>
        <time>2023-11-25T13:28:00Z</time>
      </trkpt>
      <trkpt lat="49.84778" lon="2.25347">
        <ele>71.8</ele>
        <time>2023-11-25T13:28:01Z</time>
      </trkpt>
      <trkpt lat="49.84779" lon="2.25347">
        <ele>71.8</ele>
        <time>2023-11-25T13:28:03Z</time>
      </trkpt>
      <trkpt lat="49.84781" lon="2.25348">
        <ele>71.8</ele>
        <time>2023-11-25T13:28:04Z</time>
      </trkpt>
      <trkpt lat="49.84782" lon="2.25348">
        <ele>71.8</ele>
        <time>2023-11-25T13:28:05Z</time>
      </trkpt>
      <trkpt lat="49.84783" lon="2.25349">
        <ele>71.9</ele>
        <time>2023-11-25T13:28:06Z</time>
      </trkpt>
      <trkpt lat="49.84784" lon="2.25349">
        <ele>71.9</ele>
        <time>2023-11-25T13:28:07Z</time>
      </trkpt>
      <trkpt lat="49.84785" lon="2.25349">
        <ele>71.9</ele>
        <time>2023-11-25T13:28:08Z</time>
      </trkpt>
      <trkpt lat="49.84786" lon="2.2535">
        <ele>71.9</ele>
        <time>2023-11-25T13:28:09Z</time>
      </trkpt>
      <trkpt lat="49.84787" lon="2.2535">
        <ele>71.9</ele>
        <time>2023-11-25T13:28:11Z</time>
      </trkpt>
      <trkpt lat="49.84788" lon="2.25351">
        <ele>71.9</ele>
        <time>2023-11-25T13:28:12Z</time>
      </trkpt>
      <trkpt lat="49.84789" lon="2.25352">
        <ele>72</ele>
        <time>2023-11-25T13:28:13Z</time>
      </trkpt>
      <trkpt lat="49.84789" lon="2.25353">
        <ele>72</ele>
        <time>2023-11-25T13:28:14Z</time>
      </trkpt>
      <trkpt lat="49.84789" lon="2.25353">
        <ele>72</ele>
        <time>2023-11-25T13:28:16Z</time>
      </trkpt>
      <trkpt lat="49.8479" lon="2.25354">
        <ele>72</ele>
        <time>2023-11-25T13:28:17Z</time>
      </trkpt>
      <trkpt lat="49.84791" lon="2.25354">
        <ele>72</ele>
        <time>2023-11-25T13:28:18Z</time>
      </trkpt>
      <trkpt lat="49.84792" lon="2.25354">
        <ele>72</ele>
        <time>2023-11-25T13:28:19Z</time>
      </trkpt>
      <trkpt lat="49.84794" lon="2.25354">
        <ele>72.1</ele>
        <time>2023-11-25T13:28:20Z</time>
      </trkpt>
      <trkpt lat="49.84795" lon="2.25354">
        <ele>72.1</ele>
        <time>2023-11-25T13:28:22Z</time>
      </trkpt>
      <trkpt lat="49.84796" lon="2.25354">
        <ele>72.1</ele>
        <time>2023-11-25T13:28:23Z</time>
      </trkpt>
      <trkpt lat="49.84797" lon="2.25355">
        <ele>72.1</ele>
        <time>2023-11-25T13:28:24Z</time>
      </trkpt>
      <trkpt lat="49.84799" lon="2.25355">
        <ele>72.2</ele>
        <time>2023-11-25T13:28:25Z</time>
      </trkpt>
      <trkpt lat="49.848" lon="2.25355">
        <ele>72.2</ele>
        <time>2023-11-25T13:28:26Z</time>
      </trkpt>
      <trkpt lat="49.84801" lon="2.25355">
        <ele>72.2</ele>
        <time>2023-11-25T13:28:28Z</time>
      </trkpt>
      <trkpt lat="49.84803" lon="2.25355">
        <ele>72.2</ele>
        <time>2023-11-25T13:28:29Z</time>
      </trkpt>
      <trkpt lat="49.84804" lon="2.25355">
        <ele>72.3</ele>
        <time>2023-11-25T13:28:30Z</time>
      </trkpt>
      <trkpt lat="49.84806" lon="2.25356">
        <ele>72.3</ele>
        <time>2023-11-25T13:28:31Z</time>
      </trkpt>
      <trkpt lat="49.84807" lon="2.25356">
        <ele>72.3</ele>
        <time>2023-11-25T13:28:33Z</time>
      </trkpt>
      <trkpt lat="49.84808" lon="2.25356">
        <ele>72.3</ele>
        <time>2023-11-25T13:28:34Z</time>
      </trkpt>
      <trkpt lat="49.84809" lon="2.25356">
        <ele>72.3</ele>
        <time>2023-11-25T13:28:35Z</time>
      </trkpt>
      <trkpt lat="49.8481" lon="2.25356">
        <ele>72.4</ele>
        <time>2023-11-25T13:28:36Z</time>
      </trkpt>
      <trkpt lat="49.84811" lon="2.25356">
        <ele>72.4</ele>
        <time>2023-11-25T13:28:37Z</time>
      </trkpt>
      <trkpt lat="49.84813" lon="2.25356">
        <ele>72.4</ele>
        <time>2023-11-25T13:28:38Z</time>
      </trkpt>
      <trkpt lat="49.84814" lon="2.25357">
        <ele>72.4</ele>
        <time>2023-11-25T13:28:40Z</time>
      </trkpt>
      <trkpt lat="49.84814" lon="2.25357">
        <ele>72.4</ele>
        <time>2023-11-25T13:28:41Z</time>
      </trkpt>
      <trkpt lat="49.84815" lon="2.25357">
        <ele>72.5</ele>
        <time>2023-11-25T13:28:42Z</time>
      </trkpt>
      <trkpt lat="49.84816" lon="2.25357">
        <ele>72.5</ele>
        <time>2023-11-25T13:28:43Z</time>
      </trkpt>
      <trkpt lat="49.84817" lon="2.25358">
        <ele>72.5</ele>
        <time>2023-11-25T13:28:44Z</time>
      </trkpt>
      <trkpt lat="49.84818" lon="2.25358">
        <ele>72.5</ele>
        <time>2023-11-25T13:28:45Z</time>
      </trkpt>
      <trkpt lat="49.84819" lon="2.25358">
        <ele>72.5</ele>
        <time>2023-11-25T13:28:46Z</time>
      </trkpt>
      <trkpt lat="49.8482" lon="2.25359">
        <ele>72.5</ele>
        <time>2023-11-25T13:28:48Z</time>
      </trkpt>
      <trkpt lat="49.84821" lon="2.25359">
        <ele>72.6</ele>
        <time>2023-11-25T13:28:49Z</time>
      </trkpt>
      <trkpt lat="49.84822" lon="2.25359">
        <ele>72.6</ele>
        <time>2023-11-25T13:28:50Z</time>
      </trkpt>
      <trkpt lat="49.84823" lon="2.25359">
        <ele>72.6</ele>
        <time>2023-11-25T13:28:51Z</time>
      </trkpt>
      <trkpt lat="49.84824" lon="2.25359">
        <ele>72.6</ele>
        <time>2023-11-25T13:28:53Z</time>
      </trkpt>
      <trkpt lat="49.84825" lon="2.25359">
        <ele>72.6</ele>
        <time>2023-11-25T13:28:54Z</time>
      </trkpt>
      <trkpt lat="49.84826" lon="2.2536">
        <ele>72.6</ele>
        <time>2023-11-25T13:28:55Z</time>
      </trkpt>
      <trkpt lat="49.84827" lon="2.2536">
        <ele>72.7</ele>
        <time>2023-11-25T13:28:56Z</time>
      </trkpt>
      <trkpt lat="49.84828" lon="2.25361">
        <ele>72.7</ele>
        <time>2023-11-25T13:28:58Z</time>
      </trkpt>
      <trkpt lat="49.84829" lon="2.25362">
        <ele>72.7</ele>
        <time>2023-11-25T13:28:59Z</time>
      </trkpt>
      <trkpt lat="49.8483" lon="2.25362">
        <ele>72.7</ele>
        <time>2023-11-25T13:29:00Z</time>
      </trkpt>
      <trkpt lat="49.84831" lon="2.25363">
        <ele>72.7</ele>
        <time>2023-11-25T13:29:01Z</time>
      </trkpt>
      <trkpt lat="49.84832" lon="2.25363">
        <ele>72.8</ele>
        <time>2023-11-25T13:29:02Z</time>
      </trkpt>
      <trkpt lat="49.84833" lon="2.25364">
        <ele>72.8</ele>
        <time>2023-11-25T13:29:03Z</time>
      </trkpt>
      <trkpt lat="49.84834" lon="2.25364">
        <ele>72.8</ele>
        <time>2023-11-25T13:29:04Z</time>
      </trkpt>
      <trkpt lat="49.84835" lon="2.25364">
        <ele>72.8</ele>
        <time>2023-11-25T13:29:06Z</time>
      </trkpt>
      <trkpt lat="49.84836" lon="2.25364">
        <ele>72.8</ele>
        <time>2023-11-25T13:29:07Z</time>
      </trkpt>
      <trkpt lat="49.84837" lon="2.25365">
        <ele>72.8</ele>
        <time>2023-11-25T13:29:08Z</time>
      </trkpt>
      <trkpt lat="49.84838" lon="2.25365">
        <ele>72.9</ele>
        <time>2023-11-25T13:29:09Z</time>
      </trkpt>
      <trkpt lat="49.84839" lon="2.25365">
        <ele>72.9</ele>
        <time>2023-11-25T13:29:10Z</time>
      </trkpt>
      <trkpt lat="49.8484" lon="2.25366">
        <ele>72.9</ele>
        <time>2023-11-25T13:29:11Z</time>
      </trkpt>
      <trkpt lat="49.84841" lon="2.25366">
        <ele>72.9</ele>
        <time>2023-11-25T13:29:12Z</time>
      </trkpt>
      <trkpt lat="49.84842" lon="2.25367">
        <ele>72.9</ele>
        <time>2023-11-25T13:29:14Z</time>
      </trkpt>
      <trkpt lat="49.84843" lon="2.25367">
        <ele>73</ele>
        <time>2023-11-25T13:29:15Z</time>
      </trkpt>
      <trkpt lat="49.84844" lon="2.25367">
        <ele>73</ele>
        <time>2023-11-25T13:29:16Z</time>
      </trkpt>
      <trkpt lat="49.84845" lon="2.25367">
        <ele>73</ele>
        <time>2023-11-25T13:29:17Z</time>
      </trkpt>
      <trkpt lat="49.84846" lon="2.25368">
        <ele>73</ele>
        <time>2023-11-25T13:29:18Z</time>
      </trkpt>
      <trkpt lat="49.84847" lon="2.25369">
        <ele>73</ele>
        <time>2023-11-25T13:29:19Z</time>
      </trkpt>
      <trkpt lat="49.84848" lon="2.2537">
        <ele>73</ele>
        <time>2023-11-25T13:29:20Z</time>
      </trkpt>
      <trkpt lat="49.8485" lon="2.25371">
        <ele>73.1</ele>
        <time>2023-11-25T13:29:21Z</time>
      </trkpt>
      <trkpt lat="49.84851" lon="2.25371">
        <ele>73.1</ele>
        <time>2023-11-25T13:29:23Z</time>
      </trkpt>
      <trkpt lat="49.84851" lon="2.25371">
        <ele>73.1</ele>
        <time>2023-11-25T13:29:24Z</time>
      </trkpt>
      <trkpt lat="49.84853" lon="2.25371">
        <ele>73.1</ele>
        <time>2023-11-25T13:29:25Z</time>
      </trkpt>
      <trkpt lat="49.84854" lon="2.25371">
        <ele>73.2</ele>
        <time>2023-11-25T13:29:26Z</time>
      </trkpt>
      <trkpt lat="49.84856" lon="2.25371">
        <ele>73.2</ele>
        <time>2023-11-25T13:29:28Z</time>
      </trkpt>
      <trkpt lat="49.84857" lon="2.25371">
        <ele>73.2</ele>
        <time>2023-11-25T13:29:29Z</time>
      </trkpt>
      <trkpt lat="49.84859" lon="2.25371">
        <ele>73.3</ele>
        <time>2023-11-25T13:29:30Z</time>
      </trkpt>
      <trkpt lat="49.8486" lon="2.25371">
        <ele>73.3</ele>
        <time>2023-11-25T13:29:31Z</time>
      </trkpt>
      <trkpt lat="49.84861" lon="2.25371">
        <ele>73.3</ele>
        <time>2023-11-25T13:29:32Z</time>
      </trkpt>
      <trkpt lat="49.84862" lon="2.25371">
        <ele>73.3</ele>
        <time>2023-11-25T13:29:33Z</time>
      </trkpt>
      <trkpt lat="49.84863" lon="2.25371">
        <ele>73.3</ele>
        <time>2023-11-25T13:29:34Z</time>
      </trkpt>
      <trkpt lat="49.84865" lon="2.25371">
        <ele>73.4</ele>
        <time>2023-11-25T13:29:36Z</time>
      </trkpt>
      <trkpt lat="49.84867" lon="2.25372">
        <ele>73.4</ele>
        <time>2023-11-25T13:29:37Z</time>
      </trkpt>
      <trkpt lat="49.84867" lon="2.25372">
        <ele>73.4</ele>
        <time>2023-11-25T13:29:38Z</time>
      </trkpt>
      <trkpt lat="49.84868" lon="2.25372">
        <ele>73.4</ele>
        <time>2023-11-25T13:29:39Z</time>
      </trkpt>
      <trkpt lat="49.84869" lon="2.25373">
        <ele>73.5</ele>
        <time>2023-11-25T13:29:40Z</time>
      </trkpt>
      <trkpt lat="49.8487" lon="2.25373">
        <ele>73.5</ele>
        <time>2023-11-25T13:29:41Z</time>
      </trkpt>
      <trkpt lat="49.84872" lon="2.25374">
        <ele>73.5</ele>
        <time>2023-11-25T13:29:42Z</time>
      </trkpt>
      <trkpt lat="49.84873" lon="2.25374">
        <ele>73.6</ele>
        <time>2023-11-25T13:29:44Z</time>
      </trkpt>
      <trkpt lat="49.84874" lon="2.25374">
        <ele>73.6</ele>
        <time>2023-11-25T13:29:45Z</time>
      </trkpt>
      <trkpt lat="49.84875" lon="2.25374">
        <ele>73.6</ele>
        <time>2023-11-25T13:29:46Z</time>
      </trkpt>
      <trkpt lat="49.84877" lon="2.25374">
        <ele>73.6</ele>
        <time>2023-11-25T13:29:47Z</time>
      </trkpt>
      <trkpt lat="49.84878" lon="2.25374">
        <ele>73.7</ele>
        <time>2023-11-25T13:29:48Z</time>
      </trkpt>
      <trkpt lat="49.84879" lon="2.25374">
        <ele>73.7</ele>
        <time>2023-11-25T13:29:49Z</time>
      </trkpt>
      <trkpt lat="49.8488" lon="2.25374">
        <ele>73.7</ele>
        <time>2023-11-25T13:29:50Z</time>
      </trkpt>
      <trkpt lat="49.84881" lon="2.25374">
        <ele>73.7</ele>
        <time>2023-11-25T13:29:51Z</time>
      </trkpt>
      <trkpt lat="49.84882" lon="2.25374">
        <ele>73.8</ele>
        <time>2023-11-25T13:29:53Z</time>
      </trkpt>
      <trkpt lat="49.84884" lon="2.25375">
        <ele>73.8</ele>
        <time>2023-11-25T13:29:54Z</time>
      </trkpt>
      <trkpt lat="49.84885" lon="2.25375">
        <ele>73.8</ele>
        <time>2023-11-25T13:29:55Z</time>
      </trkpt>
      <trkpt lat="49.84886" lon="2.25375">
        <ele>73.8</ele>
        <time>2023-11-25T13:29:56Z</time>
      </trkpt>
      <trkpt lat="49.84887" lon="2.25376">
        <ele>73.8</ele>
        <time>2023-11-25T13:29:57Z</time>
      </trkpt>
      <trkpt lat="49.84888" lon="2.25376">
        <ele>73.9</ele>
        <time>2023-11-25T13:29:58Z</time>
      </trkpt>
      <trkpt lat="49.84889" lon="2.25376">
        <ele>73.9</ele>
        <time>2023-11-25T13:30:00Z</time>
      </trkpt>
      <trkpt lat="49.8489" lon="2.25377">
        <ele>73.9</ele>
        <time>2023-11-25T13:30:01Z</time>
      </trkpt>
      <trkpt lat="49.84891" lon="2.25377">
        <ele>73.9</ele>
        <time>2023-11-25T13:30:02Z</time>
      </trkpt>
      <trkpt lat="49.84892" lon="2.25378">
        <ele>74</ele>
        <time>2023-11-25T13:30:03Z</time>
      </trkpt>
      <trkpt lat="49.84893" lon="2.25378">
        <ele>74</ele>
        <time>2023-11-25T13:30:04Z</time>
      </trkpt>
      <trkpt lat="49.84894" lon="2.25378">
        <ele>74</ele>
        <time>2023-11-25T13:30:06Z</time>
      </trkpt>
      <trkpt lat="49.84895" lon="2.25378">
        <ele>74</ele>
        <time>2023-11-25T13:30:07Z</time>
      </trkpt>
      <trkpt lat="49.84896" lon="2.25378">
        <ele>74.1</ele>
        <time>2023-11-25T13:30:08Z</time>
      </trkpt>
      <trkpt lat="49.84897" lon="2.25378">
        <ele>74.1</ele>
        <time>2023-11-25T13:30:09Z</time>
      </trkpt>
      <trkpt lat="49.84898" lon="2.25378">
        <ele>74.1</ele>
        <time>2023-11-25T13:30:10Z</time>
      </trkpt>
      <trkpt lat="49.84899" lon="2.25379">
        <ele>74.1</ele>
        <time>2023-11-25T13:30:11Z</time>
      </trkpt>
      <trkpt lat="49.849" lon="2.25379">
        <ele>74.2</ele>
        <time>2023-11-25T13:30:13Z</time>
      </trkpt>
      <trkpt lat="49.84901" lon="2.25379">
        <ele>74.2</ele>
        <time>2023-11-25T13:30:14Z</time>
      </trkpt>
      <trkpt lat="49.84902" lon="2.25379">
        <ele>74.2</ele>
        <time>2023-11-25T13:30:15Z</time>
      </trkpt>
      <trkpt lat="49.84903" lon="2.2538">
        <ele>74.2</ele>
        <time>2023-11-25T13:30:16Z</time>
      </trkpt>
      <trkpt lat="49.84904" lon="2.2538">
        <ele>74.3</ele>
        <time>2023-11-25T13:30:17Z</time>
      </trkpt>
      <trkpt lat="49.84906" lon="2.25381">
        <ele>74.3</ele>
        <time>2023-11-25T13:30:19Z</time>
      </trkpt>
      <trkpt lat="49.84907" lon="2.25382">
        <ele>74.3</ele>
        <time>2023-11-25T13:30:20Z</time>
      </trkpt>
      <trkpt lat="49.84908" lon="2.25382">
        <ele>74.4</ele>
        <time>2023-11-25T13:30:21Z</time>
      </trkpt>
      <trkpt lat="49.84908" lon="2.25383">
        <ele>74.4</ele>
        <time>2023-11-25T13:30:22Z</time>
      </trkpt>
      <trkpt lat="49.8491" lon="2.25383">
        <ele>74.4</ele>
        <time>2023-11-25T13:30:24Z</time>
      </trkpt>
      <trkpt lat="49.84911" lon="2.25383">
        <ele>74.4</ele>
        <time>2023-11-25T13:30:25Z</time>
      </trkpt>
      <trkpt lat="49.84912" lon="2.25383">
        <ele>74.5</ele>
        <time>2023-11-25T13:30:26Z</time>
      </trkpt>
      <trkpt lat="49.84913" lon="2.25383">
        <ele>74.5</ele>
        <time>2023-11-25T13:30:27Z</time>
      </trkpt>
      <trkpt lat="49.84913" lon="2.25383">
        <ele>74.5</ele>
        <time>2023-11-25T13:30:28Z</time>
      </trkpt>
      <trkpt lat="49.84915" lon="2.25383">
        <ele>74.6</ele>
        <time>2023-11-25T13:30:29Z</time>
      </trkpt>
      <trkpt lat="49.84915" lon="2.25384">
        <ele>74.6</ele>
        <time>2023-11-25T13:30:30Z</time>
      </trkpt>
      <trkpt lat="49.84917" lon="2.25384">
        <ele>74.6</ele>
        <time>2023-11-25T13:30:32Z</time>
      </trkpt>
      <trkpt lat="49.84918" lon="2.25384">
        <ele>74.7</ele>
        <time>2023-11-25T13:30:34Z</time>
      </trkpt>
      <trkpt lat="49.8492" lon="2.25384">
        <ele>74.7</ele>
        <time>2023-11-25T13:30:35Z</time>
      </trkpt>
      <trkpt lat="49.84922" lon="2.25384">
        <ele>74.8</ele>
        <time>2023-11-25T13:30:36Z</time>
      </trkpt>
      <trkpt lat="49.84923" lon="2.25384">
        <ele>74.8</ele>
        <time>2023-11-25T13:30:37Z</time>
      </trkpt>
      <trkpt lat="49.84924" lon="2.25385">
        <ele>74.8</ele>
        <time>2023-11-25T13:30:39Z</time>
      </trkpt>
      <trkpt lat="49.84925" lon="2.25385">
        <ele>74.8</ele>
        <time>2023-11-25T13:30:40Z</time>
      </trkpt>
      <trkpt lat="49.84926" lon="2.25385">
        <ele>74.8</ele>
        <time>2023-11-25T13:30:42Z</time>
      </trkpt>
      <trkpt lat="49.84927" lon="2.25385">
        <ele>74.9</ele>
        <time>2023-11-25T13:30:43Z</time>
      </trkpt>
      <trkpt lat="49.84928" lon="2.25386">
        <ele>74.9</ele>
        <time>2023-11-25T13:30:44Z</time>
      </trkpt>
      <trkpt lat="49.84929" lon="2.25386">
        <ele>74.9</ele>
        <time>2023-11-25T13:30:45Z</time>
      </trkpt>
      <trkpt lat="49.8493" lon="2.25387">
        <ele>75</ele>
        <time>2023-11-25T13:30:47Z</time>
      </trkpt>
      <trkpt lat="49.84931" lon="2.25387">
        <ele>75</ele>
        <time>2023-11-25T13:30:48Z</time>
      </trkpt>
      <trkpt lat="49.84932" lon="2.25387">
        <ele>75</ele>
        <time>2023-11-25T13:30:49Z</time>
      </trkpt>
      <trkpt lat="49.84933" lon="2.25387">
        <ele>75</ele>
        <time>2023-11-25T13:30:51Z</time>
      </trkpt>
      <trkpt lat="49.84934" lon="2.25387">
        <ele>75</ele>
        <time>2023-11-25T13:30:52Z</time>
      </trkpt>
      <trkpt lat="49.84935" lon="2.25386">
        <ele>75.1</ele>
        <time>2023-11-25T13:30:53Z</time>
      </trkpt>
      <trkpt lat="49.84936" lon="2.25386">
        <ele>75.1</ele>
        <time>2023-11-25T13:30:54Z</time>
      </trkpt>
      <trkpt lat="49.84937" lon="2.25385">
        <ele>75</ele>
        <time>2023-11-25T13:30:55Z</time>
      </trkpt>
      <trkpt lat="49.84937" lon="2.25384">
        <ele>75</ele>
        <time>2023-11-25T13:30:56Z</time>
      </trkpt>
      <trkpt lat="49.84938" lon="2.25383">
        <ele>75</ele>
        <time>2023-11-25T13:30:58Z</time>
      </trkpt>
      <trkpt lat="49.84938" lon="2.25381">
        <ele>75</ele>
        <time>2023-11-25T13:30:59Z</time>
      </trkpt>
      <trkpt lat="49.84939" lon="2.2538">
        <ele>75</ele>
        <time>2023-11-25T13:31:00Z</time>
      </trkpt>
      <trkpt lat="49.84939" lon="2.25378">
        <ele>75</ele>
        <time>2023-11-25T13:31:01Z</time>
      </trkpt>
      <trkpt lat="49.84939" lon="2.25376">
        <ele>75</ele>
        <time>2023-11-25T13:31:02Z</time>
      </trkpt>
      <trkpt lat="49.84939" lon="2.25374">
        <ele>75</ele>
        <time>2023-11-25T13:31:04Z</time>
      </trkpt>
      <trkpt lat="49.84939" lon="2.25372">
        <ele>75</ele>
        <time>2023-11-25T13:31:05Z</time>
      </trkpt>
      <trkpt lat="49.84939" lon="2.25371">
        <ele>75</ele>
        <time>2023-11-25T13:31:06Z</time>
      </trkpt>
      <trkpt lat="49.84939" lon="2.25369">
        <ele>74.9</ele>
        <time>2023-11-25T13:31:07Z</time>
      </trkpt>
      <trkpt lat="49.84939" lon="2.25368">
        <ele>74.9</ele>
        <time>2023-11-25T13:31:08Z</time>
      </trkpt>
      <trkpt lat="49.84939" lon="2.25366">
        <ele>74.9</ele>
        <time>2023-11-25T13:31:09Z</time>
      </trkpt>
      <trkpt lat="49.84939" lon="2.25364">
        <ele>74.9</ele>
        <time>2023-11-25T13:31:11Z</time>
      </trkpt>
      <trkpt lat="49.84939" lon="2.25362">
        <ele>74.9</ele>
        <time>2023-11-25T13:31:12Z</time>
      </trkpt>
      <trkpt lat="49.8494" lon="2.2536">
        <ele>74.9</ele>
        <time>2023-11-25T13:31:13Z</time>
      </trkpt>
      <trkpt lat="49.8494" lon="2.25358">
        <ele>74.9</ele>
        <time>2023-11-25T13:31:14Z</time>
      </trkpt>
      <trkpt lat="49.8494" lon="2.25357">
        <ele>74.9</ele>
        <time>2023-11-25T13:31:15Z</time>
      </trkpt>
      <trkpt lat="49.84941" lon="2.25353">
        <ele>74.8</ele>
        <time>2023-11-25T13:31:17Z</time>
      </trkpt>
      <trkpt lat="49.84941" lon="2.25352">
        <ele>74.8</ele>
        <time>2023-11-25T13:31:18Z</time>
      </trkpt>
      <trkpt lat="49.84941" lon="2.25351">
        <ele>74.8</ele>
        <time>2023-11-25T13:31:19Z</time>
      </trkpt>
      <trkpt lat="49.84941" lon="2.25349">
        <ele>74.8</ele>
        <time>2023-11-25T13:31:20Z</time>
      </trkpt>
      <trkpt lat="49.84942" lon="2.25348">
        <ele>74.8</ele>
        <time>2023-11-25T13:31:21Z</time>
      </trkpt>
      <trkpt lat="49.84942" lon="2.25346">
        <ele>74.8</ele>
        <time>2023-11-25T13:31:22Z</time>
      </trkpt>
      <trkpt lat="49.84943" lon="2.25344">
        <ele>74.7</ele>
        <time>2023-11-25T13:31:24Z</time>
      </trkpt>
      <trkpt lat="49.84943" lon="2.25342">
        <ele>74.7</ele>
        <time>2023-11-25T13:31:25Z</time>
      </trkpt>
      <trkpt lat="49.84943" lon="2.25339">
        <ele>74.7</ele>
        <time>2023-11-25T13:31:26Z</time>
      </trkpt>
      <trkpt lat="49.84944" lon="2.25338">
        <ele>74.7</ele>
        <time>2023-11-25T13:31:27Z</time>
      </trkpt>
      <trkpt lat="49.84944" lon="2.25337">
        <ele>74.7</ele>
        <time>2023-11-25T13:31:28Z</time>
      </trkpt>
      <trkpt lat="49.84944" lon="2.25334">
        <ele>74.6</ele>
        <time>2023-11-25T13:31:30Z</time>
      </trkpt>
      <trkpt lat="49.84944" lon="2.25332">
        <ele>74.6</ele>
        <time>2023-11-25T13:31:31Z</time>
      </trkpt>
      <trkpt lat="49.84945" lon="2.2533">
        <ele>74.6</ele>
        <time>2023-11-25T13:31:32Z</time>
      </trkpt>
      <trkpt lat="49.84945" lon="2.25328">
        <ele>74.6</ele>
        <time>2023-11-25T13:31:33Z</time>
      </trkpt>
      <trkpt lat="49.84945" lon="2.25326">
        <ele>74.5</ele>
        <time>2023-11-25T13:31:34Z</time>
      </trkpt>
      <trkpt lat="49.84945" lon="2.25324">
        <ele>74.5</ele>
        <time>2023-11-25T13:31:35Z</time>
      </trkpt>
      <trkpt lat="49.84946" lon="2.25322">
        <ele>74.5</ele>
        <time>2023-11-25T13:31:37Z</time>
      </trkpt>
      <trkpt lat="49.84946" lon="2.2532">
        <ele>74.5</ele>
        <time>2023-11-25T13:31:38Z</time>
      </trkpt>
      <trkpt lat="49.84946" lon="2.25317">
        <ele>74.4</ele>
        <time>2023-11-25T13:31:39Z</time>
      </trkpt>
      <trkpt lat="49.84946" lon="2.25315">
        <ele>74.4</ele>
        <time>2023-11-25T13:31:40Z</time>
      </trkpt>
      <trkpt lat="49.84947" lon="2.25313">
        <ele>74.4</ele>
        <time>2023-11-25T13:31:41Z</time>
      </trkpt>
      <trkpt lat="49.84947" lon="2.2531">
        <ele>74.4</ele>
        <time>2023-11-25T13:31:42Z</time>
      </trkpt>
      <trkpt lat="49.84947" lon="2.25309">
        <ele>74.3</ele>
        <time>2023-11-25T13:31:44Z</time>
      </trkpt>
      <trkpt lat="49.84947" lon="2.25308">
        <ele>74.3</ele>
        <time>2023-11-25T13:31:45Z</time>
      </trkpt>
      <trkpt lat="49.84948" lon="2.25304">
        <ele>74.3</ele>
        <time>2023-11-25T13:31:46Z</time>
      </trkpt>
      <trkpt lat="49.84948" lon="2.25303">
        <ele>74.3</ele>
        <time>2023-11-25T13:31:47Z</time>
      </trkpt>
      <trkpt lat="49.84948" lon="2.25302">
        <ele>74.3</ele>
        <time>2023-11-25T13:31:48Z</time>
      </trkpt>
      <trkpt lat="49.84948" lon="2.253">
        <ele>74.3</ele>
        <time>2023-11-25T13:31:49Z</time>
      </trkpt>
      <trkpt lat="49.84948" lon="2.25298">
        <ele>74.2</ele>
        <time>2023-11-25T13:31:50Z</time>
      </trkpt>
      <trkpt lat="49.84948" lon="2.25296">
        <ele>74.2</ele>
        <time>2023-11-25T13:31:52Z</time>
      </trkpt>
      <trkpt lat="49.84949" lon="2.25294">
        <ele>74.2</ele>
        <time>2023-11-25T13:31:53Z</time>
      </trkpt>
      <trkpt lat="49.84949" lon="2.25292">
        <ele>74.2</ele>
        <time>2023-11-25T13:31:54Z</time>
      </trkpt>
      <trkpt lat="49.8495" lon="2.2529">
        <ele>74.2</ele>
        <time>2023-11-25T13:31:55Z</time>
      </trkpt>
      <trkpt lat="49.8495" lon="2.25287">
        <ele>74.1</ele>
        <time>2023-11-25T13:31:56Z</time>
      </trkpt>
      <trkpt lat="49.84951" lon="2.25286">
        <ele>74.1</ele>
        <time>2023-11-25T13:31:57Z</time>
      </trkpt>
      <trkpt lat="49.84951" lon="2.25284">
        <ele>74.1</ele>
        <time>2023-11-25T13:31:58Z</time>
      </trkpt>
      <trkpt lat="49.84951" lon="2.25282">
        <ele>74.1</ele>
        <time>2023-11-25T13:32:00Z</time>
      </trkpt>
      <trkpt lat="49.84952" lon="2.2528">
        <ele>74.1</ele>
        <time>2023-11-25T13:32:01Z</time>
      </trkpt>
      <trkpt lat="49.84952" lon="2.25277">
        <ele>74.1</ele>
        <time>2023-11-25T13:32:02Z</time>
      </trkpt>
      <trkpt lat="49.84953" lon="2.25274">
        <ele>74</ele>
        <time>2023-11-25T13:32:03Z</time>
      </trkpt>
      <trkpt lat="49.84953" lon="2.25273">
        <ele>74</ele>
        <time>2023-11-25T13:32:04Z</time>
      </trkpt>
      <trkpt lat="49.84953" lon="2.25272">
        <ele>74</ele>
        <time>2023-11-25T13:32:05Z</time>
      </trkpt>
      <trkpt lat="49.84954" lon="2.25269">
        <ele>74</ele>
        <time>2023-11-25T13:32:06Z</time>
      </trkpt>
      <trkpt lat="49.84954" lon="2.25268">
        <ele>74</ele>
        <time>2023-11-25T13:32:08Z</time>
      </trkpt>
      <trkpt lat="49.84954" lon="2.25267">
        <ele>74</ele>
        <time>2023-11-25T13:32:09Z</time>
      </trkpt>
      <trkpt lat="49.84955" lon="2.25265">
        <ele>74</ele>
        <time>2023-11-25T13:32:10Z</time>
      </trkpt>
      <trkpt lat="49.84955" lon="2.25263">
        <ele>73.9</ele>
        <time>2023-11-25T13:32:11Z</time>
      </trkpt>
      <trkpt lat="49.84956" lon="2.25262">
        <ele>73.9</ele>
        <time>2023-11-25T13:32:12Z</time>
      </trkpt>
      <trkpt lat="49.84956" lon="2.25261">
        <ele>73.9</ele>
        <time>2023-11-25T13:32:13Z</time>
      </trkpt>
      <trkpt lat="49.84956" lon="2.25259">
        <ele>73.9</ele>
        <time>2023-11-25T13:32:15Z</time>
      </trkpt>
      <trkpt lat="49.84957" lon="2.25257">
        <ele>73.9</ele>
        <time>2023-11-25T13:32:16Z</time>
      </trkpt>
      <trkpt lat="49.84957" lon="2.25255">
        <ele>73.9</ele>
        <time>2023-11-25T13:32:17Z</time>
      </trkpt>
      <trkpt lat="49.84957" lon="2.25254">
        <ele>73.9</ele>
        <time>2023-11-25T13:32:18Z</time>
      </trkpt>
      <trkpt lat="49.84958" lon="2.25252">
        <ele>73.9</ele>
        <time>2023-11-25T13:32:19Z</time>
      </trkpt>
      <trkpt lat="49.84958" lon="2.25251">
        <ele>73.9</ele>
        <time>2023-11-25T13:32:20Z</time>
      </trkpt>
      <trkpt lat="49.84958" lon="2.25249">
        <ele>73.9</ele>
        <time>2023-11-25T13:32:21Z</time>
      </trkpt>
      <trkpt lat="49.84959" lon="2.25247">
        <ele>73.8</ele>
        <time>2023-11-25T13:32:23Z</time>
      </trkpt>
      <trkpt lat="49.84959" lon="2.25246">
        <ele>73.8</ele>
        <time>2023-11-25T13:32:24Z</time>
      </trkpt>
      <trkpt lat="49.8496" lon="2.25244">
        <ele>73.8</ele>
        <time>2023-11-25T13:32:25Z</time>
      </trkpt>
      <trkpt lat="49.8496" lon="2.25243">
        <ele>73.8</ele>
        <time>2023-11-25T13:32:26Z</time>
      </trkpt>
      <trkpt lat="49.84961" lon="2.25242">
        <ele>73.8</ele>
        <time>2023-11-25T13:32:27Z</time>
      </trkpt>
      <trkpt lat="49.84961" lon="2.25241">
        <ele>73.8</ele>
        <time>2023-11-25T13:32:28Z</time>
      </trkpt>
      <trkpt lat="49.84961" lon="2.25239">
        <ele>73.8</ele>
        <time>2023-11-25T13:32:29Z</time>
      </trkpt>
      <trkpt lat="49.84962" lon="2.25238">
        <ele>73.8</ele>
        <time>2023-11-25T13:32:31Z</time>
      </trkpt>
      <trkpt lat="49.84962" lon="2.25236">
        <ele>73.8</ele>
        <time>2023-11-25T13:32:32Z</time>
      </trkpt>
      <trkpt lat="49.84962" lon="2.25235">
        <ele>73.8</ele>
        <time>2023-11-25T13:32:33Z</time>
      </trkpt>
      <trkpt lat="49.84963" lon="2.25233">
        <ele>73.7</ele>
        <time>2023-11-25T13:32:34Z</time>
      </trkpt>
      <trkpt lat="49.84963" lon="2.25232">
        <ele>73.7</ele>
        <time>2023-11-25T13:32:35Z</time>
      </trkpt>
      <trkpt lat="49.84963" lon="2.2523">
        <ele>73.7</ele>
        <time>2023-11-25T13:32:36Z</time>
      </trkpt>
      <trkpt lat="49.84964" lon="2.25229">
        <ele>73.7</ele>
        <time>2023-11-25T13:32:37Z</time>
      </trkpt>
      <trkpt lat="49.84964" lon="2.25227">
        <ele>73.7</ele>
        <time>2023-11-25T13:32:39Z</time>
      </trkpt>
      <trkpt lat="49.84964" lon="2.25225">
        <ele>73.7</ele>
        <time>2023-11-25T13:32:40Z</time>
      </trkpt>
      <trkpt lat="49.84965" lon="2.25224">
        <ele>73.7</ele>
        <time>2023-11-25T13:32:41Z</time>
      </trkpt>
      <trkpt lat="49.84965" lon="2.25222">
        <ele>73.7</ele>
        <time>2023-11-25T13:32:42Z</time>
      </trkpt>
      <trkpt lat="49.84965" lon="2.2522">
        <ele>73.7</ele>
        <time>2023-11-25T13:32:43Z</time>
      </trkpt>
      <trkpt lat="49.84965" lon="2.25219">
        <ele>73.6</ele>
        <time>2023-11-25T13:32:44Z</time>
      </trkpt>
      <trkpt lat="49.84965" lon="2.25217">
        <ele>73.6</ele>
        <time>2023-11-25T13:32:45Z</time>
      </trkpt>
      <trkpt lat="49.84966" lon="2.25216">
        <ele>73.6</ele>
        <time>2023-11-25T13:32:47Z</time>
      </trkpt>
      <trkpt lat="49.84966" lon="2.25214">
        <ele>73.6</ele>
        <time>2023-11-25T13:32:48Z</time>
      </trkpt>
      <trkpt lat="49.84967" lon="2.25213">
        <ele>73.6</ele>
        <time>2023-11-25T13:32:49Z</time>
      </trkpt>
      <trkpt lat="49.84968" lon="2.25212">
        <ele>73.6</ele>
        <time>2023-11-25T13:32:50Z</time>
      </trkpt>
      <trkpt lat="49.84969" lon="2.25211">
        <ele>73.5</ele>
        <time>2023-11-25T13:32:51Z</time>
      </trkpt>
      <trkpt lat="49.8497" lon="2.2521">
        <ele>73.5</ele>
        <time>2023-11-25T13:32:52Z</time>
      </trkpt>
      <trkpt lat="49.84971" lon="2.2521">
        <ele>73.5</ele>
        <time>2023-11-25T13:32:53Z</time>
      </trkpt>
      <trkpt lat="49.84972" lon="2.25209">
        <ele>73.5</ele>
        <time>2023-11-25T13:32:54Z</time>
      </trkpt>
      <trkpt lat="49.84974" lon="2.25208">
        <ele>73.4</ele>
        <time>2023-11-25T13:32:56Z</time>
      </trkpt>
      <trkpt lat="49.84975" lon="2.25208">
        <ele>73.4</ele>
        <time>2023-11-25T13:32:57Z</time>
      </trkpt>
      <trkpt lat="49.84976" lon="2.25208">
        <ele>73.4</ele>
        <time>2023-11-25T13:32:58Z</time>
      </trkpt>
      <trkpt lat="49.84978" lon="2.25209">
        <ele>73.4</ele>
        <time>2023-11-25T13:32:59Z</time>
      </trkpt>
      <trkpt lat="49.84979" lon="2.25209">
        <ele>73.4</ele>
        <time>2023-11-25T13:33:00Z</time>
      </trkpt>
      <trkpt lat="49.84979" lon="2.2521">
        <ele>73.3</ele>
        <time>2023-11-25T13:33:01Z</time>
      </trkpt>
      <trkpt lat="49.84981" lon="2.25211">
        <ele>73.3</ele>
        <time>2023-11-25T13:33:02Z</time>
      </trkpt>
      <trkpt lat="49.84982" lon="2.25212">
        <ele>73.3</ele>
        <time>2023-11-25T13:33:04Z</time>
      </trkpt>
      <trkpt lat="49.84983" lon="2.25212">
        <ele>73.3</ele>
        <time>2023-11-25T13:33:05Z</time>
      </trkpt>
      <trkpt lat="49.84984" lon="2.25214">
        <ele>73.3</ele>
        <time>2023-11-25T13:33:06Z</time>
      </trkpt>
      <trkpt lat="49.84985" lon="2.25215">
        <ele>73.3</ele>
        <time>2023-11-25T13:33:07Z</time>
      </trkpt>
      <trkpt lat="49.84986" lon="2.25216">
        <ele>73.2</ele>
        <time>2023-11-25T13:33:08Z</time>
      </trkpt>
      <trkpt lat="49.84987" lon="2.25217">
        <ele>73.2</ele>
        <time>2023-11-25T13:33:09Z</time>
      </trkpt>
      <trkpt lat="49.84988" lon="2.25218">
        <ele>73.2</ele>
        <time>2023-11-25T13:33:10Z</time>
      </trkpt>
      <trkpt lat="49.84989" lon="2.25219">
        <ele>73.2</ele>
        <time>2023-11-25T13:33:12Z</time>
      </trkpt>
      <trkpt lat="49.8499" lon="2.2522">
        <ele>73.2</ele>
        <time>2023-11-25T13:33:13Z</time>
      </trkpt>
      <trkpt lat="49.84991" lon="2.25221">
        <ele>73.2</ele>
        <time>2023-11-25T13:33:14Z</time>
      </trkpt>
      <trkpt lat="49.84992" lon="2.25222">
        <ele>73.1</ele>
        <time>2023-11-25T13:33:15Z</time>
      </trkpt>
      <trkpt lat="49.84993" lon="2.25223">
        <ele>73.1</ele>
        <time>2023-11-25T13:33:16Z</time>
      </trkpt>
      <trkpt lat="49.84994" lon="2.25223">
        <ele>73.1</ele>
        <time>2023-11-25T13:33:17Z</time>
      </trkpt>
      <trkpt lat="49.84996" lon="2.25225">
        <ele>73.1</ele>
        <time>2023-11-25T13:33:18Z</time>
      </trkpt>
      <trkpt lat="49.84997" lon="2.25226">
        <ele>73.1</ele>
        <time>2023-11-25T13:33:20Z</time>
      </trkpt>
      <trkpt lat="49.84998" lon="2.25227">
        <ele>73.1</ele>
        <time>2023-11-25T13:33:21Z</time>
      </trkpt>
      <trkpt lat="49.84999" lon="2.25228">
        <ele>73</ele>
        <time>2023-11-25T13:33:22Z</time>
      </trkpt>
      <trkpt lat="49.85001" lon="2.25228">
        <ele>73</ele>
        <time>2023-11-25T13:33:23Z</time>
      </trkpt>
      <trkpt lat="49.85002" lon="2.25229">
        <ele>73</ele>
        <time>2023-11-25T13:33:24Z</time>
      </trkpt>
      <trkpt lat="49.85003" lon="2.2523">
        <ele>73</ele>
        <time>2023-11-25T13:33:25Z</time>
      </trkpt>
      <trkpt lat="49.85005" lon="2.25231">
        <ele>73</ele>
        <time>2023-11-25T13:33:27Z</time>
      </trkpt>
      <trkpt lat="49.85006" lon="2.25232">
        <ele>73</ele>
        <time>2023-11-25T13:33:28Z</time>
      </trkpt>
      <trkpt lat="49.85007" lon="2.25233">
        <ele>72.9</ele>
        <time>2023-11-25T13:33:29Z</time>
      </trkpt>
      <trkpt lat="49.85009" lon="2.25233">
        <ele>72.9</ele>
        <time>2023-11-25T13:33:30Z</time>
      </trkpt>
      <trkpt lat="49.85011" lon="2.25235">
        <ele>72.9</ele>
        <time>2023-11-25T13:33:31Z</time>
      </trkpt>
      <trkpt lat="49.85012" lon="2.25235">
        <ele>72.9</ele>
        <time>2023-11-25T13:33:32Z</time>
      </trkpt>
      <trkpt lat="49.85012" lon="2.25236">
        <ele>72.8</ele>
        <time>2023-11-25T13:33:33Z</time>
      </trkpt>
      <trkpt lat="49.85014" lon="2.25237">
        <ele>72.8</ele>
        <time>2023-11-25T13:33:35Z</time>
      </trkpt>
      <trkpt lat="49.85015" lon="2.25237">
        <ele>72.8</ele>
        <time>2023-11-25T13:33:36Z</time>
      </trkpt>
      <trkpt lat="49.85016" lon="2.25238">
        <ele>72.8</ele>
        <time>2023-11-25T13:33:37Z</time>
      </trkpt>
      <trkpt lat="49.85018" lon="2.25239">
        <ele>72.7</ele>
        <time>2023-11-25T13:33:38Z</time>
      </trkpt>
      <trkpt lat="49.85019" lon="2.2524">
        <ele>72.7</ele>
        <time>2023-11-25T13:33:39Z</time>
      </trkpt>
      <trkpt lat="49.8502" lon="2.2524">
        <ele>72.7</ele>
        <time>2023-11-25T13:33:40Z</time>
      </trkpt>
      <trkpt lat="49.85022" lon="2.25241">
        <ele>72.7</ele>
        <time>2023-11-25T13:33:41Z</time>
      </trkpt>
      <trkpt lat="49.85023" lon="2.25242">
        <ele>72.6</ele>
        <time>2023-11-25T13:33:42Z</time>
      </trkpt>
      <trkpt lat="49.85024" lon="2.25243">
        <ele>72.6</ele>
        <time>2023-11-25T13:33:44Z</time>
      </trkpt>
      <trkpt lat="49.85026" lon="2.25244">
        <ele>72.6</ele>
        <time>2023-11-25T13:33:45Z</time>
      </trkpt>
      <trkpt lat="49.85026" lon="2.25245">
        <ele>72.5</ele>
        <time>2023-11-25T13:33:46Z</time>
      </trkpt>
      <trkpt lat="49.85027" lon="2.25246">
        <ele>72.5</ele>
        <time>2023-11-25T13:33:47Z</time>
      </trkpt>
      <trkpt lat="49.85029" lon="2.25248">
        <ele>72.5</ele>
        <time>2023-11-25T13:33:48Z</time>
      </trkpt>
      <trkpt lat="49.85029" lon="2.25249">
        <ele>72.5</ele>
        <time>2023-11-25T13:33:49Z</time>
      </trkpt>
      <trkpt lat="49.8503" lon="2.25249">
        <ele>72.4</ele>
        <time>2023-11-25T13:33:50Z</time>
      </trkpt>
      <trkpt lat="49.85032" lon="2.25251">
        <ele>72.4</ele>
        <time>2023-11-25T13:33:52Z</time>
      </trkpt>
      <trkpt lat="49.85033" lon="2.25252">
        <ele>72.4</ele>
        <time>2023-11-25T13:33:53Z</time>
      </trkpt>
      <trkpt lat="49.85033" lon="2.25252">
        <ele>72.4</ele>
        <time>2023-11-25T13:33:54Z</time>
      </trkpt>
      <trkpt lat="49.85035" lon="2.25254">
        <ele>72.3</ele>
        <time>2023-11-25T13:33:55Z</time>
      </trkpt>
      <trkpt lat="49.85036" lon="2.25254">
        <ele>72.3</ele>
        <time>2023-11-25T13:33:56Z</time>
      </trkpt>
      <trkpt lat="49.85037" lon="2.25255">
        <ele>72.3</ele>
        <time>2023-11-25T13:33:57Z</time>
      </trkpt>
      <trkpt lat="49.85039" lon="2.25256">
        <ele>72.2</ele>
        <time>2023-11-25T13:33:58Z</time>
      </trkpt>
      <trkpt lat="49.85039" lon="2.25257">
        <ele>72.2</ele>
        <time>2023-11-25T13:34:00Z</time>
      </trkpt>
      <trkpt lat="49.8504" lon="2.25258">
        <ele>72.2</ele>
        <time>2023-11-25T13:34:01Z</time>
      </trkpt>
      <trkpt lat="49.85041" lon="2.25259">
        <ele>72.2</ele>
        <time>2023-11-25T13:34:02Z</time>
      </trkpt>
      <trkpt lat="49.85042" lon="2.2526">
        <ele>72.1</ele>
        <time>2023-11-25T13:34:03Z</time>
      </trkpt>
      <trkpt lat="49.85044" lon="2.25261">
        <ele>72.1</ele>
        <time>2023-11-25T13:34:04Z</time>
      </trkpt>
      <trkpt lat="49.85045" lon="2.25261">
        <ele>72.1</ele>
        <time>2023-11-25T13:34:05Z</time>
      </trkpt>
      <trkpt lat="49.85046" lon="2.25262">
        <ele>72</ele>
        <time>2023-11-25T13:34:06Z</time>
      </trkpt>
      <trkpt lat="49.85047" lon="2.25263">
        <ele>72</ele>
        <time>2023-11-25T13:34:07Z</time>
      </trkpt>
      <trkpt lat="49.85048" lon="2.25264">
        <ele>72</ele>
        <time>2023-11-25T13:34:09Z</time>
      </trkpt>
      <trkpt lat="49.85049" lon="2.25265">
        <ele>71.9</ele>
        <time>2023-11-25T13:34:10Z</time>
      </trkpt>
      <trkpt lat="49.85049" lon="2.25266">
        <ele>71.9</ele>
        <time>2023-11-25T13:34:11Z</time>
      </trkpt>
      <trkpt lat="49.8505" lon="2.25267">
        <ele>71.9</ele>
        <time>2023-11-25T13:34:12Z</time>
      </trkpt>
      <trkpt lat="49.85051" lon="2.25268">
        <ele>71.8</ele>
        <time>2023-11-25T13:34:13Z</time>
      </trkpt>
      <trkpt lat="49.85052" lon="2.25269">
        <ele>71.8</ele>
        <time>2023-11-25T13:34:14Z</time>
      </trkpt>
      <trkpt lat="49.85053" lon="2.25271">
        <ele>71.7</ele>
        <time>2023-11-25T13:34:15Z</time>
      </trkpt>
      <trkpt lat="49.85054" lon="2.25271">
        <ele>71.7</ele>
        <time>2023-11-25T13:34:17Z</time>
      </trkpt>
      <trkpt lat="49.85055" lon="2.25272">
        <ele>71.7</ele>
        <time>2023-11-25T13:34:18Z</time>
      </trkpt>
      <trkpt lat="49.85056" lon="2.25273">
        <ele>71.6</ele>
        <time>2023-11-25T13:34:19Z</time>
      </trkpt>
      <trkpt lat="49.85057" lon="2.25273">
        <ele>71.6</ele>
        <time>2023-11-25T13:34:20Z</time>
      </trkpt>
      <trkpt lat="49.85058" lon="2.25274">
        <ele>71.5</ele>
        <time>2023-11-25T13:34:21Z</time>
      </trkpt>
      <trkpt lat="49.85059" lon="2.25275">
        <ele>71.5</ele>
        <time>2023-11-25T13:34:22Z</time>
      </trkpt>
      <trkpt lat="49.8506" lon="2.25275">
        <ele>71.5</ele>
        <time>2023-11-25T13:34:23Z</time>
      </trkpt>
      <trkpt lat="49.85061" lon="2.25276">
        <ele>71.4</ele>
        <time>2023-11-25T13:34:24Z</time>
      </trkpt>
      <trkpt lat="49.85061" lon="2.25276">
        <ele>71.4</ele>
        <time>2023-11-25T13:34:26Z</time>
      </trkpt>
      <trkpt lat="49.85063" lon="2.25277">
        <ele>71.3</ele>
        <time>2023-11-25T13:34:27Z</time>
      </trkpt>
      <trkpt lat="49.85064" lon="2.25278">
        <ele>71.3</ele>
        <time>2023-11-25T13:34:28Z</time>
      </trkpt>
      <trkpt lat="49.85065" lon="2.25278">
        <ele>71.2</ele>
        <time>2023-11-25T13:34:29Z</time>
      </trkpt>
      <trkpt lat="49.85066" lon="2.25279">
        <ele>71.1</ele>
        <time>2023-11-25T13:34:30Z</time>
      </trkpt>
      <trkpt lat="49.85066" lon="2.2528">
        <ele>71.1</ele>
        <time>2023-11-25T13:34:31Z</time>
      </trkpt>
      <trkpt lat="49.85067" lon="2.25281">
        <ele>71.1</ele>
        <time>2023-11-25T13:34:32Z</time>
      </trkpt>
      <trkpt lat="49.85068" lon="2.25282">
        <ele>71</ele>
        <time>2023-11-25T13:34:34Z</time>
      </trkpt>
      <trkpt lat="49.85069" lon="2.25283">
        <ele>70.9</ele>
        <time>2023-11-25T13:34:35Z</time>
      </trkpt>
      <trkpt lat="49.8507" lon="2.25284">
        <ele>70.8</ele>
        <time>2023-11-25T13:34:36Z</time>
      </trkpt>
      <trkpt lat="49.85071" lon="2.25285">
        <ele>70.8</ele>
        <time>2023-11-25T13:34:37Z</time>
      </trkpt>
      <trkpt lat="49.85072" lon="2.25286">
        <ele>70.7</ele>
        <time>2023-11-25T13:34:38Z</time>
      </trkpt>
      <trkpt lat="49.85072" lon="2.25286">
        <ele>70.6</ele>
        <time>2023-11-25T13:34:39Z</time>
      </trkpt>
      <trkpt lat="49.85073" lon="2.25287">
        <ele>70.6</ele>
        <time>2023-11-25T13:34:40Z</time>
      </trkpt>
      <trkpt lat="49.85074" lon="2.25287">
        <ele>70.5</ele>
        <time>2023-11-25T13:34:42Z</time>
      </trkpt>
      <trkpt lat="49.85075" lon="2.25288">
        <ele>70.4</ele>
        <time>2023-11-25T13:34:43Z</time>
      </trkpt>
      <trkpt lat="49.85076" lon="2.25289">
        <ele>70.3</ele>
        <time>2023-11-25T13:34:44Z</time>
      </trkpt>
      <trkpt lat="49.85077" lon="2.2529">
        <ele>70.3</ele>
        <time>2023-11-25T13:34:45Z</time>
      </trkpt>
      <trkpt lat="49.85078" lon="2.25291">
        <ele>70.2</ele>
        <time>2023-11-25T13:34:46Z</time>
      </trkpt>
      <trkpt lat="49.85078" lon="2.25292">
        <ele>70.1</ele>
        <time>2023-11-25T13:34:47Z</time>
      </trkpt>
      <trkpt lat="49.85079" lon="2.25293">
        <ele>70</ele>
        <time>2023-11-25T13:34:48Z</time>
      </trkpt>
      <trkpt lat="49.85081" lon="2.25294">
        <ele>69.9</ele>
        <time>2023-11-25T13:34:50Z</time>
      </trkpt>
      <trkpt lat="49.85082" lon="2.25294">
        <ele>69.8</ele>
        <time>2023-11-25T13:34:51Z</time>
      </trkpt>
      <trkpt lat="49.85083" lon="2.25295">
        <ele>69.7</ele>
        <time>2023-11-25T13:34:52Z</time>
      </trkpt>
      <trkpt lat="49.85084" lon="2.25295">
        <ele>69.6</ele>
        <time>2023-11-25T13:34:53Z</time>
      </trkpt>
      <trkpt lat="49.85085" lon="2.25296">
        <ele>69.5</ele>
        <time>2023-11-25T13:34:54Z</time>
      </trkpt>
      <trkpt lat="49.85086" lon="2.25297">
        <ele>69.4</ele>
        <time>2023-11-25T13:34:55Z</time>
      </trkpt>
      <trkpt lat="49.85087" lon="2.25297">
        <ele>69.3</ele>
        <time>2023-11-25T13:34:57Z</time>
      </trkpt>
      <trkpt lat="49.85088" lon="2.25298">
        <ele>69.2</ele>
        <time>2023-11-25T13:34:58Z</time>
      </trkpt>
      <trkpt lat="49.85089" lon="2.25299">
        <ele>69.1</ele>
        <time>2023-11-25T13:34:59Z</time>
      </trkpt>
      <trkpt lat="49.8509" lon="2.253">
        <ele>69</ele>
        <time>2023-11-25T13:35:00Z</time>
      </trkpt>
      <trkpt lat="49.85091" lon="2.253">
        <ele>68.9</ele>
        <time>2023-11-25T13:35:01Z</time>
      </trkpt>
      <trkpt lat="49.85091" lon="2.25302">
        <ele>68.8</ele>
        <time>2023-11-25T13:35:02Z</time>
      </trkpt>
      <trkpt lat="49.85091" lon="2.25303">
        <ele>68.7</ele>
        <time>2023-11-25T13:35:03Z</time>
      </trkpt>
      <trkpt lat="49.85091" lon="2.25305">
        <ele>68.6</ele>
        <time>2023-11-25T13:35:04Z</time>
      </trkpt>
      <trkpt lat="49.85091" lon="2.25305">
        <ele>68.5</ele>
        <time>2023-11-25T13:35:05Z</time>
      </trkpt>
      <trkpt lat="49.85092" lon="2.25306">
        <ele>68.4</ele>
        <time>2023-11-25T13:35:07Z</time>
      </trkpt>
      <trkpt lat="49.85093" lon="2.25306">
        <ele>68.3</ele>
        <time>2023-11-25T13:35:08Z</time>
      </trkpt>
      <trkpt lat="49.85095" lon="2.25306">
        <ele>68.1</ele>
        <time>2023-11-25T13:35:09Z</time>
      </trkpt>
      <trkpt lat="49.85096" lon="2.25306">
        <ele>68.1</ele>
        <time>2023-11-25T13:35:10Z</time>
      </trkpt>
      <trkpt lat="49.85097" lon="2.25307">
        <ele>68</ele>
        <time>2023-11-25T13:35:11Z</time>
      </trkpt>
      <trkpt lat="49.85098" lon="2.25307">
        <ele>67.9</ele>
        <time>2023-11-25T13:35:12Z</time>
      </trkpt>
      <trkpt lat="49.85099" lon="2.25308">
        <ele>67.7</ele>
        <time>2023-11-25T13:35:13Z</time>
      </trkpt>
      <trkpt lat="49.85101" lon="2.25308">
        <ele>67.6</ele>
        <time>2023-11-25T13:35:15Z</time>
      </trkpt>
      <trkpt lat="49.85102" lon="2.25309">
        <ele>67.5</ele>
        <time>2023-11-25T13:35:16Z</time>
      </trkpt>
      <trkpt lat="49.85103" lon="2.2531">
        <ele>67.3</ele>
        <time>2023-11-25T13:35:17Z</time>
      </trkpt>
      <trkpt lat="49.85105" lon="2.25311">
        <ele>67.2</ele>
        <time>2023-11-25T13:35:18Z</time>
      </trkpt>
      <trkpt lat="49.85106" lon="2.25311">
        <ele>67.1</ele>
        <time>2023-11-25T13:35:19Z</time>
      </trkpt>
      <trkpt lat="49.85108" lon="2.25313">
        <ele>66.9</ele>
        <time>2023-11-25T13:35:20Z</time>
      </trkpt>
      <trkpt lat="49.85109" lon="2.25313">
        <ele>66.8</ele>
        <time>2023-11-25T13:35:21Z</time>
      </trkpt>
      <trkpt lat="49.8511" lon="2.25314">
        <ele>66.7</ele>
        <time>2023-11-25T13:35:23Z</time>
      </trkpt>
      <trkpt lat="49.85111" lon="2.25315">
        <ele>66.7</ele>
        <time>2023-11-25T13:35:24Z</time>
      </trkpt>
      <trkpt lat="49.85112" lon="2.25315">
        <ele>66.6</ele>
        <time>2023-11-25T13:35:25Z</time>
      </trkpt>
      <trkpt lat="49.85113" lon="2.25316">
        <ele>66.5</ele>
        <time>2023-11-25T13:35:26Z</time>
      </trkpt>
      <trkpt lat="49.85115" lon="2.25317">
        <ele>66.3</ele>
        <time>2023-11-25T13:35:27Z</time>
      </trkpt>
      <trkpt lat="49.85116" lon="2.25317">
        <ele>66.3</ele>
        <time>2023-11-25T13:35:28Z</time>
      </trkpt>
      <trkpt lat="49.85116" lon="2.25318">
        <ele>66.2</ele>
        <time>2023-11-25T13:35:29Z</time>
      </trkpt>
      <trkpt lat="49.85118" lon="2.25318">
        <ele>66.1</ele>
        <time>2023-11-25T13:35:30Z</time>
      </trkpt>
      <trkpt lat="49.85119" lon="2.25319">
        <ele>66.1</ele>
        <time>2023-11-25T13:35:32Z</time>
      </trkpt>
      <trkpt lat="49.85121" lon="2.2532">
        <ele>65.9</ele>
        <time>2023-11-25T13:35:34Z</time>
      </trkpt>
      <trkpt lat="49.85123" lon="2.25322">
        <ele>65.8</ele>
        <time>2023-11-25T13:35:35Z</time>
      </trkpt>
      <trkpt lat="49.85123" lon="2.25322">
        <ele>65.7</ele>
        <time>2023-11-25T13:35:36Z</time>
      </trkpt>
      <trkpt lat="49.85124" lon="2.25323">
        <ele>65.7</ele>
        <time>2023-11-25T13:35:37Z</time>
      </trkpt>
      <trkpt lat="49.85125" lon="2.25324">
        <ele>65.6</ele>
        <time>2023-11-25T13:35:38Z</time>
      </trkpt>
      <trkpt lat="49.85126" lon="2.25325">
        <ele>65.5</ele>
        <time>2023-11-25T13:35:39Z</time>
      </trkpt>
      <trkpt lat="49.85128" lon="2.25326">
        <ele>65.5</ele>
        <time>2023-11-25T13:35:41Z</time>
      </trkpt>
      <trkpt lat="49.85129" lon="2.25326">
        <ele>65.4</ele>
        <time>2023-11-25T13:35:42Z</time>
      </trkpt>
      <trkpt lat="49.85131" lon="2.25328">
        <ele>65.3</ele>
        <time>2023-11-25T13:35:43Z</time>
      </trkpt>
      <trkpt lat="49.85132" lon="2.25328">
        <ele>65.3</ele>
        <time>2023-11-25T13:35:44Z</time>
      </trkpt>
      <trkpt lat="49.85132" lon="2.25328">
        <ele>65.2</ele>
        <time>2023-11-25T13:35:45Z</time>
      </trkpt>
      <trkpt lat="49.85133" lon="2.25329">
        <ele>65.2</ele>
        <time>2023-11-25T13:35:46Z</time>
      </trkpt>
      <trkpt lat="49.85135" lon="2.2533">
        <ele>65.1</ele>
        <time>2023-11-25T13:35:48Z</time>
      </trkpt>
      <trkpt lat="49.85136" lon="2.25331">
        <ele>65.1</ele>
        <time>2023-11-25T13:35:49Z</time>
      </trkpt>
      <trkpt lat="49.85137" lon="2.25332">
        <ele>65</ele>
        <time>2023-11-25T13:35:50Z</time>
      </trkpt>
      <trkpt lat="49.85138" lon="2.25333">
        <ele>65</ele>
        <time>2023-11-25T13:35:51Z</time>
      </trkpt>
      <trkpt lat="49.85139" lon="2.25334">
        <ele>64.9</ele>
        <time>2023-11-25T13:35:52Z</time>
      </trkpt>
      <trkpt lat="49.8514" lon="2.25335">
        <ele>64.9</ele>
        <time>2023-11-25T13:35:53Z</time>
      </trkpt>
      <trkpt lat="49.8514" lon="2.25336">
        <ele>64.9</ele>
        <time>2023-11-25T13:35:54Z</time>
      </trkpt>
      <trkpt lat="49.85141" lon="2.25337">
        <ele>64.9</ele>
        <time>2023-11-25T13:35:55Z</time>
      </trkpt>
      <trkpt lat="49.85142" lon="2.25338">
        <ele>64.8</ele>
        <time>2023-11-25T13:35:57Z</time>
      </trkpt>
      <trkpt lat="49.85143" lon="2.25338">
        <ele>64.8</ele>
        <time>2023-11-25T13:35:58Z</time>
      </trkpt>
      <trkpt lat="49.85144" lon="2.25339">
        <ele>64.8</ele>
        <time>2023-11-25T13:35:59Z</time>
      </trkpt>
      <trkpt lat="49.85145" lon="2.25339">
        <ele>64.7</ele>
        <time>2023-11-25T13:36:00Z</time>
      </trkpt>
      <trkpt lat="49.85146" lon="2.2534">
        <ele>64.7</ele>
        <time>2023-11-25T13:36:01Z</time>
      </trkpt>
      <trkpt lat="49.85147" lon="2.25341">
        <ele>64.7</ele>
        <time>2023-11-25T13:36:02Z</time>
      </trkpt>
      <trkpt lat="49.85148" lon="2.25341">
        <ele>64.6</ele>
        <time>2023-11-25T13:36:03Z</time>
      </trkpt>
      <trkpt lat="49.85149" lon="2.25342">
        <ele>64.6</ele>
        <time>2023-11-25T13:36:04Z</time>
      </trkpt>
      <trkpt lat="49.8515" lon="2.25343">
        <ele>64.6</ele>
        <time>2023-11-25T13:36:05Z</time>
      </trkpt>
      <trkpt lat="49.85151" lon="2.25343">
        <ele>64.5</ele>
        <time>2023-11-25T13:36:06Z</time>
      </trkpt>
      <trkpt lat="49.85152" lon="2.25344">
        <ele>64.5</ele>
        <time>2023-11-25T13:36:08Z</time>
      </trkpt>
      <trkpt lat="49.85153" lon="2.25345">
        <ele>64.5</ele>
        <time>2023-11-25T13:36:09Z</time>
      </trkpt>
      <trkpt lat="49.85154" lon="2.25346">
        <ele>64.5</ele>
        <time>2023-11-25T13:36:10Z</time>
      </trkpt>
      <trkpt lat="49.85155" lon="2.25347">
        <ele>64.4</ele>
        <time>2023-11-25T13:36:11Z</time>
      </trkpt>
      <trkpt lat="49.85156" lon="2.25347">
        <ele>64.4</ele>
        <time>2023-11-25T13:36:12Z</time>
      </trkpt>
      <trkpt lat="49.85157" lon="2.25347">
        <ele>64.4</ele>
        <time>2023-11-25T13:36:13Z</time>
      </trkpt>
      <trkpt lat="49.85159" lon="2.25347">
        <ele>64.3</ele>
        <time>2023-11-25T13:36:14Z</time>
      </trkpt>
      <trkpt lat="49.8516" lon="2.25348">
        <ele>64.3</ele>
        <time>2023-11-25T13:36:15Z</time>
      </trkpt>
      <trkpt lat="49.85161" lon="2.25349">
        <ele>64.2</ele>
        <time>2023-11-25T13:36:16Z</time>
      </trkpt>
      <trkpt lat="49.85163" lon="2.2535">
        <ele>64.2</ele>
        <time>2023-11-25T13:36:18Z</time>
      </trkpt>
      <trkpt lat="49.85164" lon="2.25351">
        <ele>64.2</ele>
        <time>2023-11-25T13:36:19Z</time>
      </trkpt>
      <trkpt lat="49.85166" lon="2.25352">
        <ele>64.1</ele>
        <time>2023-11-25T13:36:20Z</time>
      </trkpt>
      <trkpt lat="49.85166" lon="2.25353">
        <ele>64.1</ele>
        <time>2023-11-25T13:36:21Z</time>
      </trkpt>
      <trkpt lat="49.85167" lon="2.25353">
        <ele>64.1</ele>
        <time>2023-11-25T13:36:22Z</time>
      </trkpt>
      <trkpt lat="49.85168" lon="2.25354">
        <ele>64</ele>
        <time>2023-11-25T13:36:23Z</time>
      </trkpt>
      <trkpt lat="49.8517" lon="2.25354">
        <ele>64</ele>
        <time>2023-11-25T13:36:24Z</time>
      </trkpt>
      <trkpt lat="49.85171" lon="2.25355">
        <ele>63.9</ele>
        <time>2023-11-25T13:36:26Z</time>
      </trkpt>
      <trkpt lat="49.85172" lon="2.25356">
        <ele>63.9</ele>
        <time>2023-11-25T13:36:27Z</time>
      </trkpt>
      <trkpt lat="49.85173" lon="2.25357">
        <ele>63.9</ele>
        <time>2023-11-25T13:36:28Z</time>
      </trkpt>
      <trkpt lat="49.85174" lon="2.25358">
        <ele>63.8</ele>
        <time>2023-11-25T13:36:29Z</time>
      </trkpt>
      <trkpt lat="49.85176" lon="2.25358">
        <ele>63.8</ele>
        <time>2023-11-25T13:36:30Z</time>
      </trkpt>
      <trkpt lat="49.85176" lon="2.25358">
        <ele>63.7</ele>
        <time>2023-11-25T13:36:32Z</time>
      </trkpt>
      <trkpt lat="49.85177" lon="2.25358">
        <ele>63.7</ele>
        <time>2023-11-25T13:36:33Z</time>
      </trkpt>
      <trkpt lat="49.85177" lon="2.25358">
        <ele>63.7</ele>
        <time>2023-11-25T13:36:34Z</time>
      </trkpt>
      <trkpt lat="49.85178" lon="2.25358">
        <ele>63.7</ele>
        <time>2023-11-25T13:36:35Z</time>
      </trkpt>
      <trkpt lat="49.85178" lon="2.25358">
        <ele>63.7</ele>
        <time>2023-11-25T13:36:37Z</time>
      </trkpt>
      <trkpt lat="49.85179" lon="2.25358">
        <ele>63.7</ele>
        <time>2023-11-25T13:36:38Z</time>
      </trkpt>
      <trkpt lat="49.85179" lon="2.25358">
        <ele>63.6</ele>
        <time>2023-11-25T13:36:39Z</time>
      </trkpt>
      <trkpt lat="49.85179" lon="2.25358">
        <ele>63.6</ele>
        <time>2023-11-25T13:36:41Z</time>
      </trkpt>
      <trkpt lat="49.8518" lon="2.25358">
        <ele>63.6</ele>
        <time>2023-11-25T13:36:42Z</time>
      </trkpt>
      <trkpt lat="49.8518" lon="2.25357">
        <ele>63.6</ele>
        <time>2023-11-25T13:36:44Z</time>
      </trkpt>
      <trkpt lat="49.85181" lon="2.25357">
        <ele>63.6</ele>
        <time>2023-11-25T13:36:45Z</time>
      </trkpt>
      <trkpt lat="49.85181" lon="2.25357">
        <ele>63.6</ele>
        <time>2023-11-25T13:36:46Z</time>
      </trkpt>
      <trkpt lat="49.85182" lon="2.25357">
        <ele>63.5</ele>
        <time>2023-11-25T13:36:48Z</time>
      </trkpt>
      <trkpt lat="49.85182" lon="2.25357">
        <ele>63.5</ele>
        <time>2023-11-25T13:36:49Z</time>
      </trkpt>
      <trkpt lat="49.85183" lon="2.25357">
        <ele>63.5</ele>
        <time>2023-11-25T13:36:51Z</time>
      </trkpt>
      <trkpt lat="49.85183" lon="2.25357">
        <ele>63.5</ele>
        <time>2023-11-25T13:36:52Z</time>
      </trkpt>
      <trkpt lat="49.85184" lon="2.25357">
        <ele>63.5</ele>
        <time>2023-11-25T13:37:36Z</time>
      </trkpt>
      <trkpt lat="49.85184" lon="2.25357">
        <ele>63.5</ele>
        <time>2023-11-25T13:37:37Z</time>
      </trkpt>
      <trkpt lat="49.85185" lon="2.25357">
        <ele>63.4</ele>
        <time>2023-11-25T13:37:38Z</time>
      </trkpt>
      <trkpt lat="49.85185" lon="2.25357">
        <ele>63.4</ele>
        <time>2023-11-25T13:37:39Z</time>
      </trkpt>
      <trkpt lat="49.85186" lon="2.25356">
        <ele>63.4</ele>
        <time>2023-11-25T13:37:40Z</time>
      </trkpt>
      <trkpt lat="49.85187" lon="2.25354">
        <ele>63.3</ele>
        <time>2023-11-25T13:37:41Z</time>
      </trkpt>
      <trkpt lat="49.85188" lon="2.25352">
        <ele>63.3</ele>
        <time>2023-11-25T13:37:43Z</time>
      </trkpt>
      <trkpt lat="49.85188" lon="2.25351">
        <ele>63.3</ele>
        <time>2023-11-25T13:37:44Z</time>
      </trkpt>
      <trkpt lat="49.85189" lon="2.25349">
        <ele>63.2</ele>
        <time>2023-11-25T13:37:45Z</time>
      </trkpt>
      <trkpt lat="49.85189" lon="2.25348">
        <ele>63.2</ele>
        <time>2023-11-25T13:37:46Z</time>
      </trkpt>
      <trkpt lat="49.85189" lon="2.25346">
        <ele>63.1</ele>
        <time>2023-11-25T13:37:47Z</time>
      </trkpt>
      <trkpt lat="49.85189" lon="2.25345">
        <ele>63.1</ele>
        <time>2023-11-25T13:37:48Z</time>
      </trkpt>
      <trkpt lat="49.85189" lon="2.25343">
        <ele>63.1</ele>
        <time>2023-11-25T13:37:50Z</time>
      </trkpt>
      <trkpt lat="49.8519" lon="2.25342">
        <ele>63.1</ele>
        <time>2023-11-25T13:37:51Z</time>
      </trkpt>
      <trkpt lat="49.8519" lon="2.2534">
        <ele>63</ele>
        <time>2023-11-25T13:37:52Z</time>
      </trkpt>
      <trkpt lat="49.8519" lon="2.25339">
        <ele>63</ele>
        <time>2023-11-25T13:37:53Z</time>
      </trkpt>
      <trkpt lat="49.8519" lon="2.25337">
        <ele>63</ele>
        <time>2023-11-25T13:37:54Z</time>
      </trkpt>
      <trkpt lat="49.85191" lon="2.25335">
        <ele>62.9</ele>
        <time>2023-11-25T13:37:56Z</time>
      </trkpt>
      <trkpt lat="49.85191" lon="2.25333">
        <ele>62.9</ele>
        <time>2023-11-25T13:37:57Z</time>
      </trkpt>
      <trkpt lat="49.85191" lon="2.25331">
        <ele>62.8</ele>
        <time>2023-11-25T13:37:58Z</time>
      </trkpt>
      <trkpt lat="49.85192" lon="2.25329">
        <ele>62.8</ele>
        <time>2023-11-25T13:37:59Z</time>
      </trkpt>
      <trkpt lat="49.85192" lon="2.25326">
        <ele>62.7</ele>
        <time>2023-11-25T13:38:00Z</time>
      </trkpt>
      <trkpt lat="49.85193" lon="2.25325">
        <ele>62.7</ele>
        <time>2023-11-25T13:38:01Z</time>
      </trkpt>
      <trkpt lat="49.85193" lon="2.25324">
        <ele>62.7</ele>
        <time>2023-11-25T13:38:02Z</time>
      </trkpt>
      <trkpt lat="49.85193" lon="2.25322">
        <ele>62.7</ele>
        <time>2023-11-25T13:38:03Z</time>
      </trkpt>
      <trkpt lat="49.85194" lon="2.2532">
        <ele>62.6</ele>
        <time>2023-11-25T13:38:05Z</time>
      </trkpt>
      <trkpt lat="49.85194" lon="2.25318">
        <ele>62.6</ele>
        <time>2023-11-25T13:38:06Z</time>
      </trkpt>
      <trkpt lat="49.85195" lon="2.25316">
        <ele>62.6</ele>
        <time>2023-11-25T13:38:07Z</time>
      </trkpt>
      <trkpt lat="49.85196" lon="2.25313">
        <ele>62.5</ele>
        <time>2023-11-25T13:38:08Z</time>
      </trkpt>
      <trkpt lat="49.85196" lon="2.25312">
        <ele>62.5</ele>
        <time>2023-11-25T13:38:09Z</time>
      </trkpt>
      <trkpt lat="49.85196" lon="2.25311">
        <ele>62.5</ele>
        <time>2023-11-25T13:38:10Z</time>
      </trkpt>
      <trkpt lat="49.85197" lon="2.25309">
        <ele>62.4</ele>
        <time>2023-11-25T13:38:11Z</time>
      </trkpt>
      <trkpt lat="49.85197" lon="2.25307">
        <ele>62.4</ele>
        <time>2023-11-25T13:38:12Z</time>
      </trkpt>
      <trkpt lat="49.85198" lon="2.25305">
        <ele>62.4</ele>
        <time>2023-11-25T13:38:13Z</time>
      </trkpt>
      <trkpt lat="49.85199" lon="2.25302">
        <ele>62.3</ele>
        <time>2023-11-25T13:38:15Z</time>
      </trkpt>
      <trkpt lat="49.85199" lon="2.25301">
        <ele>62.3</ele>
        <time>2023-11-25T13:38:16Z</time>
      </trkpt>
      <trkpt lat="49.85199" lon="2.253">
        <ele>62.3</ele>
        <time>2023-11-25T13:38:17Z</time>
      </trkpt>
      <trkpt lat="49.852" lon="2.25297">
        <ele>62.2</ele>
        <time>2023-11-25T13:38:18Z</time>
      </trkpt>
      <trkpt lat="49.85201" lon="2.25296">
        <ele>62.2</ele>
        <time>2023-11-25T13:38:19Z</time>
      </trkpt>
      <trkpt lat="49.85201" lon="2.25295">
        <ele>62.2</ele>
        <time>2023-11-25T13:38:20Z</time>
      </trkpt>
      <trkpt lat="49.85202" lon="2.25292">
        <ele>62.2</ele>
        <time>2023-11-25T13:38:21Z</time>
      </trkpt>
      <trkpt lat="49.85203" lon="2.25291">
        <ele>62.1</ele>
        <time>2023-11-25T13:38:22Z</time>
      </trkpt>
      <trkpt lat="49.85203" lon="2.2529">
        <ele>62.1</ele>
        <time>2023-11-25T13:38:23Z</time>
      </trkpt>
      <trkpt lat="49.85204" lon="2.25288">
        <ele>62.1</ele>
        <time>2023-11-25T13:38:25Z</time>
      </trkpt>
      <trkpt lat="49.85205" lon="2.25286">
        <ele>62.1</ele>
        <time>2023-11-25T13:38:26Z</time>
      </trkpt>
      <trkpt lat="49.85206" lon="2.25283">
        <ele>62</ele>
        <time>2023-11-25T13:38:27Z</time>
      </trkpt>
      <trkpt lat="49.85206" lon="2.25282">
        <ele>62</ele>
        <time>2023-11-25T13:38:28Z</time>
      </trkpt>
      <trkpt lat="49.85207" lon="2.25281">
        <ele>62</ele>
        <time>2023-11-25T13:38:29Z</time>
      </trkpt>
      <trkpt lat="49.85208" lon="2.25278">
        <ele>62</ele>
        <time>2023-11-25T13:38:31Z</time>
      </trkpt>
      <trkpt lat="49.85208" lon="2.25277">
        <ele>62</ele>
        <time>2023-11-25T13:38:32Z</time>
      </trkpt>
      <trkpt lat="49.85209" lon="2.25276">
        <ele>61.9</ele>
        <time>2023-11-25T13:38:33Z</time>
      </trkpt>
      <trkpt lat="49.85209" lon="2.25274">
        <ele>61.9</ele>
        <time>2023-11-25T13:38:34Z</time>
      </trkpt>
      <trkpt lat="49.8521" lon="2.25273">
        <ele>61.9</ele>
        <time>2023-11-25T13:38:35Z</time>
      </trkpt>
      <trkpt lat="49.85211" lon="2.25271">
        <ele>61.9</ele>
        <time>2023-11-25T13:38:36Z</time>
      </trkpt>
      <trkpt lat="49.85212" lon="2.25269">
        <ele>61.9</ele>
        <time>2023-11-25T13:38:37Z</time>
      </trkpt>
      <trkpt lat="49.85213" lon="2.25268">
        <ele>61.9</ele>
        <time>2023-11-25T13:38:38Z</time>
      </trkpt>
      <trkpt lat="49.85213" lon="2.25267">
        <ele>61.8</ele>
        <time>2023-11-25T13:38:39Z</time>
      </trkpt>
      <trkpt lat="49.85215" lon="2.25265">
        <ele>62</ele>
        <time>2023-11-25T13:38:41Z</time>
      </trkpt>
      <trkpt lat="49.85216" lon="2.25265">
        <ele>62.1</ele>
        <time>2023-11-25T13:38:42Z</time>
      </trkpt>
      <trkpt lat="49.85217" lon="2.25265">
        <ele>62.1</ele>
        <time>2023-11-25T13:38:43Z</time>
      </trkpt>
      <trkpt lat="49.85218" lon="2.25265">
        <ele>62.2</ele>
        <time>2023-11-25T13:38:44Z</time>
      </trkpt>
      <trkpt lat="49.85219" lon="2.25266">
        <ele>62.3</ele>
        <time>2023-11-25T13:38:45Z</time>
      </trkpt>
      <trkpt lat="49.8522" lon="2.25266">
        <ele>62.4</ele>
        <time>2023-11-25T13:38:46Z</time>
      </trkpt>
      <trkpt lat="49.85221" lon="2.25267">
        <ele>62.4</ele>
        <time>2023-11-25T13:38:48Z</time>
      </trkpt>
      <trkpt lat="49.85222" lon="2.25267">
        <ele>62.5</ele>
        <time>2023-11-25T13:38:49Z</time>
      </trkpt>
      <trkpt lat="49.85223" lon="2.25268">
        <ele>62.6</ele>
        <time>2023-11-25T13:38:51Z</time>
      </trkpt>
      <trkpt lat="49.85223" lon="2.25269">
        <ele>62.7</ele>
        <time>2023-11-25T13:38:52Z</time>
      </trkpt>
      <trkpt lat="49.85223" lon="2.2527">
        <ele>62.7</ele>
        <time>2023-11-25T13:38:54Z</time>
      </trkpt>
      <trkpt lat="49.85223" lon="2.2527">
        <ele>62.7</ele>
        <time>2023-11-25T13:38:55Z</time>
      </trkpt>
      <trkpt lat="49.85223" lon="2.2527">
        <ele>62.7</ele>
        <time>2023-11-25T13:38:57Z</time>
      </trkpt>
      <trkpt lat="49.85223" lon="2.2527">
        <ele>62.7</ele>
        <time>2023-11-25T13:38:58Z</time>
      </trkpt>
      <trkpt lat="49.85223" lon="2.2527">
        <ele>62.7</ele>
        <time>2023-11-25T13:38:59Z</time>
      </trkpt>
      <trkpt lat="49.85222" lon="2.2527">
        <ele>62.8</ele>
        <time>2023-11-25T13:39:01Z</time>
      </trkpt>
      <trkpt lat="49.85222" lon="2.2527">
        <ele>62.8</ele>
        <time>2023-11-25T13:39:02Z</time>
      </trkpt>
      <trkpt lat="49.85222" lon="2.2527">
        <ele>62.8</ele>
        <time>2023-11-25T13:39:04Z</time>
      </trkpt>
      <trkpt lat="49.85222" lon="2.2527">
        <ele>62.8</ele>
        <time>2023-11-25T13:39:05Z</time>
      </trkpt>
      <trkpt lat="49.85222" lon="2.2527">
        <ele>62.8</ele>
        <time>2023-11-25T13:39:07Z</time>
      </trkpt>
      <trkpt lat="49.85222" lon="2.2527">
        <ele>62.8</ele>
        <time>2023-11-25T13:39:08Z</time>
      </trkpt>
      <trkpt lat="49.85222" lon="2.2527">
        <ele>62.8</ele>
        <time>2023-11-25T13:39:09Z</time>
      </trkpt>
      <trkpt lat="49.85222" lon="2.25273">
        <ele>63</ele>
        <time>2023-11-25T13:39:41Z</time>
      </trkpt>
      <trkpt lat="49.85222" lon="2.25274">
        <ele>63</ele>
        <time>2023-11-25T13:39:42Z</time>
      </trkpt>
      <trkpt lat="49.85223" lon="2.25274">
        <ele>63.1</ele>
        <time>2023-11-25T13:39:44Z</time>
      </trkpt>
      <trkpt lat="49.85225" lon="2.25275">
        <ele>63.2</ele>
        <time>2023-11-25T13:39:45Z</time>
      </trkpt>
      <trkpt lat="49.85226" lon="2.25276">
        <ele>63.3</ele>
        <time>2023-11-25T13:39:46Z</time>
      </trkpt>
      <trkpt lat="49.85228" lon="2.25276">
        <ele>63.4</ele>
        <time>2023-11-25T13:39:47Z</time>
      </trkpt>
      <trkpt lat="49.85229" lon="2.25277">
        <ele>63.5</ele>
        <time>2023-11-25T13:39:48Z</time>
      </trkpt>
      <trkpt lat="49.85231" lon="2.25278">
        <ele>63.6</ele>
        <time>2023-11-25T13:39:49Z</time>
      </trkpt>
      <trkpt lat="49.85232" lon="2.25279">
        <ele>63.7</ele>
        <time>2023-11-25T13:39:51Z</time>
      </trkpt>
      <trkpt lat="49.85233" lon="2.2528">
        <ele>63.8</ele>
        <time>2023-11-25T13:39:52Z</time>
      </trkpt>
      <trkpt lat="49.85235" lon="2.25282">
        <ele>64</ele>
        <time>2023-11-25T13:39:53Z</time>
      </trkpt>
      <trkpt lat="49.85235" lon="2.25282">
        <ele>64</ele>
        <time>2023-11-25T13:39:54Z</time>
      </trkpt>
      <trkpt lat="49.85236" lon="2.25283">
        <ele>64.1</ele>
        <time>2023-11-25T13:39:55Z</time>
      </trkpt>
      <trkpt lat="49.85238" lon="2.25285">
        <ele>64.2</ele>
        <time>2023-11-25T13:39:56Z</time>
      </trkpt>
      <trkpt lat="49.85239" lon="2.25285">
        <ele>64.3</ele>
        <time>2023-11-25T13:39:57Z</time>
      </trkpt>
      <trkpt lat="49.85239" lon="2.25286">
        <ele>64.3</ele>
        <time>2023-11-25T13:39:58Z</time>
      </trkpt>
      <trkpt lat="49.85241" lon="2.25287">
        <ele>64.4</ele>
        <time>2023-11-25T13:40:00Z</time>
      </trkpt>
      <trkpt lat="49.85242" lon="2.25288">
        <ele>64.5</ele>
        <time>2023-11-25T13:40:01Z</time>
      </trkpt>
      <trkpt lat="49.85244" lon="2.2529">
        <ele>64.6</ele>
        <time>2023-11-25T13:40:02Z</time>
      </trkpt>
      <trkpt lat="49.85245" lon="2.2529">
        <ele>64.6</ele>
        <time>2023-11-25T13:40:03Z</time>
      </trkpt>
      <trkpt lat="49.85246" lon="2.25291">
        <ele>64.7</ele>
        <time>2023-11-25T13:40:04Z</time>
      </trkpt>
      <trkpt lat="49.85247" lon="2.25292">
        <ele>64.7</ele>
        <time>2023-11-25T13:40:06Z</time>
      </trkpt>
      <trkpt lat="49.85248" lon="2.25292">
        <ele>64.8</ele>
        <time>2023-11-25T13:40:07Z</time>
      </trkpt>
      <trkpt lat="49.8525" lon="2.25293">
        <ele>64.9</ele>
        <time>2023-11-25T13:40:08Z</time>
      </trkpt>
      <trkpt lat="49.85251" lon="2.25294">
        <ele>64.9</ele>
        <time>2023-11-25T13:40:09Z</time>
      </trkpt>
      <trkpt lat="49.85252" lon="2.25295">
        <ele>65</ele>
        <time>2023-11-25T13:40:10Z</time>
      </trkpt>
      <trkpt lat="49.85253" lon="2.25296">
        <ele>65</ele>
        <time>2023-11-25T13:40:11Z</time>
      </trkpt>
      <trkpt lat="49.85254" lon="2.25297">
        <ele>65.1</ele>
        <time>2023-11-25T13:40:13Z</time>
      </trkpt>
      <trkpt lat="49.85256" lon="2.25299">
        <ele>65.2</ele>
        <time>2023-11-25T13:40:14Z</time>
      </trkpt>
      <trkpt lat="49.85257" lon="2.25299">
        <ele>65.2</ele>
        <time>2023-11-25T13:40:15Z</time>
      </trkpt>
      <trkpt lat="49.85258" lon="2.253">
        <ele>65.3</ele>
        <time>2023-11-25T13:40:16Z</time>
      </trkpt>
      <trkpt lat="49.85259" lon="2.253">
        <ele>65.3</ele>
        <time>2023-11-25T13:40:18Z</time>
      </trkpt>
      <trkpt lat="49.8526" lon="2.25301">
        <ele>65.4</ele>
        <time>2023-11-25T13:40:19Z</time>
      </trkpt>
      <trkpt lat="49.85261" lon="2.25302">
        <ele>65.4</ele>
        <time>2023-11-25T13:40:20Z</time>
      </trkpt>
      <trkpt lat="49.85262" lon="2.25303">
        <ele>65.4</ele>
        <time>2023-11-25T13:40:21Z</time>
      </trkpt>
      <trkpt lat="49.85263" lon="2.25303">
        <ele>65.5</ele>
        <time>2023-11-25T13:40:22Z</time>
      </trkpt>
      <trkpt lat="49.85264" lon="2.25304">
        <ele>65.5</ele>
        <time>2023-11-25T13:40:24Z</time>
      </trkpt>
      <trkpt lat="49.85265" lon="2.25305">
        <ele>65.5</ele>
        <time>2023-11-25T13:40:25Z</time>
      </trkpt>
      <trkpt lat="49.85266" lon="2.25306">
        <ele>65.6</ele>
        <time>2023-11-25T13:40:26Z</time>
      </trkpt>
      <trkpt lat="49.85267" lon="2.25307">
        <ele>65.6</ele>
        <time>2023-11-25T13:40:27Z</time>
      </trkpt>
      <trkpt lat="49.85268" lon="2.25308">
        <ele>65.6</ele>
        <time>2023-11-25T13:40:28Z</time>
      </trkpt>
      <trkpt lat="49.85269" lon="2.25309">
        <ele>65.7</ele>
        <time>2023-11-25T13:40:29Z</time>
      </trkpt>
      <trkpt lat="49.8527" lon="2.2531">
        <ele>65.7</ele>
        <time>2023-11-25T13:40:31Z</time>
      </trkpt>
      <trkpt lat="49.8527" lon="2.25311">
        <ele>65.7</ele>
        <time>2023-11-25T13:40:32Z</time>
      </trkpt>
      <trkpt lat="49.85271" lon="2.25311">
        <ele>65.7</ele>
        <time>2023-11-25T13:40:33Z</time>
      </trkpt>
      <trkpt lat="49.85272" lon="2.25312">
        <ele>65.8</ele>
        <time>2023-11-25T13:40:34Z</time>
      </trkpt>
      <trkpt lat="49.85273" lon="2.25312">
        <ele>65.8</ele>
        <time>2023-11-25T13:40:35Z</time>
      </trkpt>
      <trkpt lat="49.85274" lon="2.25313">
        <ele>65.8</ele>
        <time>2023-11-25T13:40:36Z</time>
      </trkpt>
      <trkpt lat="49.85275" lon="2.25313">
        <ele>65.8</ele>
        <time>2023-11-25T13:40:38Z</time>
      </trkpt>
      <trkpt lat="49.85276" lon="2.25314">
        <ele>65.8</ele>
        <time>2023-11-25T13:40:39Z</time>
      </trkpt>
      <trkpt lat="49.85277" lon="2.25315">
        <ele>65.9</ele>
        <time>2023-11-25T13:40:40Z</time>
      </trkpt>
      <trkpt lat="49.85278" lon="2.25315">
        <ele>65.9</ele>
        <time>2023-11-25T13:40:41Z</time>
      </trkpt>
      <trkpt lat="49.85279" lon="2.25316">
        <ele>65.9</ele>
        <time>2023-11-25T13:40:42Z</time>
      </trkpt>
      <trkpt lat="49.8528" lon="2.25317">
        <ele>65.9</ele>
        <time>2023-11-25T13:40:44Z</time>
      </trkpt>
      <trkpt lat="49.85281" lon="2.25318">
        <ele>66</ele>
        <time>2023-11-25T13:40:45Z</time>
      </trkpt>
      <trkpt lat="49.85282" lon="2.25319">
        <ele>66</ele>
        <time>2023-11-25T13:40:46Z</time>
      </trkpt>
      <trkpt lat="49.85283" lon="2.2532">
        <ele>66</ele>
        <time>2023-11-25T13:40:47Z</time>
      </trkpt>
      <trkpt lat="49.85284" lon="2.25321">
        <ele>66</ele>
        <time>2023-11-25T13:40:48Z</time>
      </trkpt>
      <trkpt lat="49.85286" lon="2.25322">
        <ele>66.1</ele>
        <time>2023-11-25T13:40:49Z</time>
      </trkpt>
      <trkpt lat="49.85286" lon="2.25323">
        <ele>66.1</ele>
        <time>2023-11-25T13:40:51Z</time>
      </trkpt>
      <trkpt lat="49.85287" lon="2.25323">
        <ele>66.1</ele>
        <time>2023-11-25T13:40:52Z</time>
      </trkpt>
      <trkpt lat="49.85288" lon="2.25324">
        <ele>66.1</ele>
        <time>2023-11-25T13:40:53Z</time>
      </trkpt>
      <trkpt lat="49.85289" lon="2.25325">
        <ele>66.1</ele>
        <time>2023-11-25T13:40:54Z</time>
      </trkpt>
      <trkpt lat="49.8529" lon="2.25326">
        <ele>66.2</ele>
        <time>2023-11-25T13:40:55Z</time>
      </trkpt>
      <trkpt lat="49.85291" lon="2.25326">
        <ele>66.2</ele>
        <time>2023-11-25T13:40:56Z</time>
      </trkpt>
      <trkpt lat="49.85292" lon="2.25327">
        <ele>66.2</ele>
        <time>2023-11-25T13:40:58Z</time>
      </trkpt>
      <trkpt lat="49.85293" lon="2.25328">
        <ele>66.2</ele>
        <time>2023-11-25T13:40:59Z</time>
      </trkpt>
      <trkpt lat="49.85294" lon="2.25329">
        <ele>66.2</ele>
        <time>2023-11-25T13:41:00Z</time>
      </trkpt>
      <trkpt lat="49.85295" lon="2.25329">
        <ele>66.2</ele>
        <time>2023-11-25T13:41:01Z</time>
      </trkpt>
      <trkpt lat="49.85296" lon="2.2533">
        <ele>66.3</ele>
        <time>2023-11-25T13:41:02Z</time>
      </trkpt>
      <trkpt lat="49.85297" lon="2.25331">
        <ele>66.3</ele>
        <time>2023-11-25T13:41:03Z</time>
      </trkpt>
      <trkpt lat="49.85298" lon="2.25331">
        <ele>66.3</ele>
        <time>2023-11-25T13:41:05Z</time>
      </trkpt>
      <trkpt lat="49.85299" lon="2.25332">
        <ele>66.3</ele>
        <time>2023-11-25T13:41:06Z</time>
      </trkpt>
      <trkpt lat="49.853" lon="2.25333">
        <ele>66.3</ele>
        <time>2023-11-25T13:41:07Z</time>
      </trkpt>
      <trkpt lat="49.853" lon="2.25333">
        <ele>66.3</ele>
        <time>2023-11-25T13:41:08Z</time>
      </trkpt>
      <trkpt lat="49.85301" lon="2.25334">
        <ele>66.3</ele>
        <time>2023-11-25T13:41:09Z</time>
      </trkpt>
      <trkpt lat="49.85302" lon="2.25335">
        <ele>66.3</ele>
        <time>2023-11-25T13:41:10Z</time>
      </trkpt>
      <trkpt lat="49.85303" lon="2.25336">
        <ele>66.3</ele>
        <time>2023-11-25T13:41:12Z</time>
      </trkpt>
      <trkpt lat="49.85304" lon="2.25337">
        <ele>66.4</ele>
        <time>2023-11-25T13:41:13Z</time>
      </trkpt>
      <trkpt lat="49.85305" lon="2.25338">
        <ele>66.4</ele>
        <time>2023-11-25T13:41:14Z</time>
      </trkpt>
      <trkpt lat="49.85306" lon="2.25339">
        <ele>66.4</ele>
        <time>2023-11-25T13:41:15Z</time>
      </trkpt>
      <trkpt lat="49.85307" lon="2.2534">
        <ele>66.4</ele>
        <time>2023-11-25T13:41:16Z</time>
      </trkpt>
      <trkpt lat="49.85309" lon="2.25342">
        <ele>66.4</ele>
        <time>2023-11-25T13:41:17Z</time>
      </trkpt>
      <trkpt lat="49.85309" lon="2.25342">
        <ele>66.4</ele>
        <time>2023-11-25T13:41:19Z</time>
      </trkpt>
      <trkpt lat="49.8531" lon="2.25343">
        <ele>66.4</ele>
        <time>2023-11-25T13:41:20Z</time>
      </trkpt>
      <trkpt lat="49.85312" lon="2.25345">
        <ele>66.4</ele>
        <time>2023-11-25T13:41:21Z</time>
      </trkpt>
      <trkpt lat="49.85313" lon="2.25345">
        <ele>66.4</ele>
        <time>2023-11-25T13:41:22Z</time>
      </trkpt>
      <trkpt lat="49.85313" lon="2.25346">
        <ele>66.5</ele>
        <time>2023-11-25T13:41:23Z</time>
      </trkpt>
      <trkpt lat="49.85314" lon="2.25347">
        <ele>66.5</ele>
        <time>2023-11-25T13:41:24Z</time>
      </trkpt>
      <trkpt lat="49.85315" lon="2.25347">
        <ele>66.5</ele>
        <time>2023-11-25T13:41:26Z</time>
      </trkpt>
      <trkpt lat="49.85316" lon="2.25348">
        <ele>66.5</ele>
        <time>2023-11-25T13:41:27Z</time>
      </trkpt>
      <trkpt lat="49.85317" lon="2.25349">
        <ele>66.5</ele>
        <time>2023-11-25T13:41:28Z</time>
      </trkpt>
      <trkpt lat="49.85318" lon="2.25349">
        <ele>66.5</ele>
        <time>2023-11-25T13:41:29Z</time>
      </trkpt>
      <trkpt lat="49.8532" lon="2.2535">
        <ele>66.5</ele>
        <time>2023-11-25T13:41:30Z</time>
      </trkpt>
      <trkpt lat="49.8532" lon="2.25351">
        <ele>66.5</ele>
        <time>2023-11-25T13:41:31Z</time>
      </trkpt>
      <trkpt lat="49.85321" lon="2.25351">
        <ele>66.5</ele>
        <time>2023-11-25T13:41:32Z</time>
      </trkpt>
      <trkpt lat="49.85322" lon="2.25352">
        <ele>66.5</ele>
        <time>2023-11-25T13:41:34Z</time>
      </trkpt>
      <trkpt lat="49.85323" lon="2.25353">
        <ele>66.5</ele>
        <time>2023-11-25T13:41:35Z</time>
      </trkpt>
      <trkpt lat="49.85324" lon="2.25353">
        <ele>66.5</ele>
        <time>2023-11-25T13:41:36Z</time>
      </trkpt>
      <trkpt lat="49.85325" lon="2.25354">
        <ele>66.6</ele>
        <time>2023-11-25T13:41:37Z</time>
      </trkpt>
      <trkpt lat="49.85326" lon="2.25355">
        <ele>66.6</ele>
        <time>2023-11-25T13:41:38Z</time>
      </trkpt>
      <trkpt lat="49.85328" lon="2.25355">
        <ele>66.6</ele>
        <time>2023-11-25T13:41:39Z</time>
      </trkpt>
      <trkpt lat="49.85329" lon="2.25356">
        <ele>66.6</ele>
        <time>2023-11-25T13:41:41Z</time>
      </trkpt>
      <trkpt lat="49.8533" lon="2.25357">
        <ele>66.6</ele>
        <time>2023-11-25T13:41:42Z</time>
      </trkpt>
      <trkpt lat="49.85331" lon="2.25358">
        <ele>66.6</ele>
        <time>2023-11-25T13:41:43Z</time>
      </trkpt>
      <trkpt lat="49.85332" lon="2.25358">
        <ele>66.6</ele>
        <time>2023-11-25T13:41:44Z</time>
      </trkpt>
      <trkpt lat="49.85333" lon="2.25359">
        <ele>66.6</ele>
        <time>2023-11-25T13:41:45Z</time>
      </trkpt>
      <trkpt lat="49.85334" lon="2.2536">
        <ele>66.6</ele>
        <time>2023-11-25T13:41:46Z</time>
      </trkpt>
      <trkpt lat="49.85335" lon="2.25361">
        <ele>66.6</ele>
        <time>2023-11-25T13:41:48Z</time>
      </trkpt>
      <trkpt lat="49.85336" lon="2.25362">
        <ele>66.6</ele>
        <time>2023-11-25T13:41:49Z</time>
      </trkpt>
      <trkpt lat="49.85337" lon="2.25363">
        <ele>66.6</ele>
        <time>2023-11-25T13:41:50Z</time>
      </trkpt>
      <trkpt lat="49.85338" lon="2.25364">
        <ele>66.5</ele>
        <time>2023-11-25T13:41:51Z</time>
      </trkpt>
      <trkpt lat="49.85338" lon="2.25365">
        <ele>66.5</ele>
        <time>2023-11-25T13:41:52Z</time>
      </trkpt>
      <trkpt lat="49.85339" lon="2.25366">
        <ele>66.5</ele>
        <time>2023-11-25T13:41:53Z</time>
      </trkpt>
      <trkpt lat="49.8534" lon="2.25367">
        <ele>66.5</ele>
        <time>2023-11-25T13:41:54Z</time>
      </trkpt>
      <trkpt lat="49.85341" lon="2.25368">
        <ele>66.5</ele>
        <time>2023-11-25T13:41:55Z</time>
      </trkpt>
      <trkpt lat="49.85342" lon="2.25369">
        <ele>66.5</ele>
        <time>2023-11-25T13:41:57Z</time>
      </trkpt>
      <trkpt lat="49.85343" lon="2.2537">
        <ele>66.5</ele>
        <time>2023-11-25T13:41:58Z</time>
      </trkpt>
      <trkpt lat="49.85344" lon="2.25371">
        <ele>66.5</ele>
        <time>2023-11-25T13:41:59Z</time>
      </trkpt>
      <trkpt lat="49.85345" lon="2.25371">
        <ele>66.5</ele>
        <time>2023-11-25T13:42:00Z</time>
      </trkpt>
      <trkpt lat="49.85346" lon="2.25372">
        <ele>66.5</ele>
        <time>2023-11-25T13:42:01Z</time>
      </trkpt>
      <trkpt lat="49.85347" lon="2.25373">
        <ele>66.5</ele>
        <time>2023-11-25T13:42:02Z</time>
      </trkpt>
      <trkpt lat="49.85349" lon="2.25374">
        <ele>66.5</ele>
        <time>2023-11-25T13:42:03Z</time>
      </trkpt>
      <trkpt lat="49.8535" lon="2.25375">
        <ele>66.5</ele>
        <time>2023-11-25T13:42:05Z</time>
      </trkpt>
      <trkpt lat="49.85352" lon="2.25376">
        <ele>66.5</ele>
        <time>2023-11-25T13:42:06Z</time>
      </trkpt>
      <trkpt lat="49.85353" lon="2.25376">
        <ele>66.5</ele>
        <time>2023-11-25T13:42:07Z</time>
      </trkpt>
      <trkpt lat="49.85353" lon="2.25377">
        <ele>66.5</ele>
        <time>2023-11-25T13:42:08Z</time>
      </trkpt>
      <trkpt lat="49.85355" lon="2.25378">
        <ele>66.5</ele>
        <time>2023-11-25T13:42:09Z</time>
      </trkpt>
      <trkpt lat="49.85356" lon="2.25378">
        <ele>66.5</ele>
        <time>2023-11-25T13:42:10Z</time>
      </trkpt>
      <trkpt lat="49.85357" lon="2.25379">
        <ele>66.5</ele>
        <time>2023-11-25T13:42:11Z</time>
      </trkpt>
      <trkpt lat="49.85359" lon="2.2538">
        <ele>66.5</ele>
        <time>2023-11-25T13:42:13Z</time>
      </trkpt>
      <trkpt lat="49.8536" lon="2.25381">
        <ele>66.4</ele>
        <time>2023-11-25T13:42:14Z</time>
      </trkpt>
      <trkpt lat="49.85361" lon="2.25381">
        <ele>66.4</ele>
        <time>2023-11-25T13:42:15Z</time>
      </trkpt>
      <trkpt lat="49.85363" lon="2.25383">
        <ele>66.4</ele>
        <time>2023-11-25T13:42:16Z</time>
      </trkpt>
      <trkpt lat="49.85363" lon="2.25383">
        <ele>66.4</ele>
        <time>2023-11-25T13:42:17Z</time>
      </trkpt>
      <trkpt lat="49.85364" lon="2.25384">
        <ele>66.4</ele>
        <time>2023-11-25T13:42:18Z</time>
      </trkpt>
      <trkpt lat="49.85365" lon="2.25385">
        <ele>66.4</ele>
        <time>2023-11-25T13:42:19Z</time>
      </trkpt>
      <trkpt lat="49.85366" lon="2.25386">
        <ele>66.4</ele>
        <time>2023-11-25T13:42:20Z</time>
      </trkpt>
      <trkpt lat="49.85368" lon="2.25387">
        <ele>66.4</ele>
        <time>2023-11-25T13:42:22Z</time>
      </trkpt>
      <trkpt lat="49.85369" lon="2.25388">
        <ele>66.4</ele>
        <time>2023-11-25T13:42:23Z</time>
      </trkpt>
      <trkpt lat="49.8537" lon="2.25388">
        <ele>66.4</ele>
        <time>2023-11-25T13:42:24Z</time>
      </trkpt>
      <trkpt lat="49.85371" lon="2.25389">
        <ele>66.4</ele>
        <time>2023-11-25T13:42:25Z</time>
      </trkpt>
      <trkpt lat="49.85372" lon="2.2539">
        <ele>66.4</ele>
        <time>2023-11-25T13:42:26Z</time>
      </trkpt>
      <trkpt lat="49.85373" lon="2.25391">
        <ele>66.4</ele>
        <time>2023-11-25T13:42:27Z</time>
      </trkpt>
      <trkpt lat="49.85374" lon="2.25392">
        <ele>66.4</ele>
        <time>2023-11-25T13:42:29Z</time>
      </trkpt>
      <trkpt lat="49.85376" lon="2.25393">
        <ele>66.4</ele>
        <time>2023-11-25T13:42:30Z</time>
      </trkpt>
      <trkpt lat="49.85377" lon="2.25395">
        <ele>66.4</ele>
        <time>2023-11-25T13:42:31Z</time>
      </trkpt>
      <trkpt lat="49.85379" lon="2.25396">
        <ele>66.4</ele>
        <time>2023-11-25T13:42:32Z</time>
      </trkpt>
      <trkpt lat="49.85379" lon="2.25397">
        <ele>66.4</ele>
        <time>2023-11-25T13:42:33Z</time>
      </trkpt>
      <trkpt lat="49.8538" lon="2.25397">
        <ele>66.4</ele>
        <time>2023-11-25T13:42:34Z</time>
      </trkpt>
      <trkpt lat="49.85382" lon="2.25399">
        <ele>66.4</ele>
        <time>2023-11-25T13:42:35Z</time>
      </trkpt>
      <trkpt lat="49.85383" lon="2.254">
        <ele>66.4</ele>
        <time>2023-11-25T13:42:37Z</time>
      </trkpt>
      <trkpt lat="49.85383" lon="2.254">
        <ele>66.4</ele>
        <time>2023-11-25T13:42:38Z</time>
      </trkpt>
      <trkpt lat="49.85385" lon="2.25402">
        <ele>66.4</ele>
        <time>2023-11-25T13:42:39Z</time>
      </trkpt>
      <trkpt lat="49.85386" lon="2.25403">
        <ele>66.4</ele>
        <time>2023-11-25T13:42:40Z</time>
      </trkpt>
      <trkpt lat="49.85387" lon="2.25403">
        <ele>66.4</ele>
        <time>2023-11-25T13:42:41Z</time>
      </trkpt>
      <trkpt lat="49.85388" lon="2.25404">
        <ele>66.4</ele>
        <time>2023-11-25T13:42:42Z</time>
      </trkpt>
      <trkpt lat="49.85389" lon="2.25405">
        <ele>66.4</ele>
        <time>2023-11-25T13:42:43Z</time>
      </trkpt>
      <trkpt lat="49.85391" lon="2.25406">
        <ele>66.4</ele>
        <time>2023-11-25T13:42:45Z</time>
      </trkpt>
      <trkpt lat="49.85392" lon="2.25407">
        <ele>66.4</ele>
        <time>2023-11-25T13:42:46Z</time>
      </trkpt>
      <trkpt lat="49.85393" lon="2.25408">
        <ele>66.4</ele>
        <time>2023-11-25T13:42:47Z</time>
      </trkpt>
      <trkpt lat="49.85394" lon="2.25408">
        <ele>66.4</ele>
        <time>2023-11-25T13:42:48Z</time>
      </trkpt>
      <trkpt lat="49.85396" lon="2.2541">
        <ele>66.4</ele>
        <time>2023-11-25T13:42:49Z</time>
      </trkpt>
      <trkpt lat="49.85396" lon="2.25411">
        <ele>66.4</ele>
        <time>2023-11-25T13:42:50Z</time>
      </trkpt>
      <trkpt lat="49.85397" lon="2.25411">
        <ele>66.4</ele>
        <time>2023-11-25T13:42:51Z</time>
      </trkpt>
      <trkpt lat="49.85399" lon="2.25413">
        <ele>66.4</ele>
        <time>2023-11-25T13:42:53Z</time>
      </trkpt>
      <trkpt lat="49.854" lon="2.25413">
        <ele>66.4</ele>
        <time>2023-11-25T13:42:54Z</time>
      </trkpt>
      <trkpt lat="49.85401" lon="2.25414">
        <ele>66.4</ele>
        <time>2023-11-25T13:42:55Z</time>
      </trkpt>
      <trkpt lat="49.85402" lon="2.25415">
        <ele>66.4</ele>
        <time>2023-11-25T13:42:56Z</time>
      </trkpt>
      <trkpt lat="49.85403" lon="2.25415">
        <ele>66.4</ele>
        <time>2023-11-25T13:42:57Z</time>
      </trkpt>
      <trkpt lat="49.85404" lon="2.25416">
        <ele>66.4</ele>
        <time>2023-11-25T13:42:58Z</time>
      </trkpt>
      <trkpt lat="49.85404" lon="2.25417">
        <ele>66.4</ele>
        <time>2023-11-25T13:42:59Z</time>
      </trkpt>
      <trkpt lat="49.85405" lon="2.25417">
        <ele>66.4</ele>
        <time>2023-11-25T13:43:00Z</time>
      </trkpt>
      <trkpt lat="49.85406" lon="2.25418">
        <ele>66.4</ele>
        <time>2023-11-25T13:43:01Z</time>
      </trkpt>
      <trkpt lat="49.85407" lon="2.25419">
        <ele>66.5</ele>
        <time>2023-11-25T13:43:03Z</time>
      </trkpt>
      <trkpt lat="49.85408" lon="2.2542">
        <ele>66.5</ele>
        <time>2023-11-25T13:43:04Z</time>
      </trkpt>
      <trkpt lat="49.85409" lon="2.2542">
        <ele>66.5</ele>
        <time>2023-11-25T13:43:05Z</time>
      </trkpt>
      <trkpt lat="49.85411" lon="2.25423">
        <ele>66.5</ele>
        <time>2023-11-25T13:43:06Z</time>
      </trkpt>
      <trkpt lat="49.85412" lon="2.25423">
        <ele>66.5</ele>
        <time>2023-11-25T13:43:07Z</time>
      </trkpt>
      <trkpt lat="49.85412" lon="2.25424">
        <ele>66.5</ele>
        <time>2023-11-25T13:43:08Z</time>
      </trkpt>
      <trkpt lat="49.85413" lon="2.25425">
        <ele>66.5</ele>
        <time>2023-11-25T13:43:09Z</time>
      </trkpt>
      <trkpt lat="49.85414" lon="2.25426">
        <ele>66.5</ele>
        <time>2023-11-25T13:43:10Z</time>
      </trkpt>
      <trkpt lat="49.85414" lon="2.25427">
        <ele>66.6</ele>
        <time>2023-11-25T13:43:11Z</time>
      </trkpt>
      <trkpt lat="49.85415" lon="2.25428">
        <ele>66.6</ele>
        <time>2023-11-25T13:43:13Z</time>
      </trkpt>
      <trkpt lat="49.85416" lon="2.25429">
        <ele>66.6</ele>
        <time>2023-11-25T13:43:14Z</time>
      </trkpt>
      <trkpt lat="49.85417" lon="2.25429">
        <ele>66.6</ele>
        <time>2023-11-25T13:43:15Z</time>
      </trkpt>
      <trkpt lat="49.85418" lon="2.2543">
        <ele>66.6</ele>
        <time>2023-11-25T13:43:16Z</time>
      </trkpt>
      <trkpt lat="49.85419" lon="2.25431">
        <ele>66.6</ele>
        <time>2023-11-25T13:43:17Z</time>
      </trkpt>
      <trkpt lat="49.8542" lon="2.25432">
        <ele>66.7</ele>
        <time>2023-11-25T13:43:18Z</time>
      </trkpt>
      <trkpt lat="49.85421" lon="2.25433">
        <ele>66.7</ele>
        <time>2023-11-25T13:43:19Z</time>
      </trkpt>
      <trkpt lat="49.85422" lon="2.25434">
        <ele>66.7</ele>
        <time>2023-11-25T13:43:20Z</time>
      </trkpt>
      <trkpt lat="49.85422" lon="2.25435">
        <ele>66.7</ele>
        <time>2023-11-25T13:43:22Z</time>
      </trkpt>
      <trkpt lat="49.85423" lon="2.25435">
        <ele>66.7</ele>
        <time>2023-11-25T13:43:23Z</time>
      </trkpt>
      <trkpt lat="49.85425" lon="2.25436">
        <ele>66.8</ele>
        <time>2023-11-25T13:43:24Z</time>
      </trkpt>
      <trkpt lat="49.85425" lon="2.25437">
        <ele>66.8</ele>
        <time>2023-11-25T13:43:25Z</time>
      </trkpt>
      <trkpt lat="49.85426" lon="2.25438">
        <ele>66.8</ele>
        <time>2023-11-25T13:43:26Z</time>
      </trkpt>
      <trkpt lat="49.85427" lon="2.25439">
        <ele>66.8</ele>
        <time>2023-11-25T13:43:27Z</time>
      </trkpt>
      <trkpt lat="49.85428" lon="2.25439">
        <ele>66.9</ele>
        <time>2023-11-25T13:43:28Z</time>
      </trkpt>
      <trkpt lat="49.8543" lon="2.25441">
        <ele>66.9</ele>
        <time>2023-11-25T13:43:30Z</time>
      </trkpt>
      <trkpt lat="49.8543" lon="2.25442">
        <ele>66.9</ele>
        <time>2023-11-25T13:43:31Z</time>
      </trkpt>
      <trkpt lat="49.85431" lon="2.25443">
        <ele>66.9</ele>
        <time>2023-11-25T13:43:32Z</time>
      </trkpt>
      <trkpt lat="49.85432" lon="2.25444">
        <ele>67</ele>
        <time>2023-11-25T13:43:33Z</time>
      </trkpt>
      <trkpt lat="49.85433" lon="2.25444">
        <ele>67</ele>
        <time>2023-11-25T13:43:34Z</time>
      </trkpt>
      <trkpt lat="49.85435" lon="2.25445">
        <ele>67</ele>
        <time>2023-11-25T13:43:35Z</time>
      </trkpt>
      <trkpt lat="49.85436" lon="2.25446">
        <ele>67</ele>
        <time>2023-11-25T13:43:37Z</time>
      </trkpt>
      <trkpt lat="49.85437" lon="2.25447">
        <ele>67.1</ele>
        <time>2023-11-25T13:43:38Z</time>
      </trkpt>
      <trkpt lat="49.85438" lon="2.25448">
        <ele>67.1</ele>
        <time>2023-11-25T13:43:39Z</time>
      </trkpt>
      <trkpt lat="49.85439" lon="2.25449">
        <ele>67.1</ele>
        <time>2023-11-25T13:43:40Z</time>
      </trkpt>
      <trkpt lat="49.85441" lon="2.2545">
        <ele>67.2</ele>
        <time>2023-11-25T13:43:41Z</time>
      </trkpt>
      <trkpt lat="49.85442" lon="2.25451">
        <ele>67.2</ele>
        <time>2023-11-25T13:43:42Z</time>
      </trkpt>
      <trkpt lat="49.85442" lon="2.25451">
        <ele>67.2</ele>
        <time>2023-11-25T13:43:43Z</time>
      </trkpt>
      <trkpt lat="49.85444" lon="2.25453">
        <ele>67.3</ele>
        <time>2023-11-25T13:43:44Z</time>
      </trkpt>
      <trkpt lat="49.85445" lon="2.25454">
        <ele>67.3</ele>
        <time>2023-11-25T13:43:45Z</time>
      </trkpt>
      <trkpt lat="49.85446" lon="2.25454">
        <ele>67.3</ele>
        <time>2023-11-25T13:43:46Z</time>
      </trkpt>
      <trkpt lat="49.85447" lon="2.25455">
        <ele>67.4</ele>
        <time>2023-11-25T13:43:48Z</time>
      </trkpt>
      <trkpt lat="49.85449" lon="2.25456">
        <ele>67.4</ele>
        <time>2023-11-25T13:43:49Z</time>
      </trkpt>
      <trkpt lat="49.85449" lon="2.25457">
        <ele>67.4</ele>
        <time>2023-11-25T13:43:50Z</time>
      </trkpt>
      <trkpt lat="49.85451" lon="2.25458">
        <ele>67.5</ele>
        <time>2023-11-25T13:43:51Z</time>
      </trkpt>
      <trkpt lat="49.85452" lon="2.25459">
        <ele>67.5</ele>
        <time>2023-11-25T13:43:53Z</time>
      </trkpt>
      <trkpt lat="49.85453" lon="2.2546">
        <ele>67.6</ele>
        <time>2023-11-25T13:43:54Z</time>
      </trkpt>
      <trkpt lat="49.85455" lon="2.25461">
        <ele>67.6</ele>
        <time>2023-11-25T13:43:55Z</time>
      </trkpt>
      <trkpt lat="49.85456" lon="2.25461">
        <ele>67.7</ele>
        <time>2023-11-25T13:43:56Z</time>
      </trkpt>
      <trkpt lat="49.85457" lon="2.25462">
        <ele>67.7</ele>
        <time>2023-11-25T13:43:57Z</time>
      </trkpt>
      <trkpt lat="49.85458" lon="2.25462">
        <ele>67.8</ele>
        <time>2023-11-25T13:43:58Z</time>
      </trkpt>
      <trkpt lat="49.85459" lon="2.25463">
        <ele>67.8</ele>
        <time>2023-11-25T13:43:59Z</time>
      </trkpt>
      <trkpt lat="49.8546" lon="2.25463">
        <ele>67.9</ele>
        <time>2023-11-25T13:44:00Z</time>
      </trkpt>
      <trkpt lat="49.85461" lon="2.25464">
        <ele>67.9</ele>
        <time>2023-11-25T13:44:01Z</time>
      </trkpt>
      <trkpt lat="49.85462" lon="2.25465">
        <ele>67.9</ele>
        <time>2023-11-25T13:44:03Z</time>
      </trkpt>
      <trkpt lat="49.85463" lon="2.25466">
        <ele>68</ele>
        <time>2023-11-25T13:44:04Z</time>
      </trkpt>
      <trkpt lat="49.85464" lon="2.25467">
        <ele>68</ele>
        <time>2023-11-25T13:44:05Z</time>
      </trkpt>
      <trkpt lat="49.85465" lon="2.25468">
        <ele>68.1</ele>
        <time>2023-11-25T13:44:06Z</time>
      </trkpt>
      <trkpt lat="49.85466" lon="2.25469">
        <ele>68.1</ele>
        <time>2023-11-25T13:44:07Z</time>
      </trkpt>
      <trkpt lat="49.85467" lon="2.25469">
        <ele>68.1</ele>
        <time>2023-11-25T13:44:08Z</time>
      </trkpt>
      <trkpt lat="49.85468" lon="2.2547">
        <ele>68.2</ele>
        <time>2023-11-25T13:44:09Z</time>
      </trkpt>
      <trkpt lat="49.8547" lon="2.2547">
        <ele>68.2</ele>
        <time>2023-11-25T13:44:10Z</time>
      </trkpt>
      <trkpt lat="49.85471" lon="2.25471">
        <ele>68.3</ele>
        <time>2023-11-25T13:44:12Z</time>
      </trkpt>
      <trkpt lat="49.85472" lon="2.25472">
        <ele>68.3</ele>
        <time>2023-11-25T13:44:13Z</time>
      </trkpt>
      <trkpt lat="49.85473" lon="2.25474">
        <ele>68.4</ele>
        <time>2023-11-25T13:44:14Z</time>
      </trkpt>
      <trkpt lat="49.85475" lon="2.25476">
        <ele>68.5</ele>
        <time>2023-11-25T13:44:15Z</time>
      </trkpt>
      <trkpt lat="49.85475" lon="2.25476">
        <ele>68.5</ele>
        <time>2023-11-25T13:44:16Z</time>
      </trkpt>
      <trkpt lat="49.85476" lon="2.25477">
        <ele>68.5</ele>
        <time>2023-11-25T13:44:17Z</time>
      </trkpt>
      <trkpt lat="49.85478" lon="2.25479">
        <ele>68.6</ele>
        <time>2023-11-25T13:44:18Z</time>
      </trkpt>
      <trkpt lat="49.85479" lon="2.2548">
        <ele>68.6</ele>
        <time>2023-11-25T13:44:20Z</time>
      </trkpt>
      <trkpt lat="49.85479" lon="2.2548">
        <ele>68.7</ele>
        <time>2023-11-25T13:44:21Z</time>
      </trkpt>
      <trkpt lat="49.85481" lon="2.25482">
        <ele>68.7</ele>
        <time>2023-11-25T13:44:22Z</time>
      </trkpt>
      <trkpt lat="49.85482" lon="2.25482">
        <ele>68.8</ele>
        <time>2023-11-25T13:44:23Z</time>
      </trkpt>
      <trkpt lat="49.85483" lon="2.25483">
        <ele>68.8</ele>
        <time>2023-11-25T13:44:24Z</time>
      </trkpt>
      <trkpt lat="49.85485" lon="2.25485">
        <ele>68.9</ele>
        <time>2023-11-25T13:44:25Z</time>
      </trkpt>
      <trkpt lat="49.85485" lon="2.25485">
        <ele>68.9</ele>
        <time>2023-11-25T13:44:26Z</time>
      </trkpt>
      <trkpt lat="49.85486" lon="2.25486">
        <ele>68.9</ele>
        <time>2023-11-25T13:44:27Z</time>
      </trkpt>
      <trkpt lat="49.85487" lon="2.25487">
        <ele>69</ele>
        <time>2023-11-25T13:44:28Z</time>
      </trkpt>
      <trkpt lat="49.85488" lon="2.25488">
        <ele>69</ele>
        <time>2023-11-25T13:44:29Z</time>
      </trkpt>
      <trkpt lat="49.85489" lon="2.25489">
        <ele>69</ele>
        <time>2023-11-25T13:44:31Z</time>
      </trkpt>
      <trkpt lat="49.85492" lon="2.2549">
        <ele>69.1</ele>
        <time>2023-11-25T13:44:32Z</time>
      </trkpt>
      <trkpt lat="49.85492" lon="2.2549">
        <ele>69.1</ele>
        <time>2023-11-25T13:44:33Z</time>
      </trkpt>
      <trkpt lat="49.85493" lon="2.25491">
        <ele>69.2</ele>
        <time>2023-11-25T13:44:34Z</time>
      </trkpt>
      <trkpt lat="49.85494" lon="2.25491">
        <ele>69.2</ele>
        <time>2023-11-25T13:44:35Z</time>
      </trkpt>
      <trkpt lat="49.85496" lon="2.25492">
        <ele>69.2</ele>
        <time>2023-11-25T13:44:36Z</time>
      </trkpt>
      <trkpt lat="49.85497" lon="2.25493">
        <ele>69.3</ele>
        <time>2023-11-25T13:44:37Z</time>
      </trkpt>
      <trkpt lat="49.85498" lon="2.25494">
        <ele>69.4</ele>
        <time>2023-11-25T13:44:38Z</time>
      </trkpt>
      <trkpt lat="49.85499" lon="2.25495">
        <ele>69.4</ele>
        <time>2023-11-25T13:44:40Z</time>
      </trkpt>
      <trkpt lat="49.855" lon="2.25495">
        <ele>69.4</ele>
        <time>2023-11-25T13:44:41Z</time>
      </trkpt>
      <trkpt lat="49.85501" lon="2.25496">
        <ele>69.5</ele>
        <time>2023-11-25T13:44:42Z</time>
      </trkpt>
      <trkpt lat="49.85502" lon="2.25497">
        <ele>69.5</ele>
        <time>2023-11-25T13:44:43Z</time>
      </trkpt>
      <trkpt lat="49.85503" lon="2.25498">
        <ele>69.5</ele>
        <time>2023-11-25T13:44:44Z</time>
      </trkpt>
      <trkpt lat="49.85504" lon="2.25499">
        <ele>69.6</ele>
        <time>2023-11-25T13:44:45Z</time>
      </trkpt>
      <trkpt lat="49.85505" lon="2.25499">
        <ele>69.6</ele>
        <time>2023-11-25T13:44:46Z</time>
      </trkpt>
      <trkpt lat="49.85506" lon="2.255">
        <ele>69.6</ele>
        <time>2023-11-25T13:44:47Z</time>
      </trkpt>
      <trkpt lat="49.85508" lon="2.25502">
        <ele>69.7</ele>
        <time>2023-11-25T13:44:49Z</time>
      </trkpt>
      <trkpt lat="49.85509" lon="2.25503">
        <ele>69.7</ele>
        <time>2023-11-25T13:44:50Z</time>
      </trkpt>
      <trkpt lat="49.85509" lon="2.25503">
        <ele>69.8</ele>
        <time>2023-11-25T13:44:51Z</time>
      </trkpt>
      <trkpt lat="49.8551" lon="2.25504">
        <ele>69.8</ele>
        <time>2023-11-25T13:44:52Z</time>
      </trkpt>
      <trkpt lat="49.85511" lon="2.25505">
        <ele>69.8</ele>
        <time>2023-11-25T13:44:53Z</time>
      </trkpt>
      <trkpt lat="49.85513" lon="2.25506">
        <ele>69.9</ele>
        <time>2023-11-25T13:44:54Z</time>
      </trkpt>
      <trkpt lat="49.85514" lon="2.25506">
        <ele>69.9</ele>
        <time>2023-11-25T13:44:55Z</time>
      </trkpt>
      <trkpt lat="49.85514" lon="2.25507">
        <ele>69.9</ele>
        <time>2023-11-25T13:44:56Z</time>
      </trkpt>
      <trkpt lat="49.85516" lon="2.25508">
        <ele>70</ele>
        <time>2023-11-25T13:44:58Z</time>
      </trkpt>
      <trkpt lat="49.85517" lon="2.25509">
        <ele>70</ele>
        <time>2023-11-25T13:44:59Z</time>
      </trkpt>
      <trkpt lat="49.85518" lon="2.25509">
        <ele>70.1</ele>
        <time>2023-11-25T13:45:00Z</time>
      </trkpt>
      <trkpt lat="49.85519" lon="2.2551">
        <ele>70.1</ele>
        <time>2023-11-25T13:45:01Z</time>
      </trkpt>
      <trkpt lat="49.8552" lon="2.25511">
        <ele>70.1</ele>
        <time>2023-11-25T13:45:02Z</time>
      </trkpt>
      <trkpt lat="49.8552" lon="2.25511">
        <ele>70.1</ele>
        <time>2023-11-25T13:45:03Z</time>
      </trkpt>
      <trkpt lat="49.85521" lon="2.25512">
        <ele>70.2</ele>
        <time>2023-11-25T13:45:04Z</time>
      </trkpt>
      <trkpt lat="49.85522" lon="2.25512">
        <ele>70.2</ele>
        <time>2023-11-25T13:45:06Z</time>
      </trkpt>
      <trkpt lat="49.85523" lon="2.25513">
        <ele>70.2</ele>
        <time>2023-11-25T13:45:07Z</time>
      </trkpt>
      <trkpt lat="49.85524" lon="2.25514">
        <ele>70.3</ele>
        <time>2023-11-25T13:45:08Z</time>
      </trkpt>
      <trkpt lat="49.85525" lon="2.25515">
        <ele>70.3</ele>
        <time>2023-11-25T13:45:09Z</time>
      </trkpt>
      <trkpt lat="49.85526" lon="2.25516">
        <ele>70.3</ele>
        <time>2023-11-25T13:45:10Z</time>
      </trkpt>
      <trkpt lat="49.85527" lon="2.25517">
        <ele>70.4</ele>
        <time>2023-11-25T13:45:11Z</time>
      </trkpt>
      <trkpt lat="49.85528" lon="2.25518">
        <ele>70.4</ele>
        <time>2023-11-25T13:45:12Z</time>
      </trkpt>
      <trkpt lat="49.85528" lon="2.25518">
        <ele>70.4</ele>
        <time>2023-11-25T13:45:14Z</time>
      </trkpt>
      <trkpt lat="49.85529" lon="2.25519">
        <ele>70.4</ele>
        <time>2023-11-25T13:45:15Z</time>
      </trkpt>
      <trkpt lat="49.8553" lon="2.2552">
        <ele>70.4</ele>
        <time>2023-11-25T13:45:16Z</time>
      </trkpt>
      <trkpt lat="49.85531" lon="2.25521">
        <ele>70.5</ele>
        <time>2023-11-25T13:45:17Z</time>
      </trkpt>
      <trkpt lat="49.85532" lon="2.25522">
        <ele>70.5</ele>
        <time>2023-11-25T13:45:18Z</time>
      </trkpt>
      <trkpt lat="49.85533" lon="2.25523">
        <ele>70.5</ele>
        <time>2023-11-25T13:45:19Z</time>
      </trkpt>
      <trkpt lat="49.85534" lon="2.25524">
        <ele>70.6</ele>
        <time>2023-11-25T13:45:20Z</time>
      </trkpt>
      <trkpt lat="49.85535" lon="2.25525">
        <ele>70.6</ele>
        <time>2023-11-25T13:45:22Z</time>
      </trkpt>
      <trkpt lat="49.85536" lon="2.25526">
        <ele>70.6</ele>
        <time>2023-11-25T13:45:23Z</time>
      </trkpt>
      <trkpt lat="49.85537" lon="2.25526">
        <ele>70.6</ele>
        <time>2023-11-25T13:45:24Z</time>
      </trkpt>
      <trkpt lat="49.85538" lon="2.25527">
        <ele>70.7</ele>
        <time>2023-11-25T13:45:25Z</time>
      </trkpt>
      <trkpt lat="49.85539" lon="2.25528">
        <ele>70.7</ele>
        <time>2023-11-25T13:45:26Z</time>
      </trkpt>
      <trkpt lat="49.8554" lon="2.25529">
        <ele>70.7</ele>
        <time>2023-11-25T13:45:27Z</time>
      </trkpt>
      <trkpt lat="49.85541" lon="2.25529">
        <ele>70.7</ele>
        <time>2023-11-25T13:45:28Z</time>
      </trkpt>
      <trkpt lat="49.85543" lon="2.25531">
        <ele>70.8</ele>
        <time>2023-11-25T13:45:29Z</time>
      </trkpt>
      <trkpt lat="49.85544" lon="2.25531">
        <ele>70.8</ele>
        <time>2023-11-25T13:45:31Z</time>
      </trkpt>
      <trkpt lat="49.85544" lon="2.25532">
        <ele>70.8</ele>
        <time>2023-11-25T13:45:32Z</time>
      </trkpt>
      <trkpt lat="49.85546" lon="2.25533">
        <ele>70.9</ele>
        <time>2023-11-25T13:45:33Z</time>
      </trkpt>
      <trkpt lat="49.85547" lon="2.25534">
        <ele>70.9</ele>
        <time>2023-11-25T13:45:34Z</time>
      </trkpt>
      <trkpt lat="49.85548" lon="2.25534">
        <ele>70.9</ele>
        <time>2023-11-25T13:45:35Z</time>
      </trkpt>
      <trkpt lat="49.85549" lon="2.25535">
        <ele>71</ele>
        <time>2023-11-25T13:45:36Z</time>
      </trkpt>
      <trkpt lat="49.8555" lon="2.25536">
        <ele>71</ele>
        <time>2023-11-25T13:45:38Z</time>
      </trkpt>
      <trkpt lat="49.85551" lon="2.25537">
        <ele>71</ele>
        <time>2023-11-25T13:45:39Z</time>
      </trkpt>
      <trkpt lat="49.85553" lon="2.25538">
        <ele>71.1</ele>
        <time>2023-11-25T13:45:40Z</time>
      </trkpt>
      <trkpt lat="49.85554" lon="2.25539">
        <ele>71.1</ele>
        <time>2023-11-25T13:45:41Z</time>
      </trkpt>
      <trkpt lat="49.85554" lon="2.2554">
        <ele>71.1</ele>
        <time>2023-11-25T13:45:42Z</time>
      </trkpt>
      <trkpt lat="49.85555" lon="2.2554">
        <ele>71.2</ele>
        <time>2023-11-25T13:45:43Z</time>
      </trkpt>
      <trkpt lat="49.85556" lon="2.25541">
        <ele>71.2</ele>
        <time>2023-11-25T13:45:44Z</time>
      </trkpt>
      <trkpt lat="49.85557" lon="2.25542">
        <ele>71.2</ele>
        <time>2023-11-25T13:45:45Z</time>
      </trkpt>
      <trkpt lat="49.85559" lon="2.25543">
        <ele>71.3</ele>
        <time>2023-11-25T13:45:47Z</time>
      </trkpt>
      <trkpt lat="49.8556" lon="2.25544">
        <ele>71.3</ele>
        <time>2023-11-25T13:45:48Z</time>
      </trkpt>
      <trkpt lat="49.85561" lon="2.25544">
        <ele>71.3</ele>
        <time>2023-11-25T13:45:49Z</time>
      </trkpt>
      <trkpt lat="49.85562" lon="2.25545">
        <ele>71.4</ele>
        <time>2023-11-25T13:45:50Z</time>
      </trkpt>
      <trkpt lat="49.85563" lon="2.25546">
        <ele>71.4</ele>
        <time>2023-11-25T13:45:51Z</time>
      </trkpt>
      <trkpt lat="49.85564" lon="2.25547">
        <ele>71.4</ele>
        <time>2023-11-25T13:45:52Z</time>
      </trkpt>
      <trkpt lat="49.85565" lon="2.25548">
        <ele>71.5</ele>
        <time>2023-11-25T13:45:53Z</time>
      </trkpt>
      <trkpt lat="49.85566" lon="2.25549">
        <ele>71.5</ele>
        <time>2023-11-25T13:45:55Z</time>
      </trkpt>
      <trkpt lat="49.85567" lon="2.25549">
        <ele>71.5</ele>
        <time>2023-11-25T13:45:56Z</time>
      </trkpt>
      <trkpt lat="49.85568" lon="2.2555">
        <ele>71.5</ele>
        <time>2023-11-25T13:45:57Z</time>
      </trkpt>
      <trkpt lat="49.85569" lon="2.25551">
        <ele>71.6</ele>
        <time>2023-11-25T13:45:58Z</time>
      </trkpt>
      <trkpt lat="49.8557" lon="2.25552">
        <ele>71.6</ele>
        <time>2023-11-25T13:45:59Z</time>
      </trkpt>
      <trkpt lat="49.85571" lon="2.25553">
        <ele>71.6</ele>
        <time>2023-11-25T13:46:00Z</time>
      </trkpt>
      <trkpt lat="49.85572" lon="2.25554">
        <ele>71.7</ele>
        <time>2023-11-25T13:46:01Z</time>
      </trkpt>
      <trkpt lat="49.85573" lon="2.25555">
        <ele>71.7</ele>
        <time>2023-11-25T13:46:03Z</time>
      </trkpt>
      <trkpt lat="49.85574" lon="2.25556">
        <ele>71.7</ele>
        <time>2023-11-25T13:46:04Z</time>
      </trkpt>
      <trkpt lat="49.85575" lon="2.25557">
        <ele>71.8</ele>
        <time>2023-11-25T13:46:05Z</time>
      </trkpt>
      <trkpt lat="49.85576" lon="2.25558">
        <ele>71.8</ele>
        <time>2023-11-25T13:46:06Z</time>
      </trkpt>
      <trkpt lat="49.85577" lon="2.2556">
        <ele>71.9</ele>
        <time>2023-11-25T13:46:07Z</time>
      </trkpt>
      <trkpt lat="49.85577" lon="2.25561">
        <ele>71.9</ele>
        <time>2023-11-25T13:46:08Z</time>
      </trkpt>
      <trkpt lat="49.85577" lon="2.25562">
        <ele>71.9</ele>
        <time>2023-11-25T13:46:10Z</time>
      </trkpt>
      <trkpt lat="49.85578" lon="2.25562">
        <ele>71.9</ele>
        <time>2023-11-25T13:46:11Z</time>
      </trkpt>
      <trkpt lat="49.85578" lon="2.25563">
        <ele>71.9</ele>
        <time>2023-11-25T13:46:13Z</time>
      </trkpt>
      <trkpt lat="49.85578" lon="2.25563">
        <ele>71.9</ele>
        <time>2023-11-25T13:46:14Z</time>
      </trkpt>
      <trkpt lat="49.85579" lon="2.25564">
        <ele>71.9</ele>
        <time>2023-11-25T13:46:15Z</time>
      </trkpt>
      <trkpt lat="49.85579" lon="2.25565">
        <ele>72</ele>
        <time>2023-11-25T13:46:17Z</time>
      </trkpt>
      <trkpt lat="49.85579" lon="2.25565">
        <ele>72</ele>
        <time>2023-11-25T13:46:18Z</time>
      </trkpt>
      <trkpt lat="49.8558" lon="2.25566">
        <ele>72</ele>
        <time>2023-11-25T13:46:20Z</time>
      </trkpt>
      <trkpt lat="49.8558" lon="2.25567">
        <ele>72</ele>
        <time>2023-11-25T13:46:21Z</time>
      </trkpt>
      <trkpt lat="49.8558" lon="2.25567">
        <ele>72</ele>
        <time>2023-11-25T13:46:23Z</time>
      </trkpt>
      <trkpt lat="49.85581" lon="2.25568">
        <ele>72</ele>
        <time>2023-11-25T13:46:24Z</time>
      </trkpt>
      <trkpt lat="49.85581" lon="2.25568">
        <ele>72.1</ele>
        <time>2023-11-25T13:46:26Z</time>
      </trkpt>
      <trkpt lat="49.85581" lon="2.25569">
        <ele>72.1</ele>
        <time>2023-11-25T13:46:27Z</time>
      </trkpt>
      <trkpt lat="49.85582" lon="2.2557">
        <ele>72.1</ele>
        <time>2023-11-25T13:46:28Z</time>
      </trkpt>
      <trkpt lat="49.85582" lon="2.2557">
        <ele>72.1</ele>
        <time>2023-11-25T13:46:30Z</time>
      </trkpt>
      <trkpt lat="49.85582" lon="2.25571">
        <ele>72.1</ele>
        <time>2023-11-25T13:46:31Z</time>
      </trkpt>
      <trkpt lat="49.85583" lon="2.25572">
        <ele>72.1</ele>
        <time>2023-11-25T13:46:32Z</time>
      </trkpt>
      <trkpt lat="49.85583" lon="2.25572">
        <ele>72.1</ele>
        <time>2023-11-25T13:46:33Z</time>
      </trkpt>
      <trkpt lat="49.85583" lon="2.25573">
        <ele>72.2</ele>
        <time>2023-11-25T13:46:34Z</time>
      </trkpt>
      <trkpt lat="49.85584" lon="2.25574">
        <ele>72.2</ele>
        <time>2023-11-25T13:48:11Z</time>
      </trkpt>
      <trkpt lat="49.85584" lon="2.25574">
        <ele>72.2</ele>
        <time>2023-11-25T13:48:12Z</time>
      </trkpt>
      <trkpt lat="49.85584" lon="2.25575">
        <ele>72.2</ele>
        <time>2023-11-25T13:48:13Z</time>
      </trkpt>
      <trkpt lat="49.85585" lon="2.25575">
        <ele>72.2</ele>
        <time>2023-11-25T13:48:15Z</time>
      </trkpt>
      <trkpt lat="49.85585" lon="2.25576">
        <ele>72.2</ele>
        <time>2023-11-25T13:48:16Z</time>
      </trkpt>
      <trkpt lat="49.85585" lon="2.25577">
        <ele>72.2</ele>
        <time>2023-11-25T13:48:17Z</time>
      </trkpt>
      <trkpt lat="49.85586" lon="2.25577">
        <ele>72.3</ele>
        <time>2023-11-25T13:48:18Z</time>
      </trkpt>
      <trkpt lat="49.85587" lon="2.2558">
        <ele>72.3</ele>
        <time>2023-11-25T13:48:19Z</time>
      </trkpt>
      <trkpt lat="49.85588" lon="2.25581">
        <ele>72.4</ele>
        <time>2023-11-25T13:48:21Z</time>
      </trkpt>
      <trkpt lat="49.85589" lon="2.25583">
        <ele>72.4</ele>
        <time>2023-11-25T13:48:22Z</time>
      </trkpt>
      <trkpt lat="49.85589" lon="2.25584">
        <ele>72.4</ele>
        <time>2023-11-25T13:48:23Z</time>
      </trkpt>
      <trkpt lat="49.8559" lon="2.25585">
        <ele>72.5</ele>
        <time>2023-11-25T13:48:24Z</time>
      </trkpt>
      <trkpt lat="49.85591" lon="2.25588">
        <ele>72.5</ele>
        <time>2023-11-25T13:48:26Z</time>
      </trkpt>
      <trkpt lat="49.85592" lon="2.25589">
        <ele>72.5</ele>
        <time>2023-11-25T13:48:27Z</time>
      </trkpt>
      <trkpt lat="49.85592" lon="2.2559">
        <ele>72.6</ele>
        <time>2023-11-25T13:48:28Z</time>
      </trkpt>
      <trkpt lat="49.85593" lon="2.25592">
        <ele>72.6</ele>
        <time>2023-11-25T13:48:29Z</time>
      </trkpt>
      <trkpt lat="49.85593" lon="2.25593">
        <ele>72.6</ele>
        <time>2023-11-25T13:48:30Z</time>
      </trkpt>
      <trkpt lat="49.85593" lon="2.25595">
        <ele>72.7</ele>
        <time>2023-11-25T13:48:31Z</time>
      </trkpt>
      <trkpt lat="49.85594" lon="2.25598">
        <ele>72.7</ele>
        <time>2023-11-25T13:48:33Z</time>
      </trkpt>
      <trkpt lat="49.85595" lon="2.25599">
        <ele>72.7</ele>
        <time>2023-11-25T13:48:34Z</time>
      </trkpt>
      <trkpt lat="49.85595" lon="2.256">
        <ele>72.8</ele>
        <time>2023-11-25T13:48:35Z</time>
      </trkpt>
      <trkpt lat="49.85596" lon="2.25602">
        <ele>72.8</ele>
        <time>2023-11-25T13:48:36Z</time>
      </trkpt>
      <trkpt lat="49.85596" lon="2.25604">
        <ele>72.8</ele>
        <time>2023-11-25T13:48:37Z</time>
      </trkpt>
      <trkpt lat="49.85597" lon="2.25605">
        <ele>72.9</ele>
        <time>2023-11-25T13:48:38Z</time>
      </trkpt>
      <trkpt lat="49.85597" lon="2.25607">
        <ele>72.9</ele>
        <time>2023-11-25T13:48:40Z</time>
      </trkpt>
      <trkpt lat="49.85598" lon="2.25609">
        <ele>72.9</ele>
        <time>2023-11-25T13:48:41Z</time>
      </trkpt>
      <trkpt lat="49.85599" lon="2.25612">
        <ele>73</ele>
        <time>2023-11-25T13:48:42Z</time>
      </trkpt>
      <trkpt lat="49.85599" lon="2.25613">
        <ele>73</ele>
        <time>2023-11-25T13:48:43Z</time>
      </trkpt>
      <trkpt lat="49.856" lon="2.25615">
        <ele>73</ele>
        <time>2023-11-25T13:48:44Z</time>
      </trkpt>
      <trkpt lat="49.856" lon="2.25617">
        <ele>73.1</ele>
        <time>2023-11-25T13:48:45Z</time>
      </trkpt>
      <trkpt lat="49.85601" lon="2.25618">
        <ele>73.1</ele>
        <time>2023-11-25T13:48:47Z</time>
      </trkpt>
      <trkpt lat="49.85601" lon="2.2562">
        <ele>73.1</ele>
        <time>2023-11-25T13:48:48Z</time>
      </trkpt>
      <trkpt lat="49.85601" lon="2.25622">
        <ele>73.2</ele>
        <time>2023-11-25T13:48:49Z</time>
      </trkpt>
      <trkpt lat="49.85602" lon="2.25624">
        <ele>73.2</ele>
        <time>2023-11-25T13:48:50Z</time>
      </trkpt>
      <trkpt lat="49.85603" lon="2.25625">
        <ele>73.2</ele>
        <time>2023-11-25T13:48:51Z</time>
      </trkpt>
      <trkpt lat="49.85603" lon="2.25627">
        <ele>73.3</ele>
        <time>2023-11-25T13:48:52Z</time>
      </trkpt>
      <trkpt lat="49.85604" lon="2.25629">
        <ele>73.3</ele>
        <time>2023-11-25T13:48:54Z</time>
      </trkpt>
      <trkpt lat="49.85605" lon="2.25632">
        <ele>73.3</ele>
        <time>2023-11-25T13:48:55Z</time>
      </trkpt>
      <trkpt lat="49.85605" lon="2.25633">
        <ele>73.4</ele>
        <time>2023-11-25T13:48:56Z</time>
      </trkpt>
      <trkpt lat="49.85606" lon="2.25634">
        <ele>73.4</ele>
        <time>2023-11-25T13:48:57Z</time>
      </trkpt>
      <trkpt lat="49.85607" lon="2.25637">
        <ele>73.4</ele>
        <time>2023-11-25T13:48:58Z</time>
      </trkpt>
      <trkpt lat="49.85607" lon="2.25638">
        <ele>73.5</ele>
        <time>2023-11-25T13:49:00Z</time>
      </trkpt>
      <trkpt lat="49.85607" lon="2.25639">
        <ele>73.5</ele>
        <time>2023-11-25T13:49:01Z</time>
      </trkpt>
      <trkpt lat="49.85607" lon="2.25643">
        <ele>73.5</ele>
        <time>2023-11-25T13:49:02Z</time>
      </trkpt>
      <trkpt lat="49.85608" lon="2.25644">
        <ele>73.5</ele>
        <time>2023-11-25T13:49:03Z</time>
      </trkpt>
      <trkpt lat="49.85608" lon="2.25645">
        <ele>73.6</ele>
        <time>2023-11-25T13:49:04Z</time>
      </trkpt>
      <trkpt lat="49.85609" lon="2.25648">
        <ele>73.6</ele>
        <time>2023-11-25T13:49:05Z</time>
      </trkpt>
      <trkpt lat="49.85609" lon="2.25649">
        <ele>73.6</ele>
        <time>2023-11-25T13:49:07Z</time>
      </trkpt>
      <trkpt lat="49.85609" lon="2.25651">
        <ele>73.6</ele>
        <time>2023-11-25T13:49:08Z</time>
      </trkpt>
      <trkpt lat="49.85609" lon="2.25652">
        <ele>73.7</ele>
        <time>2023-11-25T13:49:09Z</time>
      </trkpt>
      <trkpt lat="49.8561" lon="2.25654">
        <ele>73.7</ele>
        <time>2023-11-25T13:49:10Z</time>
      </trkpt>
      <trkpt lat="49.8561" lon="2.25655">
        <ele>73.7</ele>
        <time>2023-11-25T13:49:11Z</time>
      </trkpt>
      <trkpt lat="49.8561" lon="2.25657">
        <ele>73.7</ele>
        <time>2023-11-25T13:49:12Z</time>
      </trkpt>
      <trkpt lat="49.85611" lon="2.25659">
        <ele>73.8</ele>
        <time>2023-11-25T13:49:14Z</time>
      </trkpt>
      <trkpt lat="49.85611" lon="2.2566">
        <ele>73.8</ele>
        <time>2023-11-25T13:49:15Z</time>
      </trkpt>
      <trkpt lat="49.85612" lon="2.25662">
        <ele>73.8</ele>
        <time>2023-11-25T13:49:16Z</time>
      </trkpt>
      <trkpt lat="49.85612" lon="2.25664">
        <ele>73.9</ele>
        <time>2023-11-25T13:49:17Z</time>
      </trkpt>
      <trkpt lat="49.85613" lon="2.25665">
        <ele>73.9</ele>
        <time>2023-11-25T13:49:18Z</time>
      </trkpt>
      <trkpt lat="49.85613" lon="2.25666">
        <ele>73.9</ele>
        <time>2023-11-25T13:49:19Z</time>
      </trkpt>
      <trkpt lat="49.85614" lon="2.25667">
        <ele>73.9</ele>
        <time>2023-11-25T13:49:20Z</time>
      </trkpt>
      <trkpt lat="49.85615" lon="2.25669">
        <ele>74</ele>
        <time>2023-11-25T13:49:22Z</time>
      </trkpt>
      <trkpt lat="49.85615" lon="2.2567">
        <ele>74</ele>
        <time>2023-11-25T13:49:23Z</time>
      </trkpt>
      <trkpt lat="49.85616" lon="2.25671">
        <ele>74</ele>
        <time>2023-11-25T13:49:24Z</time>
      </trkpt>
      <trkpt lat="49.85616" lon="2.25673">
        <ele>74</ele>
        <time>2023-11-25T13:49:25Z</time>
      </trkpt>
      <trkpt lat="49.85617" lon="2.25674">
        <ele>74.1</ele>
        <time>2023-11-25T13:49:26Z</time>
      </trkpt>
      <trkpt lat="49.85618" lon="2.25676">
        <ele>74.1</ele>
        <time>2023-11-25T13:49:27Z</time>
      </trkpt>
      <trkpt lat="49.85618" lon="2.25678">
        <ele>74.1</ele>
        <time>2023-11-25T13:49:28Z</time>
      </trkpt>
      <trkpt lat="49.85619" lon="2.25679">
        <ele>74.1</ele>
        <time>2023-11-25T13:49:30Z</time>
      </trkpt>
      <trkpt lat="49.85619" lon="2.25681">
        <ele>74.2</ele>
        <time>2023-11-25T13:49:31Z</time>
      </trkpt>
      <trkpt lat="49.8562" lon="2.25683">
        <ele>74.2</ele>
        <time>2023-11-25T13:49:32Z</time>
      </trkpt>
      <trkpt lat="49.8562" lon="2.25686">
        <ele>74.2</ele>
        <time>2023-11-25T13:49:33Z</time>
      </trkpt>
      <trkpt lat="49.85621" lon="2.25687">
        <ele>74.3</ele>
        <time>2023-11-25T13:49:34Z</time>
      </trkpt>
      <trkpt lat="49.85621" lon="2.25688">
        <ele>74.3</ele>
        <time>2023-11-25T13:49:35Z</time>
      </trkpt>
      <trkpt lat="49.85621" lon="2.2569">
        <ele>74.3</ele>
        <time>2023-11-25T13:49:37Z</time>
      </trkpt>
      <trkpt lat="49.85622" lon="2.25692">
        <ele>74.3</ele>
        <time>2023-11-25T13:49:38Z</time>
      </trkpt>
      <trkpt lat="49.85622" lon="2.25693">
        <ele>74.4</ele>
        <time>2023-11-25T13:49:39Z</time>
      </trkpt>
      <trkpt lat="49.85622" lon="2.25695">
        <ele>74.4</ele>
        <time>2023-11-25T13:49:40Z</time>
      </trkpt>
      <trkpt lat="49.85623" lon="2.25696">
        <ele>74.4</ele>
        <time>2023-11-25T13:49:41Z</time>
      </trkpt>
      <trkpt lat="49.85623" lon="2.25698">
        <ele>74.5</ele>
        <time>2023-11-25T13:49:42Z</time>
      </trkpt>
      <trkpt lat="49.85624" lon="2.257">
        <ele>74.5</ele>
        <time>2023-11-25T13:49:44Z</time>
      </trkpt>
      <trkpt lat="49.85624" lon="2.25701">
        <ele>74.5</ele>
        <time>2023-11-25T13:49:45Z</time>
      </trkpt>
      <trkpt lat="49.85625" lon="2.25703">
        <ele>74.6</ele>
        <time>2023-11-25T13:49:46Z</time>
      </trkpt>
      <trkpt lat="49.85625" lon="2.25704">
        <ele>74.6</ele>
        <time>2023-11-25T13:49:47Z</time>
      </trkpt>
      <trkpt lat="49.85626" lon="2.25706">
        <ele>74.6</ele>
        <time>2023-11-25T13:49:48Z</time>
      </trkpt>
      <trkpt lat="49.85626" lon="2.25707">
        <ele>74.6</ele>
        <time>2023-11-25T13:49:49Z</time>
      </trkpt>
      <trkpt lat="49.85627" lon="2.25709">
        <ele>74.7</ele>
        <time>2023-11-25T13:49:50Z</time>
      </trkpt>
      <trkpt lat="49.85627" lon="2.25711">
        <ele>74.7</ele>
        <time>2023-11-25T13:49:52Z</time>
      </trkpt>
      <trkpt lat="49.85628" lon="2.25713">
        <ele>74.8</ele>
        <time>2023-11-25T13:49:53Z</time>
      </trkpt>
      <trkpt lat="49.85628" lon="2.25715">
        <ele>74.8</ele>
        <time>2023-11-25T13:49:54Z</time>
      </trkpt>
      <trkpt lat="49.85628" lon="2.25716">
        <ele>74.8</ele>
        <time>2023-11-25T13:49:55Z</time>
      </trkpt>
      <trkpt lat="49.85629" lon="2.25719">
        <ele>74.9</ele>
        <time>2023-11-25T13:49:56Z</time>
      </trkpt>
      <trkpt lat="49.8563" lon="2.25721">
        <ele>74.9</ele>
        <time>2023-11-25T13:49:57Z</time>
      </trkpt>
      <trkpt lat="49.8563" lon="2.25722">
        <ele>74.9</ele>
        <time>2023-11-25T13:49:59Z</time>
      </trkpt>
      <trkpt lat="49.8563" lon="2.25724">
        <ele>75</ele>
        <time>2023-11-25T13:50:00Z</time>
      </trkpt>
      <trkpt lat="49.85631" lon="2.25725">
        <ele>75</ele>
        <time>2023-11-25T13:50:01Z</time>
      </trkpt>
      <trkpt lat="49.85631" lon="2.25726">
        <ele>75</ele>
        <time>2023-11-25T13:50:02Z</time>
      </trkpt>
      <trkpt lat="49.85632" lon="2.25728">
        <ele>75.1</ele>
        <time>2023-11-25T13:50:03Z</time>
      </trkpt>
      <trkpt lat="49.85632" lon="2.2573">
        <ele>75.1</ele>
        <time>2023-11-25T13:50:04Z</time>
      </trkpt>
      <trkpt lat="49.85633" lon="2.25731">
        <ele>75.1</ele>
        <time>2023-11-25T13:50:05Z</time>
      </trkpt>
      <trkpt lat="49.85633" lon="2.25734">
        <ele>75.2</ele>
        <time>2023-11-25T13:50:06Z</time>
      </trkpt>
      <trkpt lat="49.85634" lon="2.25736">
        <ele>75.2</ele>
        <time>2023-11-25T13:50:08Z</time>
      </trkpt>
      <trkpt lat="49.85634" lon="2.25737">
        <ele>75.3</ele>
        <time>2023-11-25T13:50:09Z</time>
      </trkpt>
      <trkpt lat="49.85635" lon="2.25738">
        <ele>75.3</ele>
        <time>2023-11-25T13:50:10Z</time>
      </trkpt>
      <trkpt lat="49.85635" lon="2.2574">
        <ele>75.3</ele>
        <time>2023-11-25T13:50:11Z</time>
      </trkpt>
      <trkpt lat="49.85636" lon="2.25742">
        <ele>75.4</ele>
        <time>2023-11-25T13:50:12Z</time>
      </trkpt>
      <trkpt lat="49.85636" lon="2.25744">
        <ele>75.4</ele>
        <time>2023-11-25T13:50:13Z</time>
      </trkpt>
      <trkpt lat="49.85637" lon="2.25745">
        <ele>75.4</ele>
        <time>2023-11-25T13:50:14Z</time>
      </trkpt>
      <trkpt lat="49.85637" lon="2.25747">
        <ele>75.5</ele>
        <time>2023-11-25T13:50:16Z</time>
      </trkpt>
      <trkpt lat="49.85637" lon="2.25749">
        <ele>75.5</ele>
        <time>2023-11-25T13:50:17Z</time>
      </trkpt>
      <trkpt lat="49.85638" lon="2.2575">
        <ele>75.5</ele>
        <time>2023-11-25T13:50:18Z</time>
      </trkpt>
      <trkpt lat="49.85638" lon="2.25752">
        <ele>75.6</ele>
        <time>2023-11-25T13:50:19Z</time>
      </trkpt>
      <trkpt lat="49.85639" lon="2.25755">
        <ele>75.6</ele>
        <time>2023-11-25T13:50:20Z</time>
      </trkpt>
      <trkpt lat="49.8564" lon="2.25756">
        <ele>75.7</ele>
        <time>2023-11-25T13:50:21Z</time>
      </trkpt>
      <trkpt lat="49.8564" lon="2.25757">
        <ele>75.7</ele>
        <time>2023-11-25T13:50:22Z</time>
      </trkpt>
      <trkpt lat="49.85641" lon="2.2576">
        <ele>75.7</ele>
        <time>2023-11-25T13:50:24Z</time>
      </trkpt>
      <trkpt lat="49.85641" lon="2.25761">
        <ele>75.8</ele>
        <time>2023-11-25T13:50:25Z</time>
      </trkpt>
      <trkpt lat="49.85641" lon="2.25762">
        <ele>75.8</ele>
        <time>2023-11-25T13:50:26Z</time>
      </trkpt>
      <trkpt lat="49.85642" lon="2.25765">
        <ele>75.8</ele>
        <time>2023-11-25T13:50:27Z</time>
      </trkpt>
      <trkpt lat="49.85643" lon="2.25766">
        <ele>75.9</ele>
        <time>2023-11-25T13:50:28Z</time>
      </trkpt>
      <trkpt lat="49.85643" lon="2.25767">
        <ele>75.9</ele>
        <time>2023-11-25T13:50:29Z</time>
      </trkpt>
      <trkpt lat="49.85644" lon="2.2577">
        <ele>76</ele>
        <time>2023-11-25T13:50:31Z</time>
      </trkpt>
      <trkpt lat="49.85644" lon="2.25771">
        <ele>76</ele>
        <time>2023-11-25T13:50:32Z</time>
      </trkpt>
      <trkpt lat="49.85645" lon="2.25772">
        <ele>76</ele>
        <time>2023-11-25T13:50:33Z</time>
      </trkpt>
      <trkpt lat="49.85645" lon="2.25774">
        <ele>76</ele>
        <time>2023-11-25T13:50:34Z</time>
      </trkpt>
      <trkpt lat="49.85646" lon="2.25775">
        <ele>76.1</ele>
        <time>2023-11-25T13:50:35Z</time>
      </trkpt>
      <trkpt lat="49.85647" lon="2.25777">
        <ele>76.1</ele>
        <time>2023-11-25T13:50:36Z</time>
      </trkpt>
      <trkpt lat="49.85648" lon="2.25779">
        <ele>76.2</ele>
        <time>2023-11-25T13:50:37Z</time>
      </trkpt>
      <trkpt lat="49.85648" lon="2.2578">
        <ele>76.2</ele>
        <time>2023-11-25T13:50:39Z</time>
      </trkpt>
      <trkpt lat="49.85649" lon="2.25781">
        <ele>76.2</ele>
        <time>2023-11-25T13:50:40Z</time>
      </trkpt>
      <trkpt lat="49.8565" lon="2.25783">
        <ele>76.2</ele>
        <time>2023-11-25T13:50:41Z</time>
      </trkpt>
      <trkpt lat="49.8565" lon="2.25784">
        <ele>76.3</ele>
        <time>2023-11-25T13:50:42Z</time>
      </trkpt>
      <trkpt lat="49.85651" lon="2.25785">
        <ele>76.3</ele>
        <time>2023-11-25T13:50:43Z</time>
      </trkpt>
      <trkpt lat="49.85651" lon="2.25787">
        <ele>76.3</ele>
        <time>2023-11-25T13:50:44Z</time>
      </trkpt>
      <trkpt lat="49.85652" lon="2.25788">
        <ele>76.4</ele>
        <time>2023-11-25T13:50:45Z</time>
      </trkpt>
      <trkpt lat="49.85652" lon="2.2579">
        <ele>76.4</ele>
        <time>2023-11-25T13:50:47Z</time>
      </trkpt>
      <trkpt lat="49.85653" lon="2.25792">
        <ele>76.4</ele>
        <time>2023-11-25T13:50:48Z</time>
      </trkpt>
      <trkpt lat="49.85653" lon="2.25794">
        <ele>76.5</ele>
        <time>2023-11-25T13:50:49Z</time>
      </trkpt>
      <trkpt lat="49.85654" lon="2.25795">
        <ele>76.5</ele>
        <time>2023-11-25T13:50:50Z</time>
      </trkpt>
      <trkpt lat="49.85654" lon="2.25797">
        <ele>76.5</ele>
        <time>2023-11-25T13:50:51Z</time>
      </trkpt>
      <trkpt lat="49.85654" lon="2.25798">
        <ele>76.6</ele>
        <time>2023-11-25T13:50:52Z</time>
      </trkpt>
      <trkpt lat="49.85655" lon="2.258">
        <ele>76.6</ele>
        <time>2023-11-25T13:50:53Z</time>
      </trkpt>
      <trkpt lat="49.85656" lon="2.25803">
        <ele>76.7</ele>
        <time>2023-11-25T13:50:55Z</time>
      </trkpt>
      <trkpt lat="49.85656" lon="2.25804">
        <ele>76.7</ele>
        <time>2023-11-25T13:50:56Z</time>
      </trkpt>
      <trkpt lat="49.85656" lon="2.25806">
        <ele>76.7</ele>
        <time>2023-11-25T13:50:57Z</time>
      </trkpt>
      <trkpt lat="49.85657" lon="2.25809">
        <ele>76.8</ele>
        <time>2023-11-25T13:50:58Z</time>
      </trkpt>
      <trkpt lat="49.85657" lon="2.2581">
        <ele>76.8</ele>
        <time>2023-11-25T13:50:59Z</time>
      </trkpt>
      <trkpt lat="49.85657" lon="2.25811">
        <ele>76.8</ele>
        <time>2023-11-25T13:51:00Z</time>
      </trkpt>
      <trkpt lat="49.85658" lon="2.25813">
        <ele>76.9</ele>
        <time>2023-11-25T13:51:01Z</time>
      </trkpt>
      <trkpt lat="49.85658" lon="2.25815">
        <ele>76.9</ele>
        <time>2023-11-25T13:51:03Z</time>
      </trkpt>
      <trkpt lat="49.85659" lon="2.25817">
        <ele>77</ele>
        <time>2023-11-25T13:51:04Z</time>
      </trkpt>
      <trkpt lat="49.85659" lon="2.25819">
        <ele>77</ele>
        <time>2023-11-25T13:51:05Z</time>
      </trkpt>
      <trkpt lat="49.85659" lon="2.25821">
        <ele>77</ele>
        <time>2023-11-25T13:51:06Z</time>
      </trkpt>
      <trkpt lat="49.85659" lon="2.25822">
        <ele>77.1</ele>
        <time>2023-11-25T13:51:07Z</time>
      </trkpt>
      <trkpt lat="49.8566" lon="2.25824">
        <ele>77.1</ele>
        <time>2023-11-25T13:51:09Z</time>
      </trkpt>
      <trkpt lat="49.8566" lon="2.25825">
        <ele>77.2</ele>
        <time>2023-11-25T13:51:10Z</time>
      </trkpt>
      <trkpt lat="49.8566" lon="2.25827">
        <ele>77.2</ele>
        <time>2023-11-25T13:51:11Z</time>
      </trkpt>
      <trkpt lat="49.85661" lon="2.25829">
        <ele>77.2</ele>
        <time>2023-11-25T13:51:12Z</time>
      </trkpt>
      <trkpt lat="49.85661" lon="2.25831">
        <ele>77.3</ele>
        <time>2023-11-25T13:51:13Z</time>
      </trkpt>
      <trkpt lat="49.85662" lon="2.25834">
        <ele>77.4</ele>
        <time>2023-11-25T13:51:15Z</time>
      </trkpt>
      <trkpt lat="49.85662" lon="2.25835">
        <ele>77.4</ele>
        <time>2023-11-25T13:51:16Z</time>
      </trkpt>
      <trkpt lat="49.85662" lon="2.25836">
        <ele>77.4</ele>
        <time>2023-11-25T13:51:17Z</time>
      </trkpt>
      <trkpt lat="49.85663" lon="2.25837">
        <ele>77.5</ele>
        <time>2023-11-25T13:51:18Z</time>
      </trkpt>
      <trkpt lat="49.85664" lon="2.25839">
        <ele>77.5</ele>
        <time>2023-11-25T13:51:19Z</time>
      </trkpt>
      <trkpt lat="49.85664" lon="2.25841">
        <ele>77.6</ele>
        <time>2023-11-25T13:51:20Z</time>
      </trkpt>
      <trkpt lat="49.85665" lon="2.25843">
        <ele>77.6</ele>
        <time>2023-11-25T13:51:21Z</time>
      </trkpt>
      <trkpt lat="49.85666" lon="2.25845">
        <ele>77.7</ele>
        <time>2023-11-25T13:51:23Z</time>
      </trkpt>
      <trkpt lat="49.85666" lon="2.25846">
        <ele>77.7</ele>
        <time>2023-11-25T13:51:24Z</time>
      </trkpt>
      <trkpt lat="49.85667" lon="2.25847">
        <ele>77.8</ele>
        <time>2023-11-25T13:51:25Z</time>
      </trkpt>
      <trkpt lat="49.85667" lon="2.25849">
        <ele>77.8</ele>
        <time>2023-11-25T13:51:26Z</time>
      </trkpt>
      <trkpt lat="49.85668" lon="2.2585">
        <ele>77.8</ele>
        <time>2023-11-25T13:51:27Z</time>
      </trkpt>
      <trkpt lat="49.85669" lon="2.25853">
        <ele>77.9</ele>
        <time>2023-11-25T13:51:28Z</time>
      </trkpt>
      <trkpt lat="49.85669" lon="2.25854">
        <ele>78</ele>
        <time>2023-11-25T13:51:30Z</time>
      </trkpt>
      <trkpt lat="49.8567" lon="2.25855">
        <ele>78</ele>
        <time>2023-11-25T13:51:31Z</time>
      </trkpt>
      <trkpt lat="49.8567" lon="2.25856">
        <ele>78</ele>
        <time>2023-11-25T13:51:32Z</time>
      </trkpt>
      <trkpt lat="49.85671" lon="2.25858">
        <ele>78.1</ele>
        <time>2023-11-25T13:51:33Z</time>
      </trkpt>
      <trkpt lat="49.85671" lon="2.25859">
        <ele>78.1</ele>
        <time>2023-11-25T13:51:34Z</time>
      </trkpt>
      <trkpt lat="49.85672" lon="2.25863">
        <ele>78.2</ele>
        <time>2023-11-25T13:51:36Z</time>
      </trkpt>
      <trkpt lat="49.85672" lon="2.25864">
        <ele>78.2</ele>
        <time>2023-11-25T13:51:37Z</time>
      </trkpt>
      <trkpt lat="49.85672" lon="2.25865">
        <ele>78.3</ele>
        <time>2023-11-25T13:51:38Z</time>
      </trkpt>
      <trkpt lat="49.85672" lon="2.25867">
        <ele>78.3</ele>
        <time>2023-11-25T13:51:39Z</time>
      </trkpt>
      <trkpt lat="49.85673" lon="2.25868">
        <ele>78.4</ele>
        <time>2023-11-25T13:51:40Z</time>
      </trkpt>
      <trkpt lat="49.85673" lon="2.2587">
        <ele>78.4</ele>
        <time>2023-11-25T13:51:41Z</time>
      </trkpt>
      <trkpt lat="49.85674" lon="2.25872">
        <ele>78.5</ele>
        <time>2023-11-25T13:51:43Z</time>
      </trkpt>
      <trkpt lat="49.85675" lon="2.25873">
        <ele>78.5</ele>
        <time>2023-11-25T13:51:44Z</time>
      </trkpt>
      <trkpt lat="49.85675" lon="2.25874">
        <ele>78.6</ele>
        <time>2023-11-25T13:51:45Z</time>
      </trkpt>
      <trkpt lat="49.85676" lon="2.25876">
        <ele>78.6</ele>
        <time>2023-11-25T13:51:46Z</time>
      </trkpt>
      <trkpt lat="49.85676" lon="2.25877">
        <ele>78.7</ele>
        <time>2023-11-25T13:51:47Z</time>
      </trkpt>
      <trkpt lat="49.85677" lon="2.25879">
        <ele>78.7</ele>
        <time>2023-11-25T13:51:48Z</time>
      </trkpt>
      <trkpt lat="49.85677" lon="2.25882">
        <ele>78.8</ele>
        <time>2023-11-25T13:51:50Z</time>
      </trkpt>
      <trkpt lat="49.85678" lon="2.25884">
        <ele>78.9</ele>
        <time>2023-11-25T13:51:51Z</time>
      </trkpt>
      <trkpt lat="49.85678" lon="2.25885">
        <ele>78.9</ele>
        <time>2023-11-25T13:51:52Z</time>
      </trkpt>
      <trkpt lat="49.85678" lon="2.25887">
        <ele>79</ele>
        <time>2023-11-25T13:51:53Z</time>
      </trkpt>
      <trkpt lat="49.85679" lon="2.25888">
        <ele>79</ele>
        <time>2023-11-25T13:51:54Z</time>
      </trkpt>
      <trkpt lat="49.85679" lon="2.2589">
        <ele>79.1</ele>
        <time>2023-11-25T13:51:56Z</time>
      </trkpt>
      <trkpt lat="49.8568" lon="2.25892">
        <ele>79.2</ele>
        <time>2023-11-25T13:51:57Z</time>
      </trkpt>
      <trkpt lat="49.8568" lon="2.25894">
        <ele>79.2</ele>
        <time>2023-11-25T13:51:58Z</time>
      </trkpt>
      <trkpt lat="49.8568" lon="2.25895">
        <ele>79.3</ele>
        <time>2023-11-25T13:51:59Z</time>
      </trkpt>
      <trkpt lat="49.85681" lon="2.25897">
        <ele>79.3</ele>
        <time>2023-11-25T13:52:00Z</time>
      </trkpt>
      <trkpt lat="49.85681" lon="2.25898">
        <ele>79.4</ele>
        <time>2023-11-25T13:52:01Z</time>
      </trkpt>
      <trkpt lat="49.85682" lon="2.259">
        <ele>79.4</ele>
        <time>2023-11-25T13:52:03Z</time>
      </trkpt>
      <trkpt lat="49.85683" lon="2.25901">
        <ele>79.5</ele>
        <time>2023-11-25T13:52:04Z</time>
      </trkpt>
      <trkpt lat="49.85683" lon="2.25902">
        <ele>79.5</ele>
        <time>2023-11-25T13:52:05Z</time>
      </trkpt>
      <trkpt lat="49.85683" lon="2.25903">
        <ele>79.6</ele>
        <time>2023-11-25T13:52:06Z</time>
      </trkpt>
      <trkpt lat="49.85684" lon="2.25905">
        <ele>79.6</ele>
        <time>2023-11-25T13:52:07Z</time>
      </trkpt>
      <trkpt lat="49.85684" lon="2.25906">
        <ele>79.7</ele>
        <time>2023-11-25T13:52:08Z</time>
      </trkpt>
      <trkpt lat="49.85684" lon="2.25907">
        <ele>79.7</ele>
        <time>2023-11-25T13:52:10Z</time>
      </trkpt>
      <trkpt lat="49.85685" lon="2.25909">
        <ele>79.7</ele>
        <time>2023-11-25T13:52:11Z</time>
      </trkpt>
      <trkpt lat="49.85685" lon="2.2591">
        <ele>79.8</ele>
        <time>2023-11-25T13:52:12Z</time>
      </trkpt>
      <trkpt lat="49.85686" lon="2.25912">
        <ele>79.8</ele>
        <time>2023-11-25T13:52:13Z</time>
      </trkpt>
      <trkpt lat="49.85686" lon="2.25913">
        <ele>79.9</ele>
        <time>2023-11-25T13:52:14Z</time>
      </trkpt>
      <trkpt lat="49.85687" lon="2.25915">
        <ele>79.9</ele>
        <time>2023-11-25T13:52:16Z</time>
      </trkpt>
      <trkpt lat="49.85687" lon="2.25915">
        <ele>80</ele>
        <time>2023-11-25T13:52:17Z</time>
      </trkpt>
      <trkpt lat="49.85688" lon="2.25913">
        <ele>80</ele>
        <time>2023-11-25T13:52:19Z</time>
      </trkpt>
      <trkpt lat="49.85687" lon="2.25912">
        <ele>80.1</ele>
        <time>2023-11-25T13:52:20Z</time>
      </trkpt>
      <trkpt lat="49.85687" lon="2.25911">
        <ele>80.1</ele>
        <time>2023-11-25T13:52:21Z</time>
      </trkpt>
      <trkpt lat="49.85687" lon="2.25911">
        <ele>80.1</ele>
        <time>2023-11-25T13:52:23Z</time>
      </trkpt>
      <trkpt lat="49.85687" lon="2.2591">
        <ele>80.1</ele>
        <time>2023-11-25T13:52:24Z</time>
      </trkpt>
      <trkpt lat="49.85687" lon="2.2591">
        <ele>80.1</ele>
        <time>2023-11-25T13:52:26Z</time>
      </trkpt>
      <trkpt lat="49.85687" lon="2.2591">
        <ele>80.1</ele>
        <time>2023-11-25T13:52:27Z</time>
      </trkpt>
      <trkpt lat="49.85687" lon="2.2591">
        <ele>80.2</ele>
        <time>2023-11-25T13:52:29Z</time>
      </trkpt>
      <trkpt lat="49.85687" lon="2.2591">
        <ele>80.2</ele>
        <time>2023-11-25T13:52:30Z</time>
      </trkpt>
      <trkpt lat="49.85687" lon="2.2591">
        <ele>80.2</ele>
        <time>2023-11-25T13:52:31Z</time>
      </trkpt>
      <trkpt lat="49.85688" lon="2.25911">
        <ele>80.2</ele>
        <time>2023-11-25T13:52:32Z</time>
      </trkpt>
      <trkpt lat="49.85688" lon="2.25912">
        <ele>80.2</ele>
        <time>2023-11-25T13:52:34Z</time>
      </trkpt>
      <trkpt lat="49.85688" lon="2.25913">
        <ele>80.3</ele>
        <time>2023-11-25T13:52:35Z</time>
      </trkpt>
      <trkpt lat="49.85688" lon="2.25915">
        <ele>80.3</ele>
        <time>2023-11-25T13:52:36Z</time>
      </trkpt>
      <trkpt lat="49.85688" lon="2.25916">
        <ele>80.4</ele>
        <time>2023-11-25T13:52:37Z</time>
      </trkpt>
      <trkpt lat="49.85689" lon="2.25917">
        <ele>80.4</ele>
        <time>2023-11-25T13:52:38Z</time>
      </trkpt>
      <trkpt lat="49.85689" lon="2.25918">
        <ele>80.5</ele>
        <time>2023-11-25T13:52:40Z</time>
      </trkpt>
      <trkpt lat="49.8569" lon="2.25919">
        <ele>80.5</ele>
        <time>2023-11-25T13:52:41Z</time>
      </trkpt>
      <trkpt lat="49.85691" lon="2.2592">
        <ele>80.5</ele>
        <time>2023-11-25T13:52:42Z</time>
      </trkpt>
      <trkpt lat="49.85691" lon="2.2592">
        <ele>80.6</ele>
        <time>2023-11-25T13:52:43Z</time>
      </trkpt>
      <trkpt lat="49.85691" lon="2.25921">
        <ele>80.6</ele>
        <time>2023-11-25T13:52:45Z</time>
      </trkpt>
      <trkpt lat="49.85691" lon="2.25923">
        <ele>80.6</ele>
        <time>2023-11-25T13:52:46Z</time>
      </trkpt>
      <trkpt lat="49.85692" lon="2.25924">
        <ele>80.7</ele>
        <time>2023-11-25T13:52:47Z</time>
      </trkpt>
      <trkpt lat="49.85692" lon="2.25925">
        <ele>80.7</ele>
        <time>2023-11-25T13:52:48Z</time>
      </trkpt>
      <trkpt lat="49.85692" lon="2.25926">
        <ele>80.7</ele>
        <time>2023-11-25T13:52:49Z</time>
      </trkpt>
      <trkpt lat="49.85692" lon="2.25927">
        <ele>80.8</ele>
        <time>2023-11-25T13:52:50Z</time>
      </trkpt>
      <trkpt lat="49.85693" lon="2.25929">
        <ele>80.9</ele>
        <time>2023-11-25T13:52:52Z</time>
      </trkpt>
      <trkpt lat="49.85693" lon="2.25931">
        <ele>80.9</ele>
        <time>2023-11-25T13:52:54Z</time>
      </trkpt>
      <trkpt lat="49.85694" lon="2.25933">
        <ele>81</ele>
        <time>2023-11-25T13:52:55Z</time>
      </trkpt>
      <trkpt lat="49.85694" lon="2.25934">
        <ele>81</ele>
        <time>2023-11-25T13:52:56Z</time>
      </trkpt>
      <trkpt lat="49.85695" lon="2.25936">
        <ele>81.1</ele>
        <time>2023-11-25T13:52:57Z</time>
      </trkpt>
      <trkpt lat="49.85695" lon="2.25937">
        <ele>81.1</ele>
        <time>2023-11-25T13:52:58Z</time>
      </trkpt>
      <trkpt lat="49.85696" lon="2.25939">
        <ele>81.2</ele>
        <time>2023-11-25T13:52:59Z</time>
      </trkpt>
      <trkpt lat="49.85696" lon="2.2594">
        <ele>81.3</ele>
        <time>2023-11-25T13:53:00Z</time>
      </trkpt>
      <trkpt lat="49.85696" lon="2.25942">
        <ele>81.3</ele>
        <time>2023-11-25T13:53:02Z</time>
      </trkpt>
      <trkpt lat="49.85697" lon="2.25944">
        <ele>81.4</ele>
        <time>2023-11-25T13:53:03Z</time>
      </trkpt>
      <trkpt lat="49.85697" lon="2.25946">
        <ele>81.4</ele>
        <time>2023-11-25T13:53:04Z</time>
      </trkpt>
      <trkpt lat="49.85698" lon="2.25948">
        <ele>81.5</ele>
        <time>2023-11-25T13:53:05Z</time>
      </trkpt>
      <trkpt lat="49.85699" lon="2.2595">
        <ele>81.6</ele>
        <time>2023-11-25T13:53:06Z</time>
      </trkpt>
      <trkpt lat="49.85699" lon="2.25951">
        <ele>81.6</ele>
        <time>2023-11-25T13:53:07Z</time>
      </trkpt>
      <trkpt lat="49.857" lon="2.25953">
        <ele>81.7</ele>
        <time>2023-11-25T13:53:09Z</time>
      </trkpt>
      <trkpt lat="49.857" lon="2.25954">
        <ele>81.8</ele>
        <time>2023-11-25T13:53:10Z</time>
      </trkpt>
      <trkpt lat="49.85701" lon="2.25956">
        <ele>81.8</ele>
        <time>2023-11-25T13:53:11Z</time>
      </trkpt>
      <trkpt lat="49.85701" lon="2.25957">
        <ele>81.9</ele>
        <time>2023-11-25T13:53:12Z</time>
      </trkpt>
      <trkpt lat="49.85702" lon="2.25959">
        <ele>82</ele>
        <time>2023-11-25T13:53:13Z</time>
      </trkpt>
      <trkpt lat="49.85703" lon="2.25962">
        <ele>82.1</ele>
        <time>2023-11-25T13:53:14Z</time>
      </trkpt>
      <trkpt lat="49.85703" lon="2.25964">
        <ele>82.1</ele>
        <time>2023-11-25T13:53:16Z</time>
      </trkpt>
      <trkpt lat="49.85704" lon="2.25965">
        <ele>82.2</ele>
        <time>2023-11-25T13:53:17Z</time>
      </trkpt>
      <trkpt lat="49.85705" lon="2.25968">
        <ele>82.3</ele>
        <time>2023-11-25T13:53:18Z</time>
      </trkpt>
      <trkpt lat="49.85705" lon="2.25969">
        <ele>82.3</ele>
        <time>2023-11-25T13:53:19Z</time>
      </trkpt>
      <trkpt lat="49.85705" lon="2.2597">
        <ele>82.4</ele>
        <time>2023-11-25T13:53:20Z</time>
      </trkpt>
      <trkpt lat="49.85706" lon="2.25973">
        <ele>82.5</ele>
        <time>2023-11-25T13:53:22Z</time>
      </trkpt>
      <trkpt lat="49.85706" lon="2.25974">
        <ele>82.6</ele>
        <time>2023-11-25T13:53:23Z</time>
      </trkpt>
      <trkpt lat="49.85707" lon="2.25976">
        <ele>82.6</ele>
        <time>2023-11-25T13:53:24Z</time>
      </trkpt>
      <trkpt lat="49.85707" lon="2.25977">
        <ele>82.7</ele>
        <time>2023-11-25T13:53:25Z</time>
      </trkpt>
      <trkpt lat="49.85707" lon="2.25978">
        <ele>82.7</ele>
        <time>2023-11-25T13:53:26Z</time>
      </trkpt>
      <trkpt lat="49.85707" lon="2.25979">
        <ele>82.7</ele>
        <time>2023-11-25T13:53:27Z</time>
      </trkpt>
      <trkpt lat="49.85708" lon="2.25981">
        <ele>82.8</ele>
        <time>2023-11-25T13:53:28Z</time>
      </trkpt>
      <trkpt lat="49.85708" lon="2.25982">
        <ele>82.9</ele>
        <time>2023-11-25T13:53:30Z</time>
      </trkpt>
      <trkpt lat="49.85708" lon="2.25984">
        <ele>82.9</ele>
        <time>2023-11-25T13:53:31Z</time>
      </trkpt>
      <trkpt lat="49.85709" lon="2.25985">
        <ele>83</ele>
        <time>2023-11-25T13:53:32Z</time>
      </trkpt>
      <trkpt lat="49.85709" lon="2.25987">
        <ele>83.1</ele>
        <time>2023-11-25T13:53:33Z</time>
      </trkpt>
      <trkpt lat="49.8571" lon="2.25988">
        <ele>83.1</ele>
        <time>2023-11-25T13:53:34Z</time>
      </trkpt>
      <trkpt lat="49.8571" lon="2.2599">
        <ele>83.2</ele>
        <time>2023-11-25T13:53:35Z</time>
      </trkpt>
      <trkpt lat="49.85711" lon="2.25991">
        <ele>83.2</ele>
        <time>2023-11-25T13:53:37Z</time>
      </trkpt>
      <trkpt lat="49.85711" lon="2.25992">
        <ele>83.3</ele>
        <time>2023-11-25T13:53:38Z</time>
      </trkpt>
      <trkpt lat="49.85712" lon="2.25994">
        <ele>83.4</ele>
        <time>2023-11-25T13:53:39Z</time>
      </trkpt>
      <trkpt lat="49.85712" lon="2.25995">
        <ele>83.4</ele>
        <time>2023-11-25T13:53:40Z</time>
      </trkpt>
      <trkpt lat="49.85713" lon="2.25997">
        <ele>83.5</ele>
        <time>2023-11-25T13:53:41Z</time>
      </trkpt>
      <trkpt lat="49.85713" lon="2.25998">
        <ele>83.5</ele>
        <time>2023-11-25T13:53:42Z</time>
      </trkpt>
      <trkpt lat="49.85713" lon="2.26">
        <ele>83.6</ele>
        <time>2023-11-25T13:53:43Z</time>
      </trkpt>
      <trkpt lat="49.85714" lon="2.26001">
        <ele>83.6</ele>
        <time>2023-11-25T13:53:45Z</time>
      </trkpt>
      <trkpt lat="49.85714" lon="2.26003">
        <ele>83.7</ele>
        <time>2023-11-25T13:53:46Z</time>
      </trkpt>
      <trkpt lat="49.85715" lon="2.26004">
        <ele>83.8</ele>
        <time>2023-11-25T13:53:47Z</time>
      </trkpt>
      <trkpt lat="49.85715" lon="2.26005">
        <ele>83.8</ele>
        <time>2023-11-25T13:53:48Z</time>
      </trkpt>
      <trkpt lat="49.85716" lon="2.26008">
        <ele>83.9</ele>
        <time>2023-11-25T13:53:50Z</time>
      </trkpt>
      <trkpt lat="49.85716" lon="2.26009">
        <ele>84</ele>
        <time>2023-11-25T13:53:52Z</time>
      </trkpt>
      <trkpt lat="49.85717" lon="2.26011">
        <ele>84.1</ele>
        <time>2023-11-25T13:53:53Z</time>
      </trkpt>
      <trkpt lat="49.85717" lon="2.26013">
        <ele>84.2</ele>
        <time>2023-11-25T13:53:54Z</time>
      </trkpt>
      <trkpt lat="49.85718" lon="2.26014">
        <ele>84.2</ele>
        <time>2023-11-25T13:53:55Z</time>
      </trkpt>
      <trkpt lat="49.85718" lon="2.26015">
        <ele>84.3</ele>
        <time>2023-11-25T13:53:57Z</time>
      </trkpt>
      <trkpt lat="49.85719" lon="2.26016">
        <ele>84.3</ele>
        <time>2023-11-25T13:53:58Z</time>
      </trkpt>
      <trkpt lat="49.85719" lon="2.26018">
        <ele>84.4</ele>
        <time>2023-11-25T13:53:59Z</time>
      </trkpt>
      <trkpt lat="49.8572" lon="2.26019">
        <ele>84.4</ele>
        <time>2023-11-25T13:54:00Z</time>
      </trkpt>
      <trkpt lat="49.8572" lon="2.26021">
        <ele>84.5</ele>
        <time>2023-11-25T13:54:01Z</time>
      </trkpt>
      <trkpt lat="49.8572" lon="2.26022">
        <ele>84.5</ele>
        <time>2023-11-25T13:54:02Z</time>
      </trkpt>
      <trkpt lat="49.85721" lon="2.26023">
        <ele>84.6</ele>
        <time>2023-11-25T13:54:03Z</time>
      </trkpt>
      <trkpt lat="49.85721" lon="2.26025">
        <ele>84.7</ele>
        <time>2023-11-25T13:54:05Z</time>
      </trkpt>
      <trkpt lat="49.85721" lon="2.26027">
        <ele>84.7</ele>
        <time>2023-11-25T13:54:06Z</time>
      </trkpt>
      <trkpt lat="49.85722" lon="2.26028">
        <ele>84.8</ele>
        <time>2023-11-25T13:54:07Z</time>
      </trkpt>
      <trkpt lat="49.85722" lon="2.26029">
        <ele>84.8</ele>
        <time>2023-11-25T13:54:08Z</time>
      </trkpt>
      <trkpt lat="49.85723" lon="2.26031">
        <ele>84.9</ele>
        <time>2023-11-25T13:54:09Z</time>
      </trkpt>
      <trkpt lat="49.85723" lon="2.26032">
        <ele>85</ele>
        <time>2023-11-25T13:54:10Z</time>
      </trkpt>
      <trkpt lat="49.85724" lon="2.26034">
        <ele>85</ele>
        <time>2023-11-25T13:54:12Z</time>
      </trkpt>
      <trkpt lat="49.85724" lon="2.26035">
        <ele>85.1</ele>
        <time>2023-11-25T13:54:13Z</time>
      </trkpt>
      <trkpt lat="49.85725" lon="2.26037">
        <ele>85.2</ele>
        <time>2023-11-25T13:54:15Z</time>
      </trkpt>
      <trkpt lat="49.85725" lon="2.26039">
        <ele>85.3</ele>
        <time>2023-11-25T13:54:17Z</time>
      </trkpt>
      <trkpt lat="49.85726" lon="2.26039">
        <ele>85.3</ele>
        <time>2023-11-25T13:54:19Z</time>
      </trkpt>
      <trkpt lat="49.85727" lon="2.2604">
        <ele>85.4</ele>
        <time>2023-11-25T13:54:20Z</time>
      </trkpt>
      <trkpt lat="49.85726" lon="2.2604">
        <ele>85.4</ele>
        <time>2023-11-25T13:54:22Z</time>
      </trkpt>
      <trkpt lat="49.85726" lon="2.2604">
        <ele>85.4</ele>
        <time>2023-11-25T13:54:23Z</time>
      </trkpt>
      <trkpt lat="49.85726" lon="2.2604">
        <ele>85.4</ele>
        <time>2023-11-25T13:54:25Z</time>
      </trkpt>
      <trkpt lat="49.85726" lon="2.26039">
        <ele>85.4</ele>
        <time>2023-11-25T13:54:26Z</time>
      </trkpt>
      <trkpt lat="49.85726" lon="2.26039">
        <ele>85.4</ele>
        <time>2023-11-25T13:54:28Z</time>
      </trkpt>
      <trkpt lat="49.85726" lon="2.26039">
        <ele>85.4</ele>
        <time>2023-11-25T13:54:29Z</time>
      </trkpt>
      <trkpt lat="49.85726" lon="2.26039">
        <ele>85.4</ele>
        <time>2023-11-25T13:54:30Z</time>
      </trkpt>
      <trkpt lat="49.85726" lon="2.26039">
        <ele>85.4</ele>
        <time>2023-11-25T13:54:32Z</time>
      </trkpt>
      <trkpt lat="49.85726" lon="2.26039">
        <ele>85.4</ele>
        <time>2023-11-25T13:54:33Z</time>
      </trkpt>
      <trkpt lat="49.85726" lon="2.26039">
        <ele>85.4</ele>
        <time>2023-11-25T13:54:35Z</time>
      </trkpt>
      <trkpt lat="49.85726" lon="2.26038">
        <ele>85.5</ele>
        <time>2023-11-25T13:54:36Z</time>
      </trkpt>
      <trkpt lat="49.85726" lon="2.26038">
        <ele>85.5</ele>
        <time>2023-11-25T13:54:37Z</time>
      </trkpt>
      <trkpt lat="49.85726" lon="2.26037">
        <ele>85.5</ele>
        <time>2023-11-25T13:54:38Z</time>
      </trkpt>
      <trkpt lat="49.85726" lon="2.26037">
        <ele>85.5</ele>
        <time>2023-11-25T13:54:39Z</time>
      </trkpt>
      <trkpt lat="49.85724" lon="2.26034">
        <ele>85.7</ele>
        <time>2023-11-25T13:56:08Z</time>
      </trkpt>
      <trkpt lat="49.85724" lon="2.26035">
        <ele>85.7</ele>
        <time>2023-11-25T13:56:09Z</time>
      </trkpt>
      <trkpt lat="49.85725" lon="2.26036">
        <ele>85.7</ele>
        <time>2023-11-25T13:56:10Z</time>
      </trkpt>
      <trkpt lat="49.85725" lon="2.26037">
        <ele>85.7</ele>
        <time>2023-11-25T13:56:11Z</time>
      </trkpt>
      <trkpt lat="49.85725" lon="2.26037">
        <ele>85.8</ele>
        <time>2023-11-25T13:56:12Z</time>
      </trkpt>
      <trkpt lat="49.85725" lon="2.26038">
        <ele>85.8</ele>
        <time>2023-11-25T13:56:14Z</time>
      </trkpt>
      <trkpt lat="49.85725" lon="2.26038">
        <ele>85.8</ele>
        <time>2023-11-25T13:56:15Z</time>
      </trkpt>
      <trkpt lat="49.85725" lon="2.26039">
        <ele>85.9</ele>
        <time>2023-11-25T13:56:16Z</time>
      </trkpt>
      <trkpt lat="49.85726" lon="2.2604">
        <ele>85.9</ele>
        <time>2023-11-25T13:56:17Z</time>
      </trkpt>
      <trkpt lat="49.85726" lon="2.26042">
        <ele>86</ele>
        <time>2023-11-25T13:56:18Z</time>
      </trkpt>
      <trkpt lat="49.85726" lon="2.26044">
        <ele>86</ele>
        <time>2023-11-25T13:56:19Z</time>
      </trkpt>
      <trkpt lat="49.85726" lon="2.26046">
        <ele>86.1</ele>
        <time>2023-11-25T13:56:20Z</time>
      </trkpt>
      <trkpt lat="49.85727" lon="2.26047">
        <ele>86.2</ele>
        <time>2023-11-25T13:56:22Z</time>
      </trkpt>
      <trkpt lat="49.85727" lon="2.26049">
        <ele>86.3</ele>
        <time>2023-11-25T13:56:23Z</time>
      </trkpt>
      <trkpt lat="49.85727" lon="2.26051">
        <ele>86.3</ele>
        <time>2023-11-25T13:56:24Z</time>
      </trkpt>
      <trkpt lat="49.85727" lon="2.26052">
        <ele>86.4</ele>
        <time>2023-11-25T13:56:25Z</time>
      </trkpt>
      <trkpt lat="49.85728" lon="2.26054">
        <ele>86.5</ele>
        <time>2023-11-25T13:56:26Z</time>
      </trkpt>
      <trkpt lat="49.85728" lon="2.26056">
        <ele>86.5</ele>
        <time>2023-11-25T13:56:27Z</time>
      </trkpt>
      <trkpt lat="49.85729" lon="2.26057">
        <ele>86.6</ele>
        <time>2023-11-25T13:56:29Z</time>
      </trkpt>
      <trkpt lat="49.85729" lon="2.26059">
        <ele>86.7</ele>
        <time>2023-11-25T13:56:30Z</time>
      </trkpt>
      <trkpt lat="49.8573" lon="2.2606">
        <ele>86.8</ele>
        <time>2023-11-25T13:56:31Z</time>
      </trkpt>
      <trkpt lat="49.8573" lon="2.26062">
        <ele>86.8</ele>
        <time>2023-11-25T13:56:32Z</time>
      </trkpt>
      <trkpt lat="49.85731" lon="2.26064">
        <ele>86.9</ele>
        <time>2023-11-25T13:56:33Z</time>
      </trkpt>
      <trkpt lat="49.85731" lon="2.26066">
        <ele>87</ele>
        <time>2023-11-25T13:56:35Z</time>
      </trkpt>
      <trkpt lat="49.85731" lon="2.26067">
        <ele>87</ele>
        <time>2023-11-25T13:56:36Z</time>
      </trkpt>
      <trkpt lat="49.85732" lon="2.26069">
        <ele>87.1</ele>
        <time>2023-11-25T13:56:37Z</time>
      </trkpt>
      <trkpt lat="49.85732" lon="2.2607">
        <ele>87.2</ele>
        <time>2023-11-25T13:56:38Z</time>
      </trkpt>
      <trkpt lat="49.85732" lon="2.26072">
        <ele>87.2</ele>
        <time>2023-11-25T13:56:39Z</time>
      </trkpt>
      <trkpt lat="49.85733" lon="2.26073">
        <ele>87.3</ele>
        <time>2023-11-25T13:56:40Z</time>
      </trkpt>
      <trkpt lat="49.85734" lon="2.26074">
        <ele>87.4</ele>
        <time>2023-11-25T13:56:41Z</time>
      </trkpt>
      <trkpt lat="49.85735" lon="2.26074">
        <ele>87.4</ele>
        <time>2023-11-25T13:56:43Z</time>
      </trkpt>
      <trkpt lat="49.85735" lon="2.26073">
        <ele>87.5</ele>
        <time>2023-11-25T13:56:44Z</time>
      </trkpt>
      <trkpt lat="49.85735" lon="2.26072">
        <ele>87.5</ele>
        <time>2023-11-25T13:56:45Z</time>
      </trkpt>
      <trkpt lat="49.85735" lon="2.26071">
        <ele>87.5</ele>
        <time>2023-11-25T13:56:47Z</time>
      </trkpt>
      <trkpt lat="49.85735" lon="2.26071">
        <ele>87.6</ele>
        <time>2023-11-25T13:56:48Z</time>
      </trkpt>
      <trkpt lat="49.85736" lon="2.26071">
        <ele>87.6</ele>
        <time>2023-11-25T13:56:49Z</time>
      </trkpt>
      <trkpt lat="49.85736" lon="2.26071">
        <ele>87.6</ele>
        <time>2023-11-25T13:56:50Z</time>
      </trkpt>
      <trkpt lat="49.85736" lon="2.26072">
        <ele>87.6</ele>
        <time>2023-11-25T13:56:52Z</time>
      </trkpt>
      <trkpt lat="49.85737" lon="2.26073">
        <ele>87.7</ele>
        <time>2023-11-25T13:56:53Z</time>
      </trkpt>
      <trkpt lat="49.85736" lon="2.26075">
        <ele>87.7</ele>
        <time>2023-11-25T13:56:54Z</time>
      </trkpt>
      <trkpt lat="49.85736" lon="2.26076">
        <ele>87.8</ele>
        <time>2023-11-25T13:56:55Z</time>
      </trkpt>
      <trkpt lat="49.85735" lon="2.26079">
        <ele>87.9</ele>
        <time>2023-11-25T13:56:56Z</time>
      </trkpt>
      <trkpt lat="49.85735" lon="2.26081">
        <ele>88</ele>
        <time>2023-11-25T13:56:57Z</time>
      </trkpt>
      <trkpt lat="49.85735" lon="2.26082">
        <ele>88</ele>
        <time>2023-11-25T13:56:58Z</time>
      </trkpt>
      <trkpt lat="49.85736" lon="2.26085">
        <ele>88.1</ele>
        <time>2023-11-25T13:57:00Z</time>
      </trkpt>
      <trkpt lat="49.85736" lon="2.26086">
        <ele>88.2</ele>
        <time>2023-11-25T13:57:01Z</time>
      </trkpt>
      <trkpt lat="49.85736" lon="2.26087">
        <ele>88.2</ele>
        <time>2023-11-25T13:57:02Z</time>
      </trkpt>
      <trkpt lat="49.85736" lon="2.26089">
        <ele>88.3</ele>
        <time>2023-11-25T13:57:03Z</time>
      </trkpt>
      <trkpt lat="49.85735" lon="2.2609">
        <ele>88.4</ele>
        <time>2023-11-25T13:57:05Z</time>
      </trkpt>
      <trkpt lat="49.85734" lon="2.2609">
        <ele>88.4</ele>
        <time>2023-11-25T13:57:06Z</time>
      </trkpt>
      <trkpt lat="49.85733" lon="2.2609">
        <ele>88.5</ele>
        <time>2023-11-25T13:57:07Z</time>
      </trkpt>
      <trkpt lat="49.85733" lon="2.26091">
        <ele>88.5</ele>
        <time>2023-11-25T13:57:08Z</time>
      </trkpt>
      <trkpt lat="49.85733" lon="2.26092">
        <ele>88.5</ele>
        <time>2023-11-25T13:57:10Z</time>
      </trkpt>
      <trkpt lat="49.85734" lon="2.26093">
        <ele>88.6</ele>
        <time>2023-11-25T13:57:11Z</time>
      </trkpt>
      <trkpt lat="49.85734" lon="2.26095">
        <ele>88.6</ele>
        <time>2023-11-25T13:57:12Z</time>
      </trkpt>
      <trkpt lat="49.85735" lon="2.26096">
        <ele>88.7</ele>
        <time>2023-11-25T13:57:13Z</time>
      </trkpt>
      <trkpt lat="49.85735" lon="2.26098">
        <ele>88.8</ele>
        <time>2023-11-25T13:57:14Z</time>
      </trkpt>
      <trkpt lat="49.85736" lon="2.26099">
        <ele>88.8</ele>
        <time>2023-11-25T13:57:15Z</time>
      </trkpt>
      <trkpt lat="49.85737" lon="2.26102">
        <ele>88.9</ele>
        <time>2023-11-25T13:57:17Z</time>
      </trkpt>
      <trkpt lat="49.85738" lon="2.26103">
        <ele>89</ele>
        <time>2023-11-25T13:57:18Z</time>
      </trkpt>
      <trkpt lat="49.85738" lon="2.26105">
        <ele>89.1</ele>
        <time>2023-11-25T13:57:20Z</time>
      </trkpt>
      <trkpt lat="49.85739" lon="2.26106">
        <ele>89.1</ele>
        <time>2023-11-25T13:57:21Z</time>
      </trkpt>
      <trkpt lat="49.85739" lon="2.26107">
        <ele>89.2</ele>
        <time>2023-11-25T13:57:22Z</time>
      </trkpt>
      <trkpt lat="49.8574" lon="2.26109">
        <ele>89.2</ele>
        <time>2023-11-25T13:57:23Z</time>
      </trkpt>
      <trkpt lat="49.85741" lon="2.2611">
        <ele>89.3</ele>
        <time>2023-11-25T13:57:24Z</time>
      </trkpt>
      <trkpt lat="49.85741" lon="2.26112">
        <ele>89.4</ele>
        <time>2023-11-25T13:57:25Z</time>
      </trkpt>
      <trkpt lat="49.85742" lon="2.26113">
        <ele>89.5</ele>
        <time>2023-11-25T13:57:26Z</time>
      </trkpt>
      <trkpt lat="49.85743" lon="2.26115">
        <ele>89.5</ele>
        <time>2023-11-25T13:57:28Z</time>
      </trkpt>
      <trkpt lat="49.85743" lon="2.26117">
        <ele>89.6</ele>
        <time>2023-11-25T13:57:29Z</time>
      </trkpt>
      <trkpt lat="49.85744" lon="2.26118">
        <ele>89.7</ele>
        <time>2023-11-25T13:57:30Z</time>
      </trkpt>
      <trkpt lat="49.85744" lon="2.2612">
        <ele>89.7</ele>
        <time>2023-11-25T13:57:31Z</time>
      </trkpt>
      <trkpt lat="49.85744" lon="2.26121">
        <ele>89.8</ele>
        <time>2023-11-25T13:57:32Z</time>
      </trkpt>
      <trkpt lat="49.85745" lon="2.26123">
        <ele>89.8</ele>
        <time>2023-11-25T13:57:34Z</time>
      </trkpt>
      <trkpt lat="49.85745" lon="2.26125">
        <ele>89.9</ele>
        <time>2023-11-25T13:57:35Z</time>
      </trkpt>
      <trkpt lat="49.85746" lon="2.26126">
        <ele>89.9</ele>
        <time>2023-11-25T13:57:36Z</time>
      </trkpt>
      <trkpt lat="49.85746" lon="2.26129">
        <ele>90</ele>
        <time>2023-11-25T13:57:37Z</time>
      </trkpt>
      <trkpt lat="49.85746" lon="2.2613">
        <ele>90.1</ele>
        <time>2023-11-25T13:57:38Z</time>
      </trkpt>
      <trkpt lat="49.85747" lon="2.26133">
        <ele>90.2</ele>
        <time>2023-11-25T13:57:40Z</time>
      </trkpt>
      <trkpt lat="49.85747" lon="2.26134">
        <ele>90.2</ele>
        <time>2023-11-25T13:57:41Z</time>
      </trkpt>
      <trkpt lat="49.85747" lon="2.26136">
        <ele>90.3</ele>
        <time>2023-11-25T13:57:42Z</time>
      </trkpt>
      <trkpt lat="49.85748" lon="2.26137">
        <ele>90.3</ele>
        <time>2023-11-25T13:57:43Z</time>
      </trkpt>
      <trkpt lat="49.85748" lon="2.26139">
        <ele>90.4</ele>
        <time>2023-11-25T13:57:44Z</time>
      </trkpt>
      <trkpt lat="49.85748" lon="2.26141">
        <ele>90.4</ele>
        <time>2023-11-25T13:57:45Z</time>
      </trkpt>
      <trkpt lat="49.85749" lon="2.26142">
        <ele>90.5</ele>
        <time>2023-11-25T13:57:46Z</time>
      </trkpt>
      <trkpt lat="49.85749" lon="2.26144">
        <ele>90.6</ele>
        <time>2023-11-25T13:57:48Z</time>
      </trkpt>
      <trkpt lat="49.85749" lon="2.26146">
        <ele>90.6</ele>
        <time>2023-11-25T13:57:49Z</time>
      </trkpt>
      <trkpt lat="49.8575" lon="2.26147">
        <ele>90.7</ele>
        <time>2023-11-25T13:57:50Z</time>
      </trkpt>
      <trkpt lat="49.8575" lon="2.26148">
        <ele>90.7</ele>
        <time>2023-11-25T13:57:51Z</time>
      </trkpt>
      <trkpt lat="49.8575" lon="2.2615">
        <ele>90.8</ele>
        <time>2023-11-25T13:57:52Z</time>
      </trkpt>
      <trkpt lat="49.8575" lon="2.26152">
        <ele>90.8</ele>
        <time>2023-11-25T13:57:53Z</time>
      </trkpt>
      <trkpt lat="49.8575" lon="2.26153">
        <ele>90.9</ele>
        <time>2023-11-25T13:57:54Z</time>
      </trkpt>
      <trkpt lat="49.85751" lon="2.26157">
        <ele>91</ele>
        <time>2023-11-25T13:57:56Z</time>
      </trkpt>
      <trkpt lat="49.85751" lon="2.26158">
        <ele>91</ele>
        <time>2023-11-25T13:57:58Z</time>
      </trkpt>
      <trkpt lat="49.85751" lon="2.26159">
        <ele>91</ele>
        <time>2023-11-25T13:57:59Z</time>
      </trkpt>
      <trkpt lat="49.85752" lon="2.26161">
        <ele>91.1</ele>
        <time>2023-11-25T13:58:00Z</time>
      </trkpt>
      <trkpt lat="49.85752" lon="2.26162">
        <ele>91.1</ele>
        <time>2023-11-25T13:58:01Z</time>
      </trkpt>
      <trkpt lat="49.85753" lon="2.26164">
        <ele>91.2</ele>
        <time>2023-11-25T13:58:03Z</time>
      </trkpt>
      <trkpt lat="49.85753" lon="2.26165">
        <ele>91.2</ele>
        <time>2023-11-25T13:58:04Z</time>
      </trkpt>
      <trkpt lat="49.85754" lon="2.26167">
        <ele>91.3</ele>
        <time>2023-11-25T13:58:05Z</time>
      </trkpt>
      <trkpt lat="49.85754" lon="2.26168">
        <ele>91.3</ele>
        <time>2023-11-25T13:58:06Z</time>
      </trkpt>
      <trkpt lat="49.85754" lon="2.2617">
        <ele>91.4</ele>
        <time>2023-11-25T13:58:07Z</time>
      </trkpt>
      <trkpt lat="49.85755" lon="2.26171">
        <ele>91.4</ele>
        <time>2023-11-25T13:58:08Z</time>
      </trkpt>
      <trkpt lat="49.85755" lon="2.26172">
        <ele>91.5</ele>
        <time>2023-11-25T13:58:10Z</time>
      </trkpt>
      <trkpt lat="49.85756" lon="2.26174">
        <ele>91.5</ele>
        <time>2023-11-25T13:58:11Z</time>
      </trkpt>
      <trkpt lat="49.85756" lon="2.26176">
        <ele>91.6</ele>
        <time>2023-11-25T13:58:12Z</time>
      </trkpt>
      <trkpt lat="49.85757" lon="2.26177">
        <ele>91.6</ele>
        <time>2023-11-25T13:58:13Z</time>
      </trkpt>
      <trkpt lat="49.85757" lon="2.26178">
        <ele>91.7</ele>
        <time>2023-11-25T13:58:14Z</time>
      </trkpt>
      <trkpt lat="49.85757" lon="2.2618">
        <ele>91.7</ele>
        <time>2023-11-25T13:58:16Z</time>
      </trkpt>
      <trkpt lat="49.85758" lon="2.26182">
        <ele>91.8</ele>
        <time>2023-11-25T13:58:17Z</time>
      </trkpt>
      <trkpt lat="49.85758" lon="2.26184">
        <ele>91.8</ele>
        <time>2023-11-25T13:58:18Z</time>
      </trkpt>
      <trkpt lat="49.85758" lon="2.26185">
        <ele>91.9</ele>
        <time>2023-11-25T13:58:19Z</time>
      </trkpt>
      <trkpt lat="49.85758" lon="2.26187">
        <ele>91.9</ele>
        <time>2023-11-25T13:58:21Z</time>
      </trkpt>
      <trkpt lat="49.85758" lon="2.26189">
        <ele>92</ele>
        <time>2023-11-25T13:58:22Z</time>
      </trkpt>
      <trkpt lat="49.85758" lon="2.26191">
        <ele>92.1</ele>
        <time>2023-11-25T13:58:23Z</time>
      </trkpt>
      <trkpt lat="49.85758" lon="2.26193">
        <ele>92.1</ele>
        <time>2023-11-25T13:58:24Z</time>
      </trkpt>
      <trkpt lat="49.85759" lon="2.26195">
        <ele>92.2</ele>
        <time>2023-11-25T13:58:26Z</time>
      </trkpt>
      <trkpt lat="49.8576" lon="2.26198">
        <ele>92.3</ele>
        <time>2023-11-25T13:58:28Z</time>
      </trkpt>
      <trkpt lat="49.8576" lon="2.262">
        <ele>92.4</ele>
        <time>2023-11-25T13:58:29Z</time>
      </trkpt>
      <trkpt lat="49.85761" lon="2.26201">
        <ele>92.4</ele>
        <time>2023-11-25T13:58:30Z</time>
      </trkpt>
      <trkpt lat="49.85761" lon="2.26203">
        <ele>92.4</ele>
        <time>2023-11-25T13:58:31Z</time>
      </trkpt>
      <trkpt lat="49.85762" lon="2.26204">
        <ele>92.5</ele>
        <time>2023-11-25T13:58:32Z</time>
      </trkpt>
      <trkpt lat="49.85762" lon="2.26206">
        <ele>92.6</ele>
        <time>2023-11-25T13:58:34Z</time>
      </trkpt>
      <trkpt lat="49.85763" lon="2.26207">
        <ele>92.6</ele>
        <time>2023-11-25T13:58:35Z</time>
      </trkpt>
      <trkpt lat="49.85763" lon="2.26208">
        <ele>92.6</ele>
        <time>2023-11-25T13:58:36Z</time>
      </trkpt>
      <trkpt lat="49.85764" lon="2.2621">
        <ele>92.7</ele>
        <time>2023-11-25T13:58:37Z</time>
      </trkpt>
      <trkpt lat="49.85764" lon="2.26212">
        <ele>92.8</ele>
        <time>2023-11-25T13:58:38Z</time>
      </trkpt>
      <trkpt lat="49.85765" lon="2.26213">
        <ele>92.8</ele>
        <time>2023-11-25T13:58:39Z</time>
      </trkpt>
      <trkpt lat="49.85765" lon="2.26214">
        <ele>92.8</ele>
        <time>2023-11-25T13:58:40Z</time>
      </trkpt>
      <trkpt lat="49.85766" lon="2.26216">
        <ele>92.9</ele>
        <time>2023-11-25T13:58:41Z</time>
      </trkpt>
      <trkpt lat="49.85766" lon="2.26217">
        <ele>92.9</ele>
        <time>2023-11-25T13:58:42Z</time>
      </trkpt>
      <trkpt lat="49.85766" lon="2.26219">
        <ele>93</ele>
        <time>2023-11-25T13:58:44Z</time>
      </trkpt>
      <trkpt lat="49.85767" lon="2.26221">
        <ele>93</ele>
        <time>2023-11-25T13:58:45Z</time>
      </trkpt>
      <trkpt lat="49.85767" lon="2.26223">
        <ele>93.1</ele>
        <time>2023-11-25T13:58:46Z</time>
      </trkpt>
      <trkpt lat="49.85767" lon="2.26225">
        <ele>93.2</ele>
        <time>2023-11-25T13:58:47Z</time>
      </trkpt>
      <trkpt lat="49.85768" lon="2.26226">
        <ele>93.2</ele>
        <time>2023-11-25T13:58:48Z</time>
      </trkpt>
      <trkpt lat="49.85768" lon="2.26227">
        <ele>93.3</ele>
        <time>2023-11-25T13:58:49Z</time>
      </trkpt>
      <trkpt lat="49.85768" lon="2.26229">
        <ele>93.3</ele>
        <time>2023-11-25T13:58:50Z</time>
      </trkpt>
      <trkpt lat="49.85768" lon="2.2623">
        <ele>93.4</ele>
        <time>2023-11-25T13:58:51Z</time>
      </trkpt>
      <trkpt lat="49.85768" lon="2.26233">
        <ele>93.4</ele>
        <time>2023-11-25T13:58:52Z</time>
      </trkpt>
      <trkpt lat="49.85768" lon="2.26234">
        <ele>93.5</ele>
        <time>2023-11-25T13:58:54Z</time>
      </trkpt>
      <trkpt lat="49.85768" lon="2.26236">
        <ele>93.5</ele>
        <time>2023-11-25T13:58:55Z</time>
      </trkpt>
      <trkpt lat="49.85768" lon="2.26238">
        <ele>93.6</ele>
        <time>2023-11-25T13:58:56Z</time>
      </trkpt>
      <trkpt lat="49.85769" lon="2.26239">
        <ele>93.6</ele>
        <time>2023-11-25T13:58:57Z</time>
      </trkpt>
      <trkpt lat="49.85769" lon="2.26241">
        <ele>93.7</ele>
        <time>2023-11-25T13:58:58Z</time>
      </trkpt>
      <trkpt lat="49.85769" lon="2.26243">
        <ele>93.7</ele>
        <time>2023-11-25T13:58:59Z</time>
      </trkpt>
      <trkpt lat="49.85769" lon="2.26244">
        <ele>93.8</ele>
        <time>2023-11-25T13:59:00Z</time>
      </trkpt>
      <trkpt lat="49.8577" lon="2.26246">
        <ele>93.8</ele>
        <time>2023-11-25T13:59:02Z</time>
      </trkpt>
      <trkpt lat="49.8577" lon="2.26248">
        <ele>93.9</ele>
        <time>2023-11-25T13:59:03Z</time>
      </trkpt>
      <trkpt lat="49.8577" lon="2.2625">
        <ele>93.9</ele>
        <time>2023-11-25T13:59:04Z</time>
      </trkpt>
      <trkpt lat="49.85771" lon="2.26251">
        <ele>94</ele>
        <time>2023-11-25T13:59:05Z</time>
      </trkpt>
      <trkpt lat="49.85772" lon="2.26254">
        <ele>94.1</ele>
        <time>2023-11-25T13:59:07Z</time>
      </trkpt>
      <trkpt lat="49.85772" lon="2.26256">
        <ele>94.2</ele>
        <time>2023-11-25T13:59:08Z</time>
      </trkpt>
      <trkpt lat="49.85772" lon="2.26257">
        <ele>94.2</ele>
        <time>2023-11-25T13:59:09Z</time>
      </trkpt>
      <trkpt lat="49.85773" lon="2.2626">
        <ele>94.3</ele>
        <time>2023-11-25T13:59:10Z</time>
      </trkpt>
      <trkpt lat="49.85773" lon="2.26262">
        <ele>94.4</ele>
        <time>2023-11-25T13:59:12Z</time>
      </trkpt>
      <trkpt lat="49.85774" lon="2.26264">
        <ele>94.4</ele>
        <time>2023-11-25T13:59:13Z</time>
      </trkpt>
      <trkpt lat="49.85774" lon="2.26265">
        <ele>94.5</ele>
        <time>2023-11-25T13:59:14Z</time>
      </trkpt>
      <trkpt lat="49.85774" lon="2.26266">
        <ele>94.5</ele>
        <time>2023-11-25T13:59:16Z</time>
      </trkpt>
      <trkpt lat="49.85775" lon="2.26268">
        <ele>94.6</ele>
        <time>2023-11-25T13:59:17Z</time>
      </trkpt>
      <trkpt lat="49.85775" lon="2.2627">
        <ele>94.6</ele>
        <time>2023-11-25T13:59:18Z</time>
      </trkpt>
      <trkpt lat="49.85776" lon="2.26271">
        <ele>94.7</ele>
        <time>2023-11-25T13:59:19Z</time>
      </trkpt>
      <trkpt lat="49.85776" lon="2.26272">
        <ele>94.7</ele>
        <time>2023-11-25T13:59:20Z</time>
      </trkpt>
      <trkpt lat="49.85777" lon="2.26275">
        <ele>94.8</ele>
        <time>2023-11-25T13:59:22Z</time>
      </trkpt>
      <trkpt lat="49.85777" lon="2.26277">
        <ele>94.9</ele>
        <time>2023-11-25T13:59:23Z</time>
      </trkpt>
      <trkpt lat="49.85777" lon="2.26278">
        <ele>95</ele>
        <time>2023-11-25T13:59:24Z</time>
      </trkpt>
      <trkpt lat="49.85778" lon="2.2628">
        <ele>95</ele>
        <time>2023-11-25T13:59:26Z</time>
      </trkpt>
      <trkpt lat="49.85778" lon="2.26282">
        <ele>95.1</ele>
        <time>2023-11-25T13:59:27Z</time>
      </trkpt>
      <trkpt lat="49.85778" lon="2.26283">
        <ele>95.1</ele>
        <time>2023-11-25T13:59:28Z</time>
      </trkpt>
      <trkpt lat="49.85778" lon="2.26284">
        <ele>95.2</ele>
        <time>2023-11-25T13:59:29Z</time>
      </trkpt>
      <trkpt lat="49.85779" lon="2.26286">
        <ele>95.2</ele>
        <time>2023-11-25T13:59:30Z</time>
      </trkpt>
      <trkpt lat="49.85779" lon="2.26287">
        <ele>95.3</ele>
        <time>2023-11-25T13:59:31Z</time>
      </trkpt>
      <trkpt lat="49.85779" lon="2.26288">
        <ele>95.3</ele>
        <time>2023-11-25T13:59:33Z</time>
      </trkpt>
      <trkpt lat="49.8578" lon="2.2629">
        <ele>95.4</ele>
        <time>2023-11-25T13:59:34Z</time>
      </trkpt>
      <trkpt lat="49.8578" lon="2.26291">
        <ele>95.4</ele>
        <time>2023-11-25T13:59:35Z</time>
      </trkpt>
      <trkpt lat="49.8578" lon="2.26293">
        <ele>95.5</ele>
        <time>2023-11-25T13:59:36Z</time>
      </trkpt>
      <trkpt lat="49.85781" lon="2.26294">
        <ele>95.6</ele>
        <time>2023-11-25T13:59:37Z</time>
      </trkpt>
      <trkpt lat="49.85781" lon="2.26296">
        <ele>95.6</ele>
        <time>2023-11-25T13:59:38Z</time>
      </trkpt>
      <trkpt lat="49.85781" lon="2.26297">
        <ele>95.7</ele>
        <time>2023-11-25T13:59:39Z</time>
      </trkpt>
      <trkpt lat="49.85782" lon="2.26299">
        <ele>95.7</ele>
        <time>2023-11-25T13:59:41Z</time>
      </trkpt>
      <trkpt lat="49.85782" lon="2.26301">
        <ele>95.8</ele>
        <time>2023-11-25T13:59:42Z</time>
      </trkpt>
      <trkpt lat="49.85783" lon="2.26303">
        <ele>95.9</ele>
        <time>2023-11-25T13:59:43Z</time>
      </trkpt>
      <trkpt lat="49.85783" lon="2.26304">
        <ele>95.9</ele>
        <time>2023-11-25T13:59:44Z</time>
      </trkpt>
      <trkpt lat="49.85783" lon="2.26306">
        <ele>96</ele>
        <time>2023-11-25T13:59:45Z</time>
      </trkpt>
      <trkpt lat="49.85783" lon="2.26307">
        <ele>96</ele>
        <time>2023-11-25T13:59:46Z</time>
      </trkpt>
      <trkpt lat="49.85784" lon="2.26309">
        <ele>96.1</ele>
        <time>2023-11-25T13:59:47Z</time>
      </trkpt>
      <trkpt lat="49.85784" lon="2.2631">
        <ele>96.1</ele>
        <time>2023-11-25T13:59:48Z</time>
      </trkpt>
      <trkpt lat="49.85784" lon="2.26312">
        <ele>96.2</ele>
        <time>2023-11-25T13:59:50Z</time>
      </trkpt>
      <trkpt lat="49.85784" lon="2.26314">
        <ele>96.3</ele>
        <time>2023-11-25T13:59:51Z</time>
      </trkpt>
      <trkpt lat="49.85785" lon="2.26315">
        <ele>96.3</ele>
        <time>2023-11-25T13:59:52Z</time>
      </trkpt>
      <trkpt lat="49.85785" lon="2.26317">
        <ele>96.4</ele>
        <time>2023-11-25T13:59:53Z</time>
      </trkpt>
      <trkpt lat="49.85786" lon="2.26318">
        <ele>96.4</ele>
        <time>2023-11-25T13:59:54Z</time>
      </trkpt>
      <trkpt lat="49.85786" lon="2.26321">
        <ele>96.5</ele>
        <time>2023-11-25T13:59:56Z</time>
      </trkpt>
      <trkpt lat="49.85786" lon="2.26322">
        <ele>96.6</ele>
        <time>2023-11-25T13:59:57Z</time>
      </trkpt>
      <trkpt lat="49.85787" lon="2.26325">
        <ele>96.7</ele>
        <time>2023-11-25T13:59:58Z</time>
      </trkpt>
      <trkpt lat="49.85787" lon="2.26327">
        <ele>96.8</ele>
        <time>2023-11-25T14:00:00Z</time>
      </trkpt>
      <trkpt lat="49.85787" lon="2.26328">
        <ele>96.8</ele>
        <time>2023-11-25T14:00:01Z</time>
      </trkpt>
      <trkpt lat="49.85787" lon="2.2633">
        <ele>96.9</ele>
        <time>2023-11-25T14:00:02Z</time>
      </trkpt>
      <trkpt lat="49.85788" lon="2.26332">
        <ele>96.9</ele>
        <time>2023-11-25T14:00:04Z</time>
      </trkpt>
      <trkpt lat="49.85788" lon="2.26333">
        <ele>97</ele>
        <time>2023-11-25T14:00:05Z</time>
      </trkpt>
      <trkpt lat="49.85788" lon="2.26335">
        <ele>97.1</ele>
        <time>2023-11-25T14:00:06Z</time>
      </trkpt>
      <trkpt lat="49.85788" lon="2.26336">
        <ele>97.1</ele>
        <time>2023-11-25T14:00:07Z</time>
      </trkpt>
      <trkpt lat="49.85788" lon="2.26337">
        <ele>97.2</ele>
        <time>2023-11-25T14:00:08Z</time>
      </trkpt>
      <trkpt lat="49.85788" lon="2.26339">
        <ele>97.2</ele>
        <time>2023-11-25T14:00:09Z</time>
      </trkpt>
      <trkpt lat="49.85789" lon="2.26341">
        <ele>97.3</ele>
        <time>2023-11-25T14:00:11Z</time>
      </trkpt>
      <trkpt lat="49.85789" lon="2.26343">
        <ele>97.4</ele>
        <time>2023-11-25T14:00:12Z</time>
      </trkpt>
      <trkpt lat="49.85789" lon="2.26344">
        <ele>97.4</ele>
        <time>2023-11-25T14:00:13Z</time>
      </trkpt>
      <trkpt lat="49.85789" lon="2.26345">
        <ele>97.5</ele>
        <time>2023-11-25T14:00:14Z</time>
      </trkpt>
      <trkpt lat="49.85788" lon="2.26347">
        <ele>97.5</ele>
        <time>2023-11-25T14:00:15Z</time>
      </trkpt>
      <trkpt lat="49.85788" lon="2.26348">
        <ele>97.6</ele>
        <time>2023-11-25T14:00:16Z</time>
      </trkpt>
      <trkpt lat="49.85788" lon="2.2635">
        <ele>97.6</ele>
        <time>2023-11-25T14:00:18Z</time>
      </trkpt>
      <trkpt lat="49.85788" lon="2.26352">
        <ele>97.7</ele>
        <time>2023-11-25T14:00:19Z</time>
      </trkpt>
      <trkpt lat="49.85788" lon="2.26355">
        <ele>97.8</ele>
        <time>2023-11-25T14:00:20Z</time>
      </trkpt>
      <trkpt lat="49.85788" lon="2.26356">
        <ele>97.9</ele>
        <time>2023-11-25T14:00:22Z</time>
      </trkpt>
      <trkpt lat="49.85788" lon="2.26357">
        <ele>97.9</ele>
        <time>2023-11-25T14:00:23Z</time>
      </trkpt>
      <trkpt lat="49.85787" lon="2.26359">
        <ele>98</ele>
        <time>2023-11-25T14:00:24Z</time>
      </trkpt>
      <trkpt lat="49.85787" lon="2.2636">
        <ele>98</ele>
        <time>2023-11-25T14:00:25Z</time>
      </trkpt>
      <trkpt lat="49.85787" lon="2.26361">
        <ele>98.1</ele>
        <time>2023-11-25T14:00:26Z</time>
      </trkpt>
      <trkpt lat="49.85787" lon="2.26363">
        <ele>98.1</ele>
        <time>2023-11-25T14:00:27Z</time>
      </trkpt>
      <trkpt lat="49.85787" lon="2.26366">
        <ele>98.2</ele>
        <time>2023-11-25T14:00:29Z</time>
      </trkpt>
      <trkpt lat="49.85787" lon="2.26366">
        <ele>98.3</ele>
        <time>2023-11-25T14:00:30Z</time>
      </trkpt>
      <trkpt lat="49.85787" lon="2.26368">
        <ele>98.3</ele>
        <time>2023-11-25T14:00:31Z</time>
      </trkpt>
      <trkpt lat="49.85787" lon="2.2637">
        <ele>98.4</ele>
        <time>2023-11-25T14:00:32Z</time>
      </trkpt>
      <trkpt lat="49.85787" lon="2.26371">
        <ele>98.5</ele>
        <time>2023-11-25T14:00:33Z</time>
      </trkpt>
      <trkpt lat="49.85787" lon="2.26373">
        <ele>98.5</ele>
        <time>2023-11-25T14:00:34Z</time>
      </trkpt>
      <trkpt lat="49.85786" lon="2.26374">
        <ele>98.6</ele>
        <time>2023-11-25T14:00:35Z</time>
      </trkpt>
      <trkpt lat="49.85786" lon="2.26376">
        <ele>98.7</ele>
        <time>2023-11-25T14:00:37Z</time>
      </trkpt>
      <trkpt lat="49.85786" lon="2.26377">
        <ele>98.7</ele>
        <time>2023-11-25T14:00:38Z</time>
      </trkpt>
      <trkpt lat="49.85785" lon="2.26379">
        <ele>98.8</ele>
        <time>2023-11-25T14:00:39Z</time>
      </trkpt>
      <trkpt lat="49.85785" lon="2.26382">
        <ele>98.9</ele>
        <time>2023-11-25T14:00:40Z</time>
      </trkpt>
      <trkpt lat="49.85785" lon="2.26383">
        <ele>98.9</ele>
        <time>2023-11-25T14:00:41Z</time>
      </trkpt>
      <trkpt lat="49.85785" lon="2.26384">
        <ele>99</ele>
        <time>2023-11-25T14:00:42Z</time>
      </trkpt>
      <trkpt lat="49.85785" lon="2.26385">
        <ele>99</ele>
        <time>2023-11-25T14:00:43Z</time>
      </trkpt>
      <trkpt lat="49.85785" lon="2.26387">
        <ele>99.1</ele>
        <time>2023-11-25T14:00:45Z</time>
      </trkpt>
      <trkpt lat="49.85785" lon="2.26388">
        <ele>99.1</ele>
        <time>2023-11-25T14:00:46Z</time>
      </trkpt>
      <trkpt lat="49.85785" lon="2.26389">
        <ele>99.2</ele>
        <time>2023-11-25T14:00:47Z</time>
      </trkpt>
      <trkpt lat="49.85784" lon="2.26391">
        <ele>99.3</ele>
        <time>2023-11-25T14:00:48Z</time>
      </trkpt>
      <trkpt lat="49.85784" lon="2.26392">
        <ele>99.3</ele>
        <time>2023-11-25T14:00:49Z</time>
      </trkpt>
      <trkpt lat="49.85785" lon="2.26393">
        <ele>99.3</ele>
        <time>2023-11-25T14:00:50Z</time>
      </trkpt>
      <trkpt lat="49.85785" lon="2.26394">
        <ele>99.4</ele>
        <time>2023-11-25T14:00:52Z</time>
      </trkpt>
      <trkpt lat="49.85786" lon="2.26394">
        <ele>99.4</ele>
        <time>2023-11-25T14:00:53Z</time>
      </trkpt>
      <trkpt lat="49.85786" lon="2.26394">
        <ele>99.4</ele>
        <time>2023-11-25T14:00:55Z</time>
      </trkpt>
      <trkpt lat="49.85786" lon="2.26393">
        <ele>99.4</ele>
        <time>2023-11-25T14:00:56Z</time>
      </trkpt>
      <trkpt lat="49.85786" lon="2.26393">
        <ele>99.5</ele>
        <time>2023-11-25T14:00:58Z</time>
      </trkpt>
      <trkpt lat="49.85786" lon="2.26393">
        <ele>99.5</ele>
        <time>2023-11-25T14:00:59Z</time>
      </trkpt>
      <trkpt lat="49.85786" lon="2.26393">
        <ele>99.5</ele>
        <time>2023-11-25T14:01:00Z</time>
      </trkpt>
      <trkpt lat="49.85786" lon="2.26393">
        <ele>99.5</ele>
        <time>2023-11-25T14:01:02Z</time>
      </trkpt>
      <trkpt lat="49.85786" lon="2.26393">
        <ele>99.5</ele>
        <time>2023-11-25T14:01:03Z</time>
      </trkpt>
      <trkpt lat="49.85786" lon="2.26393">
        <ele>99.5</ele>
        <time>2023-11-25T14:01:05Z</time>
      </trkpt>
      <trkpt lat="49.85786" lon="2.26392">
        <ele>99.5</ele>
        <time>2023-11-25T14:01:06Z</time>
      </trkpt>
      <trkpt lat="49.85786" lon="2.26392">
        <ele>99.5</ele>
        <time>2023-11-25T14:01:08Z</time>
      </trkpt>
      <trkpt lat="49.85786" lon="2.26392">
        <ele>99.5</ele>
        <time>2023-11-25T14:01:09Z</time>
      </trkpt>
      <trkpt lat="49.85786" lon="2.26392">
        <ele>99.5</ele>
        <time>2023-11-25T14:01:10Z</time>
      </trkpt>
      <trkpt lat="49.85786" lon="2.26392">
        <ele>99.5</ele>
        <time>2023-11-25T14:01:11Z</time>
      </trkpt>
      <trkpt lat="49.85786" lon="2.26391">
        <ele>99.5</ele>
        <time>2023-11-25T14:01:12Z</time>
      </trkpt>
      <trkpt lat="49.85782" lon="2.26395">
        <ele>99.8</ele>
        <time>2023-11-25T14:01:26Z</time>
      </trkpt>
      <trkpt lat="49.85781" lon="2.26396">
        <ele>99.9</ele>
        <time>2023-11-25T14:01:27Z</time>
      </trkpt>
      <trkpt lat="49.85781" lon="2.26397">
        <ele>99.9</ele>
        <time>2023-11-25T14:01:29Z</time>
      </trkpt>
      <trkpt lat="49.8578" lon="2.26399">
        <ele>100</ele>
        <time>2023-11-25T14:01:30Z</time>
      </trkpt>
      <trkpt lat="49.85779" lon="2.264">
        <ele>100.1</ele>
        <time>2023-11-25T14:01:31Z</time>
      </trkpt>
      <trkpt lat="49.85779" lon="2.26402">
        <ele>100.1</ele>
        <time>2023-11-25T14:01:32Z</time>
      </trkpt>
      <trkpt lat="49.85779" lon="2.26403">
        <ele>100.2</ele>
        <time>2023-11-25T14:01:33Z</time>
      </trkpt>
      <trkpt lat="49.85779" lon="2.26404">
        <ele>100.2</ele>
        <time>2023-11-25T14:01:34Z</time>
      </trkpt>
      <trkpt lat="49.85779" lon="2.26406">
        <ele>100.3</ele>
        <time>2023-11-25T14:01:35Z</time>
      </trkpt>
      <trkpt lat="49.85778" lon="2.26407">
        <ele>100.3</ele>
        <time>2023-11-25T14:01:37Z</time>
      </trkpt>
      <trkpt lat="49.85778" lon="2.26409">
        <ele>100.4</ele>
        <time>2023-11-25T14:01:38Z</time>
      </trkpt>
      <trkpt lat="49.85778" lon="2.26411">
        <ele>100.5</ele>
        <time>2023-11-25T14:01:39Z</time>
      </trkpt>
      <trkpt lat="49.85778" lon="2.26412">
        <ele>100.5</ele>
        <time>2023-11-25T14:01:40Z</time>
      </trkpt>
      <trkpt lat="49.85778" lon="2.26414">
        <ele>100.6</ele>
        <time>2023-11-25T14:01:41Z</time>
      </trkpt>
      <trkpt lat="49.85778" lon="2.26415">
        <ele>100.6</ele>
        <time>2023-11-25T14:01:42Z</time>
      </trkpt>
      <trkpt lat="49.85778" lon="2.26417">
        <ele>100.7</ele>
        <time>2023-11-25T14:01:44Z</time>
      </trkpt>
      <trkpt lat="49.85778" lon="2.26419">
        <ele>100.8</ele>
        <time>2023-11-25T14:01:45Z</time>
      </trkpt>
      <trkpt lat="49.85778" lon="2.2642">
        <ele>100.8</ele>
        <time>2023-11-25T14:01:46Z</time>
      </trkpt>
      <trkpt lat="49.85778" lon="2.26421">
        <ele>100.9</ele>
        <time>2023-11-25T14:01:47Z</time>
      </trkpt>
      <trkpt lat="49.85778" lon="2.26422">
        <ele>100.9</ele>
        <time>2023-11-25T14:01:48Z</time>
      </trkpt>
      <trkpt lat="49.85778" lon="2.26424">
        <ele>101</ele>
        <time>2023-11-25T14:01:49Z</time>
      </trkpt>
      <trkpt lat="49.85778" lon="2.26425">
        <ele>101</ele>
        <time>2023-11-25T14:01:50Z</time>
      </trkpt>
      <trkpt lat="49.85778" lon="2.26426">
        <ele>101</ele>
        <time>2023-11-25T14:01:51Z</time>
      </trkpt>
      <trkpt lat="49.85777" lon="2.26427">
        <ele>101.1</ele>
        <time>2023-11-25T14:01:52Z</time>
      </trkpt>
      <trkpt lat="49.85777" lon="2.26429">
        <ele>101.1</ele>
        <time>2023-11-25T14:01:54Z</time>
      </trkpt>
      <trkpt lat="49.85777" lon="2.2643">
        <ele>101.2</ele>
        <time>2023-11-25T14:01:55Z</time>
      </trkpt>
      <trkpt lat="49.85777" lon="2.26432">
        <ele>101.3</ele>
        <time>2023-11-25T14:01:56Z</time>
      </trkpt>
      <trkpt lat="49.85777" lon="2.26433">
        <ele>101.3</ele>
        <time>2023-11-25T14:01:57Z</time>
      </trkpt>
      <trkpt lat="49.85777" lon="2.26435">
        <ele>101.4</ele>
        <time>2023-11-25T14:01:58Z</time>
      </trkpt>
      <trkpt lat="49.85777" lon="2.26436">
        <ele>101.4</ele>
        <time>2023-11-25T14:01:59Z</time>
      </trkpt>
      <trkpt lat="49.85777" lon="2.26437">
        <ele>101.5</ele>
        <time>2023-11-25T14:02:01Z</time>
      </trkpt>
      <trkpt lat="49.85777" lon="2.26439">
        <ele>101.5</ele>
        <time>2023-11-25T14:02:02Z</time>
      </trkpt>
      <trkpt lat="49.85777" lon="2.2644">
        <ele>101.6</ele>
        <time>2023-11-25T14:02:03Z</time>
      </trkpt>
      <trkpt lat="49.85776" lon="2.26441">
        <ele>101.6</ele>
        <time>2023-11-25T14:02:04Z</time>
      </trkpt>
      <trkpt lat="49.85776" lon="2.26442">
        <ele>101.7</ele>
        <time>2023-11-25T14:02:05Z</time>
      </trkpt>
      <trkpt lat="49.85776" lon="2.26443">
        <ele>101.7</ele>
        <time>2023-11-25T14:02:06Z</time>
      </trkpt>
      <trkpt lat="49.85775" lon="2.26445">
        <ele>101.8</ele>
        <time>2023-11-25T14:02:08Z</time>
      </trkpt>
      <trkpt lat="49.85775" lon="2.26446">
        <ele>101.8</ele>
        <time>2023-11-25T14:02:09Z</time>
      </trkpt>
      <trkpt lat="49.85774" lon="2.26448">
        <ele>101.9</ele>
        <time>2023-11-25T14:02:10Z</time>
      </trkpt>
      <trkpt lat="49.85774" lon="2.26449">
        <ele>101.9</ele>
        <time>2023-11-25T14:02:11Z</time>
      </trkpt>
      <trkpt lat="49.85774" lon="2.2645">
        <ele>102</ele>
        <time>2023-11-25T14:02:12Z</time>
      </trkpt>
      <trkpt lat="49.85773" lon="2.26452">
        <ele>102.1</ele>
        <time>2023-11-25T14:02:13Z</time>
      </trkpt>
      <trkpt lat="49.85773" lon="2.26453">
        <ele>102.1</ele>
        <time>2023-11-25T14:02:15Z</time>
      </trkpt>
      <trkpt lat="49.85772" lon="2.26455">
        <ele>102.2</ele>
        <time>2023-11-25T14:02:16Z</time>
      </trkpt>
      <trkpt lat="49.85772" lon="2.26456">
        <ele>102.2</ele>
        <time>2023-11-25T14:02:17Z</time>
      </trkpt>
      <trkpt lat="49.85772" lon="2.26457">
        <ele>102.3</ele>
        <time>2023-11-25T14:02:18Z</time>
      </trkpt>
      <trkpt lat="49.85771" lon="2.26459">
        <ele>102.4</ele>
        <time>2023-11-25T14:02:19Z</time>
      </trkpt>
      <trkpt lat="49.85771" lon="2.2646">
        <ele>102.4</ele>
        <time>2023-11-25T14:02:20Z</time>
      </trkpt>
      <trkpt lat="49.85771" lon="2.26461">
        <ele>102.5</ele>
        <time>2023-11-25T14:02:21Z</time>
      </trkpt>
      <trkpt lat="49.85771" lon="2.26463">
        <ele>102.5</ele>
        <time>2023-11-25T14:02:23Z</time>
      </trkpt>
      <trkpt lat="49.85771" lon="2.26465">
        <ele>102.6</ele>
        <time>2023-11-25T14:02:24Z</time>
      </trkpt>
      <trkpt lat="49.85771" lon="2.26466">
        <ele>102.6</ele>
        <time>2023-11-25T14:02:25Z</time>
      </trkpt>
      <trkpt lat="49.85771" lon="2.26467">
        <ele>102.7</ele>
        <time>2023-11-25T14:02:26Z</time>
      </trkpt>
      <trkpt lat="49.8577" lon="2.26469">
        <ele>102.7</ele>
        <time>2023-11-25T14:02:27Z</time>
      </trkpt>
      <trkpt lat="49.8577" lon="2.2647">
        <ele>102.8</ele>
        <time>2023-11-25T14:02:28Z</time>
      </trkpt>
      <trkpt lat="49.8577" lon="2.26472">
        <ele>102.9</ele>
        <time>2023-11-25T14:02:30Z</time>
      </trkpt>
      <trkpt lat="49.8577" lon="2.26473">
        <ele>102.9</ele>
        <time>2023-11-25T14:02:31Z</time>
      </trkpt>
      <trkpt lat="49.8577" lon="2.26475">
        <ele>103</ele>
        <time>2023-11-25T14:02:32Z</time>
      </trkpt>
      <trkpt lat="49.8577" lon="2.26476">
        <ele>103</ele>
        <time>2023-11-25T14:02:33Z</time>
      </trkpt>
      <trkpt lat="49.8577" lon="2.26477">
        <ele>103.1</ele>
        <time>2023-11-25T14:02:34Z</time>
      </trkpt>
      <trkpt lat="49.85769" lon="2.26479">
        <ele>103.1</ele>
        <time>2023-11-25T14:02:35Z</time>
      </trkpt>
      <trkpt lat="49.85769" lon="2.2648">
        <ele>103.2</ele>
        <time>2023-11-25T14:02:37Z</time>
      </trkpt>
      <trkpt lat="49.85769" lon="2.26482">
        <ele>103.3</ele>
        <time>2023-11-25T14:02:38Z</time>
      </trkpt>
      <trkpt lat="49.85769" lon="2.26484">
        <ele>103.3</ele>
        <time>2023-11-25T14:02:39Z</time>
      </trkpt>
      <trkpt lat="49.85769" lon="2.26485">
        <ele>103.4</ele>
        <time>2023-11-25T14:02:40Z</time>
      </trkpt>
      <trkpt lat="49.85769" lon="2.26487">
        <ele>103.4</ele>
        <time>2023-11-25T14:02:41Z</time>
      </trkpt>
      <trkpt lat="49.85769" lon="2.26488">
        <ele>103.5</ele>
        <time>2023-11-25T14:02:42Z</time>
      </trkpt>
      <trkpt lat="49.85768" lon="2.26491">
        <ele>103.6</ele>
        <time>2023-11-25T14:02:44Z</time>
      </trkpt>
      <trkpt lat="49.85768" lon="2.26493">
        <ele>103.6</ele>
        <time>2023-11-25T14:02:46Z</time>
      </trkpt>
      <trkpt lat="49.85768" lon="2.26495">
        <ele>103.7</ele>
        <time>2023-11-25T14:02:47Z</time>
      </trkpt>
      <trkpt lat="49.85767" lon="2.26496">
        <ele>103.8</ele>
        <time>2023-11-25T14:02:48Z</time>
      </trkpt>
      <trkpt lat="49.85767" lon="2.26498">
        <ele>103.8</ele>
        <time>2023-11-25T14:02:49Z</time>
      </trkpt>
      <trkpt lat="49.85767" lon="2.26501">
        <ele>103.9</ele>
        <time>2023-11-25T14:02:51Z</time>
      </trkpt>
      <trkpt lat="49.85767" lon="2.26502">
        <ele>104</ele>
        <time>2023-11-25T14:02:52Z</time>
      </trkpt>
      <trkpt lat="49.85766" lon="2.26503">
        <ele>104</ele>
        <time>2023-11-25T14:02:53Z</time>
      </trkpt>
      <trkpt lat="49.85766" lon="2.26505">
        <ele>104.1</ele>
        <time>2023-11-25T14:02:55Z</time>
      </trkpt>
      <trkpt lat="49.85766" lon="2.26507">
        <ele>104.1</ele>
        <time>2023-11-25T14:02:56Z</time>
      </trkpt>
      <trkpt lat="49.85766" lon="2.26508">
        <ele>104.2</ele>
        <time>2023-11-25T14:02:57Z</time>
      </trkpt>
      <trkpt lat="49.85765" lon="2.2651">
        <ele>104.2</ele>
        <time>2023-11-25T14:02:58Z</time>
      </trkpt>
      <trkpt lat="49.85765" lon="2.26511">
        <ele>104.3</ele>
        <time>2023-11-25T14:02:59Z</time>
      </trkpt>
      <trkpt lat="49.85765" lon="2.26513">
        <ele>104.3</ele>
        <time>2023-11-25T14:03:01Z</time>
      </trkpt>
      <trkpt lat="49.85765" lon="2.26515">
        <ele>104.4</ele>
        <time>2023-11-25T14:03:02Z</time>
      </trkpt>
      <trkpt lat="49.85764" lon="2.26516">
        <ele>104.4</ele>
        <time>2023-11-25T14:03:03Z</time>
      </trkpt>
      <trkpt lat="49.85764" lon="2.26517">
        <ele>104.5</ele>
        <time>2023-11-25T14:03:05Z</time>
      </trkpt>
      <trkpt lat="49.85764" lon="2.26519">
        <ele>104.6</ele>
        <time>2023-11-25T14:03:06Z</time>
      </trkpt>
      <trkpt lat="49.85763" lon="2.2652">
        <ele>104.6</ele>
        <time>2023-11-25T14:03:07Z</time>
      </trkpt>
      <trkpt lat="49.85763" lon="2.26522">
        <ele>104.7</ele>
        <time>2023-11-25T14:03:08Z</time>
      </trkpt>
      <trkpt lat="49.85763" lon="2.26523">
        <ele>104.7</ele>
        <time>2023-11-25T14:03:09Z</time>
      </trkpt>
      <trkpt lat="49.85763" lon="2.26525">
        <ele>104.8</ele>
        <time>2023-11-25T14:03:11Z</time>
      </trkpt>
      <trkpt lat="49.85763" lon="2.26526">
        <ele>104.8</ele>
        <time>2023-11-25T14:03:12Z</time>
      </trkpt>
      <trkpt lat="49.85762" lon="2.26528">
        <ele>104.9</ele>
        <time>2023-11-25T14:03:13Z</time>
      </trkpt>
      <trkpt lat="49.85762" lon="2.26529">
        <ele>104.9</ele>
        <time>2023-11-25T14:03:14Z</time>
      </trkpt>
      <trkpt lat="49.85762" lon="2.2653">
        <ele>104.9</ele>
        <time>2023-11-25T14:03:15Z</time>
      </trkpt>
      <trkpt lat="49.85762" lon="2.26531">
        <ele>105</ele>
        <time>2023-11-25T14:03:16Z</time>
      </trkpt>
      <trkpt lat="49.85762" lon="2.26532">
        <ele>105</ele>
        <time>2023-11-25T14:03:18Z</time>
      </trkpt>
      <trkpt lat="49.85762" lon="2.26534">
        <ele>105</ele>
        <time>2023-11-25T14:03:19Z</time>
      </trkpt>
      <trkpt lat="49.85762" lon="2.26536">
        <ele>105.1</ele>
        <time>2023-11-25T14:03:20Z</time>
      </trkpt>
      <trkpt lat="49.85762" lon="2.26538">
        <ele>105.2</ele>
        <time>2023-11-25T14:03:21Z</time>
      </trkpt>
      <trkpt lat="49.85762" lon="2.26539">
        <ele>105.2</ele>
        <time>2023-11-25T14:03:22Z</time>
      </trkpt>
      <trkpt lat="49.85761" lon="2.2654">
        <ele>105.2</ele>
        <time>2023-11-25T14:03:23Z</time>
      </trkpt>
      <trkpt lat="49.8576" lon="2.26541">
        <ele>105.3</ele>
        <time>2023-11-25T14:03:25Z</time>
      </trkpt>
      <trkpt lat="49.8576" lon="2.26541">
        <ele>105.3</ele>
        <time>2023-11-25T14:03:26Z</time>
      </trkpt>
      <trkpt lat="49.85759" lon="2.26541">
        <ele>105.4</ele>
        <time>2023-11-25T14:03:27Z</time>
      </trkpt>
      <trkpt lat="49.85758" lon="2.26541">
        <ele>105.4</ele>
        <time>2023-11-25T14:03:29Z</time>
      </trkpt>
      <trkpt lat="49.85758" lon="2.26542">
        <ele>105.4</ele>
        <time>2023-11-25T14:03:30Z</time>
      </trkpt>
      <trkpt lat="49.85759" lon="2.26542">
        <ele>105.4</ele>
        <time>2023-11-25T14:03:31Z</time>
      </trkpt>
      <trkpt lat="49.85759" lon="2.26543">
        <ele>105.4</ele>
        <time>2023-11-25T14:03:32Z</time>
      </trkpt>
      <trkpt lat="49.85759" lon="2.26545">
        <ele>105.5</ele>
        <time>2023-11-25T14:03:33Z</time>
      </trkpt>
      <trkpt lat="49.85759" lon="2.26546">
        <ele>105.5</ele>
        <time>2023-11-25T14:03:34Z</time>
      </trkpt>
      <trkpt lat="49.85758" lon="2.2655">
        <ele>105.6</ele>
        <time>2023-11-25T14:03:36Z</time>
      </trkpt>
      <trkpt lat="49.85758" lon="2.26551">
        <ele>105.6</ele>
        <time>2023-11-25T14:03:37Z</time>
      </trkpt>
      <trkpt lat="49.85758" lon="2.26552">
        <ele>105.7</ele>
        <time>2023-11-25T14:03:38Z</time>
      </trkpt>
      <trkpt lat="49.85758" lon="2.26555">
        <ele>105.7</ele>
        <time>2023-11-25T14:03:40Z</time>
      </trkpt>
      <trkpt lat="49.85758" lon="2.26557">
        <ele>105.8</ele>
        <time>2023-11-25T14:03:42Z</time>
      </trkpt>
      <trkpt lat="49.85757" lon="2.26558">
        <ele>105.8</ele>
        <time>2023-11-25T14:03:43Z</time>
      </trkpt>
      <trkpt lat="49.85757" lon="2.2656">
        <ele>105.8</ele>
        <time>2023-11-25T14:03:44Z</time>
      </trkpt>
      <trkpt lat="49.85756" lon="2.2656">
        <ele>105.9</ele>
        <time>2023-11-25T14:03:45Z</time>
      </trkpt>
      <trkpt lat="49.85756" lon="2.26561">
        <ele>105.9</ele>
        <time>2023-11-25T14:03:47Z</time>
      </trkpt>
      <trkpt lat="49.85756" lon="2.26561">
        <ele>105.9</ele>
        <time>2023-11-25T14:03:48Z</time>
      </trkpt>
      <trkpt lat="49.85756" lon="2.2656">
        <ele>105.9</ele>
        <time>2023-11-25T14:03:50Z</time>
      </trkpt>
      <trkpt lat="49.85756" lon="2.2656">
        <ele>105.9</ele>
        <time>2023-11-25T14:03:51Z</time>
      </trkpt>
      <trkpt lat="49.85756" lon="2.2656">
        <ele>105.9</ele>
        <time>2023-11-25T14:03:52Z</time>
      </trkpt>
      <trkpt lat="49.85756" lon="2.2656">
        <ele>105.9</ele>
        <time>2023-11-25T14:03:54Z</time>
      </trkpt>
      <trkpt lat="49.85756" lon="2.2656">
        <ele>105.9</ele>
        <time>2023-11-25T14:03:55Z</time>
      </trkpt>
      <trkpt lat="49.85756" lon="2.2656">
        <ele>105.9</ele>
        <time>2023-11-25T14:03:56Z</time>
      </trkpt>
      <trkpt lat="49.85756" lon="2.2656">
        <ele>105.9</ele>
        <time>2023-11-25T14:03:57Z</time>
      </trkpt>
      <trkpt lat="49.85756" lon="2.26561">
        <ele>105.9</ele>
        <time>2023-11-25T14:03:58Z</time>
      </trkpt>
      <trkpt lat="49.85756" lon="2.26563">
        <ele>106</ele>
        <time>2023-11-25T14:03:59Z</time>
      </trkpt>
      <trkpt lat="49.85755" lon="2.26565">
        <ele>106</ele>
        <time>2023-11-25T14:04:01Z</time>
      </trkpt>
      <trkpt lat="49.85755" lon="2.26567">
        <ele>106</ele>
        <time>2023-11-25T14:04:02Z</time>
      </trkpt>
      <trkpt lat="49.85755" lon="2.26569">
        <ele>106.1</ele>
        <time>2023-11-25T14:04:03Z</time>
      </trkpt>
      <trkpt lat="49.85755" lon="2.26571">
        <ele>106.1</ele>
        <time>2023-11-25T14:04:05Z</time>
      </trkpt>
      <trkpt lat="49.85754" lon="2.26573">
        <ele>106.1</ele>
        <time>2023-11-25T14:04:06Z</time>
      </trkpt>
      <trkpt lat="49.85754" lon="2.26575">
        <ele>106.2</ele>
        <time>2023-11-25T14:04:07Z</time>
      </trkpt>
      <trkpt lat="49.85754" lon="2.26576">
        <ele>106.2</ele>
        <time>2023-11-25T14:04:08Z</time>
      </trkpt>
      <trkpt lat="49.85754" lon="2.26578">
        <ele>106.2</ele>
        <time>2023-11-25T14:04:09Z</time>
      </trkpt>
      <trkpt lat="49.85754" lon="2.26579">
        <ele>106.2</ele>
        <time>2023-11-25T14:04:11Z</time>
      </trkpt>
      <trkpt lat="49.85753" lon="2.26581">
        <ele>106.3</ele>
        <time>2023-11-25T14:04:12Z</time>
      </trkpt>
      <trkpt lat="49.85753" lon="2.26583">
        <ele>106.3</ele>
        <time>2023-11-25T14:04:13Z</time>
      </trkpt>
      <trkpt lat="49.85753" lon="2.26584">
        <ele>106.3</ele>
        <time>2023-11-25T14:04:14Z</time>
      </trkpt>
      <trkpt lat="49.85753" lon="2.26585">
        <ele>106.3</ele>
        <time>2023-11-25T14:04:15Z</time>
      </trkpt>
      <trkpt lat="49.85752" lon="2.26587">
        <ele>106.4</ele>
        <time>2023-11-25T14:04:16Z</time>
      </trkpt>
      <trkpt lat="49.85752" lon="2.2659">
        <ele>106.4</ele>
        <time>2023-11-25T14:04:18Z</time>
      </trkpt>
      <trkpt lat="49.85752" lon="2.26592">
        <ele>106.4</ele>
        <time>2023-11-25T14:04:20Z</time>
      </trkpt>
      <trkpt lat="49.85752" lon="2.26593">
        <ele>106.5</ele>
        <time>2023-11-25T14:04:21Z</time>
      </trkpt>
      <trkpt lat="49.85752" lon="2.26595">
        <ele>106.5</ele>
        <time>2023-11-25T14:04:22Z</time>
      </trkpt>
      <trkpt lat="49.85752" lon="2.26596">
        <ele>106.5</ele>
        <time>2023-11-25T14:04:23Z</time>
      </trkpt>
      <trkpt lat="49.85752" lon="2.26598">
        <ele>106.5</ele>
        <time>2023-11-25T14:04:24Z</time>
      </trkpt>
      <trkpt lat="49.85752" lon="2.26599">
        <ele>106.5</ele>
        <time>2023-11-25T14:04:26Z</time>
      </trkpt>
      <trkpt lat="49.85752" lon="2.26601">
        <ele>106.6</ele>
        <time>2023-11-25T14:04:27Z</time>
      </trkpt>
      <trkpt lat="49.85752" lon="2.26602">
        <ele>106.6</ele>
        <time>2023-11-25T14:04:28Z</time>
      </trkpt>
      <trkpt lat="49.85752" lon="2.26603">
        <ele>106.6</ele>
        <time>2023-11-25T14:04:29Z</time>
      </trkpt>
      <trkpt lat="49.85752" lon="2.26604">
        <ele>106.6</ele>
        <time>2023-11-25T14:04:30Z</time>
      </trkpt>
      <trkpt lat="49.85752" lon="2.26606">
        <ele>106.6</ele>
        <time>2023-11-25T14:04:32Z</time>
      </trkpt>
      <trkpt lat="49.85752" lon="2.26607">
        <ele>106.6</ele>
        <time>2023-11-25T14:04:33Z</time>
      </trkpt>
      <trkpt lat="49.85752" lon="2.26609">
        <ele>106.7</ele>
        <time>2023-11-25T14:04:34Z</time>
      </trkpt>
      <trkpt lat="49.85752" lon="2.26609">
        <ele>106.7</ele>
        <time>2023-11-25T14:04:35Z</time>
      </trkpt>
      <trkpt lat="49.85752" lon="2.2661">
        <ele>106.7</ele>
        <time>2023-11-25T14:04:36Z</time>
      </trkpt>
      <trkpt lat="49.85752" lon="2.26611">
        <ele>106.7</ele>
        <time>2023-11-25T14:04:38Z</time>
      </trkpt>
      <trkpt lat="49.85752" lon="2.26611">
        <ele>106.7</ele>
        <time>2023-11-25T14:04:39Z</time>
      </trkpt>
      <trkpt lat="49.85752" lon="2.26611">
        <ele>106.7</ele>
        <time>2023-11-25T14:04:40Z</time>
      </trkpt>
      <trkpt lat="49.85751" lon="2.2661">
        <ele>106.7</ele>
        <time>2023-11-25T14:04:42Z</time>
      </trkpt>
      <trkpt lat="49.85751" lon="2.2661">
        <ele>106.7</ele>
        <time>2023-11-25T14:04:43Z</time>
      </trkpt>
      <trkpt lat="49.85751" lon="2.2661">
        <ele>106.7</ele>
        <time>2023-11-25T14:04:45Z</time>
      </trkpt>
      <trkpt lat="49.85751" lon="2.2661">
        <ele>106.7</ele>
        <time>2023-11-25T14:04:46Z</time>
      </trkpt>
      <trkpt lat="49.85751" lon="2.2661">
        <ele>106.7</ele>
        <time>2023-11-25T14:04:48Z</time>
      </trkpt>
      <trkpt lat="49.85751" lon="2.2661">
        <ele>106.7</ele>
        <time>2023-11-25T14:04:49Z</time>
      </trkpt>
      <trkpt lat="49.85751" lon="2.26609">
        <ele>106.7</ele>
        <time>2023-11-25T14:04:51Z</time>
      </trkpt>
      <trkpt lat="49.85751" lon="2.26609">
        <ele>106.7</ele>
        <time>2023-11-25T14:04:52Z</time>
      </trkpt>
      <trkpt lat="49.85751" lon="2.26608">
        <ele>106.7</ele>
        <time>2023-11-25T14:04:53Z</time>
      </trkpt>
      <trkpt lat="49.85751" lon="2.26607">
        <ele>106.7</ele>
        <time>2023-11-25T14:04:54Z</time>
      </trkpt>
      <trkpt lat="49.85751" lon="2.26607">
        <ele>106.7</ele>
        <time>2023-11-25T14:04:55Z</time>
      </trkpt>
      <trkpt lat="49.85751" lon="2.26607">
        <ele>106.7</ele>
        <time>2023-11-25T14:04:56Z</time>
      </trkpt>
      <trkpt lat="49.85751" lon="2.26607">
        <ele>106.7</ele>
        <time>2023-11-25T14:04:57Z</time>
      </trkpt>
      <trkpt lat="49.85751" lon="2.26607">
        <ele>106.7</ele>
        <time>2023-11-25T14:04:58Z</time>
      </trkpt>
      <trkpt lat="49.85751" lon="2.26607">
        <ele>106.7</ele>
        <time>2023-11-25T14:04:59Z</time>
      </trkpt>
      <trkpt lat="49.85751" lon="2.26607">
        <ele>106.7</ele>
        <time>2023-11-25T14:05:00Z</time>
      </trkpt>
      <trkpt lat="49.85751" lon="2.26607">
        <ele>106.7</ele>
        <time>2023-11-25T14:05:01Z</time>
      </trkpt>
      <trkpt lat="49.8575" lon="2.26614">
        <ele>106.8</ele>
        <time>2023-11-25T14:05:27Z</time>
      </trkpt>
      <trkpt lat="49.8575" lon="2.26615">
        <ele>106.8</ele>
        <time>2023-11-25T14:05:28Z</time>
      </trkpt>
      <trkpt lat="49.85749" lon="2.26619">
        <ele>106.9</ele>
        <time>2023-11-25T14:05:30Z</time>
      </trkpt>
      <trkpt lat="49.85749" lon="2.2662">
        <ele>106.9</ele>
        <time>2023-11-25T14:05:31Z</time>
      </trkpt>
      <trkpt lat="49.85748" lon="2.26622">
        <ele>106.9</ele>
        <time>2023-11-25T14:05:32Z</time>
      </trkpt>
      <trkpt lat="49.85748" lon="2.26624">
        <ele>106.9</ele>
        <time>2023-11-25T14:05:33Z</time>
      </trkpt>
      <trkpt lat="49.85748" lon="2.26626">
        <ele>107</ele>
        <time>2023-11-25T14:05:34Z</time>
      </trkpt>
      <trkpt lat="49.85748" lon="2.26628">
        <ele>107</ele>
        <time>2023-11-25T14:05:36Z</time>
      </trkpt>
      <trkpt lat="49.85748" lon="2.2663">
        <ele>107</ele>
        <time>2023-11-25T14:05:37Z</time>
      </trkpt>
      <trkpt lat="49.85747" lon="2.26632">
        <ele>107</ele>
        <time>2023-11-25T14:05:38Z</time>
      </trkpt>
      <trkpt lat="49.85747" lon="2.26636">
        <ele>107</ele>
        <time>2023-11-25T14:05:39Z</time>
      </trkpt>
      <trkpt lat="49.85747" lon="2.26637">
        <ele>107</ele>
        <time>2023-11-25T14:05:40Z</time>
      </trkpt>
      <trkpt lat="49.85747" lon="2.26638">
        <ele>107</ele>
        <time>2023-11-25T14:05:41Z</time>
      </trkpt>
      <trkpt lat="49.85746" lon="2.2664">
        <ele>107.1</ele>
        <time>2023-11-25T14:05:43Z</time>
      </trkpt>
      <trkpt lat="49.85746" lon="2.26642">
        <ele>107.1</ele>
        <time>2023-11-25T14:05:44Z</time>
      </trkpt>
      <trkpt lat="49.85745" lon="2.26645">
        <ele>107.1</ele>
        <time>2023-11-25T14:05:45Z</time>
      </trkpt>
      <trkpt lat="49.85745" lon="2.26647">
        <ele>107.1</ele>
        <time>2023-11-25T14:05:46Z</time>
      </trkpt>
      <trkpt lat="49.85744" lon="2.26648">
        <ele>107.1</ele>
        <time>2023-11-25T14:05:47Z</time>
      </trkpt>
      <trkpt lat="49.85744" lon="2.26651">
        <ele>107.1</ele>
        <time>2023-11-25T14:05:49Z</time>
      </trkpt>
      <trkpt lat="49.85743" lon="2.26653">
        <ele>107.1</ele>
        <time>2023-11-25T14:05:50Z</time>
      </trkpt>
      <trkpt lat="49.85743" lon="2.26654">
        <ele>107.1</ele>
        <time>2023-11-25T14:05:51Z</time>
      </trkpt>
      <trkpt lat="49.85742" lon="2.26656">
        <ele>107.1</ele>
        <time>2023-11-25T14:05:53Z</time>
      </trkpt>
      <trkpt lat="49.85742" lon="2.26657">
        <ele>107.2</ele>
        <time>2023-11-25T14:05:54Z</time>
      </trkpt>
      <trkpt lat="49.85742" lon="2.2666">
        <ele>107.2</ele>
        <time>2023-11-25T14:05:55Z</time>
      </trkpt>
      <trkpt lat="49.85741" lon="2.26662">
        <ele>107.2</ele>
        <time>2023-11-25T14:05:56Z</time>
      </trkpt>
      <trkpt lat="49.85741" lon="2.26665">
        <ele>107.2</ele>
        <time>2023-11-25T14:05:57Z</time>
      </trkpt>
      <trkpt lat="49.8574" lon="2.26666">
        <ele>107.2</ele>
        <time>2023-11-25T14:05:59Z</time>
      </trkpt>
      <trkpt lat="49.8574" lon="2.26668">
        <ele>107.2</ele>
        <time>2023-11-25T14:06:00Z</time>
      </trkpt>
      <trkpt lat="49.8574" lon="2.26669">
        <ele>107.2</ele>
        <time>2023-11-25T14:06:01Z</time>
      </trkpt>
      <trkpt lat="49.8574" lon="2.26671">
        <ele>107.2</ele>
        <time>2023-11-25T14:06:02Z</time>
      </trkpt>
      <trkpt lat="49.85739" lon="2.26673">
        <ele>107.2</ele>
        <time>2023-11-25T14:06:03Z</time>
      </trkpt>
      <trkpt lat="49.85739" lon="2.26674">
        <ele>107.2</ele>
        <time>2023-11-25T14:06:04Z</time>
      </trkpt>
      <trkpt lat="49.85739" lon="2.26676">
        <ele>107.2</ele>
        <time>2023-11-25T14:06:06Z</time>
      </trkpt>
      <trkpt lat="49.85739" lon="2.26678">
        <ele>107.2</ele>
        <time>2023-11-25T14:06:07Z</time>
      </trkpt>
      <trkpt lat="49.85739" lon="2.2668">
        <ele>107.2</ele>
        <time>2023-11-25T14:06:08Z</time>
      </trkpt>
      <trkpt lat="49.85738" lon="2.26681">
        <ele>107.2</ele>
        <time>2023-11-25T14:06:09Z</time>
      </trkpt>
      <trkpt lat="49.85738" lon="2.26683">
        <ele>107.2</ele>
        <time>2023-11-25T14:06:10Z</time>
      </trkpt>
      <trkpt lat="49.85738" lon="2.26685">
        <ele>107.2</ele>
        <time>2023-11-25T14:06:12Z</time>
      </trkpt>
      <trkpt lat="49.85738" lon="2.26687">
        <ele>107.2</ele>
        <time>2023-11-25T14:06:13Z</time>
      </trkpt>
      <trkpt lat="49.85738" lon="2.26687">
        <ele>107.2</ele>
        <time>2023-11-25T14:06:14Z</time>
      </trkpt>
      <trkpt lat="49.85737" lon="2.2669">
        <ele>107.2</ele>
        <time>2023-11-25T14:06:15Z</time>
      </trkpt>
      <trkpt lat="49.85737" lon="2.26691">
        <ele>107.2</ele>
        <time>2023-11-25T14:06:16Z</time>
      </trkpt>
      <trkpt lat="49.85737" lon="2.26693">
        <ele>107.3</ele>
        <time>2023-11-25T14:06:17Z</time>
      </trkpt>
      <trkpt lat="49.85736" lon="2.26694">
        <ele>107.3</ele>
        <time>2023-11-25T14:06:18Z</time>
      </trkpt>
      <trkpt lat="49.85736" lon="2.26697">
        <ele>107.3</ele>
        <time>2023-11-25T14:06:20Z</time>
      </trkpt>
      <trkpt lat="49.85736" lon="2.26699">
        <ele>107.3</ele>
        <time>2023-11-25T14:06:21Z</time>
      </trkpt>
      <trkpt lat="49.85736" lon="2.267">
        <ele>107.3</ele>
        <time>2023-11-25T14:06:22Z</time>
      </trkpt>
      <trkpt lat="49.85735" lon="2.26701">
        <ele>107.3</ele>
        <time>2023-11-25T14:06:24Z</time>
      </trkpt>
      <trkpt lat="49.85735" lon="2.26703">
        <ele>107.3</ele>
        <time>2023-11-25T14:06:25Z</time>
      </trkpt>
      <trkpt lat="49.85735" lon="2.26705">
        <ele>107.3</ele>
        <time>2023-11-25T14:06:26Z</time>
      </trkpt>
      <trkpt lat="49.85734" lon="2.26707">
        <ele>107.3</ele>
        <time>2023-11-25T14:06:27Z</time>
      </trkpt>
      <trkpt lat="49.85734" lon="2.26708">
        <ele>107.3</ele>
        <time>2023-11-25T14:06:28Z</time>
      </trkpt>
      <trkpt lat="49.85734" lon="2.2671">
        <ele>107.3</ele>
        <time>2023-11-25T14:06:30Z</time>
      </trkpt>
      <trkpt lat="49.85734" lon="2.26712">
        <ele>107.3</ele>
        <time>2023-11-25T14:06:31Z</time>
      </trkpt>
      <trkpt lat="49.85733" lon="2.26714">
        <ele>107.3</ele>
        <time>2023-11-25T14:06:32Z</time>
      </trkpt>
      <trkpt lat="49.85733" lon="2.26714">
        <ele>107.3</ele>
        <time>2023-11-25T14:06:33Z</time>
      </trkpt>
      <trkpt lat="49.85733" lon="2.26714">
        <ele>107.3</ele>
        <time>2023-11-25T14:06:34Z</time>
      </trkpt>
      <trkpt lat="49.85733" lon="2.26715">
        <ele>107.3</ele>
        <time>2023-11-25T14:06:35Z</time>
      </trkpt>
      <trkpt lat="49.85732" lon="2.26715">
        <ele>107.3</ele>
        <time>2023-11-25T14:06:37Z</time>
      </trkpt>
      <trkpt lat="49.85732" lon="2.26715">
        <ele>107.3</ele>
        <time>2023-11-25T14:06:38Z</time>
      </trkpt>
      <trkpt lat="49.85732" lon="2.26715">
        <ele>107.3</ele>
        <time>2023-11-25T14:06:40Z</time>
      </trkpt>
      <trkpt lat="49.85732" lon="2.26716">
        <ele>107.3</ele>
        <time>2023-11-25T14:06:41Z</time>
      </trkpt>
      <trkpt lat="49.85732" lon="2.26716">
        <ele>107.3</ele>
        <time>2023-11-25T14:06:42Z</time>
      </trkpt>
      <trkpt lat="49.85732" lon="2.26716">
        <ele>107.3</ele>
        <time>2023-11-25T14:06:43Z</time>
      </trkpt>
      <trkpt lat="49.85731" lon="2.26717">
        <ele>107.3</ele>
        <time>2023-11-25T14:06:44Z</time>
      </trkpt>
      <trkpt lat="49.85731" lon="2.26717">
        <ele>107.3</ele>
        <time>2023-11-25T14:06:45Z</time>
      </trkpt>
      <trkpt lat="49.85731" lon="2.26717">
        <ele>107.3</ele>
        <time>2023-11-25T14:06:46Z</time>
      </trkpt>
      <trkpt lat="49.85731" lon="2.26719">
        <ele>107.3</ele>
        <time>2023-11-25T14:06:48Z</time>
      </trkpt>
      <trkpt lat="49.85731" lon="2.26721">
        <ele>107.3</ele>
        <time>2023-11-25T14:06:49Z</time>
      </trkpt>
      <trkpt lat="49.85731" lon="2.26723">
        <ele>107.3</ele>
        <time>2023-11-25T14:06:50Z</time>
      </trkpt>
      <trkpt lat="49.85731" lon="2.26724">
        <ele>107.4</ele>
        <time>2023-11-25T14:06:51Z</time>
      </trkpt>
      <trkpt lat="49.85731" lon="2.26726">
        <ele>107.4</ele>
        <time>2023-11-25T14:06:52Z</time>
      </trkpt>
      <trkpt lat="49.85731" lon="2.26728">
        <ele>107.4</ele>
        <time>2023-11-25T14:06:53Z</time>
      </trkpt>
      <trkpt lat="49.85732" lon="2.2673">
        <ele>107.4</ele>
        <time>2023-11-25T14:06:54Z</time>
      </trkpt>
      <trkpt lat="49.85731" lon="2.26731">
        <ele>107.4</ele>
        <time>2023-11-25T14:06:56Z</time>
      </trkpt>
      <trkpt lat="49.85731" lon="2.26733">
        <ele>107.4</ele>
        <time>2023-11-25T14:06:57Z</time>
      </trkpt>
      <trkpt lat="49.85731" lon="2.26734">
        <ele>107.4</ele>
        <time>2023-11-25T14:06:58Z</time>
      </trkpt>
      <trkpt lat="49.8573" lon="2.26736">
        <ele>107.4</ele>
        <time>2023-11-25T14:06:59Z</time>
      </trkpt>
      <trkpt lat="49.85729" lon="2.26738">
        <ele>107.4</ele>
        <time>2023-11-25T14:07:00Z</time>
      </trkpt>
      <trkpt lat="49.85728" lon="2.2674">
        <ele>107.4</ele>
        <time>2023-11-25T14:07:01Z</time>
      </trkpt>
      <trkpt lat="49.85728" lon="2.26741">
        <ele>107.4</ele>
        <time>2023-11-25T14:07:03Z</time>
      </trkpt>
      <trkpt lat="49.85728" lon="2.26743">
        <ele>107.5</ele>
        <time>2023-11-25T14:07:04Z</time>
      </trkpt>
      <trkpt lat="49.85726" lon="2.26745">
        <ele>107.5</ele>
        <time>2023-11-25T14:07:05Z</time>
      </trkpt>
      <trkpt lat="49.85726" lon="2.26746">
        <ele>107.5</ele>
        <time>2023-11-25T14:07:07Z</time>
      </trkpt>
      <trkpt lat="49.85725" lon="2.26747">
        <ele>107.5</ele>
        <time>2023-11-25T14:07:08Z</time>
      </trkpt>
      <trkpt lat="49.85725" lon="2.26748">
        <ele>107.5</ele>
        <time>2023-11-25T14:07:09Z</time>
      </trkpt>
      <trkpt lat="49.85723" lon="2.26748">
        <ele>107.6</ele>
        <time>2023-11-25T14:07:11Z</time>
      </trkpt>
      <trkpt lat="49.85723" lon="2.26747">
        <ele>107.6</ele>
        <time>2023-11-25T14:07:12Z</time>
      </trkpt>
      <trkpt lat="49.85723" lon="2.26746">
        <ele>107.6</ele>
        <time>2023-11-25T14:07:13Z</time>
      </trkpt>
      <trkpt lat="49.85723" lon="2.26746">
        <ele>107.6</ele>
        <time>2023-11-25T14:07:15Z</time>
      </trkpt>
      <trkpt lat="49.85723" lon="2.26746">
        <ele>107.6</ele>
        <time>2023-11-25T14:07:16Z</time>
      </trkpt>
      <trkpt lat="49.85723" lon="2.26745">
        <ele>107.6</ele>
        <time>2023-11-25T14:07:18Z</time>
      </trkpt>
      <trkpt lat="49.85723" lon="2.26745">
        <ele>107.6</ele>
        <time>2023-11-25T14:07:19Z</time>
      </trkpt>
      <trkpt lat="49.85723" lon="2.26745">
        <ele>107.6</ele>
        <time>2023-11-25T14:07:20Z</time>
      </trkpt>
      <trkpt lat="49.85723" lon="2.26745">
        <ele>107.6</ele>
        <time>2023-11-25T14:07:22Z</time>
      </trkpt>
      <trkpt lat="49.85723" lon="2.26744">
        <ele>107.6</ele>
        <time>2023-11-25T14:07:23Z</time>
      </trkpt>
      <trkpt lat="49.85723" lon="2.26744">
        <ele>107.6</ele>
        <time>2023-11-25T14:07:25Z</time>
      </trkpt>
      <trkpt lat="49.85723" lon="2.26743">
        <ele>107.6</ele>
        <time>2023-11-25T14:07:27Z</time>
      </trkpt>
      <trkpt lat="49.85721" lon="2.26749">
        <ele>107.7</ele>
        <time>2023-11-25T14:08:00Z</time>
      </trkpt>
      <trkpt lat="49.85721" lon="2.26749">
        <ele>107.7</ele>
        <time>2023-11-25T14:08:01Z</time>
      </trkpt>
      <trkpt lat="49.8572" lon="2.26749">
        <ele>107.7</ele>
        <time>2023-11-25T14:08:02Z</time>
      </trkpt>
      <trkpt lat="49.8572" lon="2.26749">
        <ele>107.7</ele>
        <time>2023-11-25T14:08:03Z</time>
      </trkpt>
      <trkpt lat="49.8572" lon="2.26749">
        <ele>107.7</ele>
        <time>2023-11-25T14:08:04Z</time>
      </trkpt>
      <trkpt lat="49.8572" lon="2.26749">
        <ele>107.7</ele>
        <time>2023-11-25T14:08:05Z</time>
      </trkpt>
      <trkpt lat="49.8572" lon="2.26749">
        <ele>107.7</ele>
        <time>2023-11-25T14:08:06Z</time>
      </trkpt>
      <trkpt lat="49.8572" lon="2.26749">
        <ele>107.7</ele>
        <time>2023-11-25T14:08:07Z</time>
      </trkpt>
      <trkpt lat="49.8572" lon="2.26749">
        <ele>107.7</ele>
        <time>2023-11-25T14:08:08Z</time>
      </trkpt>
      <trkpt lat="49.8572" lon="2.26749">
        <ele>107.7</ele>
        <time>2023-11-25T14:08:09Z</time>
      </trkpt>
      <trkpt lat="49.8572" lon="2.26749">
        <ele>107.7</ele>
        <time>2023-11-25T14:08:10Z</time>
      </trkpt>
      <trkpt lat="49.8572" lon="2.26749">
        <ele>107.7</ele>
        <time>2023-11-25T14:08:11Z</time>
      </trkpt>
      <trkpt lat="49.8572" lon="2.26749">
        <ele>107.7</ele>
        <time>2023-11-25T14:08:12Z</time>
      </trkpt>
      <trkpt lat="49.8572" lon="2.26749">
        <ele>107.7</ele>
        <time>2023-11-25T14:08:13Z</time>
      </trkpt>
      <trkpt lat="49.8572" lon="2.26749">
        <ele>107.7</ele>
        <time>2023-11-25T14:08:14Z</time>
      </trkpt>
      <trkpt lat="49.85718" lon="2.2675">
        <ele>107.7</ele>
        <time>2023-11-25T14:14:29Z</time>
      </trkpt>
      <trkpt lat="49.85717" lon="2.2675">
        <ele>107.7</ele>
        <time>2023-11-25T14:14:30Z</time>
      </trkpt>
      <trkpt lat="49.85716" lon="2.2675">
        <ele>107.8</ele>
        <time>2023-11-25T14:14:31Z</time>
      </trkpt>
      <trkpt lat="49.85715" lon="2.2675">
        <ele>107.8</ele>
        <time>2023-11-25T14:14:32Z</time>
      </trkpt>
      <trkpt lat="49.85714" lon="2.26751">
        <ele>107.8</ele>
        <time>2023-11-25T14:14:33Z</time>
      </trkpt>
      <trkpt lat="49.85713" lon="2.26751">
        <ele>107.8</ele>
        <time>2023-11-25T14:14:35Z</time>
      </trkpt>
      <trkpt lat="49.85712" lon="2.26751">
        <ele>107.8</ele>
        <time>2023-11-25T14:14:36Z</time>
      </trkpt>
      <trkpt lat="49.8571" lon="2.26751">
        <ele>107.8</ele>
        <time>2023-11-25T14:14:37Z</time>
      </trkpt>
      <trkpt lat="49.85709" lon="2.26751">
        <ele>107.8</ele>
        <time>2023-11-25T14:14:38Z</time>
      </trkpt>
      <trkpt lat="49.85707" lon="2.2675">
        <ele>107.8</ele>
        <time>2023-11-25T14:14:39Z</time>
      </trkpt>
      <trkpt lat="49.85706" lon="2.2675">
        <ele>107.8</ele>
        <time>2023-11-25T14:14:41Z</time>
      </trkpt>
      <trkpt lat="49.85705" lon="2.26749">
        <ele>107.8</ele>
        <time>2023-11-25T14:14:42Z</time>
      </trkpt>
      <trkpt lat="49.85704" lon="2.26749">
        <ele>107.8</ele>
        <time>2023-11-25T14:14:43Z</time>
      </trkpt>
      <trkpt lat="49.85703" lon="2.26749">
        <ele>107.9</ele>
        <time>2023-11-25T14:14:44Z</time>
      </trkpt>
      <trkpt lat="49.85702" lon="2.26748">
        <ele>107.9</ele>
        <time>2023-11-25T14:14:45Z</time>
      </trkpt>
      <trkpt lat="49.85701" lon="2.26748">
        <ele>107.9</ele>
        <time>2023-11-25T14:14:46Z</time>
      </trkpt>
      <trkpt lat="49.857" lon="2.26747">
        <ele>107.9</ele>
        <time>2023-11-25T14:14:47Z</time>
      </trkpt>
      <trkpt lat="49.85699" lon="2.26747">
        <ele>107.9</ele>
        <time>2023-11-25T14:14:48Z</time>
      </trkpt>
      <trkpt lat="49.85697" lon="2.26745">
        <ele>107.9</ele>
        <time>2023-11-25T14:14:50Z</time>
      </trkpt>
      <trkpt lat="49.85696" lon="2.26745">
        <ele>107.9</ele>
        <time>2023-11-25T14:14:51Z</time>
      </trkpt>
      <trkpt lat="49.85695" lon="2.26744">
        <ele>107.9</ele>
        <time>2023-11-25T14:14:52Z</time>
      </trkpt>
      <trkpt lat="49.85693" lon="2.26743">
        <ele>107.9</ele>
        <time>2023-11-25T14:14:53Z</time>
      </trkpt>
      <trkpt lat="49.85692" lon="2.26742">
        <ele>107.9</ele>
        <time>2023-11-25T14:14:54Z</time>
      </trkpt>
      <trkpt lat="49.8569" lon="2.26741">
        <ele>107.9</ele>
        <time>2023-11-25T14:14:55Z</time>
      </trkpt>
      <trkpt lat="49.85689" lon="2.26741">
        <ele>107.9</ele>
        <time>2023-11-25T14:14:57Z</time>
      </trkpt>
      <trkpt lat="49.85687" lon="2.26741">
        <ele>107.9</ele>
        <time>2023-11-25T14:14:58Z</time>
      </trkpt>
      <trkpt lat="49.85686" lon="2.26741">
        <ele>107.9</ele>
        <time>2023-11-25T14:14:59Z</time>
      </trkpt>
      <trkpt lat="49.85685" lon="2.26741">
        <ele>107.9</ele>
        <time>2023-11-25T14:15:00Z</time>
      </trkpt>
      <trkpt lat="49.85683" lon="2.26741">
        <ele>107.9</ele>
        <time>2023-11-25T14:15:01Z</time>
      </trkpt>
      <trkpt lat="49.85682" lon="2.2674">
        <ele>107.9</ele>
        <time>2023-11-25T14:15:03Z</time>
      </trkpt>
      <trkpt lat="49.8568" lon="2.2674">
        <ele>107.9</ele>
        <time>2023-11-25T14:15:04Z</time>
      </trkpt>
      <trkpt lat="49.85679" lon="2.2674">
        <ele>107.9</ele>
        <time>2023-11-25T14:15:05Z</time>
      </trkpt>
      <trkpt lat="49.85678" lon="2.26739">
        <ele>107.9</ele>
        <time>2023-11-25T14:15:06Z</time>
      </trkpt>
      <trkpt lat="49.85677" lon="2.2674">
        <ele>107.9</ele>
        <time>2023-11-25T14:15:07Z</time>
      </trkpt>
      <trkpt lat="49.85676" lon="2.2674">
        <ele>107.9</ele>
        <time>2023-11-25T14:15:08Z</time>
      </trkpt>
      <trkpt lat="49.85675" lon="2.2674">
        <ele>107.8</ele>
        <time>2023-11-25T14:15:10Z</time>
      </trkpt>
      <trkpt lat="49.85675" lon="2.2674">
        <ele>107.8</ele>
        <time>2023-11-25T14:15:11Z</time>
      </trkpt>
      <trkpt lat="49.85674" lon="2.26739">
        <ele>107.8</ele>
        <time>2023-11-25T14:15:12Z</time>
      </trkpt>
      <trkpt lat="49.85673" lon="2.26738">
        <ele>107.8</ele>
        <time>2023-11-25T14:15:13Z</time>
      </trkpt>
      <trkpt lat="49.85672" lon="2.26737">
        <ele>107.8</ele>
        <time>2023-11-25T14:15:14Z</time>
      </trkpt>
      <trkpt lat="49.85671" lon="2.26737">
        <ele>107.8</ele>
        <time>2023-11-25T14:15:15Z</time>
      </trkpt>
      <trkpt lat="49.8567" lon="2.26736">
        <ele>107.8</ele>
        <time>2023-11-25T14:15:17Z</time>
      </trkpt>
      <trkpt lat="49.85669" lon="2.26735">
        <ele>107.8</ele>
        <time>2023-11-25T14:15:18Z</time>
      </trkpt>
      <trkpt lat="49.85667" lon="2.26735">
        <ele>107.8</ele>
        <time>2023-11-25T14:15:19Z</time>
      </trkpt>
      <trkpt lat="49.85666" lon="2.26734">
        <ele>107.8</ele>
        <time>2023-11-25T14:15:20Z</time>
      </trkpt>
      <trkpt lat="49.85665" lon="2.26734">
        <ele>107.8</ele>
        <time>2023-11-25T14:15:21Z</time>
      </trkpt>
      <trkpt lat="49.85664" lon="2.26734">
        <ele>107.8</ele>
        <time>2023-11-25T14:15:22Z</time>
      </trkpt>
      <trkpt lat="49.85663" lon="2.26733">
        <ele>107.8</ele>
        <time>2023-11-25T14:15:24Z</time>
      </trkpt>
      <trkpt lat="49.85662" lon="2.26732">
        <ele>107.8</ele>
        <time>2023-11-25T14:15:25Z</time>
      </trkpt>
      <trkpt lat="49.8566" lon="2.26731">
        <ele>107.8</ele>
        <time>2023-11-25T14:15:26Z</time>
      </trkpt>
      <trkpt lat="49.85659" lon="2.26731">
        <ele>107.8</ele>
        <time>2023-11-25T14:15:27Z</time>
      </trkpt>
      <trkpt lat="49.85658" lon="2.26731">
        <ele>107.8</ele>
        <time>2023-11-25T14:15:28Z</time>
      </trkpt>
      <trkpt lat="49.85656" lon="2.2673">
        <ele>107.8</ele>
        <time>2023-11-25T14:15:29Z</time>
      </trkpt>
      <trkpt lat="49.85656" lon="2.26729">
        <ele>107.8</ele>
        <time>2023-11-25T14:15:30Z</time>
      </trkpt>
      <trkpt lat="49.85655" lon="2.26729">
        <ele>107.8</ele>
        <time>2023-11-25T14:15:32Z</time>
      </trkpt>
      <trkpt lat="49.85654" lon="2.26728">
        <ele>107.8</ele>
        <time>2023-11-25T14:15:33Z</time>
      </trkpt>
      <trkpt lat="49.85653" lon="2.26728">
        <ele>107.8</ele>
        <time>2023-11-25T14:15:34Z</time>
      </trkpt>
      <trkpt lat="49.85652" lon="2.26727">
        <ele>107.8</ele>
        <time>2023-11-25T14:15:35Z</time>
      </trkpt>
      <trkpt lat="49.8565" lon="2.26727">
        <ele>107.8</ele>
        <time>2023-11-25T14:15:36Z</time>
      </trkpt>
      <trkpt lat="49.85649" lon="2.26726">
        <ele>107.8</ele>
        <time>2023-11-25T14:15:37Z</time>
      </trkpt>
      <trkpt lat="49.85648" lon="2.26726">
        <ele>107.8</ele>
        <time>2023-11-25T14:15:38Z</time>
      </trkpt>
      <trkpt lat="49.85646" lon="2.26725">
        <ele>107.8</ele>
        <time>2023-11-25T14:15:39Z</time>
      </trkpt>
      <trkpt lat="49.85645" lon="2.26724">
        <ele>107.8</ele>
        <time>2023-11-25T14:15:41Z</time>
      </trkpt>
      <trkpt lat="49.85644" lon="2.26724">
        <ele>107.8</ele>
        <time>2023-11-25T14:15:42Z</time>
      </trkpt>
      <trkpt lat="49.85642" lon="2.26723">
        <ele>107.8</ele>
        <time>2023-11-25T14:15:43Z</time>
      </trkpt>
      <trkpt lat="49.85642" lon="2.26723">
        <ele>107.8</ele>
        <time>2023-11-25T14:15:44Z</time>
      </trkpt>
      <trkpt lat="49.85641" lon="2.26722">
        <ele>107.8</ele>
        <time>2023-11-25T14:15:45Z</time>
      </trkpt>
      <trkpt lat="49.85639" lon="2.26721">
        <ele>107.8</ele>
        <time>2023-11-25T14:15:46Z</time>
      </trkpt>
      <trkpt lat="49.85638" lon="2.26721">
        <ele>107.8</ele>
        <time>2023-11-25T14:15:47Z</time>
      </trkpt>
      <trkpt lat="49.85637" lon="2.2672">
        <ele>107.8</ele>
        <time>2023-11-25T14:15:49Z</time>
      </trkpt>
      <trkpt lat="49.85636" lon="2.2672">
        <ele>107.8</ele>
        <time>2023-11-25T14:15:50Z</time>
      </trkpt>
      <trkpt lat="49.85635" lon="2.26719">
        <ele>107.8</ele>
        <time>2023-11-25T14:15:51Z</time>
      </trkpt>
      <trkpt lat="49.85634" lon="2.26719">
        <ele>107.8</ele>
        <time>2023-11-25T14:15:52Z</time>
      </trkpt>
      <trkpt lat="49.85631" lon="2.26718">
        <ele>107.8</ele>
        <time>2023-11-25T14:15:53Z</time>
      </trkpt>
      <trkpt lat="49.85631" lon="2.26718">
        <ele>107.8</ele>
        <time>2023-11-25T14:15:54Z</time>
      </trkpt>
      <trkpt lat="49.8563" lon="2.26717">
        <ele>107.8</ele>
        <time>2023-11-25T14:15:55Z</time>
      </trkpt>
      <trkpt lat="49.85628" lon="2.26717">
        <ele>107.8</ele>
        <time>2023-11-25T14:15:56Z</time>
      </trkpt>
      <trkpt lat="49.85627" lon="2.26716">
        <ele>107.8</ele>
        <time>2023-11-25T14:15:58Z</time>
      </trkpt>
      <trkpt lat="49.85626" lon="2.26716">
        <ele>107.8</ele>
        <time>2023-11-25T14:15:59Z</time>
      </trkpt>
      <trkpt lat="49.85625" lon="2.26716">
        <ele>107.8</ele>
        <time>2023-11-25T14:16:00Z</time>
      </trkpt>
      <trkpt lat="49.85623" lon="2.26716">
        <ele>107.8</ele>
        <time>2023-11-25T14:16:01Z</time>
      </trkpt>
      <trkpt lat="49.85622" lon="2.26715">
        <ele>107.8</ele>
        <time>2023-11-25T14:16:02Z</time>
      </trkpt>
      <trkpt lat="49.85621" lon="2.26715">
        <ele>107.8</ele>
        <time>2023-11-25T14:16:03Z</time>
      </trkpt>
      <trkpt lat="49.8562" lon="2.26715">
        <ele>107.8</ele>
        <time>2023-11-25T14:16:04Z</time>
      </trkpt>
      <trkpt lat="49.85618" lon="2.26714">
        <ele>107.7</ele>
        <time>2023-11-25T14:16:06Z</time>
      </trkpt>
      <trkpt lat="49.85617" lon="2.26714">
        <ele>107.7</ele>
        <time>2023-11-25T14:16:07Z</time>
      </trkpt>
      <trkpt lat="49.85616" lon="2.26713">
        <ele>107.7</ele>
        <time>2023-11-25T14:16:08Z</time>
      </trkpt>
      <trkpt lat="49.85615" lon="2.26713">
        <ele>107.7</ele>
        <time>2023-11-25T14:16:09Z</time>
      </trkpt>
      <trkpt lat="49.85614" lon="2.26712">
        <ele>107.7</ele>
        <time>2023-11-25T14:16:10Z</time>
      </trkpt>
      <trkpt lat="49.85613" lon="2.26712">
        <ele>107.7</ele>
        <time>2023-11-25T14:16:11Z</time>
      </trkpt>
      <trkpt lat="49.85612" lon="2.26711">
        <ele>107.7</ele>
        <time>2023-11-25T14:16:13Z</time>
      </trkpt>
      <trkpt lat="49.85611" lon="2.2671">
        <ele>107.7</ele>
        <time>2023-11-25T14:16:14Z</time>
      </trkpt>
      <trkpt lat="49.8561" lon="2.2671">
        <ele>107.7</ele>
        <time>2023-11-25T14:16:15Z</time>
      </trkpt>
      <trkpt lat="49.85609" lon="2.26709">
        <ele>107.7</ele>
        <time>2023-11-25T14:16:16Z</time>
      </trkpt>
      <trkpt lat="49.85608" lon="2.26709">
        <ele>107.7</ele>
        <time>2023-11-25T14:16:17Z</time>
      </trkpt>
      <trkpt lat="49.85607" lon="2.26708">
        <ele>107.7</ele>
        <time>2023-11-25T14:16:18Z</time>
      </trkpt>
      <trkpt lat="49.85606" lon="2.26708">
        <ele>107.7</ele>
        <time>2023-11-25T14:16:20Z</time>
      </trkpt>
      <trkpt lat="49.85605" lon="2.26708">
        <ele>107.7</ele>
        <time>2023-11-25T14:16:21Z</time>
      </trkpt>
      <trkpt lat="49.85604" lon="2.26707">
        <ele>107.7</ele>
        <time>2023-11-25T14:16:22Z</time>
      </trkpt>
      <trkpt lat="49.85603" lon="2.26707">
        <ele>107.7</ele>
        <time>2023-11-25T14:16:23Z</time>
      </trkpt>
      <trkpt lat="49.85602" lon="2.26706">
        <ele>107.7</ele>
        <time>2023-11-25T14:16:24Z</time>
      </trkpt>
      <trkpt lat="49.856" lon="2.26706">
        <ele>107.7</ele>
        <time>2023-11-25T14:16:26Z</time>
      </trkpt>
      <trkpt lat="49.85599" lon="2.26706">
        <ele>107.7</ele>
        <time>2023-11-25T14:16:27Z</time>
      </trkpt>
      <trkpt lat="49.85598" lon="2.26706">
        <ele>107.7</ele>
        <time>2023-11-25T14:16:28Z</time>
      </trkpt>
      <trkpt lat="49.85597" lon="2.26705">
        <ele>107.7</ele>
        <time>2023-11-25T14:16:29Z</time>
      </trkpt>
      <trkpt lat="49.85596" lon="2.26705">
        <ele>107.7</ele>
        <time>2023-11-25T14:16:30Z</time>
      </trkpt>
      <trkpt lat="49.85595" lon="2.26705">
        <ele>107.7</ele>
        <time>2023-11-25T14:16:32Z</time>
      </trkpt>
      <trkpt lat="49.85594" lon="2.26705">
        <ele>107.7</ele>
        <time>2023-11-25T14:16:33Z</time>
      </trkpt>
      <trkpt lat="49.85593" lon="2.26704">
        <ele>107.7</ele>
        <time>2023-11-25T14:16:34Z</time>
      </trkpt>
      <trkpt lat="49.85592" lon="2.26704">
        <ele>107.7</ele>
        <time>2023-11-25T14:16:35Z</time>
      </trkpt>
      <trkpt lat="49.85591" lon="2.26703">
        <ele>107.7</ele>
        <time>2023-11-25T14:16:36Z</time>
      </trkpt>
      <trkpt lat="49.85589" lon="2.26702">
        <ele>107.7</ele>
        <time>2023-11-25T14:16:37Z</time>
      </trkpt>
      <trkpt lat="49.85588" lon="2.26702">
        <ele>107.7</ele>
        <time>2023-11-25T14:16:39Z</time>
      </trkpt>
      <trkpt lat="49.85587" lon="2.26701">
        <ele>107.7</ele>
        <time>2023-11-25T14:16:40Z</time>
      </trkpt>
      <trkpt lat="49.85586" lon="2.267">
        <ele>107.7</ele>
        <time>2023-11-25T14:16:41Z</time>
      </trkpt>
      <trkpt lat="49.85585" lon="2.267">
        <ele>107.7</ele>
        <time>2023-11-25T14:16:42Z</time>
      </trkpt>
      <trkpt lat="49.85584" lon="2.26699">
        <ele>107.7</ele>
        <time>2023-11-25T14:16:43Z</time>
      </trkpt>
      <trkpt lat="49.85582" lon="2.26698">
        <ele>107.7</ele>
        <time>2023-11-25T14:16:45Z</time>
      </trkpt>
      <trkpt lat="49.85581" lon="2.26697">
        <ele>107.7</ele>
        <time>2023-11-25T14:16:46Z</time>
      </trkpt>
      <trkpt lat="49.85581" lon="2.26697">
        <ele>107.7</ele>
        <time>2023-11-25T14:16:47Z</time>
      </trkpt>
      <trkpt lat="49.85579" lon="2.26697">
        <ele>107.6</ele>
        <time>2023-11-25T14:16:48Z</time>
      </trkpt>
      <trkpt lat="49.85578" lon="2.26696">
        <ele>107.6</ele>
        <time>2023-11-25T14:16:49Z</time>
      </trkpt>
      <trkpt lat="49.85577" lon="2.26696">
        <ele>107.6</ele>
        <time>2023-11-25T14:16:50Z</time>
      </trkpt>
      <trkpt lat="49.85575" lon="2.26695">
        <ele>107.6</ele>
        <time>2023-11-25T14:16:52Z</time>
      </trkpt>
      <trkpt lat="49.85574" lon="2.26695">
        <ele>107.6</ele>
        <time>2023-11-25T14:16:53Z</time>
      </trkpt>
      <trkpt lat="49.85573" lon="2.26695">
        <ele>107.6</ele>
        <time>2023-11-25T14:16:54Z</time>
      </trkpt>
      <trkpt lat="49.85572" lon="2.26695">
        <ele>107.6</ele>
        <time>2023-11-25T14:16:55Z</time>
      </trkpt>
      <trkpt lat="49.85571" lon="2.26694">
        <ele>107.6</ele>
        <time>2023-11-25T14:16:56Z</time>
      </trkpt>
      <trkpt lat="49.8557" lon="2.26694">
        <ele>107.6</ele>
        <time>2023-11-25T14:16:57Z</time>
      </trkpt>
      <trkpt lat="49.85568" lon="2.26693">
        <ele>107.6</ele>
        <time>2023-11-25T14:16:59Z</time>
      </trkpt>
      <trkpt lat="49.85567" lon="2.26693">
        <ele>107.6</ele>
        <time>2023-11-25T14:17:00Z</time>
      </trkpt>
      <trkpt lat="49.85566" lon="2.26693">
        <ele>107.6</ele>
        <time>2023-11-25T14:17:01Z</time>
      </trkpt>
      <trkpt lat="49.85564" lon="2.26693">
        <ele>107.6</ele>
        <time>2023-11-25T14:17:02Z</time>
      </trkpt>
      <trkpt lat="49.85564" lon="2.26693">
        <ele>107.6</ele>
        <time>2023-11-25T14:17:03Z</time>
      </trkpt>
      <trkpt lat="49.85563" lon="2.26693">
        <ele>107.6</ele>
        <time>2023-11-25T14:17:04Z</time>
      </trkpt>
      <trkpt lat="49.85561" lon="2.26692">
        <ele>107.6</ele>
        <time>2023-11-25T14:17:06Z</time>
      </trkpt>
      <trkpt lat="49.8556" lon="2.26692">
        <ele>107.5</ele>
        <time>2023-11-25T14:17:07Z</time>
      </trkpt>
      <trkpt lat="49.85559" lon="2.26692">
        <ele>107.5</ele>
        <time>2023-11-25T14:17:08Z</time>
      </trkpt>
      <trkpt lat="49.85558" lon="2.26692">
        <ele>107.5</ele>
        <time>2023-11-25T14:17:09Z</time>
      </trkpt>
      <trkpt lat="49.85557" lon="2.26691">
        <ele>107.5</ele>
        <time>2023-11-25T14:17:10Z</time>
      </trkpt>
      <trkpt lat="49.85556" lon="2.26691">
        <ele>107.5</ele>
        <time>2023-11-25T14:17:11Z</time>
      </trkpt>
      <trkpt lat="49.85555" lon="2.2669">
        <ele>107.5</ele>
        <time>2023-11-25T14:17:13Z</time>
      </trkpt>
      <trkpt lat="49.85554" lon="2.2669">
        <ele>107.5</ele>
        <time>2023-11-25T14:17:14Z</time>
      </trkpt>
      <trkpt lat="49.85552" lon="2.26689">
        <ele>107.5</ele>
        <time>2023-11-25T14:17:15Z</time>
      </trkpt>
      <trkpt lat="49.85551" lon="2.26689">
        <ele>107.5</ele>
        <time>2023-11-25T14:17:16Z</time>
      </trkpt>
      <trkpt lat="49.8555" lon="2.26689">
        <ele>107.5</ele>
        <time>2023-11-25T14:17:17Z</time>
      </trkpt>
      <trkpt lat="49.85549" lon="2.26688">
        <ele>107.5</ele>
        <time>2023-11-25T14:17:18Z</time>
      </trkpt>
      <trkpt lat="49.85547" lon="2.26688">
        <ele>107.5</ele>
        <time>2023-11-25T14:17:20Z</time>
      </trkpt>
      <trkpt lat="49.85547" lon="2.26688">
        <ele>107.4</ele>
        <time>2023-11-25T14:17:21Z</time>
      </trkpt>
      <trkpt lat="49.85546" lon="2.26688">
        <ele>107.4</ele>
        <time>2023-11-25T14:17:22Z</time>
      </trkpt>
      <trkpt lat="49.85545" lon="2.26687">
        <ele>107.4</ele>
        <time>2023-11-25T14:17:23Z</time>
      </trkpt>
      <trkpt lat="49.85544" lon="2.26687">
        <ele>107.4</ele>
        <time>2023-11-25T14:17:24Z</time>
      </trkpt>
      <trkpt lat="49.85543" lon="2.26687">
        <ele>107.4</ele>
        <time>2023-11-25T14:17:25Z</time>
      </trkpt>
      <trkpt lat="49.85541" lon="2.26686">
        <ele>107.4</ele>
        <time>2023-11-25T14:17:26Z</time>
      </trkpt>
      <trkpt lat="49.8554" lon="2.26686">
        <ele>107.4</ele>
        <time>2023-11-25T14:17:28Z</time>
      </trkpt>
      <trkpt lat="49.85539" lon="2.26686">
        <ele>107.4</ele>
        <time>2023-11-25T14:17:29Z</time>
      </trkpt>
      <trkpt lat="49.85538" lon="2.26686">
        <ele>107.4</ele>
        <time>2023-11-25T14:17:30Z</time>
      </trkpt>
      <trkpt lat="49.85537" lon="2.26686">
        <ele>107.4</ele>
        <time>2023-11-25T14:17:31Z</time>
      </trkpt>
      <trkpt lat="49.85536" lon="2.26685">
        <ele>107.4</ele>
        <time>2023-11-25T14:17:32Z</time>
      </trkpt>
      <trkpt lat="49.85535" lon="2.26685">
        <ele>107.4</ele>
        <time>2023-11-25T14:17:33Z</time>
      </trkpt>
      <trkpt lat="49.85534" lon="2.26685">
        <ele>107.4</ele>
        <time>2023-11-25T14:17:35Z</time>
      </trkpt>
      <trkpt lat="49.85533" lon="2.26684">
        <ele>107.4</ele>
        <time>2023-11-25T14:17:36Z</time>
      </trkpt>
      <trkpt lat="49.85531" lon="2.26684">
        <ele>107.4</ele>
        <time>2023-11-25T14:17:37Z</time>
      </trkpt>
      <trkpt lat="49.8553" lon="2.26683">
        <ele>107.4</ele>
        <time>2023-11-25T14:17:38Z</time>
      </trkpt>
      <trkpt lat="49.85529" lon="2.26683">
        <ele>107.4</ele>
        <time>2023-11-25T14:17:39Z</time>
      </trkpt>
      <trkpt lat="49.85529" lon="2.26683">
        <ele>107.3</ele>
        <time>2023-11-25T14:17:41Z</time>
      </trkpt>
      <trkpt lat="49.85528" lon="2.26683">
        <ele>107.3</ele>
        <time>2023-11-25T14:17:42Z</time>
      </trkpt>
      <trkpt lat="49.85527" lon="2.26683">
        <ele>107.3</ele>
        <time>2023-11-25T14:17:43Z</time>
      </trkpt>
      <trkpt lat="49.85526" lon="2.26682">
        <ele>107.3</ele>
        <time>2023-11-25T14:17:44Z</time>
      </trkpt>
      <trkpt lat="49.85525" lon="2.26682">
        <ele>107.3</ele>
        <time>2023-11-25T14:17:45Z</time>
      </trkpt>
      <trkpt lat="49.85523" lon="2.26682">
        <ele>107.3</ele>
        <time>2023-11-25T14:17:46Z</time>
      </trkpt>
      <trkpt lat="49.85522" lon="2.26683">
        <ele>107.3</ele>
        <time>2023-11-25T14:17:47Z</time>
      </trkpt>
      <trkpt lat="49.85521" lon="2.26683">
        <ele>107.3</ele>
        <time>2023-11-25T14:17:48Z</time>
      </trkpt>
      <trkpt lat="49.8552" lon="2.26683">
        <ele>107.3</ele>
        <time>2023-11-25T14:17:49Z</time>
      </trkpt>
      <trkpt lat="49.85519" lon="2.26683">
        <ele>107.3</ele>
        <time>2023-11-25T14:17:51Z</time>
      </trkpt>
      <trkpt lat="49.85518" lon="2.26683">
        <ele>107.3</ele>
        <time>2023-11-25T14:17:52Z</time>
      </trkpt>
      <trkpt lat="49.85516" lon="2.26683">
        <ele>107.3</ele>
        <time>2023-11-25T14:17:53Z</time>
      </trkpt>
      <trkpt lat="49.85515" lon="2.26683">
        <ele>107.3</ele>
        <time>2023-11-25T14:17:54Z</time>
      </trkpt>
      <trkpt lat="49.85513" lon="2.26683">
        <ele>107.3</ele>
        <time>2023-11-25T14:17:55Z</time>
      </trkpt>
      <trkpt lat="49.85512" lon="2.26683">
        <ele>107.3</ele>
        <time>2023-11-25T14:17:56Z</time>
      </trkpt>
      <trkpt lat="49.85511" lon="2.26683">
        <ele>107.3</ele>
        <time>2023-11-25T14:17:58Z</time>
      </trkpt>
      <trkpt lat="49.8551" lon="2.26683">
        <ele>107.3</ele>
        <time>2023-11-25T14:17:59Z</time>
      </trkpt>
      <trkpt lat="49.85509" lon="2.26683">
        <ele>107.2</ele>
        <time>2023-11-25T14:18:00Z</time>
      </trkpt>
      <trkpt lat="49.85508" lon="2.26683">
        <ele>107.2</ele>
        <time>2023-11-25T14:18:01Z</time>
      </trkpt>
      <trkpt lat="49.85506" lon="2.26683">
        <ele>107.2</ele>
        <time>2023-11-25T14:18:02Z</time>
      </trkpt>
      <trkpt lat="49.85505" lon="2.26683">
        <ele>107.2</ele>
        <time>2023-11-25T14:18:03Z</time>
      </trkpt>
      <trkpt lat="49.85504" lon="2.26683">
        <ele>107.2</ele>
        <time>2023-11-25T14:18:05Z</time>
      </trkpt>
      <trkpt lat="49.85503" lon="2.26683">
        <ele>107.2</ele>
        <time>2023-11-25T14:18:06Z</time>
      </trkpt>
      <trkpt lat="49.85502" lon="2.26683">
        <ele>107.2</ele>
        <time>2023-11-25T14:18:07Z</time>
      </trkpt>
      <trkpt lat="49.85501" lon="2.26683">
        <ele>107.2</ele>
        <time>2023-11-25T14:18:08Z</time>
      </trkpt>
      <trkpt lat="49.855" lon="2.26683">
        <ele>107.2</ele>
        <time>2023-11-25T14:18:09Z</time>
      </trkpt>
      <trkpt lat="49.85499" lon="2.26683">
        <ele>107.2</ele>
        <time>2023-11-25T14:18:10Z</time>
      </trkpt>
      <trkpt lat="49.85498" lon="2.26683">
        <ele>107.2</ele>
        <time>2023-11-25T14:18:11Z</time>
      </trkpt>
      <trkpt lat="49.85496" lon="2.26684">
        <ele>107.2</ele>
        <time>2023-11-25T14:18:13Z</time>
      </trkpt>
      <trkpt lat="49.85495" lon="2.26685">
        <ele>107.2</ele>
        <time>2023-11-25T14:18:14Z</time>
      </trkpt>
      <trkpt lat="49.85495" lon="2.26685">
        <ele>107.2</ele>
        <time>2023-11-25T14:18:15Z</time>
      </trkpt>
      <trkpt lat="49.85494" lon="2.26685">
        <ele>107.2</ele>
        <time>2023-11-25T14:18:16Z</time>
      </trkpt>
      <trkpt lat="49.85492" lon="2.26685">
        <ele>107.1</ele>
        <time>2023-11-25T14:18:17Z</time>
      </trkpt>
      <trkpt lat="49.85491" lon="2.26686">
        <ele>107.1</ele>
        <time>2023-11-25T14:18:18Z</time>
      </trkpt>
      <trkpt lat="49.85489" lon="2.26686">
        <ele>107.1</ele>
        <time>2023-11-25T14:18:19Z</time>
      </trkpt>
      <trkpt lat="49.85488" lon="2.26686">
        <ele>107.1</ele>
        <time>2023-11-25T14:18:20Z</time>
      </trkpt>
      <trkpt lat="49.85487" lon="2.26686">
        <ele>107.1</ele>
        <time>2023-11-25T14:18:22Z</time>
      </trkpt>
      <trkpt lat="49.85486" lon="2.26686">
        <ele>107.1</ele>
        <time>2023-11-25T14:18:23Z</time>
      </trkpt>
      <trkpt lat="49.85485" lon="2.26686">
        <ele>107.1</ele>
        <time>2023-11-25T14:18:24Z</time>
      </trkpt>
      <trkpt lat="49.85484" lon="2.26686">
        <ele>107.1</ele>
        <time>2023-11-25T14:18:25Z</time>
      </trkpt>
      <trkpt lat="49.85483" lon="2.26687">
        <ele>107.1</ele>
        <time>2023-11-25T14:18:26Z</time>
      </trkpt>
      <trkpt lat="49.85483" lon="2.26687">
        <ele>107.1</ele>
        <time>2023-11-25T14:18:27Z</time>
      </trkpt>
      <trkpt lat="49.85482" lon="2.26687">
        <ele>107</ele>
        <time>2023-11-25T14:18:28Z</time>
      </trkpt>
      <trkpt lat="49.85481" lon="2.26688">
        <ele>107</ele>
        <time>2023-11-25T14:18:30Z</time>
      </trkpt>
      <trkpt lat="49.85479" lon="2.26688">
        <ele>107</ele>
        <time>2023-11-25T14:18:31Z</time>
      </trkpt>
      <trkpt lat="49.85478" lon="2.26688">
        <ele>107</ele>
        <time>2023-11-25T14:18:32Z</time>
      </trkpt>
      <trkpt lat="49.85477" lon="2.26689">
        <ele>107</ele>
        <time>2023-11-25T14:18:33Z</time>
      </trkpt>
      <trkpt lat="49.85476" lon="2.26689">
        <ele>107</ele>
        <time>2023-11-25T14:18:34Z</time>
      </trkpt>
      <trkpt lat="49.85475" lon="2.26689">
        <ele>107</ele>
        <time>2023-11-25T14:18:35Z</time>
      </trkpt>
      <trkpt lat="49.85474" lon="2.26689">
        <ele>107</ele>
        <time>2023-11-25T14:18:36Z</time>
      </trkpt>
      <trkpt lat="49.85473" lon="2.26689">
        <ele>107</ele>
        <time>2023-11-25T14:18:38Z</time>
      </trkpt>
      <trkpt lat="49.85472" lon="2.26689">
        <ele>106.9</ele>
        <time>2023-11-25T14:18:39Z</time>
      </trkpt>
      <trkpt lat="49.85471" lon="2.26689">
        <ele>106.9</ele>
        <time>2023-11-25T14:18:40Z</time>
      </trkpt>
      <trkpt lat="49.8547" lon="2.26689">
        <ele>106.9</ele>
        <time>2023-11-25T14:18:41Z</time>
      </trkpt>
      <trkpt lat="49.85468" lon="2.26689">
        <ele>106.9</ele>
        <time>2023-11-25T14:18:42Z</time>
      </trkpt>
      <trkpt lat="49.85466" lon="2.26689">
        <ele>106.9</ele>
        <time>2023-11-25T14:18:43Z</time>
      </trkpt>
      <trkpt lat="49.85465" lon="2.26689">
        <ele>106.9</ele>
        <time>2023-11-25T14:18:44Z</time>
      </trkpt>
      <trkpt lat="49.85464" lon="2.2669">
        <ele>106.9</ele>
        <time>2023-11-25T14:18:46Z</time>
      </trkpt>
      <trkpt lat="49.85463" lon="2.2669">
        <ele>106.8</ele>
        <time>2023-11-25T14:18:47Z</time>
      </trkpt>
      <trkpt lat="49.85462" lon="2.2669">
        <ele>106.8</ele>
        <time>2023-11-25T14:18:48Z</time>
      </trkpt>
      <trkpt lat="49.85461" lon="2.2669">
        <ele>106.8</ele>
        <time>2023-11-25T14:18:49Z</time>
      </trkpt>
      <trkpt lat="49.85459" lon="2.2669">
        <ele>106.8</ele>
        <time>2023-11-25T14:18:50Z</time>
      </trkpt>
      <trkpt lat="49.85458" lon="2.2669">
        <ele>106.8</ele>
        <time>2023-11-25T14:18:51Z</time>
      </trkpt>
      <trkpt lat="49.85457" lon="2.2669">
        <ele>106.8</ele>
        <time>2023-11-25T14:18:52Z</time>
      </trkpt>
      <trkpt lat="49.85455" lon="2.2669">
        <ele>106.7</ele>
        <time>2023-11-25T14:18:53Z</time>
      </trkpt>
      <trkpt lat="49.85454" lon="2.2669">
        <ele>106.7</ele>
        <time>2023-11-25T14:18:55Z</time>
      </trkpt>
      <trkpt lat="49.85454" lon="2.2669">
        <ele>106.7</ele>
        <time>2023-11-25T14:18:56Z</time>
      </trkpt>
      <trkpt lat="49.85452" lon="2.2669">
        <ele>106.7</ele>
        <time>2023-11-25T14:18:57Z</time>
      </trkpt>
      <trkpt lat="49.85451" lon="2.2669">
        <ele>106.7</ele>
        <time>2023-11-25T14:18:58Z</time>
      </trkpt>
      <trkpt lat="49.8545" lon="2.26691">
        <ele>106.6</ele>
        <time>2023-11-25T14:18:59Z</time>
      </trkpt>
      <trkpt lat="49.85448" lon="2.26691">
        <ele>106.6</ele>
        <time>2023-11-25T14:19:00Z</time>
      </trkpt>
      <trkpt lat="49.85447" lon="2.26691">
        <ele>106.6</ele>
        <time>2023-11-25T14:19:01Z</time>
      </trkpt>
      <trkpt lat="49.85446" lon="2.26691">
        <ele>106.6</ele>
        <time>2023-11-25T14:19:03Z</time>
      </trkpt>
      <trkpt lat="49.85445" lon="2.26691">
        <ele>106.6</ele>
        <time>2023-11-25T14:19:04Z</time>
      </trkpt>
      <trkpt lat="49.85444" lon="2.26692">
        <ele>106.6</ele>
        <time>2023-11-25T14:19:05Z</time>
      </trkpt>
      <trkpt lat="49.85443" lon="2.26692">
        <ele>106.5</ele>
        <time>2023-11-25T14:19:06Z</time>
      </trkpt>
      <trkpt lat="49.85441" lon="2.26692">
        <ele>106.5</ele>
        <time>2023-11-25T14:19:07Z</time>
      </trkpt>
      <trkpt lat="49.8544" lon="2.26692">
        <ele>106.5</ele>
        <time>2023-11-25T14:19:08Z</time>
      </trkpt>
      <trkpt lat="49.85439" lon="2.26693">
        <ele>106.5</ele>
        <time>2023-11-25T14:19:10Z</time>
      </trkpt>
      <trkpt lat="49.85438" lon="2.26693">
        <ele>106.5</ele>
        <time>2023-11-25T14:19:11Z</time>
      </trkpt>
      <trkpt lat="49.85437" lon="2.26693">
        <ele>106.5</ele>
        <time>2023-11-25T14:19:12Z</time>
      </trkpt>
      <trkpt lat="49.85436" lon="2.26693">
        <ele>106.4</ele>
        <time>2023-11-25T14:19:13Z</time>
      </trkpt>
      <trkpt lat="49.85435" lon="2.26693">
        <ele>106.4</ele>
        <time>2023-11-25T14:19:14Z</time>
      </trkpt>
      <trkpt lat="49.85434" lon="2.26694">
        <ele>106.4</ele>
        <time>2023-11-25T14:19:15Z</time>
      </trkpt>
      <trkpt lat="49.85433" lon="2.26694">
        <ele>106.4</ele>
        <time>2023-11-25T14:19:16Z</time>
      </trkpt>
      <trkpt lat="49.85431" lon="2.26694">
        <ele>106.4</ele>
        <time>2023-11-25T14:19:17Z</time>
      </trkpt>
      <trkpt lat="49.8543" lon="2.26695">
        <ele>106.3</ele>
        <time>2023-11-25T14:19:19Z</time>
      </trkpt>
      <trkpt lat="49.85429" lon="2.26695">
        <ele>106.3</ele>
        <time>2023-11-25T14:19:20Z</time>
      </trkpt>
      <trkpt lat="49.85427" lon="2.26696">
        <ele>106.3</ele>
        <time>2023-11-25T14:19:21Z</time>
      </trkpt>
      <trkpt lat="49.85426" lon="2.26696">
        <ele>106.3</ele>
        <time>2023-11-25T14:19:22Z</time>
      </trkpt>
      <trkpt lat="49.85425" lon="2.26696">
        <ele>106.3</ele>
        <time>2023-11-25T14:19:23Z</time>
      </trkpt>
      <trkpt lat="49.85423" lon="2.26696">
        <ele>106.2</ele>
        <time>2023-11-25T14:19:24Z</time>
      </trkpt>
      <trkpt lat="49.85422" lon="2.26697">
        <ele>106.2</ele>
        <time>2023-11-25T14:19:25Z</time>
      </trkpt>
      <trkpt lat="49.85421" lon="2.26697">
        <ele>106.2</ele>
        <time>2023-11-25T14:19:27Z</time>
      </trkpt>
      <trkpt lat="49.8542" lon="2.26697">
        <ele>106.1</ele>
        <time>2023-11-25T14:19:28Z</time>
      </trkpt>
      <trkpt lat="49.85419" lon="2.26698">
        <ele>106.1</ele>
        <time>2023-11-25T14:19:29Z</time>
      </trkpt>
      <trkpt lat="49.85418" lon="2.26698">
        <ele>106.1</ele>
        <time>2023-11-25T14:19:30Z</time>
      </trkpt>
      <trkpt lat="49.85417" lon="2.26698">
        <ele>106.1</ele>
        <time>2023-11-25T14:19:31Z</time>
      </trkpt>
      <trkpt lat="49.85416" lon="2.26698">
        <ele>106</ele>
        <time>2023-11-25T14:19:32Z</time>
      </trkpt>
      <trkpt lat="49.85415" lon="2.26698">
        <ele>106</ele>
        <time>2023-11-25T14:19:33Z</time>
      </trkpt>
      <trkpt lat="49.85414" lon="2.26699">
        <ele>106</ele>
        <time>2023-11-25T14:19:34Z</time>
      </trkpt>
      <trkpt lat="49.85412" lon="2.26699">
        <ele>106</ele>
        <time>2023-11-25T14:19:36Z</time>
      </trkpt>
      <trkpt lat="49.85411" lon="2.26699">
        <ele>105.9</ele>
        <time>2023-11-25T14:19:37Z</time>
      </trkpt>
      <trkpt lat="49.8541" lon="2.26699">
        <ele>105.9</ele>
        <time>2023-11-25T14:19:38Z</time>
      </trkpt>
      <trkpt lat="49.85409" lon="2.267">
        <ele>105.9</ele>
        <time>2023-11-25T14:19:39Z</time>
      </trkpt>
      <trkpt lat="49.85408" lon="2.267">
        <ele>105.8</ele>
        <time>2023-11-25T14:19:40Z</time>
      </trkpt>
      <trkpt lat="49.85407" lon="2.267">
        <ele>105.8</ele>
        <time>2023-11-25T14:19:41Z</time>
      </trkpt>
      <trkpt lat="49.85406" lon="2.267">
        <ele>105.8</ele>
        <time>2023-11-25T14:19:43Z</time>
      </trkpt>
      <trkpt lat="49.85404" lon="2.267">
        <ele>105.8</ele>
        <time>2023-11-25T14:19:44Z</time>
      </trkpt>
      <trkpt lat="49.85402" lon="2.26701">
        <ele>105.7</ele>
        <time>2023-11-25T14:19:45Z</time>
      </trkpt>
      <trkpt lat="49.85401" lon="2.26701">
        <ele>105.7</ele>
        <time>2023-11-25T14:19:46Z</time>
      </trkpt>
      <trkpt lat="49.85401" lon="2.26701">
        <ele>105.7</ele>
        <time>2023-11-25T14:19:47Z</time>
      </trkpt>
      <trkpt lat="49.854" lon="2.26701">
        <ele>105.6</ele>
        <time>2023-11-25T14:19:48Z</time>
      </trkpt>
      <trkpt lat="49.85398" lon="2.26701">
        <ele>105.6</ele>
        <time>2023-11-25T14:19:49Z</time>
      </trkpt>
      <trkpt lat="49.85397" lon="2.26701">
        <ele>105.6</ele>
        <time>2023-11-25T14:19:50Z</time>
      </trkpt>
      <trkpt lat="49.85396" lon="2.26701">
        <ele>105.6</ele>
        <time>2023-11-25T14:19:52Z</time>
      </trkpt>
      <trkpt lat="49.85395" lon="2.26701">
        <ele>105.5</ele>
        <time>2023-11-25T14:19:53Z</time>
      </trkpt>
      <trkpt lat="49.85394" lon="2.26701">
        <ele>105.5</ele>
        <time>2023-11-25T14:19:54Z</time>
      </trkpt>
      <trkpt lat="49.85393" lon="2.26701">
        <ele>105.5</ele>
        <time>2023-11-25T14:19:55Z</time>
      </trkpt>
      <trkpt lat="49.85392" lon="2.26702">
        <ele>105.5</ele>
        <time>2023-11-25T14:19:56Z</time>
      </trkpt>
      <trkpt lat="49.85391" lon="2.26702">
        <ele>105.4</ele>
        <time>2023-11-25T14:19:57Z</time>
      </trkpt>
      <trkpt lat="49.85389" lon="2.26702">
        <ele>105.4</ele>
        <time>2023-11-25T14:19:59Z</time>
      </trkpt>
      <trkpt lat="49.85388" lon="2.26702">
        <ele>105.4</ele>
        <time>2023-11-25T14:20:00Z</time>
      </trkpt>
      <trkpt lat="49.85387" lon="2.26702">
        <ele>105.4</ele>
        <time>2023-11-25T14:20:01Z</time>
      </trkpt>
      <trkpt lat="49.85386" lon="2.26702">
        <ele>105.3</ele>
        <time>2023-11-25T14:20:02Z</time>
      </trkpt>
      <trkpt lat="49.85385" lon="2.26702">
        <ele>105.3</ele>
        <time>2023-11-25T14:20:03Z</time>
      </trkpt>
      <trkpt lat="49.85384" lon="2.26702">
        <ele>105.3</ele>
        <time>2023-11-25T14:20:04Z</time>
      </trkpt>
      <trkpt lat="49.85382" lon="2.26703">
        <ele>105.2</ele>
        <time>2023-11-25T14:20:06Z</time>
      </trkpt>
      <trkpt lat="49.85381" lon="2.26703">
        <ele>105.2</ele>
        <time>2023-11-25T14:20:07Z</time>
      </trkpt>
      <trkpt lat="49.8538" lon="2.26703">
        <ele>105.2</ele>
        <time>2023-11-25T14:20:08Z</time>
      </trkpt>
      <trkpt lat="49.85379" lon="2.26703">
        <ele>105.1</ele>
        <time>2023-11-25T14:20:09Z</time>
      </trkpt>
      <trkpt lat="49.85378" lon="2.26703">
        <ele>105.1</ele>
        <time>2023-11-25T14:20:10Z</time>
      </trkpt>
      <trkpt lat="49.85377" lon="2.26703">
        <ele>105.1</ele>
        <time>2023-11-25T14:20:11Z</time>
      </trkpt>
      <trkpt lat="49.85376" lon="2.26703">
        <ele>105</ele>
        <time>2023-11-25T14:20:12Z</time>
      </trkpt>
      <trkpt lat="49.85375" lon="2.26703">
        <ele>105</ele>
        <time>2023-11-25T14:20:13Z</time>
      </trkpt>
      <trkpt lat="49.85373" lon="2.26702">
        <ele>105</ele>
        <time>2023-11-25T14:20:15Z</time>
      </trkpt>
      <trkpt lat="49.85371" lon="2.26702">
        <ele>104.9</ele>
        <time>2023-11-25T14:20:16Z</time>
      </trkpt>
      <trkpt lat="49.8537" lon="2.26702">
        <ele>104.9</ele>
        <time>2023-11-25T14:20:17Z</time>
      </trkpt>
      <trkpt lat="49.85369" lon="2.26702">
        <ele>104.8</ele>
        <time>2023-11-25T14:20:19Z</time>
      </trkpt>
      <trkpt lat="49.85367" lon="2.26703">
        <ele>104.8</ele>
        <time>2023-11-25T14:20:20Z</time>
      </trkpt>
      <trkpt lat="49.85366" lon="2.26703">
        <ele>104.7</ele>
        <time>2023-11-25T14:20:21Z</time>
      </trkpt>
      <trkpt lat="49.85365" lon="2.26703">
        <ele>104.7</ele>
        <time>2023-11-25T14:20:22Z</time>
      </trkpt>
      <trkpt lat="49.85364" lon="2.26704">
        <ele>104.7</ele>
        <time>2023-11-25T14:20:23Z</time>
      </trkpt>
      <trkpt lat="49.85363" lon="2.26704">
        <ele>104.6</ele>
        <time>2023-11-25T14:20:24Z</time>
      </trkpt>
      <trkpt lat="49.85362" lon="2.26705">
        <ele>104.6</ele>
        <time>2023-11-25T14:20:26Z</time>
      </trkpt>
      <trkpt lat="49.8536" lon="2.26705">
        <ele>104.5</ele>
        <time>2023-11-25T14:20:27Z</time>
      </trkpt>
      <trkpt lat="49.85359" lon="2.26705">
        <ele>104.5</ele>
        <time>2023-11-25T14:20:28Z</time>
      </trkpt>
      <trkpt lat="49.85358" lon="2.26705">
        <ele>104.4</ele>
        <time>2023-11-25T14:20:29Z</time>
      </trkpt>
      <trkpt lat="49.85356" lon="2.26705">
        <ele>104.3</ele>
        <time>2023-11-25T14:20:30Z</time>
      </trkpt>
      <trkpt lat="49.85355" lon="2.26705">
        <ele>104.3</ele>
        <time>2023-11-25T14:20:31Z</time>
      </trkpt>
      <trkpt lat="49.85354" lon="2.26705">
        <ele>104.3</ele>
        <time>2023-11-25T14:20:32Z</time>
      </trkpt>
      <trkpt lat="49.85353" lon="2.26706">
        <ele>104.2</ele>
        <time>2023-11-25T14:20:34Z</time>
      </trkpt>
      <trkpt lat="49.85352" lon="2.26706">
        <ele>104.1</ele>
        <time>2023-11-25T14:20:35Z</time>
      </trkpt>
      <trkpt lat="49.8535" lon="2.26706">
        <ele>104.1</ele>
        <time>2023-11-25T14:20:36Z</time>
      </trkpt>
      <trkpt lat="49.85348" lon="2.26707">
        <ele>104</ele>
        <time>2023-11-25T14:20:37Z</time>
      </trkpt>
      <trkpt lat="49.85348" lon="2.26707">
        <ele>104</ele>
        <time>2023-11-25T14:20:38Z</time>
      </trkpt>
      <trkpt lat="49.85347" lon="2.26707">
        <ele>103.9</ele>
        <time>2023-11-25T14:20:39Z</time>
      </trkpt>
      <trkpt lat="49.85345" lon="2.26708">
        <ele>103.8</ele>
        <time>2023-11-25T14:20:40Z</time>
      </trkpt>
      <trkpt lat="49.85344" lon="2.26708">
        <ele>103.8</ele>
        <time>2023-11-25T14:20:42Z</time>
      </trkpt>
      <trkpt lat="49.85343" lon="2.26708">
        <ele>103.8</ele>
        <time>2023-11-25T14:20:43Z</time>
      </trkpt>
      <trkpt lat="49.85341" lon="2.26708">
        <ele>103.7</ele>
        <time>2023-11-25T14:20:44Z</time>
      </trkpt>
      <trkpt lat="49.8534" lon="2.26708">
        <ele>103.6</ele>
        <time>2023-11-25T14:20:45Z</time>
      </trkpt>
      <trkpt lat="49.85339" lon="2.26709">
        <ele>103.6</ele>
        <time>2023-11-25T14:20:46Z</time>
      </trkpt>
      <trkpt lat="49.85338" lon="2.26709">
        <ele>103.6</ele>
        <time>2023-11-25T14:20:47Z</time>
      </trkpt>
      <trkpt lat="49.85337" lon="2.26709">
        <ele>103.5</ele>
        <time>2023-11-25T14:20:48Z</time>
      </trkpt>
      <trkpt lat="49.85336" lon="2.2671">
        <ele>103.4</ele>
        <time>2023-11-25T14:20:50Z</time>
      </trkpt>
      <trkpt lat="49.85335" lon="2.2671">
        <ele>103.4</ele>
        <time>2023-11-25T14:20:51Z</time>
      </trkpt>
      <trkpt lat="49.85334" lon="2.2671">
        <ele>103.3</ele>
        <time>2023-11-25T14:20:52Z</time>
      </trkpt>
      <trkpt lat="49.85333" lon="2.26711">
        <ele>103.3</ele>
        <time>2023-11-25T14:20:53Z</time>
      </trkpt>
      <trkpt lat="49.85331" lon="2.26711">
        <ele>103.2</ele>
        <time>2023-11-25T14:20:54Z</time>
      </trkpt>
      <trkpt lat="49.8533" lon="2.26712">
        <ele>103.2</ele>
        <time>2023-11-25T14:20:55Z</time>
      </trkpt>
      <trkpt lat="49.85329" lon="2.26712">
        <ele>103.1</ele>
        <time>2023-11-25T14:20:56Z</time>
      </trkpt>
      <trkpt lat="49.85328" lon="2.26713">
        <ele>103</ele>
        <time>2023-11-25T14:20:58Z</time>
      </trkpt>
      <trkpt lat="49.85327" lon="2.26713">
        <ele>103</ele>
        <time>2023-11-25T14:20:59Z</time>
      </trkpt>
      <trkpt lat="49.85326" lon="2.26714">
        <ele>102.9</ele>
        <time>2023-11-25T14:21:00Z</time>
      </trkpt>
      <trkpt lat="49.85325" lon="2.26714">
        <ele>102.9</ele>
        <time>2023-11-25T14:21:01Z</time>
      </trkpt>
      <trkpt lat="49.85324" lon="2.26715">
        <ele>102.8</ele>
        <time>2023-11-25T14:21:02Z</time>
      </trkpt>
      <trkpt lat="49.85323" lon="2.26715">
        <ele>102.8</ele>
        <time>2023-11-25T14:21:04Z</time>
      </trkpt>
      <trkpt lat="49.85322" lon="2.26716">
        <ele>102.7</ele>
        <time>2023-11-25T14:21:05Z</time>
      </trkpt>
      <trkpt lat="49.85321" lon="2.26717">
        <ele>102.7</ele>
        <time>2023-11-25T14:21:06Z</time>
      </trkpt>
      <trkpt lat="49.8532" lon="2.26717">
        <ele>102.6</ele>
        <time>2023-11-25T14:21:07Z</time>
      </trkpt>
      <trkpt lat="49.85319" lon="2.26717">
        <ele>102.6</ele>
        <time>2023-11-25T14:21:08Z</time>
      </trkpt>
      <trkpt lat="49.85319" lon="2.26718">
        <ele>102.5</ele>
        <time>2023-11-25T14:21:10Z</time>
      </trkpt>
      <trkpt lat="49.85318" lon="2.26719">
        <ele>102.4</ele>
        <time>2023-11-25T14:21:11Z</time>
      </trkpt>
      <trkpt lat="49.85317" lon="2.26719">
        <ele>102.4</ele>
        <time>2023-11-25T14:21:12Z</time>
      </trkpt>
      <trkpt lat="49.85316" lon="2.26719">
        <ele>102.4</ele>
        <time>2023-11-25T14:21:13Z</time>
      </trkpt>
      <trkpt lat="49.85316" lon="2.2672">
        <ele>102.3</ele>
        <time>2023-11-25T14:21:14Z</time>
      </trkpt>
      <trkpt lat="49.85316" lon="2.26721">
        <ele>102.3</ele>
        <time>2023-11-25T14:21:15Z</time>
      </trkpt>
      <trkpt lat="49.85315" lon="2.26721">
        <ele>102.3</ele>
        <time>2023-11-25T14:21:17Z</time>
      </trkpt>
      <trkpt lat="49.85315" lon="2.26721">
        <ele>102.2</ele>
        <time>2023-11-25T14:21:18Z</time>
      </trkpt>
      <trkpt lat="49.85316" lon="2.26721">
        <ele>102.2</ele>
        <time>2023-11-25T14:21:20Z</time>
      </trkpt>
      <trkpt lat="49.85316" lon="2.26721">
        <ele>102.2</ele>
        <time>2023-11-25T14:21:21Z</time>
      </trkpt>
      <trkpt lat="49.85316" lon="2.26721">
        <ele>102.2</ele>
        <time>2023-11-25T14:21:23Z</time>
      </trkpt>
      <trkpt lat="49.85316" lon="2.26721">
        <ele>102.2</ele>
        <time>2023-11-25T14:21:24Z</time>
      </trkpt>
      <trkpt lat="49.85316" lon="2.2672">
        <ele>102.2</ele>
        <time>2023-11-25T14:21:25Z</time>
      </trkpt>
      <trkpt lat="49.85316" lon="2.2672">
        <ele>102.2</ele>
        <time>2023-11-25T14:21:26Z</time>
      </trkpt>
      <trkpt lat="49.85316" lon="2.2672">
        <ele>102.1</ele>
        <time>2023-11-25T14:21:28Z</time>
      </trkpt>
      <trkpt lat="49.85315" lon="2.2672">
        <ele>102.1</ele>
        <time>2023-11-25T14:21:29Z</time>
      </trkpt>
      <trkpt lat="49.85315" lon="2.2672">
        <ele>102.1</ele>
        <time>2023-11-25T14:21:30Z</time>
      </trkpt>
      <trkpt lat="49.85314" lon="2.26719">
        <ele>102</ele>
        <time>2023-11-25T14:21:31Z</time>
      </trkpt>
      <trkpt lat="49.85314" lon="2.26719">
        <ele>102</ele>
        <time>2023-11-25T14:21:32Z</time>
      </trkpt>
      <trkpt lat="49.85314" lon="2.26719">
        <ele>102</ele>
        <time>2023-11-25T14:21:33Z</time>
      </trkpt>
      <trkpt lat="49.85313" lon="2.26719">
        <ele>102</ele>
        <time>2023-11-25T14:21:34Z</time>
      </trkpt>
      <trkpt lat="49.85313" lon="2.26719">
        <ele>101.9</ele>
        <time>2023-11-25T14:21:36Z</time>
      </trkpt>
      <trkpt lat="49.85312" lon="2.26719">
        <ele>101.9</ele>
        <time>2023-11-25T14:21:37Z</time>
      </trkpt>
      <trkpt lat="49.85312" lon="2.26719">
        <ele>101.9</ele>
        <time>2023-11-25T14:21:38Z</time>
      </trkpt>
      <trkpt lat="49.85311" lon="2.26719">
        <ele>101.8</ele>
        <time>2023-11-25T14:21:40Z</time>
      </trkpt>
      <trkpt lat="49.8531" lon="2.26719">
        <ele>101.8</ele>
        <time>2023-11-25T14:21:41Z</time>
      </trkpt>
      <trkpt lat="49.8531" lon="2.26719">
        <ele>101.7</ele>
        <time>2023-11-25T14:21:42Z</time>
      </trkpt>
      <trkpt lat="49.85309" lon="2.26718">
        <ele>101.7</ele>
        <time>2023-11-25T14:21:43Z</time>
      </trkpt>
      <trkpt lat="49.85309" lon="2.26718">
        <ele>101.6</ele>
        <time>2023-11-25T14:21:44Z</time>
      </trkpt>
      <trkpt lat="49.85308" lon="2.26718">
        <ele>101.6</ele>
        <time>2023-11-25T14:21:46Z</time>
      </trkpt>
      <trkpt lat="49.85307" lon="2.26718">
        <ele>101.5</ele>
        <time>2023-11-25T14:21:47Z</time>
      </trkpt>
      <trkpt lat="49.85306" lon="2.26718">
        <ele>101.4</ele>
        <time>2023-11-25T14:21:48Z</time>
      </trkpt>
      <trkpt lat="49.85305" lon="2.26719">
        <ele>101.3</ele>
        <time>2023-11-25T14:21:49Z</time>
      </trkpt>
      <trkpt lat="49.85304" lon="2.26719">
        <ele>101.3</ele>
        <time>2023-11-25T14:21:50Z</time>
      </trkpt>
      <trkpt lat="49.85302" lon="2.26719">
        <ele>101.1</ele>
        <time>2023-11-25T14:21:51Z</time>
      </trkpt>
      <trkpt lat="49.85301" lon="2.26719">
        <ele>101</ele>
        <time>2023-11-25T14:21:53Z</time>
      </trkpt>
      <trkpt lat="49.853" lon="2.26719">
        <ele>101</ele>
        <time>2023-11-25T14:21:54Z</time>
      </trkpt>
      <trkpt lat="49.85297" lon="2.26719">
        <ele>100.8</ele>
        <time>2023-11-25T14:21:55Z</time>
      </trkpt>
      <trkpt lat="49.85297" lon="2.26719">
        <ele>100.7</ele>
        <time>2023-11-25T14:21:56Z</time>
      </trkpt>
      <trkpt lat="49.85296" lon="2.26719">
        <ele>100.7</ele>
        <time>2023-11-25T14:21:57Z</time>
      </trkpt>
      <trkpt lat="49.85294" lon="2.26718">
        <ele>100.5</ele>
        <time>2023-11-25T14:21:58Z</time>
      </trkpt>
      <trkpt lat="49.85293" lon="2.26718">
        <ele>100.4</ele>
        <time>2023-11-25T14:22:00Z</time>
      </trkpt>
      <trkpt lat="49.85292" lon="2.26718">
        <ele>100.4</ele>
        <time>2023-11-25T14:22:01Z</time>
      </trkpt>
      <trkpt lat="49.85291" lon="2.26717">
        <ele>100.3</ele>
        <time>2023-11-25T14:22:02Z</time>
      </trkpt>
      <trkpt lat="49.85289" lon="2.26716">
        <ele>100.2</ele>
        <time>2023-11-25T14:22:03Z</time>
      </trkpt>
      <trkpt lat="49.85287" lon="2.26716">
        <ele>100</ele>
        <time>2023-11-25T14:22:04Z</time>
      </trkpt>
      <trkpt lat="49.85286" lon="2.26715">
        <ele>99.9</ele>
        <time>2023-11-25T14:22:05Z</time>
      </trkpt>
      <trkpt lat="49.85285" lon="2.26715">
        <ele>99.8</ele>
        <time>2023-11-25T14:22:07Z</time>
      </trkpt>
      <trkpt lat="49.85284" lon="2.26715">
        <ele>99.8</ele>
        <time>2023-11-25T14:22:08Z</time>
      </trkpt>
      <trkpt lat="49.85283" lon="2.26714">
        <ele>99.7</ele>
        <time>2023-11-25T14:22:09Z</time>
      </trkpt>
      <trkpt lat="49.85282" lon="2.26714">
        <ele>99.6</ele>
        <time>2023-11-25T14:22:10Z</time>
      </trkpt>
      <trkpt lat="49.85281" lon="2.26714">
        <ele>99.5</ele>
        <time>2023-11-25T14:22:11Z</time>
      </trkpt>
      <trkpt lat="49.8528" lon="2.26714">
        <ele>99.5</ele>
        <time>2023-11-25T14:22:13Z</time>
      </trkpt>
      <trkpt lat="49.85279" lon="2.26714">
        <ele>99.4</ele>
        <time>2023-11-25T14:22:14Z</time>
      </trkpt>
      <trkpt lat="49.85278" lon="2.26713">
        <ele>99.3</ele>
        <time>2023-11-25T14:22:15Z</time>
      </trkpt>
      <trkpt lat="49.85277" lon="2.26713">
        <ele>99.3</ele>
        <time>2023-11-25T14:22:16Z</time>
      </trkpt>
      <trkpt lat="49.85277" lon="2.26713">
        <ele>99.2</ele>
        <time>2023-11-25T14:22:17Z</time>
      </trkpt>
      <trkpt lat="49.85276" lon="2.26712">
        <ele>99.1</ele>
        <time>2023-11-25T14:22:19Z</time>
      </trkpt>
      <trkpt lat="49.85275" lon="2.26712">
        <ele>99.1</ele>
        <time>2023-11-25T14:22:20Z</time>
      </trkpt>
      <trkpt lat="49.85274" lon="2.26711">
        <ele>99</ele>
        <time>2023-11-25T14:22:21Z</time>
      </trkpt>
      <trkpt lat="49.85273" lon="2.26711">
        <ele>98.9</ele>
        <time>2023-11-25T14:22:22Z</time>
      </trkpt>
      <trkpt lat="49.85272" lon="2.26711">
        <ele>98.9</ele>
        <time>2023-11-25T14:22:23Z</time>
      </trkpt>
      <trkpt lat="49.85271" lon="2.2671">
        <ele>98.8</ele>
        <time>2023-11-25T14:22:24Z</time>
      </trkpt>
      <trkpt lat="49.8527" lon="2.2671">
        <ele>98.8</ele>
        <time>2023-11-25T14:22:26Z</time>
      </trkpt>
      <trkpt lat="49.85268" lon="2.2671">
        <ele>98.6</ele>
        <time>2023-11-25T14:22:27Z</time>
      </trkpt>
      <trkpt lat="49.85267" lon="2.2671">
        <ele>98.6</ele>
        <time>2023-11-25T14:22:28Z</time>
      </trkpt>
      <trkpt lat="49.85266" lon="2.2671">
        <ele>98.5</ele>
        <time>2023-11-25T14:22:29Z</time>
      </trkpt>
      <trkpt lat="49.85265" lon="2.26711">
        <ele>98.5</ele>
        <time>2023-11-25T14:22:30Z</time>
      </trkpt>
      <trkpt lat="49.85264" lon="2.26711">
        <ele>98.4</ele>
        <time>2023-11-25T14:22:31Z</time>
      </trkpt>
      <trkpt lat="49.85263" lon="2.26711">
        <ele>98.4</ele>
        <time>2023-11-25T14:22:33Z</time>
      </trkpt>
      <trkpt lat="49.85262" lon="2.26711">
        <ele>98.3</ele>
        <time>2023-11-25T14:22:34Z</time>
      </trkpt>
      <trkpt lat="49.85261" lon="2.26711">
        <ele>98.3</ele>
        <time>2023-11-25T14:22:35Z</time>
      </trkpt>
      <trkpt lat="49.8526" lon="2.26711">
        <ele>98.3</ele>
        <time>2023-11-25T14:22:36Z</time>
      </trkpt>
      <trkpt lat="49.85259" lon="2.2671">
        <ele>98.2</ele>
        <time>2023-11-25T14:22:37Z</time>
      </trkpt>
      <trkpt lat="49.85258" lon="2.2671">
        <ele>98.2</ele>
        <time>2023-11-25T14:22:39Z</time>
      </trkpt>
      <trkpt lat="49.85258" lon="2.2671">
        <ele>98.2</ele>
        <time>2023-11-25T14:22:40Z</time>
      </trkpt>
      <trkpt lat="49.85257" lon="2.26709">
        <ele>98.1</ele>
        <time>2023-11-25T14:22:41Z</time>
      </trkpt>
      <trkpt lat="49.85256" lon="2.26709">
        <ele>98.1</ele>
        <time>2023-11-25T14:22:42Z</time>
      </trkpt>
      <trkpt lat="49.85255" lon="2.26708">
        <ele>98.1</ele>
        <time>2023-11-25T14:22:43Z</time>
      </trkpt>
      <trkpt lat="49.85254" lon="2.26708">
        <ele>98</ele>
        <time>2023-11-25T14:22:44Z</time>
      </trkpt>
      <trkpt lat="49.85253" lon="2.26708">
        <ele>98</ele>
        <time>2023-11-25T14:22:46Z</time>
      </trkpt>
      <trkpt lat="49.85251" lon="2.26707">
        <ele>97.9</ele>
        <time>2023-11-25T14:22:47Z</time>
      </trkpt>
      <trkpt lat="49.8525" lon="2.26707">
        <ele>97.9</ele>
        <time>2023-11-25T14:22:48Z</time>
      </trkpt>
      <trkpt lat="49.85249" lon="2.26707">
        <ele>97.9</ele>
        <time>2023-11-25T14:22:49Z</time>
      </trkpt>
      <trkpt lat="49.85248" lon="2.26706">
        <ele>97.9</ele>
        <time>2023-11-25T14:22:50Z</time>
      </trkpt>
      <trkpt lat="49.85247" lon="2.26706">
        <ele>97.9</ele>
        <time>2023-11-25T14:22:52Z</time>
      </trkpt>
      <trkpt lat="49.85246" lon="2.26705">
        <ele>97.8</ele>
        <time>2023-11-25T14:22:53Z</time>
      </trkpt>
      <trkpt lat="49.85245" lon="2.26705">
        <ele>97.8</ele>
        <time>2023-11-25T14:22:54Z</time>
      </trkpt>
      <trkpt lat="49.85244" lon="2.26705">
        <ele>97.8</ele>
        <time>2023-11-25T14:22:55Z</time>
      </trkpt>
      <trkpt lat="49.85243" lon="2.26705">
        <ele>97.8</ele>
        <time>2023-11-25T14:22:56Z</time>
      </trkpt>
      <trkpt lat="49.85241" lon="2.26704">
        <ele>97.8</ele>
        <time>2023-11-25T14:22:57Z</time>
      </trkpt>
      <trkpt lat="49.8524" lon="2.26704">
        <ele>97.8</ele>
        <time>2023-11-25T14:22:59Z</time>
      </trkpt>
      <trkpt lat="49.85239" lon="2.26704">
        <ele>97.7</ele>
        <time>2023-11-25T14:23:00Z</time>
      </trkpt>
      <trkpt lat="49.85238" lon="2.26704">
        <ele>97.7</ele>
        <time>2023-11-25T14:23:01Z</time>
      </trkpt>
      <trkpt lat="49.85237" lon="2.26704">
        <ele>97.7</ele>
        <time>2023-11-25T14:23:02Z</time>
      </trkpt>
      <trkpt lat="49.85235" lon="2.26704">
        <ele>97.7</ele>
        <time>2023-11-25T14:23:03Z</time>
      </trkpt>
      <trkpt lat="49.85233" lon="2.26704">
        <ele>97.7</ele>
        <time>2023-11-25T14:23:04Z</time>
      </trkpt>
      <trkpt lat="49.85233" lon="2.26703">
        <ele>97.7</ele>
        <time>2023-11-25T14:23:06Z</time>
      </trkpt>
      <trkpt lat="49.85232" lon="2.26703">
        <ele>97.7</ele>
        <time>2023-11-25T14:23:07Z</time>
      </trkpt>
      <trkpt lat="49.85231" lon="2.26703">
        <ele>97.7</ele>
        <time>2023-11-25T14:23:08Z</time>
      </trkpt>
      <trkpt lat="49.8523" lon="2.26703">
        <ele>97.7</ele>
        <time>2023-11-25T14:23:09Z</time>
      </trkpt>
      <trkpt lat="49.85229" lon="2.26702">
        <ele>97.7</ele>
        <time>2023-11-25T14:23:10Z</time>
      </trkpt>
      <trkpt lat="49.85227" lon="2.26702">
        <ele>97.6</ele>
        <time>2023-11-25T14:23:11Z</time>
      </trkpt>
      <trkpt lat="49.85226" lon="2.26701">
        <ele>97.6</ele>
        <time>2023-11-25T14:23:13Z</time>
      </trkpt>
      <trkpt lat="49.85225" lon="2.26701">
        <ele>97.6</ele>
        <time>2023-11-25T14:23:14Z</time>
      </trkpt>
      <trkpt lat="49.85224" lon="2.26701">
        <ele>97.6</ele>
        <time>2023-11-25T14:23:15Z</time>
      </trkpt>
      <trkpt lat="49.85224" lon="2.26701">
        <ele>97.6</ele>
        <time>2023-11-25T14:23:16Z</time>
      </trkpt>
      <trkpt lat="49.85223" lon="2.26701">
        <ele>97.6</ele>
        <time>2023-11-25T14:23:17Z</time>
      </trkpt>
      <trkpt lat="49.85221" lon="2.267">
        <ele>97.6</ele>
        <time>2023-11-25T14:23:19Z</time>
      </trkpt>
      <trkpt lat="49.8522" lon="2.267">
        <ele>97.6</ele>
        <time>2023-11-25T14:23:20Z</time>
      </trkpt>
      <trkpt lat="49.85219" lon="2.26699">
        <ele>97.6</ele>
        <time>2023-11-25T14:23:21Z</time>
      </trkpt>
      <trkpt lat="49.85218" lon="2.26699">
        <ele>97.6</ele>
        <time>2023-11-25T14:23:22Z</time>
      </trkpt>
      <trkpt lat="49.85217" lon="2.26699">
        <ele>97.6</ele>
        <time>2023-11-25T14:23:24Z</time>
      </trkpt>
      <trkpt lat="49.85216" lon="2.26698">
        <ele>97.6</ele>
        <time>2023-11-25T14:23:25Z</time>
      </trkpt>
      <trkpt lat="49.85217" lon="2.26696">
        <ele>97.6</ele>
        <time>2023-11-25T14:23:27Z</time>
      </trkpt>
      <trkpt lat="49.85218" lon="2.26695">
        <ele>97.6</ele>
        <time>2023-11-25T14:23:28Z</time>
      </trkpt>
      <trkpt lat="49.85219" lon="2.26694">
        <ele>97.6</ele>
        <time>2023-11-25T14:23:30Z</time>
      </trkpt>
      <trkpt lat="49.85219" lon="2.26694">
        <ele>97.6</ele>
        <time>2023-11-25T14:23:31Z</time>
      </trkpt>
      <trkpt lat="49.85219" lon="2.26694">
        <ele>97.6</ele>
        <time>2023-11-25T14:23:32Z</time>
      </trkpt>
      <trkpt lat="49.85219" lon="2.26694">
        <ele>97.6</ele>
        <time>2023-11-25T14:23:34Z</time>
      </trkpt>
      <trkpt lat="49.85219" lon="2.26694">
        <ele>97.6</ele>
        <time>2023-11-25T14:23:35Z</time>
      </trkpt>
      <trkpt lat="49.85219" lon="2.26694">
        <ele>97.6</ele>
        <time>2023-11-25T14:23:37Z</time>
      </trkpt>
      <trkpt lat="49.85219" lon="2.26694">
        <ele>97.6</ele>
        <time>2023-11-25T14:23:38Z</time>
      </trkpt>
      <trkpt lat="49.85219" lon="2.26694">
        <ele>97.6</ele>
        <time>2023-11-25T14:23:40Z</time>
      </trkpt>
      <trkpt lat="49.85219" lon="2.26694">
        <ele>97.6</ele>
        <time>2023-11-25T14:23:41Z</time>
      </trkpt>
      <trkpt lat="49.85219" lon="2.26694">
        <ele>97.6</ele>
        <time>2023-11-25T14:23:42Z</time>
      </trkpt>
      <trkpt lat="49.85219" lon="2.26693">
        <ele>97.6</ele>
        <time>2023-11-25T14:23:43Z</time>
      </trkpt>
      <trkpt lat="49.85218" lon="2.26693">
        <ele>97.6</ele>
        <time>2023-11-25T14:23:44Z</time>
      </trkpt>
      <trkpt lat="49.85215" lon="2.26692">
        <ele>97.6</ele>
        <time>2023-11-25T14:23:48Z</time>
      </trkpt>
      <trkpt lat="49.85214" lon="2.26692">
        <ele>97.6</ele>
        <time>2023-11-25T14:23:49Z</time>
      </trkpt>
      <trkpt lat="49.85212" lon="2.26692">
        <ele>97.6</ele>
        <time>2023-11-25T14:23:50Z</time>
      </trkpt>
      <trkpt lat="49.8521" lon="2.26692">
        <ele>97.6</ele>
        <time>2023-11-25T14:23:52Z</time>
      </trkpt>
      <trkpt lat="49.85209" lon="2.26692">
        <ele>97.6</ele>
        <time>2023-11-25T14:23:53Z</time>
      </trkpt>
      <trkpt lat="49.85209" lon="2.26692">
        <ele>97.6</ele>
        <time>2023-11-25T14:23:54Z</time>
      </trkpt>
      <trkpt lat="49.85207" lon="2.26692">
        <ele>97.6</ele>
        <time>2023-11-25T14:23:55Z</time>
      </trkpt>
      <trkpt lat="49.85206" lon="2.26692">
        <ele>97.7</ele>
        <time>2023-11-25T14:23:56Z</time>
      </trkpt>
      <trkpt lat="49.85205" lon="2.26692">
        <ele>97.7</ele>
        <time>2023-11-25T14:23:57Z</time>
      </trkpt>
      <trkpt lat="49.85204" lon="2.26693">
        <ele>97.7</ele>
        <time>2023-11-25T14:23:59Z</time>
      </trkpt>
      <trkpt lat="49.85203" lon="2.26692">
        <ele>97.7</ele>
        <time>2023-11-25T14:24:00Z</time>
      </trkpt>
      <trkpt lat="49.85202" lon="2.26692">
        <ele>97.7</ele>
        <time>2023-11-25T14:24:01Z</time>
      </trkpt>
      <trkpt lat="49.85201" lon="2.26692">
        <ele>97.7</ele>
        <time>2023-11-25T14:24:02Z</time>
      </trkpt>
      <trkpt lat="49.852" lon="2.26692">
        <ele>97.7</ele>
        <time>2023-11-25T14:24:03Z</time>
      </trkpt>
      <trkpt lat="49.85199" lon="2.26692">
        <ele>97.7</ele>
        <time>2023-11-25T14:24:05Z</time>
      </trkpt>
      <trkpt lat="49.85198" lon="2.26692">
        <ele>97.7</ele>
        <time>2023-11-25T14:24:06Z</time>
      </trkpt>
      <trkpt lat="49.85197" lon="2.26692">
        <ele>97.7</ele>
        <time>2023-11-25T14:24:07Z</time>
      </trkpt>
      <trkpt lat="49.85196" lon="2.26692">
        <ele>97.7</ele>
        <time>2023-11-25T14:24:08Z</time>
      </trkpt>
      <trkpt lat="49.85195" lon="2.26692">
        <ele>97.7</ele>
        <time>2023-11-25T14:24:09Z</time>
      </trkpt>
      <trkpt lat="49.85195" lon="2.26692">
        <ele>97.7</ele>
        <time>2023-11-25T14:24:10Z</time>
      </trkpt>
      <trkpt lat="49.85193" lon="2.26692">
        <ele>97.7</ele>
        <time>2023-11-25T14:24:12Z</time>
      </trkpt>
      <trkpt lat="49.85192" lon="2.26693">
        <ele>97.8</ele>
        <time>2023-11-25T14:24:13Z</time>
      </trkpt>
      <trkpt lat="49.85191" lon="2.26693">
        <ele>97.8</ele>
        <time>2023-11-25T14:24:14Z</time>
      </trkpt>
      <trkpt lat="49.8519" lon="2.26693">
        <ele>97.8</ele>
        <time>2023-11-25T14:24:16Z</time>
      </trkpt>
      <trkpt lat="49.85189" lon="2.26693">
        <ele>97.8</ele>
        <time>2023-11-25T14:24:17Z</time>
      </trkpt>
      <trkpt lat="49.85188" lon="2.26693">
        <ele>97.8</ele>
        <time>2023-11-25T14:24:18Z</time>
      </trkpt>
      <trkpt lat="49.85187" lon="2.26693">
        <ele>97.8</ele>
        <time>2023-11-25T14:24:19Z</time>
      </trkpt>
      <trkpt lat="49.85186" lon="2.26693">
        <ele>97.8</ele>
        <time>2023-11-25T14:24:20Z</time>
      </trkpt>
      <trkpt lat="49.85185" lon="2.26692">
        <ele>97.8</ele>
        <time>2023-11-25T14:24:22Z</time>
      </trkpt>
      <trkpt lat="49.85184" lon="2.26692">
        <ele>97.9</ele>
        <time>2023-11-25T14:24:23Z</time>
      </trkpt>
      <trkpt lat="49.85183" lon="2.26692">
        <ele>97.9</ele>
        <time>2023-11-25T14:24:24Z</time>
      </trkpt>
      <trkpt lat="49.85182" lon="2.26691">
        <ele>97.9</ele>
        <time>2023-11-25T14:24:25Z</time>
      </trkpt>
      <trkpt lat="49.8518" lon="2.26691">
        <ele>97.9</ele>
        <time>2023-11-25T14:24:26Z</time>
      </trkpt>
      <trkpt lat="49.85179" lon="2.2669">
        <ele>98</ele>
        <time>2023-11-25T14:24:27Z</time>
      </trkpt>
      <trkpt lat="49.85178" lon="2.2669">
        <ele>98</ele>
        <time>2023-11-25T14:24:29Z</time>
      </trkpt>
      <trkpt lat="49.85177" lon="2.26689">
        <ele>98</ele>
        <time>2023-11-25T14:24:30Z</time>
      </trkpt>
      <trkpt lat="49.85176" lon="2.26689">
        <ele>98</ele>
        <time>2023-11-25T14:24:31Z</time>
      </trkpt>
      <trkpt lat="49.85174" lon="2.26688">
        <ele>98</ele>
        <time>2023-11-25T14:24:32Z</time>
      </trkpt>
      <trkpt lat="49.85172" lon="2.26687">
        <ele>98.1</ele>
        <time>2023-11-25T14:24:33Z</time>
      </trkpt>
      <trkpt lat="49.85171" lon="2.26687">
        <ele>98.1</ele>
        <time>2023-11-25T14:24:35Z</time>
      </trkpt>
      <trkpt lat="49.8517" lon="2.26687">
        <ele>98.1</ele>
        <time>2023-11-25T14:24:36Z</time>
      </trkpt>
      <trkpt lat="49.85169" lon="2.26686">
        <ele>98.1</ele>
        <time>2023-11-25T14:24:37Z</time>
      </trkpt>
      <trkpt lat="49.85168" lon="2.26686">
        <ele>98.2</ele>
        <time>2023-11-25T14:24:38Z</time>
      </trkpt>
      <trkpt lat="49.85167" lon="2.26686">
        <ele>98.2</ele>
        <time>2023-11-25T14:24:39Z</time>
      </trkpt>
      <trkpt lat="49.85166" lon="2.26686">
        <ele>98.2</ele>
        <time>2023-11-25T14:24:41Z</time>
      </trkpt>
      <trkpt lat="49.85164" lon="2.26686">
        <ele>98.2</ele>
        <time>2023-11-25T14:24:42Z</time>
      </trkpt>
      <trkpt lat="49.85163" lon="2.26686">
        <ele>98.3</ele>
        <time>2023-11-25T14:24:43Z</time>
      </trkpt>
      <trkpt lat="49.85162" lon="2.26686">
        <ele>98.3</ele>
        <time>2023-11-25T14:24:45Z</time>
      </trkpt>
      <trkpt lat="49.85161" lon="2.26686">
        <ele>98.3</ele>
        <time>2023-11-25T14:24:46Z</time>
      </trkpt>
      <trkpt lat="49.85161" lon="2.26686">
        <ele>98.3</ele>
        <time>2023-11-25T14:24:47Z</time>
      </trkpt>
      <trkpt lat="49.8516" lon="2.26686">
        <ele>98.4</ele>
        <time>2023-11-25T14:24:48Z</time>
      </trkpt>
      <trkpt lat="49.85159" lon="2.26686">
        <ele>98.4</ele>
        <time>2023-11-25T14:24:49Z</time>
      </trkpt>
      <trkpt lat="49.85159" lon="2.26687">
        <ele>98.5</ele>
        <time>2023-11-25T14:24:50Z</time>
      </trkpt>
      <trkpt lat="49.85158" lon="2.26687">
        <ele>98.5</ele>
        <time>2023-11-25T14:24:51Z</time>
      </trkpt>
      <trkpt lat="49.85157" lon="2.26688">
        <ele>98.6</ele>
        <time>2023-11-25T14:24:53Z</time>
      </trkpt>
      <trkpt lat="49.85156" lon="2.26689">
        <ele>98.6</ele>
        <time>2023-11-25T14:24:54Z</time>
      </trkpt>
      <trkpt lat="49.85156" lon="2.2669">
        <ele>98.7</ele>
        <time>2023-11-25T14:24:56Z</time>
      </trkpt>
      <trkpt lat="49.85157" lon="2.2669">
        <ele>98.7</ele>
        <time>2023-11-25T14:24:57Z</time>
      </trkpt>
      <trkpt lat="49.85157" lon="2.26691">
        <ele>98.7</ele>
        <time>2023-11-25T14:24:58Z</time>
      </trkpt>
      <trkpt lat="49.85157" lon="2.26691">
        <ele>98.7</ele>
        <time>2023-11-25T14:25:00Z</time>
      </trkpt>
      <trkpt lat="49.85158" lon="2.26691">
        <ele>98.7</ele>
        <time>2023-11-25T14:25:01Z</time>
      </trkpt>
      <trkpt lat="49.85158" lon="2.26691">
        <ele>98.8</ele>
        <time>2023-11-25T14:25:03Z</time>
      </trkpt>
      <trkpt lat="49.85158" lon="2.26691">
        <ele>98.8</ele>
        <time>2023-11-25T14:25:04Z</time>
      </trkpt>
      <trkpt lat="49.85158" lon="2.26691">
        <ele>98.8</ele>
        <time>2023-11-25T14:25:06Z</time>
      </trkpt>
      <trkpt lat="49.85158" lon="2.26691">
        <ele>98.8</ele>
        <time>2023-11-25T14:25:07Z</time>
      </trkpt>
      <trkpt lat="49.8516" lon="2.26684">
        <ele>99.1</ele>
        <time>2023-11-25T14:26:31Z</time>
      </trkpt>
      <trkpt lat="49.85159" lon="2.26682">
        <ele>99.1</ele>
        <time>2023-11-25T14:26:32Z</time>
      </trkpt>
      <trkpt lat="49.85159" lon="2.26682">
        <ele>99.2</ele>
        <time>2023-11-25T14:26:33Z</time>
      </trkpt>
      <trkpt lat="49.85158" lon="2.26681">
        <ele>99.2</ele>
        <time>2023-11-25T14:26:34Z</time>
      </trkpt>
      <trkpt lat="49.85157" lon="2.26681">
        <ele>99.3</ele>
        <time>2023-11-25T14:26:35Z</time>
      </trkpt>
      <trkpt lat="49.85157" lon="2.26681">
        <ele>99.3</ele>
        <time>2023-11-25T14:26:37Z</time>
      </trkpt>
      <trkpt lat="49.85156" lon="2.26681">
        <ele>99.4</ele>
        <time>2023-11-25T14:26:38Z</time>
      </trkpt>
      <trkpt lat="49.85155" lon="2.26681">
        <ele>99.4</ele>
        <time>2023-11-25T14:26:39Z</time>
      </trkpt>
      <trkpt lat="49.85154" lon="2.26681">
        <ele>99.5</ele>
        <time>2023-11-25T14:26:40Z</time>
      </trkpt>
      <trkpt lat="49.85151" lon="2.26681">
        <ele>99.7</ele>
        <time>2023-11-25T14:26:41Z</time>
      </trkpt>
      <trkpt lat="49.85149" lon="2.26681">
        <ele>99.8</ele>
        <time>2023-11-25T14:26:43Z</time>
      </trkpt>
      <trkpt lat="49.85148" lon="2.26681">
        <ele>99.9</ele>
        <time>2023-11-25T14:26:45Z</time>
      </trkpt>
      <trkpt lat="49.85147" lon="2.26681">
        <ele>100</ele>
        <time>2023-11-25T14:26:46Z</time>
      </trkpt>
      <trkpt lat="49.85146" lon="2.26681">
        <ele>100.1</ele>
        <time>2023-11-25T14:26:47Z</time>
      </trkpt>
      <trkpt lat="49.85145" lon="2.26681">
        <ele>100.1</ele>
        <time>2023-11-25T14:26:48Z</time>
      </trkpt>
      <trkpt lat="49.85144" lon="2.26681">
        <ele>100.1</ele>
        <time>2023-11-25T14:26:49Z</time>
      </trkpt>
      <trkpt lat="49.85143" lon="2.26681">
        <ele>100.2</ele>
        <time>2023-11-25T14:26:50Z</time>
      </trkpt>
      <trkpt lat="49.85142" lon="2.26681">
        <ele>100.2</ele>
        <time>2023-11-25T14:26:52Z</time>
      </trkpt>
      <trkpt lat="49.85141" lon="2.26681">
        <ele>100.3</ele>
        <time>2023-11-25T14:26:53Z</time>
      </trkpt>
      <trkpt lat="49.8514" lon="2.2668">
        <ele>100.4</ele>
        <time>2023-11-25T14:26:54Z</time>
      </trkpt>
      <trkpt lat="49.8514" lon="2.2668">
        <ele>100.4</ele>
        <time>2023-11-25T14:26:55Z</time>
      </trkpt>
      <trkpt lat="49.85139" lon="2.2668">
        <ele>100.5</ele>
        <time>2023-11-25T14:26:56Z</time>
      </trkpt>
      <trkpt lat="49.85138" lon="2.2668">
        <ele>100.5</ele>
        <time>2023-11-25T14:26:57Z</time>
      </trkpt>
      <trkpt lat="49.85137" lon="2.26679">
        <ele>100.6</ele>
        <time>2023-11-25T14:26:59Z</time>
      </trkpt>
      <trkpt lat="49.85135" lon="2.26678">
        <ele>100.6</ele>
        <time>2023-11-25T14:27:00Z</time>
      </trkpt>
      <trkpt lat="49.85135" lon="2.26678">
        <ele>100.7</ele>
        <time>2023-11-25T14:27:01Z</time>
      </trkpt>
      <trkpt lat="49.85134" lon="2.26677">
        <ele>100.7</ele>
        <time>2023-11-25T14:27:03Z</time>
      </trkpt>
      <trkpt lat="49.85133" lon="2.26677">
        <ele>100.8</ele>
        <time>2023-11-25T14:27:04Z</time>
      </trkpt>
      <trkpt lat="49.85132" lon="2.26677">
        <ele>100.8</ele>
        <time>2023-11-25T14:27:05Z</time>
      </trkpt>
      <trkpt lat="49.85131" lon="2.26676">
        <ele>100.9</ele>
        <time>2023-11-25T14:27:06Z</time>
      </trkpt>
      <trkpt lat="49.8513" lon="2.26675">
        <ele>100.9</ele>
        <time>2023-11-25T14:27:07Z</time>
      </trkpt>
      <trkpt lat="49.85129" lon="2.26674">
        <ele>101</ele>
        <time>2023-11-25T14:27:08Z</time>
      </trkpt>
      <trkpt lat="49.85128" lon="2.26673">
        <ele>101</ele>
        <time>2023-11-25T14:27:09Z</time>
      </trkpt>
      <trkpt lat="49.85127" lon="2.26673">
        <ele>101</ele>
        <time>2023-11-25T14:27:10Z</time>
      </trkpt>
      <trkpt lat="49.85126" lon="2.26672">
        <ele>101.1</ele>
        <time>2023-11-25T14:27:12Z</time>
      </trkpt>
      <trkpt lat="49.85125" lon="2.26672">
        <ele>101.1</ele>
        <time>2023-11-25T14:27:13Z</time>
      </trkpt>
      <trkpt lat="49.85124" lon="2.26672">
        <ele>101.1</ele>
        <time>2023-11-25T14:27:14Z</time>
      </trkpt>
      <trkpt lat="49.85123" lon="2.26672">
        <ele>101.2</ele>
        <time>2023-11-25T14:27:15Z</time>
      </trkpt>
      <trkpt lat="49.85122" lon="2.26672">
        <ele>101.2</ele>
        <time>2023-11-25T14:27:16Z</time>
      </trkpt>
      <trkpt lat="49.85121" lon="2.26673">
        <ele>101.3</ele>
        <time>2023-11-25T14:27:17Z</time>
      </trkpt>
      <trkpt lat="49.8512" lon="2.26674">
        <ele>101.6</ele>
        <time>2023-11-25T14:27:19Z</time>
      </trkpt>
      <trkpt lat="49.85119" lon="2.26675">
        <ele>101.6</ele>
        <time>2023-11-25T14:27:20Z</time>
      </trkpt>
      <trkpt lat="49.85119" lon="2.26675">
        <ele>101.6</ele>
        <time>2023-11-25T14:27:21Z</time>
      </trkpt>
      <trkpt lat="49.85118" lon="2.26677">
        <ele>101.7</ele>
        <time>2023-11-25T14:27:23Z</time>
      </trkpt>
      <trkpt lat="49.85118" lon="2.26678">
        <ele>101.7</ele>
        <time>2023-11-25T14:27:24Z</time>
      </trkpt>
      <trkpt lat="49.85117" lon="2.26679">
        <ele>101.8</ele>
        <time>2023-11-25T14:27:25Z</time>
      </trkpt>
      <trkpt lat="49.85117" lon="2.2668">
        <ele>101.8</ele>
        <time>2023-11-25T14:27:26Z</time>
      </trkpt>
      <trkpt lat="49.85117" lon="2.26681">
        <ele>101.8</ele>
        <time>2023-11-25T14:27:27Z</time>
      </trkpt>
      <trkpt lat="49.85116" lon="2.26681">
        <ele>101.8</ele>
        <time>2023-11-25T14:27:28Z</time>
      </trkpt>
      <trkpt lat="49.85116" lon="2.26682">
        <ele>101.8</ele>
        <time>2023-11-25T14:27:30Z</time>
      </trkpt>
      <trkpt lat="49.85116" lon="2.26683">
        <ele>101.9</ele>
        <time>2023-11-25T14:27:31Z</time>
      </trkpt>
      <trkpt lat="49.85116" lon="2.26683">
        <ele>101.9</ele>
        <time>2023-11-25T14:27:33Z</time>
      </trkpt>
      <trkpt lat="49.85117" lon="2.26683">
        <ele>101.9</ele>
        <time>2023-11-25T14:27:34Z</time>
      </trkpt>
      <trkpt lat="49.85118" lon="2.26683">
        <ele>101.9</ele>
        <time>2023-11-25T14:27:36Z</time>
      </trkpt>
      <trkpt lat="49.85118" lon="2.26683">
        <ele>102</ele>
        <time>2023-11-25T14:27:37Z</time>
      </trkpt>
      <trkpt lat="49.85119" lon="2.26682">
        <ele>102</ele>
        <time>2023-11-25T14:27:38Z</time>
      </trkpt>
      <trkpt lat="49.85119" lon="2.26682">
        <ele>102</ele>
        <time>2023-11-25T14:27:40Z</time>
      </trkpt>
      <trkpt lat="49.85119" lon="2.26682">
        <ele>102</ele>
        <time>2023-11-25T14:27:41Z</time>
      </trkpt>
      <trkpt lat="49.8512" lon="2.26681">
        <ele>102</ele>
        <time>2023-11-25T14:27:43Z</time>
      </trkpt>
      <trkpt lat="49.8512" lon="2.26681">
        <ele>102</ele>
        <time>2023-11-25T14:27:44Z</time>
      </trkpt>
      <trkpt lat="49.8512" lon="2.26681">
        <ele>102</ele>
        <time>2023-11-25T14:27:46Z</time>
      </trkpt>
      <trkpt lat="49.8512" lon="2.26681">
        <ele>102</ele>
        <time>2023-11-25T14:27:47Z</time>
      </trkpt>
      <trkpt lat="49.85121" lon="2.26681">
        <ele>102</ele>
        <time>2023-11-25T14:27:48Z</time>
      </trkpt>
      <trkpt lat="49.85118" lon="2.26681">
        <ele>102.1</ele>
        <time>2023-11-25T14:28:06Z</time>
      </trkpt>
      <trkpt lat="49.85116" lon="2.26681">
        <ele>102.2</ele>
        <time>2023-11-25T14:28:08Z</time>
      </trkpt>
      <trkpt lat="49.85115" lon="2.26682">
        <ele>102.2</ele>
        <time>2023-11-25T14:28:09Z</time>
      </trkpt>
      <trkpt lat="49.85114" lon="2.26682">
        <ele>102.3</ele>
        <time>2023-11-25T14:28:10Z</time>
      </trkpt>
      <trkpt lat="49.85114" lon="2.26683">
        <ele>102.3</ele>
        <time>2023-11-25T14:28:11Z</time>
      </trkpt>
      <trkpt lat="49.85113" lon="2.26684">
        <ele>102.3</ele>
        <time>2023-11-25T14:28:12Z</time>
      </trkpt>
      <trkpt lat="49.85112" lon="2.26686">
        <ele>102.4</ele>
        <time>2023-11-25T14:28:13Z</time>
      </trkpt>
      <trkpt lat="49.85111" lon="2.26687">
        <ele>102.4</ele>
        <time>2023-11-25T14:28:15Z</time>
      </trkpt>
      <trkpt lat="49.85111" lon="2.26689">
        <ele>102.4</ele>
        <time>2023-11-25T14:28:16Z</time>
      </trkpt>
      <trkpt lat="49.8511" lon="2.2669">
        <ele>102.5</ele>
        <time>2023-11-25T14:28:17Z</time>
      </trkpt>
      <trkpt lat="49.8511" lon="2.26692">
        <ele>102.5</ele>
        <time>2023-11-25T14:28:18Z</time>
      </trkpt>
      <trkpt lat="49.85109" lon="2.26693">
        <ele>102.5</ele>
        <time>2023-11-25T14:28:19Z</time>
      </trkpt>
      <trkpt lat="49.85109" lon="2.26694">
        <ele>102.6</ele>
        <time>2023-11-25T14:28:20Z</time>
      </trkpt>
      <trkpt lat="49.85108" lon="2.26695">
        <ele>102.6</ele>
        <time>2023-11-25T14:28:21Z</time>
      </trkpt>
      <trkpt lat="49.85108" lon="2.26696">
        <ele>102.6</ele>
        <time>2023-11-25T14:28:23Z</time>
      </trkpt>
      <trkpt lat="49.85107" lon="2.26697">
        <ele>102.6</ele>
        <time>2023-11-25T14:28:24Z</time>
      </trkpt>
      <trkpt lat="49.85107" lon="2.26698">
        <ele>102.7</ele>
        <time>2023-11-25T14:28:25Z</time>
      </trkpt>
      <trkpt lat="49.85106" lon="2.26699">
        <ele>102.7</ele>
        <time>2023-11-25T14:28:26Z</time>
      </trkpt>
      <trkpt lat="49.85105" lon="2.267">
        <ele>102.7</ele>
        <time>2023-11-25T14:28:27Z</time>
      </trkpt>
      <trkpt lat="49.85104" lon="2.26701">
        <ele>102.8</ele>
        <time>2023-11-25T14:28:28Z</time>
      </trkpt>
      <trkpt lat="49.85103" lon="2.26703">
        <ele>102.8</ele>
        <time>2023-11-25T14:28:30Z</time>
      </trkpt>
      <trkpt lat="49.85102" lon="2.26705">
        <ele>102.8</ele>
        <time>2023-11-25T14:28:31Z</time>
      </trkpt>
      <trkpt lat="49.85101" lon="2.26706">
        <ele>102.9</ele>
        <time>2023-11-25T14:28:32Z</time>
      </trkpt>
      <trkpt lat="49.85099" lon="2.26707">
        <ele>102.9</ele>
        <time>2023-11-25T14:28:33Z</time>
      </trkpt>
      <trkpt lat="49.85097" lon="2.26707">
        <ele>103</ele>
        <time>2023-11-25T14:28:34Z</time>
      </trkpt>
      <trkpt lat="49.85097" lon="2.26706">
        <ele>103</ele>
        <time>2023-11-25T14:28:35Z</time>
      </trkpt>
      <trkpt lat="49.85096" lon="2.26706">
        <ele>103</ele>
        <time>2023-11-25T14:28:36Z</time>
      </trkpt>
      <trkpt lat="49.85095" lon="2.26706">
        <ele>103.1</ele>
        <time>2023-11-25T14:28:37Z</time>
      </trkpt>
      <trkpt lat="49.85093" lon="2.26705">
        <ele>103.1</ele>
        <time>2023-11-25T14:28:39Z</time>
      </trkpt>
      <trkpt lat="49.85092" lon="2.26705">
        <ele>103.1</ele>
        <time>2023-11-25T14:28:40Z</time>
      </trkpt>
      <trkpt lat="49.85092" lon="2.26705">
        <ele>103.1</ele>
        <time>2023-11-25T14:28:41Z</time>
      </trkpt>
      <trkpt lat="49.85092" lon="2.26706">
        <ele>103.2</ele>
        <time>2023-11-25T14:28:43Z</time>
      </trkpt>
      <trkpt lat="49.85092" lon="2.26708">
        <ele>103.2</ele>
        <time>2023-11-25T14:28:44Z</time>
      </trkpt>
      <trkpt lat="49.85092" lon="2.26709">
        <ele>103.2</ele>
        <time>2023-11-25T14:28:45Z</time>
      </trkpt>
      <trkpt lat="49.85093" lon="2.2671">
        <ele>103.2</ele>
        <time>2023-11-25T14:28:46Z</time>
      </trkpt>
      <trkpt lat="49.85093" lon="2.26714">
        <ele>103.3</ele>
        <time>2023-11-25T14:28:47Z</time>
      </trkpt>
      <trkpt lat="49.85093" lon="2.26715">
        <ele>103.3</ele>
        <time>2023-11-25T14:28:48Z</time>
      </trkpt>
      <trkpt lat="49.85092" lon="2.26716">
        <ele>103.4</ele>
        <time>2023-11-25T14:28:49Z</time>
      </trkpt>
      <trkpt lat="49.85091" lon="2.26719">
        <ele>103.4</ele>
        <time>2023-11-25T14:28:51Z</time>
      </trkpt>
      <trkpt lat="49.8509" lon="2.26721">
        <ele>103.5</ele>
        <time>2023-11-25T14:28:52Z</time>
      </trkpt>
      <trkpt lat="49.85089" lon="2.26723">
        <ele>103.5</ele>
        <time>2023-11-25T14:28:53Z</time>
      </trkpt>
      <trkpt lat="49.85089" lon="2.26725">
        <ele>103.5</ele>
        <time>2023-11-25T14:28:55Z</time>
      </trkpt>
      <trkpt lat="49.85088" lon="2.26727">
        <ele>103.6</ele>
        <time>2023-11-25T14:28:56Z</time>
      </trkpt>
      <trkpt lat="49.85087" lon="2.26728">
        <ele>103.6</ele>
        <time>2023-11-25T14:28:57Z</time>
      </trkpt>
      <trkpt lat="49.85086" lon="2.2673">
        <ele>103.7</ele>
        <time>2023-11-25T14:28:58Z</time>
      </trkpt>
      <trkpt lat="49.85086" lon="2.26731">
        <ele>103.7</ele>
        <time>2023-11-25T14:29:00Z</time>
      </trkpt>
      <trkpt lat="49.85085" lon="2.26733">
        <ele>103.7</ele>
        <time>2023-11-25T14:29:01Z</time>
      </trkpt>
      <trkpt lat="49.85084" lon="2.26734">
        <ele>103.8</ele>
        <time>2023-11-25T14:29:02Z</time>
      </trkpt>
      <trkpt lat="49.85084" lon="2.26735">
        <ele>103.8</ele>
        <time>2023-11-25T14:29:03Z</time>
      </trkpt>
      <trkpt lat="49.85084" lon="2.26737">
        <ele>103.8</ele>
        <time>2023-11-25T14:29:05Z</time>
      </trkpt>
      <trkpt lat="49.85083" lon="2.26738">
        <ele>103.8</ele>
        <time>2023-11-25T14:29:06Z</time>
      </trkpt>
      <trkpt lat="49.85083" lon="2.26739">
        <ele>103.9</ele>
        <time>2023-11-25T14:29:07Z</time>
      </trkpt>
      <trkpt lat="49.85082" lon="2.2674">
        <ele>103.9</ele>
        <time>2023-11-25T14:29:08Z</time>
      </trkpt>
      <trkpt lat="49.85082" lon="2.26741">
        <ele>103.9</ele>
        <time>2023-11-25T14:29:09Z</time>
      </trkpt>
      <trkpt lat="49.85081" lon="2.26742">
        <ele>103.9</ele>
        <time>2023-11-25T14:29:10Z</time>
      </trkpt>
      <trkpt lat="49.85081" lon="2.26742">
        <ele>103.9</ele>
        <time>2023-11-25T14:29:12Z</time>
      </trkpt>
      <trkpt lat="49.85081" lon="2.26743">
        <ele>104</ele>
        <time>2023-11-25T14:29:13Z</time>
      </trkpt>
      <trkpt lat="49.8508" lon="2.26742">
        <ele>104</ele>
        <time>2023-11-25T14:29:14Z</time>
      </trkpt>
      <trkpt lat="49.85081" lon="2.2674">
        <ele>104</ele>
        <time>2023-11-25T14:29:16Z</time>
      </trkpt>
      <trkpt lat="49.85081" lon="2.26738">
        <ele>104</ele>
        <time>2023-11-25T14:29:17Z</time>
      </trkpt>
      <trkpt lat="49.85081" lon="2.26737">
        <ele>104.1</ele>
        <time>2023-11-25T14:29:19Z</time>
      </trkpt>
      <trkpt lat="49.85082" lon="2.26736">
        <ele>104.1</ele>
        <time>2023-11-25T14:29:20Z</time>
      </trkpt>
      <trkpt lat="49.85082" lon="2.26734">
        <ele>104.1</ele>
        <time>2023-11-25T14:29:22Z</time>
      </trkpt>
      <trkpt lat="49.85082" lon="2.26735">
        <ele>104.1</ele>
        <time>2023-11-25T14:29:23Z</time>
      </trkpt>
      <trkpt lat="49.85082" lon="2.26737">
        <ele>104.2</ele>
        <time>2023-11-25T14:29:25Z</time>
      </trkpt>
      <trkpt lat="49.85082" lon="2.26738">
        <ele>104.2</ele>
        <time>2023-11-25T14:29:26Z</time>
      </trkpt>
      <trkpt lat="49.85081" lon="2.26739">
        <ele>104.2</ele>
        <time>2023-11-25T14:29:27Z</time>
      </trkpt>
      <trkpt lat="49.85081" lon="2.26741">
        <ele>104.3</ele>
        <time>2023-11-25T14:29:39Z</time>
      </trkpt>
      <trkpt lat="49.85081" lon="2.26742">
        <ele>104.3</ele>
        <time>2023-11-25T14:29:41Z</time>
      </trkpt>
      <trkpt lat="49.85081" lon="2.26744">
        <ele>104.3</ele>
        <time>2023-11-25T14:29:42Z</time>
      </trkpt>
      <trkpt lat="49.85081" lon="2.26745">
        <ele>104.3</ele>
        <time>2023-11-25T14:29:43Z</time>
      </trkpt>
      <trkpt lat="49.85081" lon="2.26746">
        <ele>104.4</ele>
        <time>2023-11-25T14:29:44Z</time>
      </trkpt>
      <trkpt lat="49.85081" lon="2.26748">
        <ele>104.4</ele>
        <time>2023-11-25T14:29:45Z</time>
      </trkpt>
      <trkpt lat="49.85081" lon="2.26749">
        <ele>104.4</ele>
        <time>2023-11-25T14:29:46Z</time>
      </trkpt>
      <trkpt lat="49.85081" lon="2.2675">
        <ele>104.4</ele>
        <time>2023-11-25T14:29:48Z</time>
      </trkpt>
      <trkpt lat="49.85081" lon="2.26751">
        <ele>104.5</ele>
        <time>2023-11-25T14:29:49Z</time>
      </trkpt>
      <trkpt lat="49.8508" lon="2.26753">
        <ele>104.5</ele>
        <time>2023-11-25T14:29:50Z</time>
      </trkpt>
      <trkpt lat="49.85081" lon="2.26753">
        <ele>104.5</ele>
        <time>2023-11-25T14:29:51Z</time>
      </trkpt>
      <trkpt lat="49.85081" lon="2.26752">
        <ele>104.5</ele>
        <time>2023-11-25T14:29:53Z</time>
      </trkpt>
      <trkpt lat="49.85081" lon="2.26753">
        <ele>104.5</ele>
        <time>2023-11-25T14:29:54Z</time>
      </trkpt>
      <trkpt lat="49.85081" lon="2.26753">
        <ele>104.6</ele>
        <time>2023-11-25T14:29:55Z</time>
      </trkpt>
      <trkpt lat="49.8508" lon="2.26752">
        <ele>104.6</ele>
        <time>2023-11-25T14:29:57Z</time>
      </trkpt>
      <trkpt lat="49.85079" lon="2.26752">
        <ele>104.6</ele>
        <time>2023-11-25T14:29:58Z</time>
      </trkpt>
      <trkpt lat="49.85079" lon="2.26752">
        <ele>104.6</ele>
        <time>2023-11-25T14:30:00Z</time>
      </trkpt>
      <trkpt lat="49.85078" lon="2.26752">
        <ele>104.7</ele>
        <time>2023-11-25T14:30:01Z</time>
      </trkpt>
      <trkpt lat="49.85078" lon="2.26754">
        <ele>104.7</ele>
        <time>2023-11-25T14:30:02Z</time>
      </trkpt>
      <trkpt lat="49.85077" lon="2.26755">
        <ele>104.7</ele>
        <time>2023-11-25T14:30:03Z</time>
      </trkpt>
      <trkpt lat="49.85077" lon="2.26756">
        <ele>104.8</ele>
        <time>2023-11-25T14:30:05Z</time>
      </trkpt>
      <trkpt lat="49.85076" lon="2.26757">
        <ele>104.8</ele>
        <time>2023-11-25T14:30:06Z</time>
      </trkpt>
      <trkpt lat="49.85075" lon="2.2676">
        <ele>104.9</ele>
        <time>2023-11-25T14:30:07Z</time>
      </trkpt>
      <trkpt lat="49.85075" lon="2.26761">
        <ele>104.9</ele>
        <time>2023-11-25T14:30:09Z</time>
      </trkpt>
      <trkpt lat="49.85074" lon="2.26763">
        <ele>104.9</ele>
        <time>2023-11-25T14:30:10Z</time>
      </trkpt>
      <trkpt lat="49.85074" lon="2.26764">
        <ele>105</ele>
        <time>2023-11-25T14:30:11Z</time>
      </trkpt>
      <trkpt lat="49.85073" lon="2.26765">
        <ele>105</ele>
        <time>2023-11-25T14:30:13Z</time>
      </trkpt>
      <trkpt lat="49.85073" lon="2.26766">
        <ele>105</ele>
        <time>2023-11-25T14:30:14Z</time>
      </trkpt>
      <trkpt lat="49.85073" lon="2.26767">
        <ele>105</ele>
        <time>2023-11-25T14:30:15Z</time>
      </trkpt>
      <trkpt lat="49.85073" lon="2.26768">
        <ele>105.1</ele>
        <time>2023-11-25T14:30:17Z</time>
      </trkpt>
      <trkpt lat="49.85072" lon="2.26769">
        <ele>105.1</ele>
        <time>2023-11-25T14:30:18Z</time>
      </trkpt>
      <trkpt lat="49.85072" lon="2.2677">
        <ele>105.1</ele>
        <time>2023-11-25T14:30:20Z</time>
      </trkpt>
      <trkpt lat="49.85072" lon="2.2677">
        <ele>105.1</ele>
        <time>2023-11-25T14:30:21Z</time>
      </trkpt>
      <trkpt lat="49.85071" lon="2.26771">
        <ele>105.1</ele>
        <time>2023-11-25T14:30:22Z</time>
      </trkpt>
      <trkpt lat="49.85071" lon="2.26771">
        <ele>105.2</ele>
        <time>2023-11-25T14:30:23Z</time>
      </trkpt>
      <trkpt lat="49.85071" lon="2.26772">
        <ele>105.2</ele>
        <time>2023-11-25T14:30:24Z</time>
      </trkpt>
      <trkpt lat="49.85071" lon="2.26772">
        <ele>105.2</ele>
        <time>2023-11-25T14:30:25Z</time>
      </trkpt>
      <trkpt lat="49.8507" lon="2.26772">
        <ele>105.2</ele>
        <time>2023-11-25T14:30:27Z</time>
      </trkpt>
      <trkpt lat="49.8507" lon="2.26771">
        <ele>105.2</ele>
        <time>2023-11-25T14:30:28Z</time>
      </trkpt>
      <trkpt lat="49.8507" lon="2.26772">
        <ele>105.2</ele>
        <time>2023-11-25T14:30:29Z</time>
      </trkpt>
      <trkpt lat="49.8507" lon="2.26772">
        <ele>105.2</ele>
        <time>2023-11-25T14:30:30Z</time>
      </trkpt>
      <trkpt lat="49.8507" lon="2.26773">
        <ele>105.3</ele>
        <time>2023-11-25T14:30:32Z</time>
      </trkpt>
      <trkpt lat="49.85069" lon="2.26774">
        <ele>105.3</ele>
        <time>2023-11-25T14:30:33Z</time>
      </trkpt>
      <trkpt lat="49.85069" lon="2.26775">
        <ele>105.3</ele>
        <time>2023-11-25T14:30:35Z</time>
      </trkpt>
      <trkpt lat="49.85069" lon="2.26776">
        <ele>105.3</ele>
        <time>2023-11-25T14:30:36Z</time>
      </trkpt>
      <trkpt lat="49.85068" lon="2.26777">
        <ele>105.4</ele>
        <time>2023-11-25T14:30:38Z</time>
      </trkpt>
      <trkpt lat="49.85068" lon="2.26778">
        <ele>105.4</ele>
        <time>2023-11-25T14:30:39Z</time>
      </trkpt>
      <trkpt lat="49.85067" lon="2.26779">
        <ele>105.4</ele>
        <time>2023-11-25T14:30:40Z</time>
      </trkpt>
      <trkpt lat="49.85067" lon="2.26781">
        <ele>105.5</ele>
        <time>2023-11-25T14:30:42Z</time>
      </trkpt>
      <trkpt lat="49.85066" lon="2.26782">
        <ele>105.5</ele>
        <time>2023-11-25T14:30:43Z</time>
      </trkpt>
      <trkpt lat="49.85066" lon="2.26783">
        <ele>105.5</ele>
        <time>2023-11-25T14:30:44Z</time>
      </trkpt>
      <trkpt lat="49.85066" lon="2.26784">
        <ele>105.5</ele>
        <time>2023-11-25T14:30:45Z</time>
      </trkpt>
      <trkpt lat="49.85065" lon="2.26786">
        <ele>105.6</ele>
        <time>2023-11-25T14:30:47Z</time>
      </trkpt>
      <trkpt lat="49.85065" lon="2.26787">
        <ele>105.6</ele>
        <time>2023-11-25T14:30:48Z</time>
      </trkpt>
      <trkpt lat="49.85065" lon="2.26788">
        <ele>105.6</ele>
        <time>2023-11-25T14:30:49Z</time>
      </trkpt>
      <trkpt lat="49.85064" lon="2.2679">
        <ele>105.7</ele>
        <time>2023-11-25T14:30:50Z</time>
      </trkpt>
      <trkpt lat="49.85064" lon="2.26791">
        <ele>105.7</ele>
        <time>2023-11-25T14:30:51Z</time>
      </trkpt>
      <trkpt lat="49.85064" lon="2.26792">
        <ele>105.7</ele>
        <time>2023-11-25T14:30:52Z</time>
      </trkpt>
      <trkpt lat="49.85064" lon="2.26794">
        <ele>105.7</ele>
        <time>2023-11-25T14:30:53Z</time>
      </trkpt>
      <trkpt lat="49.85064" lon="2.26795">
        <ele>105.8</ele>
        <time>2023-11-25T14:30:55Z</time>
      </trkpt>
      <trkpt lat="49.85064" lon="2.26795">
        <ele>105.8</ele>
        <time>2023-11-25T14:30:56Z</time>
      </trkpt>
      <trkpt lat="49.85063" lon="2.26796">
        <ele>105.8</ele>
        <time>2023-11-25T14:30:57Z</time>
      </trkpt>
      <trkpt lat="49.85063" lon="2.26796">
        <ele>105.8</ele>
        <time>2023-11-25T14:30:58Z</time>
      </trkpt>
      <trkpt lat="49.85063" lon="2.26797">
        <ele>105.8</ele>
        <time>2023-11-25T14:30:59Z</time>
      </trkpt>
      <trkpt lat="49.85063" lon="2.26797">
        <ele>105.8</ele>
        <time>2023-11-25T14:31:00Z</time>
      </trkpt>
      <trkpt lat="49.85063" lon="2.26798">
        <ele>105.8</ele>
        <time>2023-11-25T14:31:01Z</time>
      </trkpt>
      <trkpt lat="49.85063" lon="2.26798">
        <ele>105.9</ele>
        <time>2023-11-25T14:31:02Z</time>
      </trkpt>
      <trkpt lat="49.85063" lon="2.26799">
        <ele>105.9</ele>
        <time>2023-11-25T14:31:04Z</time>
      </trkpt>
      <trkpt lat="49.85063" lon="2.268">
        <ele>105.9</ele>
        <time>2023-11-25T14:31:05Z</time>
      </trkpt>
      <trkpt lat="49.85063" lon="2.26801">
        <ele>105.9</ele>
        <time>2023-11-25T14:31:06Z</time>
      </trkpt>
      <trkpt lat="49.85063" lon="2.26801">
        <ele>105.9</ele>
        <time>2023-11-25T14:31:07Z</time>
      </trkpt>
      <trkpt lat="49.85062" lon="2.26802">
        <ele>105.9</ele>
        <time>2023-11-25T14:31:08Z</time>
      </trkpt>
      <trkpt lat="49.85062" lon="2.26803">
        <ele>106</ele>
        <time>2023-11-25T14:31:09Z</time>
      </trkpt>
      <trkpt lat="49.85062" lon="2.26805">
        <ele>106</ele>
        <time>2023-11-25T14:31:11Z</time>
      </trkpt>
      <trkpt lat="49.85062" lon="2.26806">
        <ele>106</ele>
        <time>2023-11-25T14:31:12Z</time>
      </trkpt>
      <trkpt lat="49.85062" lon="2.26807">
        <ele>106</ele>
        <time>2023-11-25T14:31:13Z</time>
      </trkpt>
      <trkpt lat="49.85062" lon="2.26809">
        <ele>106.1</ele>
        <time>2023-11-25T14:31:15Z</time>
      </trkpt>
      <trkpt lat="49.85062" lon="2.2681">
        <ele>106.1</ele>
        <time>2023-11-25T14:31:16Z</time>
      </trkpt>
      <trkpt lat="49.85061" lon="2.26811">
        <ele>106.1</ele>
        <time>2023-11-25T14:31:18Z</time>
      </trkpt>
      <trkpt lat="49.85061" lon="2.26812">
        <ele>106.2</ele>
        <time>2023-11-25T14:31:19Z</time>
      </trkpt>
      <trkpt lat="49.8506" lon="2.26814">
        <ele>106.2</ele>
        <time>2023-11-25T14:31:21Z</time>
      </trkpt>
      <trkpt lat="49.8506" lon="2.26814">
        <ele>106.2</ele>
        <time>2023-11-25T14:31:22Z</time>
      </trkpt>
      <trkpt lat="49.85059" lon="2.26815">
        <ele>106.3</ele>
        <time>2023-11-25T14:31:23Z</time>
      </trkpt>
      <trkpt lat="49.85058" lon="2.26815">
        <ele>106.3</ele>
        <time>2023-11-25T14:31:25Z</time>
      </trkpt>
      <trkpt lat="49.85056" lon="2.26816">
        <ele>106.3</ele>
        <time>2023-11-25T14:31:26Z</time>
      </trkpt>
      <trkpt lat="49.85055" lon="2.26817">
        <ele>106.4</ele>
        <time>2023-11-25T14:31:27Z</time>
      </trkpt>
      <trkpt lat="49.85055" lon="2.26817">
        <ele>106.4</ele>
        <time>2023-11-25T14:31:28Z</time>
      </trkpt>
      <trkpt lat="49.85054" lon="2.26818">
        <ele>106.4</ele>
        <time>2023-11-25T14:31:29Z</time>
      </trkpt>
      <trkpt lat="49.85054" lon="2.2682">
        <ele>106.5</ele>
        <time>2023-11-25T14:31:30Z</time>
      </trkpt>
      <trkpt lat="49.85054" lon="2.26822">
        <ele>106.5</ele>
        <time>2023-11-25T14:31:32Z</time>
      </trkpt>
      <trkpt lat="49.85055" lon="2.26822">
        <ele>106.5</ele>
        <time>2023-11-25T14:31:33Z</time>
      </trkpt>
      <trkpt lat="49.85054" lon="2.26823">
        <ele>106.5</ele>
        <time>2023-11-25T14:31:34Z</time>
      </trkpt>
      <trkpt lat="49.85054" lon="2.26824">
        <ele>106.5</ele>
        <time>2023-11-25T14:31:36Z</time>
      </trkpt>
      <trkpt lat="49.85054" lon="2.26825">
        <ele>106.6</ele>
        <time>2023-11-25T14:31:37Z</time>
      </trkpt>
      <trkpt lat="49.85055" lon="2.26825">
        <ele>106.6</ele>
        <time>2023-11-25T14:31:38Z</time>
      </trkpt>
      <trkpt lat="49.85055" lon="2.26826">
        <ele>106.6</ele>
        <time>2023-11-25T14:31:39Z</time>
      </trkpt>
      <trkpt lat="49.85054" lon="2.26828">
        <ele>106.7</ele>
        <time>2023-11-25T14:31:40Z</time>
      </trkpt>
      <trkpt lat="49.85054" lon="2.26829">
        <ele>106.7</ele>
        <time>2023-11-25T14:31:41Z</time>
      </trkpt>
      <trkpt lat="49.85053" lon="2.2683">
        <ele>106.7</ele>
        <time>2023-11-25T14:31:43Z</time>
      </trkpt>
      <trkpt lat="49.85053" lon="2.26832">
        <ele>106.7</ele>
        <time>2023-11-25T14:31:44Z</time>
      </trkpt>
      <trkpt lat="49.85052" lon="2.26833">
        <ele>106.8</ele>
        <time>2023-11-25T14:31:45Z</time>
      </trkpt>
      <trkpt lat="49.85052" lon="2.26834">
        <ele>106.8</ele>
        <time>2023-11-25T14:31:46Z</time>
      </trkpt>
      <trkpt lat="49.85051" lon="2.26836">
        <ele>106.8</ele>
        <time>2023-11-25T14:31:47Z</time>
      </trkpt>
      <trkpt lat="49.8505" lon="2.26838">
        <ele>106.9</ele>
        <time>2023-11-25T14:31:48Z</time>
      </trkpt>
      <trkpt lat="49.8505" lon="2.26839">
        <ele>106.9</ele>
        <time>2023-11-25T14:31:49Z</time>
      </trkpt>
      <trkpt lat="49.85049" lon="2.2684">
        <ele>106.9</ele>
        <time>2023-11-25T14:31:51Z</time>
      </trkpt>
      <trkpt lat="49.85049" lon="2.26841">
        <ele>107</ele>
        <time>2023-11-25T14:31:52Z</time>
      </trkpt>
      <trkpt lat="49.85048" lon="2.26842">
        <ele>107</ele>
        <time>2023-11-25T14:31:53Z</time>
      </trkpt>
      <trkpt lat="49.85048" lon="2.26843">
        <ele>107</ele>
        <time>2023-11-25T14:31:54Z</time>
      </trkpt>
      <trkpt lat="49.85047" lon="2.26844">
        <ele>107.1</ele>
        <time>2023-11-25T14:31:55Z</time>
      </trkpt>
      <trkpt lat="49.85047" lon="2.26845">
        <ele>107.1</ele>
        <time>2023-11-25T14:31:56Z</time>
      </trkpt>
      <trkpt lat="49.85046" lon="2.26846">
        <ele>107.1</ele>
        <time>2023-11-25T14:31:57Z</time>
      </trkpt>
      <trkpt lat="49.85045" lon="2.26847">
        <ele>107.2</ele>
        <time>2023-11-25T14:31:59Z</time>
      </trkpt>
      <trkpt lat="49.85045" lon="2.26849">
        <ele>107.2</ele>
        <time>2023-11-25T14:32:00Z</time>
      </trkpt>
      <trkpt lat="49.85044" lon="2.2685">
        <ele>107.2</ele>
        <time>2023-11-25T14:32:01Z</time>
      </trkpt>
      <trkpt lat="49.85043" lon="2.26851">
        <ele>107.2</ele>
        <time>2023-11-25T14:32:02Z</time>
      </trkpt>
      <trkpt lat="49.85043" lon="2.26852">
        <ele>107.3</ele>
        <time>2023-11-25T14:32:03Z</time>
      </trkpt>
      <trkpt lat="49.85042" lon="2.26853">
        <ele>107.3</ele>
        <time>2023-11-25T14:32:05Z</time>
      </trkpt>
      <trkpt lat="49.85041" lon="2.26854">
        <ele>107.3</ele>
        <time>2023-11-25T14:32:06Z</time>
      </trkpt>
      <trkpt lat="49.85041" lon="2.26854">
        <ele>107.4</ele>
        <time>2023-11-25T14:32:07Z</time>
      </trkpt>
      <trkpt lat="49.8504" lon="2.26855">
        <ele>107.4</ele>
        <time>2023-11-25T14:32:08Z</time>
      </trkpt>
      <trkpt lat="49.8504" lon="2.26855">
        <ele>107.4</ele>
        <time>2023-11-25T14:32:09Z</time>
      </trkpt>
      <trkpt lat="49.85039" lon="2.26856">
        <ele>107.4</ele>
        <time>2023-11-25T14:32:10Z</time>
      </trkpt>
      <trkpt lat="49.85039" lon="2.26856">
        <ele>107.4</ele>
        <time>2023-11-25T14:32:11Z</time>
      </trkpt>
      <trkpt lat="49.85038" lon="2.26857">
        <ele>107.5</ele>
        <time>2023-11-25T14:32:13Z</time>
      </trkpt>
      <trkpt lat="49.85038" lon="2.26857">
        <ele>107.5</ele>
        <time>2023-11-25T14:32:14Z</time>
      </trkpt>
      <trkpt lat="49.85038" lon="2.26858">
        <ele>107.5</ele>
        <time>2023-11-25T14:32:15Z</time>
      </trkpt>
      <trkpt lat="49.85038" lon="2.26858">
        <ele>107.5</ele>
        <time>2023-11-25T14:32:16Z</time>
      </trkpt>
      <trkpt lat="49.85037" lon="2.26858">
        <ele>107.5</ele>
        <time>2023-11-25T14:32:17Z</time>
      </trkpt>
      <trkpt lat="49.85037" lon="2.26857">
        <ele>107.5</ele>
        <time>2023-11-25T14:32:19Z</time>
      </trkpt>
      <trkpt lat="49.85036" lon="2.26857">
        <ele>107.6</ele>
        <time>2023-11-25T14:32:20Z</time>
      </trkpt>
      <trkpt lat="49.85036" lon="2.26857">
        <ele>107.6</ele>
        <time>2023-11-25T14:32:21Z</time>
      </trkpt>
      <trkpt lat="49.85035" lon="2.26857">
        <ele>107.6</ele>
        <time>2023-11-25T14:32:23Z</time>
      </trkpt>
      <trkpt lat="49.85035" lon="2.26857">
        <ele>107.6</ele>
        <time>2023-11-25T14:32:24Z</time>
      </trkpt>
      <trkpt lat="49.85035" lon="2.26857">
        <ele>107.6</ele>
        <time>2023-11-25T14:32:25Z</time>
      </trkpt>
      <trkpt lat="49.85035" lon="2.26857">
        <ele>107.6</ele>
        <time>2023-11-25T14:32:26Z</time>
      </trkpt>
      <trkpt lat="49.85035" lon="2.26858">
        <ele>107.6</ele>
        <time>2023-11-25T14:32:27Z</time>
      </trkpt>
      <trkpt lat="49.85035" lon="2.26858">
        <ele>107.6</ele>
        <time>2023-11-25T14:32:28Z</time>
      </trkpt>
      <trkpt lat="49.85035" lon="2.26859">
        <ele>107.6</ele>
        <time>2023-11-25T14:32:29Z</time>
      </trkpt>
      <trkpt lat="49.85035" lon="2.26859">
        <ele>107.7</ele>
        <time>2023-11-25T14:32:31Z</time>
      </trkpt>
      <trkpt lat="49.85034" lon="2.2686">
        <ele>107.7</ele>
        <time>2023-11-25T14:32:32Z</time>
      </trkpt>
      <trkpt lat="49.85034" lon="2.26861">
        <ele>107.7</ele>
        <time>2023-11-25T14:32:33Z</time>
      </trkpt>
      <trkpt lat="49.85035" lon="2.26861">
        <ele>107.7</ele>
        <time>2023-11-25T14:32:34Z</time>
      </trkpt>
      <trkpt lat="49.85035" lon="2.26861">
        <ele>107.7</ele>
        <time>2023-11-25T14:32:35Z</time>
      </trkpt>
      <trkpt lat="49.85035" lon="2.26861">
        <ele>107.7</ele>
        <time>2023-11-25T14:32:37Z</time>
      </trkpt>
      <trkpt lat="49.85034" lon="2.26861">
        <ele>107.7</ele>
        <time>2023-11-25T14:32:38Z</time>
      </trkpt>
      <trkpt lat="49.85034" lon="2.26861">
        <ele>107.7</ele>
        <time>2023-11-25T14:32:39Z</time>
      </trkpt>
      <trkpt lat="49.85034" lon="2.26862">
        <ele>107.7</ele>
        <time>2023-11-25T14:32:41Z</time>
      </trkpt>
      <trkpt lat="49.85034" lon="2.26862">
        <ele>107.7</ele>
        <time>2023-11-25T14:32:42Z</time>
      </trkpt>
      <trkpt lat="49.85034" lon="2.26861">
        <ele>107.8</ele>
        <time>2023-11-25T14:32:44Z</time>
      </trkpt>
      <trkpt lat="49.85034" lon="2.2686">
        <ele>107.8</ele>
        <time>2023-11-25T14:32:45Z</time>
      </trkpt>
      <trkpt lat="49.85034" lon="2.2686">
        <ele>107.8</ele>
        <time>2023-11-25T14:32:46Z</time>
      </trkpt>
      <trkpt lat="49.85034" lon="2.2686">
        <ele>107.8</ele>
        <time>2023-11-25T14:32:47Z</time>
      </trkpt>
      <trkpt lat="49.85033" lon="2.2686">
        <ele>107.8</ele>
        <time>2023-11-25T14:32:48Z</time>
      </trkpt>
      <trkpt lat="49.85033" lon="2.2686">
        <ele>107.8</ele>
        <time>2023-11-25T14:32:49Z</time>
      </trkpt>
      <trkpt lat="49.85033" lon="2.2686">
        <ele>107.8</ele>
        <time>2023-11-25T14:32:51Z</time>
      </trkpt>
      <trkpt lat="49.85034" lon="2.2686">
        <ele>107.8</ele>
        <time>2023-11-25T14:32:52Z</time>
      </trkpt>
      <trkpt lat="49.85034" lon="2.26861">
        <ele>107.8</ele>
        <time>2023-11-25T14:32:53Z</time>
      </trkpt>
      <trkpt lat="49.85034" lon="2.26861">
        <ele>107.8</ele>
        <time>2023-11-25T14:32:54Z</time>
      </trkpt>
      <trkpt lat="49.85035" lon="2.26861">
        <ele>107.9</ele>
        <time>2023-11-25T14:32:55Z</time>
      </trkpt>
      <trkpt lat="49.85035" lon="2.26861">
        <ele>107.9</ele>
        <time>2023-11-25T14:32:56Z</time>
      </trkpt>
      <trkpt lat="49.85035" lon="2.26862">
        <ele>107.9</ele>
        <time>2023-11-25T14:32:58Z</time>
      </trkpt>
      <trkpt lat="49.85035" lon="2.26863">
        <ele>107.9</ele>
        <time>2023-11-25T14:32:59Z</time>
      </trkpt>
      <trkpt lat="49.85035" lon="2.26865">
        <ele>107.9</ele>
        <time>2023-11-25T14:33:00Z</time>
      </trkpt>
      <trkpt lat="49.85036" lon="2.26866">
        <ele>108</ele>
        <time>2023-11-25T14:33:01Z</time>
      </trkpt>
      <trkpt lat="49.85036" lon="2.26868">
        <ele>108</ele>
        <time>2023-11-25T14:33:02Z</time>
      </trkpt>
      <trkpt lat="49.85035" lon="2.2687">
        <ele>108</ele>
        <time>2023-11-25T14:33:04Z</time>
      </trkpt>
      <trkpt lat="49.85034" lon="2.26875">
        <ele>108.1</ele>
        <time>2023-11-25T14:33:05Z</time>
      </trkpt>
      <trkpt lat="49.85033" lon="2.26877">
        <ele>108.2</ele>
        <time>2023-11-25T14:33:06Z</time>
      </trkpt>
      <trkpt lat="49.85031" lon="2.26883">
        <ele>108.3</ele>
        <time>2023-11-25T14:33:08Z</time>
      </trkpt>
      <trkpt lat="49.8503" lon="2.26886">
        <ele>108.4</ele>
        <time>2023-11-25T14:33:10Z</time>
      </trkpt>
      <trkpt lat="49.85028" lon="2.2689">
        <ele>108.5</ele>
        <time>2023-11-25T14:33:11Z</time>
      </trkpt>
      <trkpt lat="49.85026" lon="2.26894">
        <ele>108.6</ele>
        <time>2023-11-25T14:33:12Z</time>
      </trkpt>
      <trkpt lat="49.85026" lon="2.26896">
        <ele>108.6</ele>
        <time>2023-11-25T14:33:13Z</time>
      </trkpt>
      <trkpt lat="49.85025" lon="2.26898">
        <ele>108.7</ele>
        <time>2023-11-25T14:33:14Z</time>
      </trkpt>
      <trkpt lat="49.85023" lon="2.26901">
        <ele>108.8</ele>
        <time>2023-11-25T14:33:16Z</time>
      </trkpt>
      <trkpt lat="49.85022" lon="2.26906">
        <ele>108.9</ele>
        <time>2023-11-25T14:33:17Z</time>
      </trkpt>
      <trkpt lat="49.85021" lon="2.26907">
        <ele>108.9</ele>
        <time>2023-11-25T14:33:18Z</time>
      </trkpt>
      <trkpt lat="49.8502" lon="2.26911">
        <ele>109</ele>
        <time>2023-11-25T14:33:19Z</time>
      </trkpt>
      <trkpt lat="49.8502" lon="2.26913">
        <ele>109</ele>
        <time>2023-11-25T14:33:20Z</time>
      </trkpt>
      <trkpt lat="49.85019" lon="2.26915">
        <ele>109.1</ele>
        <time>2023-11-25T14:33:22Z</time>
      </trkpt>
      <trkpt lat="49.85019" lon="2.26917">
        <ele>109.1</ele>
        <time>2023-11-25T14:33:23Z</time>
      </trkpt>
      <trkpt lat="49.85018" lon="2.26918">
        <ele>109.1</ele>
        <time>2023-11-25T14:33:24Z</time>
      </trkpt>
      <trkpt lat="49.85017" lon="2.2692">
        <ele>109.2</ele>
        <time>2023-11-25T14:33:26Z</time>
      </trkpt>
      <trkpt lat="49.85017" lon="2.26921">
        <ele>109.2</ele>
        <time>2023-11-25T14:33:27Z</time>
      </trkpt>
      <trkpt lat="49.85016" lon="2.26922">
        <ele>109.2</ele>
        <time>2023-11-25T14:33:28Z</time>
      </trkpt>
      <trkpt lat="49.85016" lon="2.26922">
        <ele>109.2</ele>
        <time>2023-11-25T14:33:30Z</time>
      </trkpt>
      <trkpt lat="49.85016" lon="2.26923">
        <ele>109.3</ele>
        <time>2023-11-25T14:33:31Z</time>
      </trkpt>
      <trkpt lat="49.85015" lon="2.26923">
        <ele>109.3</ele>
        <time>2023-11-25T14:33:32Z</time>
      </trkpt>
      <trkpt lat="49.85015" lon="2.26923">
        <ele>109.3</ele>
        <time>2023-11-25T14:33:34Z</time>
      </trkpt>
      <trkpt lat="49.85015" lon="2.26923">
        <ele>109.3</ele>
        <time>2023-11-25T14:33:35Z</time>
      </trkpt>
      <trkpt lat="49.85015" lon="2.26924">
        <ele>109.3</ele>
        <time>2023-11-25T14:33:36Z</time>
      </trkpt>
      <trkpt lat="49.85014" lon="2.26924">
        <ele>109.3</ele>
        <time>2023-11-25T14:33:37Z</time>
      </trkpt>
      <trkpt lat="49.85014" lon="2.26924">
        <ele>109.3</ele>
        <time>2023-11-25T14:33:38Z</time>
      </trkpt>
      <trkpt lat="49.85014" lon="2.26924">
        <ele>109.3</ele>
        <time>2023-11-25T14:33:39Z</time>
      </trkpt>
      <trkpt lat="49.85014" lon="2.26925">
        <ele>109.4</ele>
        <time>2023-11-25T14:33:40Z</time>
      </trkpt>
      <trkpt lat="49.85014" lon="2.26925">
        <ele>109.4</ele>
        <time>2023-11-25T14:33:41Z</time>
      </trkpt>
      <trkpt lat="49.85015" lon="2.26925">
        <ele>109.4</ele>
        <time>2023-11-25T14:33:43Z</time>
      </trkpt>
      <trkpt lat="49.85015" lon="2.26926">
        <ele>109.4</ele>
        <time>2023-11-25T14:33:44Z</time>
      </trkpt>
      <trkpt lat="49.85015" lon="2.26926">
        <ele>109.4</ele>
        <time>2023-11-25T14:33:45Z</time>
      </trkpt>
      <trkpt lat="49.85015" lon="2.26926">
        <ele>109.4</ele>
        <time>2023-11-25T14:33:46Z</time>
      </trkpt>
      <trkpt lat="49.85015" lon="2.26926">
        <ele>109.4</ele>
        <time>2023-11-25T14:33:48Z</time>
      </trkpt>
      <trkpt lat="49.85015" lon="2.26927">
        <ele>109.4</ele>
        <time>2023-11-25T14:33:49Z</time>
      </trkpt>
      <trkpt lat="49.85015" lon="2.26927">
        <ele>109.4</ele>
        <time>2023-11-25T14:33:50Z</time>
      </trkpt>
      <trkpt lat="49.85015" lon="2.26927">
        <ele>109.4</ele>
        <time>2023-11-25T14:33:52Z</time>
      </trkpt>
      <trkpt lat="49.85015" lon="2.26927">
        <ele>109.5</ele>
        <time>2023-11-25T14:33:53Z</time>
      </trkpt>
      <trkpt lat="49.85016" lon="2.26927">
        <ele>109.5</ele>
        <time>2023-11-25T14:33:54Z</time>
      </trkpt>
      <trkpt lat="49.85015" lon="2.26927">
        <ele>109.5</ele>
        <time>2023-11-25T14:33:56Z</time>
      </trkpt>
      <trkpt lat="49.85015" lon="2.26927">
        <ele>109.5</ele>
        <time>2023-11-25T14:33:57Z</time>
      </trkpt>
      <trkpt lat="49.85015" lon="2.26927">
        <ele>109.5</ele>
        <time>2023-11-25T14:33:58Z</time>
      </trkpt>
      <trkpt lat="49.85015" lon="2.26925">
        <ele>109.5</ele>
        <time>2023-11-25T14:34:00Z</time>
      </trkpt>
      <trkpt lat="49.85015" lon="2.26924">
        <ele>109.5</ele>
        <time>2023-11-25T14:34:01Z</time>
      </trkpt>
      <trkpt lat="49.85016" lon="2.26922">
        <ele>109.6</ele>
        <time>2023-11-25T14:34:03Z</time>
      </trkpt>
      <trkpt lat="49.85015" lon="2.26922">
        <ele>109.6</ele>
        <time>2023-11-25T14:34:05Z</time>
      </trkpt>
      <trkpt lat="49.85015" lon="2.26922">
        <ele>109.6</ele>
        <time>2023-11-25T14:34:06Z</time>
      </trkpt>
      <trkpt lat="49.85015" lon="2.26922">
        <ele>109.6</ele>
        <time>2023-11-25T14:34:07Z</time>
      </trkpt>
      <trkpt lat="49.85015" lon="2.26922">
        <ele>109.6</ele>
        <time>2023-11-25T14:34:08Z</time>
      </trkpt>
      <trkpt lat="49.85015" lon="2.26922">
        <ele>109.6</ele>
        <time>2023-11-25T14:34:10Z</time>
      </trkpt>
      <trkpt lat="49.85014" lon="2.26922">
        <ele>109.6</ele>
        <time>2023-11-25T14:34:11Z</time>
      </trkpt>
      <trkpt lat="49.85014" lon="2.26923">
        <ele>109.6</ele>
        <time>2023-11-25T14:34:12Z</time>
      </trkpt>
      <trkpt lat="49.85015" lon="2.26923">
        <ele>109.6</ele>
        <time>2023-11-25T14:34:13Z</time>
      </trkpt>
      <trkpt lat="49.85015" lon="2.26923">
        <ele>109.6</ele>
        <time>2023-11-25T14:34:14Z</time>
      </trkpt>
      <trkpt lat="49.85015" lon="2.26923">
        <ele>109.7</ele>
        <time>2023-11-25T14:34:15Z</time>
      </trkpt>
      <trkpt lat="49.85015" lon="2.26923">
        <ele>109.7</ele>
        <time>2023-11-25T14:34:16Z</time>
      </trkpt>
      <trkpt lat="49.85015" lon="2.26924">
        <ele>109.7</ele>
        <time>2023-11-25T14:34:18Z</time>
      </trkpt>
      <trkpt lat="49.85015" lon="2.26924">
        <ele>109.7</ele>
        <time>2023-11-25T14:34:19Z</time>
      </trkpt>
      <trkpt lat="49.85014" lon="2.26925">
        <ele>109.7</ele>
        <time>2023-11-25T14:34:20Z</time>
      </trkpt>
      <trkpt lat="49.85014" lon="2.26924">
        <ele>109.7</ele>
        <time>2023-11-25T14:34:21Z</time>
      </trkpt>
      <trkpt lat="49.85014" lon="2.26925">
        <ele>109.7</ele>
        <time>2023-11-25T14:34:22Z</time>
      </trkpt>
      <trkpt lat="49.85015" lon="2.26925">
        <ele>109.7</ele>
        <time>2023-11-25T14:34:23Z</time>
      </trkpt>
      <trkpt lat="49.85015" lon="2.26925">
        <ele>109.7</ele>
        <time>2023-11-25T14:34:24Z</time>
      </trkpt>
      <trkpt lat="49.85015" lon="2.26926">
        <ele>109.7</ele>
        <time>2023-11-25T14:34:26Z</time>
      </trkpt>
      <trkpt lat="49.85015" lon="2.26928">
        <ele>109.8</ele>
        <time>2023-11-25T14:34:28Z</time>
      </trkpt>
      <trkpt lat="49.85015" lon="2.26928">
        <ele>109.8</ele>
        <time>2023-11-25T14:34:29Z</time>
      </trkpt>
      <trkpt lat="49.85015" lon="2.26929">
        <ele>109.8</ele>
        <time>2023-11-25T14:34:30Z</time>
      </trkpt>
      <trkpt lat="49.85015" lon="2.2693">
        <ele>109.8</ele>
        <time>2023-11-25T14:34:31Z</time>
      </trkpt>
      <trkpt lat="49.85014" lon="2.26932">
        <ele>109.8</ele>
        <time>2023-11-25T14:34:32Z</time>
      </trkpt>
      <trkpt lat="49.85014" lon="2.26934">
        <ele>109.9</ele>
        <time>2023-11-25T14:34:33Z</time>
      </trkpt>
      <trkpt lat="49.85013" lon="2.26936">
        <ele>109.9</ele>
        <time>2023-11-25T14:34:34Z</time>
      </trkpt>
      <trkpt lat="49.85012" lon="2.26939">
        <ele>110</ele>
        <time>2023-11-25T14:34:36Z</time>
      </trkpt>
      <trkpt lat="49.85011" lon="2.26942">
        <ele>110</ele>
        <time>2023-11-25T14:34:37Z</time>
      </trkpt>
      <trkpt lat="49.85011" lon="2.26944">
        <ele>110.1</ele>
        <time>2023-11-25T14:34:38Z</time>
      </trkpt>
      <trkpt lat="49.85009" lon="2.26948">
        <ele>110.2</ele>
        <time>2023-11-25T14:34:39Z</time>
      </trkpt>
      <trkpt lat="49.85009" lon="2.26949">
        <ele>110.2</ele>
        <time>2023-11-25T14:34:40Z</time>
      </trkpt>
      <trkpt lat="49.85007" lon="2.26952">
        <ele>110.3</ele>
        <time>2023-11-25T14:34:42Z</time>
      </trkpt>
      <trkpt lat="49.85006" lon="2.26953">
        <ele>110.3</ele>
        <time>2023-11-25T14:34:43Z</time>
      </trkpt>
      <trkpt lat="49.85005" lon="2.26956">
        <ele>110.4</ele>
        <time>2023-11-25T14:34:44Z</time>
      </trkpt>
      <trkpt lat="49.85004" lon="2.26958">
        <ele>110.4</ele>
        <time>2023-11-25T14:34:45Z</time>
      </trkpt>
      <trkpt lat="49.85001" lon="2.26963">
        <ele>110.6</ele>
        <time>2023-11-25T14:34:46Z</time>
      </trkpt>
      <trkpt lat="49.84998" lon="2.26969">
        <ele>110.7</ele>
        <time>2023-11-25T14:34:48Z</time>
      </trkpt>
      <trkpt lat="49.84996" lon="2.26971">
        <ele>110.8</ele>
        <time>2023-11-25T14:34:49Z</time>
      </trkpt>
      <trkpt lat="49.84991" lon="2.26977">
        <ele>111</ele>
        <time>2023-11-25T14:34:51Z</time>
      </trkpt>
      <trkpt lat="49.84989" lon="2.26982">
        <ele>111.1</ele>
        <time>2023-11-25T14:34:52Z</time>
      </trkpt>
      <trkpt lat="49.84988" lon="2.26983">
        <ele>111.1</ele>
        <time>2023-11-25T14:34:53Z</time>
      </trkpt>
      <trkpt lat="49.84985" lon="2.26986">
        <ele>111.2</ele>
        <time>2023-11-25T14:34:54Z</time>
      </trkpt>
      <trkpt lat="49.84982" lon="2.26988">
        <ele>111.3</ele>
        <time>2023-11-25T14:34:56Z</time>
      </trkpt>
      <trkpt lat="49.84979" lon="2.26986">
        <ele>111.4</ele>
        <time>2023-11-25T14:34:57Z</time>
      </trkpt>
      <trkpt lat="49.84978" lon="2.26986">
        <ele>111.5</ele>
        <time>2023-11-25T14:34:59Z</time>
      </trkpt>
      <trkpt lat="49.84977" lon="2.26987">
        <ele>111.5</ele>
        <time>2023-11-25T14:35:00Z</time>
      </trkpt>
      <trkpt lat="49.84976" lon="2.26988">
        <ele>111.5</ele>
        <time>2023-11-25T14:35:01Z</time>
      </trkpt>
      <trkpt lat="49.84976" lon="2.26989">
        <ele>111.6</ele>
        <time>2023-11-25T14:35:03Z</time>
      </trkpt>
      <trkpt lat="49.84976" lon="2.26989">
        <ele>111.6</ele>
        <time>2023-11-25T14:35:04Z</time>
      </trkpt>
      <trkpt lat="49.84976" lon="2.2699">
        <ele>111.6</ele>
        <time>2023-11-25T14:35:06Z</time>
      </trkpt>
      <trkpt lat="49.84975" lon="2.2699">
        <ele>111.6</ele>
        <time>2023-11-25T14:35:07Z</time>
      </trkpt>
      <trkpt lat="49.84975" lon="2.26991">
        <ele>111.6</ele>
        <time>2023-11-25T14:35:09Z</time>
      </trkpt>
      <trkpt lat="49.84975" lon="2.26991">
        <ele>111.7</ele>
        <time>2023-11-25T14:35:10Z</time>
      </trkpt>
      <trkpt lat="49.84975" lon="2.26991">
        <ele>111.7</ele>
        <time>2023-11-25T14:35:11Z</time>
      </trkpt>
      <trkpt lat="49.84975" lon="2.26992">
        <ele>111.8</ele>
        <time>2023-11-25T14:35:12Z</time>
      </trkpt>
      <trkpt lat="49.84975" lon="2.26992">
        <ele>111.9</ele>
        <time>2023-11-25T14:35:13Z</time>
      </trkpt>
      <trkpt lat="49.84975" lon="2.26992">
        <ele>112</ele>
        <time>2023-11-25T14:35:14Z</time>
      </trkpt>
      <trkpt lat="49.84975" lon="2.26992">
        <ele>112</ele>
        <time>2023-11-25T14:35:15Z</time>
      </trkpt>
      <trkpt lat="49.84975" lon="2.26992">
        <ele>112.1</ele>
        <time>2023-11-25T14:35:16Z</time>
      </trkpt>
      <trkpt lat="49.84975" lon="2.26992">
        <ele>112.2</ele>
        <time>2023-11-25T14:35:17Z</time>
      </trkpt>
      <trkpt lat="49.84975" lon="2.26994">
        <ele>112.3</ele>
        <time>2023-11-25T14:35:39Z</time>
      </trkpt>
      <trkpt lat="49.84974" lon="2.26997">
        <ele>112.3</ele>
        <time>2023-11-25T14:35:40Z</time>
      </trkpt>
      <trkpt lat="49.84974" lon="2.26999">
        <ele>112.4</ele>
        <time>2023-11-25T14:35:41Z</time>
      </trkpt>
      <trkpt lat="49.84974" lon="2.27003">
        <ele>112.5</ele>
        <time>2023-11-25T14:35:42Z</time>
      </trkpt>
      <trkpt lat="49.84974" lon="2.27004">
        <ele>112.5</ele>
        <time>2023-11-25T14:35:43Z</time>
      </trkpt>
      <trkpt lat="49.84974" lon="2.27006">
        <ele>112.6</ele>
        <time>2023-11-25T14:35:44Z</time>
      </trkpt>
      <trkpt lat="49.84974" lon="2.27009">
        <ele>112.6</ele>
        <time>2023-11-25T14:35:46Z</time>
      </trkpt>
      <trkpt lat="49.84975" lon="2.27011">
        <ele>112.7</ele>
        <time>2023-11-25T14:35:48Z</time>
      </trkpt>
      <trkpt lat="49.84975" lon="2.27013">
        <ele>112.8</ele>
        <time>2023-11-25T14:35:49Z</time>
      </trkpt>
      <trkpt lat="49.84975" lon="2.27014">
        <ele>112.9</ele>
        <time>2023-11-25T14:35:50Z</time>
      </trkpt>
      <trkpt lat="49.84975" lon="2.27015">
        <ele>112.9</ele>
        <time>2023-11-25T14:35:51Z</time>
      </trkpt>
      <trkpt lat="49.84975" lon="2.27015">
        <ele>113</ele>
        <time>2023-11-25T14:35:52Z</time>
      </trkpt>
      <trkpt lat="49.84975" lon="2.27016">
        <ele>113.1</ele>
        <time>2023-11-25T14:35:53Z</time>
      </trkpt>
      <trkpt lat="49.84976" lon="2.27017">
        <ele>113.1</ele>
        <time>2023-11-25T14:35:55Z</time>
      </trkpt>
      <trkpt lat="49.84976" lon="2.27018">
        <ele>113.2</ele>
        <time>2023-11-25T14:35:57Z</time>
      </trkpt>
      <trkpt lat="49.84976" lon="2.27019">
        <ele>113.2</ele>
        <time>2023-11-25T14:35:58Z</time>
      </trkpt>
      <trkpt lat="49.84976" lon="2.2702">
        <ele>113.3</ele>
        <time>2023-11-25T14:35:59Z</time>
      </trkpt>
      <trkpt lat="49.84976" lon="2.27022">
        <ele>113.4</ele>
        <time>2023-11-25T14:36:00Z</time>
      </trkpt>
      <trkpt lat="49.84975" lon="2.27024">
        <ele>113.4</ele>
        <time>2023-11-25T14:36:01Z</time>
      </trkpt>
      <trkpt lat="49.84975" lon="2.27026">
        <ele>113.5</ele>
        <time>2023-11-25T14:36:03Z</time>
      </trkpt>
      <trkpt lat="49.84975" lon="2.27027">
        <ele>113.5</ele>
        <time>2023-11-25T14:36:04Z</time>
      </trkpt>
      <trkpt lat="49.84975" lon="2.27028">
        <ele>113.5</ele>
        <time>2023-11-25T14:36:05Z</time>
      </trkpt>
      <trkpt lat="49.84976" lon="2.27031">
        <ele>113.6</ele>
        <time>2023-11-25T14:36:06Z</time>
      </trkpt>
      <trkpt lat="49.84976" lon="2.27032">
        <ele>113.6</ele>
        <time>2023-11-25T14:36:07Z</time>
      </trkpt>
      <trkpt lat="49.84976" lon="2.27035">
        <ele>113.6</ele>
        <time>2023-11-25T14:36:08Z</time>
      </trkpt>
      <trkpt lat="49.84975" lon="2.27037">
        <ele>113.6</ele>
        <time>2023-11-25T14:36:10Z</time>
      </trkpt>
      <trkpt lat="49.84975" lon="2.27038">
        <ele>113.7</ele>
        <time>2023-11-25T14:36:11Z</time>
      </trkpt>
      <trkpt lat="49.84975" lon="2.2704">
        <ele>113.6</ele>
        <time>2023-11-25T14:36:12Z</time>
      </trkpt>
      <trkpt lat="49.84974" lon="2.27041">
        <ele>113.6</ele>
        <time>2023-11-25T14:36:13Z</time>
      </trkpt>
      <trkpt lat="49.84974" lon="2.27044">
        <ele>113.4</ele>
        <time>2023-11-25T14:36:15Z</time>
      </trkpt>
      <trkpt lat="49.84973" lon="2.27046">
        <ele>113.3</ele>
        <time>2023-11-25T14:36:16Z</time>
      </trkpt>
      <trkpt lat="49.8497" lon="2.2705">
        <ele>113.1</ele>
        <time>2023-11-25T14:36:17Z</time>
      </trkpt>
      <trkpt lat="49.84969" lon="2.27051">
        <ele>113</ele>
        <time>2023-11-25T14:36:19Z</time>
      </trkpt>
      <trkpt lat="49.84969" lon="2.27052">
        <ele>113</ele>
        <time>2023-11-25T14:36:20Z</time>
      </trkpt>
      <trkpt lat="49.84968" lon="2.27053">
        <ele>112.9</ele>
        <time>2023-11-25T14:36:21Z</time>
      </trkpt>
      <trkpt lat="49.84967" lon="2.27055">
        <ele>112.8</ele>
        <time>2023-11-25T14:36:22Z</time>
      </trkpt>
      <trkpt lat="49.84967" lon="2.27056">
        <ele>112.8</ele>
        <time>2023-11-25T14:36:23Z</time>
      </trkpt>
      <trkpt lat="49.84966" lon="2.27058">
        <ele>112.7</ele>
        <time>2023-11-25T14:36:24Z</time>
      </trkpt>
      <trkpt lat="49.84964" lon="2.2706">
        <ele>112.6</ele>
        <time>2023-11-25T14:36:25Z</time>
      </trkpt>
      <trkpt lat="49.84964" lon="2.27061">
        <ele>112.5</ele>
        <time>2023-11-25T14:36:27Z</time>
      </trkpt>
      <trkpt lat="49.84963" lon="2.27062">
        <ele>112.5</ele>
        <time>2023-11-25T14:36:28Z</time>
      </trkpt>
      <trkpt lat="49.84963" lon="2.27063">
        <ele>112.4</ele>
        <time>2023-11-25T14:36:29Z</time>
      </trkpt>
      <trkpt lat="49.84962" lon="2.27065">
        <ele>112.4</ele>
        <time>2023-11-25T14:36:30Z</time>
      </trkpt>
      <trkpt lat="49.84962" lon="2.27066">
        <ele>112.3</ele>
        <time>2023-11-25T14:36:31Z</time>
      </trkpt>
      <trkpt lat="49.84962" lon="2.27067">
        <ele>112.3</ele>
        <time>2023-11-25T14:36:32Z</time>
      </trkpt>
      <trkpt lat="49.84961" lon="2.27069">
        <ele>112.2</ele>
        <time>2023-11-25T14:36:34Z</time>
      </trkpt>
      <trkpt lat="49.84961" lon="2.27069">
        <ele>112.2</ele>
        <time>2023-11-25T14:36:35Z</time>
      </trkpt>
      <trkpt lat="49.8496" lon="2.2707">
        <ele>112.1</ele>
        <time>2023-11-25T14:36:36Z</time>
      </trkpt>
      <trkpt lat="49.8496" lon="2.2707">
        <ele>112.1</ele>
        <time>2023-11-25T14:36:37Z</time>
      </trkpt>
      <trkpt lat="49.84959" lon="2.27072">
        <ele>112.1</ele>
        <time>2023-11-25T14:36:39Z</time>
      </trkpt>
      <trkpt lat="49.84959" lon="2.27073">
        <ele>112</ele>
        <time>2023-11-25T14:36:40Z</time>
      </trkpt>
      <trkpt lat="49.84958" lon="2.27074">
        <ele>112</ele>
        <time>2023-11-25T14:36:41Z</time>
      </trkpt>
      <trkpt lat="49.84958" lon="2.27076">
        <ele>111.9</ele>
        <time>2023-11-25T14:36:43Z</time>
      </trkpt>
      <trkpt lat="49.84957" lon="2.27077">
        <ele>111.8</ele>
        <time>2023-11-25T14:36:44Z</time>
      </trkpt>
      <trkpt lat="49.84957" lon="2.27078">
        <ele>111.8</ele>
        <time>2023-11-25T14:36:45Z</time>
      </trkpt>
      <trkpt lat="49.84956" lon="2.27079">
        <ele>111.8</ele>
        <time>2023-11-25T14:36:47Z</time>
      </trkpt>
      <trkpt lat="49.84956" lon="2.2708">
        <ele>111.7</ele>
        <time>2023-11-25T14:36:48Z</time>
      </trkpt>
      <trkpt lat="49.84956" lon="2.2708">
        <ele>111.7</ele>
        <time>2023-11-25T14:36:49Z</time>
      </trkpt>
      <trkpt lat="49.84955" lon="2.2708">
        <ele>111.7</ele>
        <time>2023-11-25T14:36:51Z</time>
      </trkpt>
      <trkpt lat="49.84955" lon="2.27081">
        <ele>111.7</ele>
        <time>2023-11-25T14:36:52Z</time>
      </trkpt>
      <trkpt lat="49.84955" lon="2.27082">
        <ele>111.6</ele>
        <time>2023-11-25T14:36:53Z</time>
      </trkpt>
      <trkpt lat="49.84955" lon="2.27082">
        <ele>111.6</ele>
        <time>2023-11-25T14:36:55Z</time>
      </trkpt>
      <trkpt lat="49.84954" lon="2.27083">
        <ele>111.6</ele>
        <time>2023-11-25T14:36:56Z</time>
      </trkpt>
      <trkpt lat="49.84954" lon="2.27084">
        <ele>111.6</ele>
        <time>2023-11-25T14:36:58Z</time>
      </trkpt>
      <trkpt lat="49.84954" lon="2.27085">
        <ele>111.5</ele>
        <time>2023-11-25T14:36:59Z</time>
      </trkpt>
      <trkpt lat="49.84954" lon="2.27086">
        <ele>111.5</ele>
        <time>2023-11-25T14:37:01Z</time>
      </trkpt>
      <trkpt lat="49.84953" lon="2.27087">
        <ele>111.4</ele>
        <time>2023-11-25T14:37:03Z</time>
      </trkpt>
      <trkpt lat="49.84953" lon="2.27088">
        <ele>111.4</ele>
        <time>2023-11-25T14:37:04Z</time>
      </trkpt>
      <trkpt lat="49.84952" lon="2.27089">
        <ele>111.3</ele>
        <time>2023-11-25T14:37:06Z</time>
      </trkpt>
      <trkpt lat="49.84951" lon="2.27089">
        <ele>111.3</ele>
        <time>2023-11-25T14:37:07Z</time>
      </trkpt>
      <trkpt lat="49.84951" lon="2.27089">
        <ele>111.3</ele>
        <time>2023-11-25T14:37:08Z</time>
      </trkpt>
      <trkpt lat="49.8495" lon="2.2709">
        <ele>111.3</ele>
        <time>2023-11-25T14:37:10Z</time>
      </trkpt>
      <trkpt lat="49.8495" lon="2.2709">
        <ele>111.3</ele>
        <time>2023-11-25T14:37:11Z</time>
      </trkpt>
      <trkpt lat="49.8495" lon="2.2709">
        <ele>111.3</ele>
        <time>2023-11-25T14:37:13Z</time>
      </trkpt>
      <trkpt lat="49.8495" lon="2.2709">
        <ele>111.3</ele>
        <time>2023-11-25T14:37:14Z</time>
      </trkpt>
      <trkpt lat="49.8495" lon="2.2709">
        <ele>111.3</ele>
        <time>2023-11-25T14:37:16Z</time>
      </trkpt>
      <trkpt lat="49.8495" lon="2.2709">
        <ele>111.2</ele>
        <time>2023-11-25T14:37:17Z</time>
      </trkpt>
      <trkpt lat="49.8495" lon="2.2709">
        <ele>111.2</ele>
        <time>2023-11-25T14:37:19Z</time>
      </trkpt>
      <trkpt lat="49.8495" lon="2.2709">
        <ele>111.2</ele>
        <time>2023-11-25T14:37:20Z</time>
      </trkpt>
      <trkpt lat="49.84951" lon="2.27093">
        <ele>111.1</ele>
        <time>2023-11-25T14:38:32Z</time>
      </trkpt>
      <trkpt lat="49.84951" lon="2.27094">
        <ele>111.1</ele>
        <time>2023-11-25T14:38:33Z</time>
      </trkpt>
      <trkpt lat="49.84951" lon="2.27094">
        <ele>111.1</ele>
        <time>2023-11-25T14:38:34Z</time>
      </trkpt>
      <trkpt lat="49.84951" lon="2.27095">
        <ele>111.1</ele>
        <time>2023-11-25T14:38:35Z</time>
      </trkpt>
      <trkpt lat="49.84951" lon="2.27095">
        <ele>111.1</ele>
        <time>2023-11-25T14:38:36Z</time>
      </trkpt>
      <trkpt lat="49.84951" lon="2.27095">
        <ele>111.1</ele>
        <time>2023-11-25T14:38:37Z</time>
      </trkpt>
      <trkpt lat="49.84951" lon="2.27095">
        <ele>111.1</ele>
        <time>2023-11-25T14:38:38Z</time>
      </trkpt>
      <trkpt lat="49.84951" lon="2.27095">
        <ele>111.1</ele>
        <time>2023-11-25T14:38:39Z</time>
      </trkpt>
      <trkpt lat="49.84951" lon="2.27095">
        <ele>111.1</ele>
        <time>2023-11-25T14:38:40Z</time>
      </trkpt>
      <trkpt lat="49.84951" lon="2.27095">
        <ele>111.1</ele>
        <time>2023-11-25T14:38:41Z</time>
      </trkpt>
      <trkpt lat="49.84951" lon="2.27095">
        <ele>111.1</ele>
        <time>2023-11-25T14:38:42Z</time>
      </trkpt>
      <trkpt lat="49.84951" lon="2.27095">
        <ele>111.1</ele>
        <time>2023-11-25T14:38:43Z</time>
      </trkpt>
      <trkpt lat="49.8495" lon="2.27097">
        <ele>111</ele>
        <time>2023-11-25T14:39:39Z</time>
      </trkpt>
      <trkpt lat="49.8495" lon="2.27097">
        <ele>111</ele>
        <time>2023-11-25T14:39:40Z</time>
      </trkpt>
      <trkpt lat="49.8495" lon="2.27097">
        <ele>111</ele>
        <time>2023-11-25T14:39:41Z</time>
      </trkpt>
      <trkpt lat="49.8495" lon="2.27097">
        <ele>111</ele>
        <time>2023-11-25T14:39:42Z</time>
      </trkpt>
      <trkpt lat="49.8495" lon="2.27097">
        <ele>111</ele>
        <time>2023-11-25T14:39:43Z</time>
      </trkpt>
      <trkpt lat="49.8495" lon="2.27097">
        <ele>111</ele>
        <time>2023-11-25T14:39:44Z</time>
      </trkpt>
      <trkpt lat="49.8495" lon="2.27097">
        <ele>111</ele>
        <time>2023-11-25T14:39:45Z</time>
      </trkpt>
      <trkpt lat="49.8495" lon="2.27097">
        <ele>111</ele>
        <time>2023-11-25T14:39:46Z</time>
      </trkpt>
      <trkpt lat="49.8495" lon="2.27097">
        <ele>111</ele>
        <time>2023-11-25T14:39:47Z</time>
      </trkpt>
      <trkpt lat="49.8495" lon="2.27097">
        <ele>111</ele>
        <time>2023-11-25T14:39:48Z</time>
      </trkpt>
      <trkpt lat="49.84951" lon="2.27097">
        <ele>111</ele>
        <time>2023-11-25T14:39:49Z</time>
      </trkpt>
      <trkpt lat="49.84951" lon="2.27097">
        <ele>111</ele>
        <time>2023-11-25T14:39:50Z</time>
      </trkpt>
      <trkpt lat="49.84951" lon="2.27097">
        <ele>111</ele>
        <time>2023-11-25T14:39:51Z</time>
      </trkpt>
      <trkpt lat="49.84951" lon="2.27097">
        <ele>111</ele>
        <time>2023-11-25T14:39:52Z</time>
      </trkpt>
      <trkpt lat="49.84951" lon="2.27097">
        <ele>111</ele>
        <time>2023-11-25T14:39:53Z</time>
      </trkpt>
      <trkpt lat="49.84952" lon="2.27102">
        <ele>110.8</ele>
        <time>2023-11-25T14:40:16Z</time>
      </trkpt>
      <trkpt lat="49.84953" lon="2.27104">
        <ele>110.7</ele>
        <time>2023-11-25T14:40:17Z</time>
      </trkpt>
      <trkpt lat="49.84953" lon="2.27105">
        <ele>110.7</ele>
        <time>2023-11-25T14:40:18Z</time>
      </trkpt>
      <trkpt lat="49.84953" lon="2.27107">
        <ele>110.6</ele>
        <time>2023-11-25T14:40:19Z</time>
      </trkpt>
      <trkpt lat="49.84953" lon="2.27109">
        <ele>110.6</ele>
        <time>2023-11-25T14:40:20Z</time>
      </trkpt>
      <trkpt lat="49.84952" lon="2.27112">
        <ele>110.5</ele>
        <time>2023-11-25T14:40:22Z</time>
      </trkpt>
      <trkpt lat="49.84952" lon="2.27113">
        <ele>110.4</ele>
        <time>2023-11-25T14:40:23Z</time>
      </trkpt>
      <trkpt lat="49.84951" lon="2.27115">
        <ele>110.4</ele>
        <time>2023-11-25T14:40:24Z</time>
      </trkpt>
      <trkpt lat="49.84951" lon="2.27117">
        <ele>110.3</ele>
        <time>2023-11-25T14:40:25Z</time>
      </trkpt>
      <trkpt lat="49.84949" lon="2.2712">
        <ele>110.2</ele>
        <time>2023-11-25T14:40:26Z</time>
      </trkpt>
      <trkpt lat="49.84948" lon="2.27121">
        <ele>110.1</ele>
        <time>2023-11-25T14:40:28Z</time>
      </trkpt>
      <trkpt lat="49.84947" lon="2.27121">
        <ele>110.1</ele>
        <time>2023-11-25T14:40:29Z</time>
      </trkpt>
      <trkpt lat="49.84946" lon="2.27122">
        <ele>110</ele>
        <time>2023-11-25T14:40:30Z</time>
      </trkpt>
      <trkpt lat="49.84945" lon="2.27123">
        <ele>110</ele>
        <time>2023-11-25T14:40:31Z</time>
      </trkpt>
      <trkpt lat="49.84945" lon="2.27124">
        <ele>109.9</ele>
        <time>2023-11-25T14:40:32Z</time>
      </trkpt>
      <trkpt lat="49.84943" lon="2.27126">
        <ele>109.8</ele>
        <time>2023-11-25T14:40:34Z</time>
      </trkpt>
      <trkpt lat="49.84942" lon="2.27127">
        <ele>109.7</ele>
        <time>2023-11-25T14:40:36Z</time>
      </trkpt>
      <trkpt lat="49.84941" lon="2.27129">
        <ele>109.7</ele>
        <time>2023-11-25T14:40:37Z</time>
      </trkpt>
      <trkpt lat="49.84941" lon="2.2713">
        <ele>109.6</ele>
        <time>2023-11-25T14:40:38Z</time>
      </trkpt>
      <trkpt lat="49.8494" lon="2.27131">
        <ele>109.6</ele>
        <time>2023-11-25T14:40:39Z</time>
      </trkpt>
      <trkpt lat="49.84939" lon="2.27133">
        <ele>109.5</ele>
        <time>2023-11-25T14:40:40Z</time>
      </trkpt>
      <trkpt lat="49.84938" lon="2.27134">
        <ele>109.4</ele>
        <time>2023-11-25T14:40:41Z</time>
      </trkpt>
      <trkpt lat="49.84937" lon="2.27136">
        <ele>109.4</ele>
        <time>2023-11-25T14:40:43Z</time>
      </trkpt>
      <trkpt lat="49.84936" lon="2.27138">
        <ele>109.3</ele>
        <time>2023-11-25T14:40:44Z</time>
      </trkpt>
      <trkpt lat="49.84935" lon="2.27139">
        <ele>109.2</ele>
        <time>2023-11-25T14:40:45Z</time>
      </trkpt>
      <trkpt lat="49.84934" lon="2.27141">
        <ele>109.2</ele>
        <time>2023-11-25T14:40:46Z</time>
      </trkpt>
      <trkpt lat="49.84933" lon="2.27142">
        <ele>109.1</ele>
        <time>2023-11-25T14:40:48Z</time>
      </trkpt>
      <trkpt lat="49.84932" lon="2.27143">
        <ele>109</ele>
        <time>2023-11-25T14:40:49Z</time>
      </trkpt>
      <trkpt lat="49.84931" lon="2.27143">
        <ele>109</ele>
        <time>2023-11-25T14:40:50Z</time>
      </trkpt>
      <trkpt lat="49.8493" lon="2.27143">
        <ele>109</ele>
        <time>2023-11-25T14:40:51Z</time>
      </trkpt>
      <trkpt lat="49.8493" lon="2.27142">
        <ele>108.9</ele>
        <time>2023-11-25T14:40:52Z</time>
      </trkpt>
      <trkpt lat="49.84931" lon="2.27142">
        <ele>108.9</ele>
        <time>2023-11-25T14:40:54Z</time>
      </trkpt>
      <trkpt lat="49.84932" lon="2.27141">
        <ele>108.9</ele>
        <time>2023-11-25T14:40:55Z</time>
      </trkpt>
      <trkpt lat="49.84932" lon="2.2714">
        <ele>108.8</ele>
        <time>2023-11-25T14:40:57Z</time>
      </trkpt>
      <trkpt lat="49.84933" lon="2.2714">
        <ele>108.8</ele>
        <time>2023-11-25T14:40:58Z</time>
      </trkpt>
      <trkpt lat="49.84934" lon="2.27139">
        <ele>108.8</ele>
        <time>2023-11-25T14:40:59Z</time>
      </trkpt>
      <trkpt lat="49.84934" lon="2.27139">
        <ele>108.7</ele>
        <time>2023-11-25T14:41:01Z</time>
      </trkpt>
      <trkpt lat="49.84935" lon="2.27138">
        <ele>108.7</ele>
        <time>2023-11-25T14:41:02Z</time>
      </trkpt>
      <trkpt lat="49.84935" lon="2.27138">
        <ele>108.7</ele>
        <time>2023-11-25T14:41:03Z</time>
      </trkpt>
      <trkpt lat="49.84935" lon="2.27138">
        <ele>108.7</ele>
        <time>2023-11-25T14:41:04Z</time>
      </trkpt>
      <trkpt lat="49.84935" lon="2.27139">
        <ele>108.7</ele>
        <time>2023-11-25T14:41:05Z</time>
      </trkpt>
      <trkpt lat="49.84934" lon="2.27139">
        <ele>108.7</ele>
        <time>2023-11-25T14:41:06Z</time>
      </trkpt>
      <trkpt lat="49.84934" lon="2.27138">
        <ele>108.6</ele>
        <time>2023-11-25T14:41:07Z</time>
      </trkpt>
      <trkpt lat="49.84934" lon="2.27138">
        <ele>108.6</ele>
        <time>2023-11-25T14:41:08Z</time>
      </trkpt>
      <trkpt lat="49.84934" lon="2.27138">
        <ele>108.6</ele>
        <time>2023-11-25T14:41:09Z</time>
      </trkpt>
      <trkpt lat="49.84934" lon="2.27139">
        <ele>108.6</ele>
        <time>2023-11-25T14:41:10Z</time>
      </trkpt>
      <trkpt lat="49.84934" lon="2.27139">
        <ele>108.6</ele>
        <time>2023-11-25T14:41:11Z</time>
      </trkpt>
      <trkpt lat="49.84934" lon="2.27139">
        <ele>108.6</ele>
        <time>2023-11-25T14:41:12Z</time>
      </trkpt>
      <trkpt lat="49.84934" lon="2.27139">
        <ele>108.6</ele>
        <time>2023-11-25T14:41:13Z</time>
      </trkpt>
      <trkpt lat="49.84934" lon="2.27139">
        <ele>108.6</ele>
        <time>2023-11-25T14:41:14Z</time>
      </trkpt>
      <trkpt lat="49.84933" lon="2.27139">
        <ele>108.6</ele>
        <time>2023-11-25T14:41:15Z</time>
      </trkpt>
      <trkpt lat="49.84932" lon="2.2714">
        <ele>108.5</ele>
        <time>2023-11-25T14:41:16Z</time>
      </trkpt>
      <trkpt lat="49.84931" lon="2.27141">
        <ele>108.5</ele>
        <time>2023-11-25T14:41:17Z</time>
      </trkpt>
      <trkpt lat="49.8493" lon="2.27142">
        <ele>108.4</ele>
        <time>2023-11-25T14:41:18Z</time>
      </trkpt>
      <trkpt lat="49.84928" lon="2.27144">
        <ele>108.2</ele>
        <time>2023-11-25T14:41:19Z</time>
      </trkpt>
      <trkpt lat="49.84927" lon="2.27144">
        <ele>108.2</ele>
        <time>2023-11-25T14:41:20Z</time>
      </trkpt>
      <trkpt lat="49.84926" lon="2.27145">
        <ele>108.2</ele>
        <time>2023-11-25T14:41:21Z</time>
      </trkpt>
      <trkpt lat="49.84925" lon="2.27146">
        <ele>108.1</ele>
        <time>2023-11-25T14:41:22Z</time>
      </trkpt>
      <trkpt lat="49.84924" lon="2.27147">
        <ele>108</ele>
        <time>2023-11-25T14:41:23Z</time>
      </trkpt>
      <trkpt lat="49.84923" lon="2.27147">
        <ele>108</ele>
        <time>2023-11-25T14:41:24Z</time>
      </trkpt>
      <trkpt lat="49.84923" lon="2.27148">
        <ele>107.9</ele>
        <time>2023-11-25T14:41:25Z</time>
      </trkpt>
      <trkpt lat="49.84922" lon="2.27148">
        <ele>107.9</ele>
        <time>2023-11-25T14:41:26Z</time>
      </trkpt>
      <trkpt lat="49.84922" lon="2.27148">
        <ele>107.9</ele>
        <time>2023-11-25T14:41:27Z</time>
      </trkpt>
      <trkpt lat="49.84921" lon="2.27149">
        <ele>107.9</ele>
        <time>2023-11-25T14:41:28Z</time>
      </trkpt>
      <trkpt lat="49.84919" lon="2.2715">
        <ele>107.9</ele>
        <time>2023-11-25T14:41:29Z</time>
      </trkpt>
      <trkpt lat="49.84918" lon="2.27151">
        <ele>107.9</ele>
        <time>2023-11-25T14:41:30Z</time>
      </trkpt>
      <trkpt lat="49.84916" lon="2.27152">
        <ele>107.9</ele>
        <time>2023-11-25T14:41:31Z</time>
      </trkpt>
      <trkpt lat="49.84915" lon="2.27153">
        <ele>107.9</ele>
        <time>2023-11-25T14:41:32Z</time>
      </trkpt>
      <trkpt lat="49.84914" lon="2.27153">
        <ele>107.9</ele>
        <time>2023-11-25T14:41:33Z</time>
      </trkpt>
      <trkpt lat="49.84913" lon="2.27154">
        <ele>107.9</ele>
        <time>2023-11-25T14:41:34Z</time>
      </trkpt>
      <trkpt lat="49.84911" lon="2.27155">
        <ele>107.9</ele>
        <time>2023-11-25T14:41:35Z</time>
      </trkpt>
      <trkpt lat="49.84909" lon="2.27156">
        <ele>107.9</ele>
        <time>2023-11-25T14:41:36Z</time>
      </trkpt>
      <trkpt lat="49.84908" lon="2.27157">
        <ele>107.9</ele>
        <time>2023-11-25T14:41:37Z</time>
      </trkpt>
      <trkpt lat="49.84907" lon="2.27157">
        <ele>107.9</ele>
        <time>2023-11-25T14:41:38Z</time>
      </trkpt>
      <trkpt lat="49.84905" lon="2.2716">
        <ele>107.9</ele>
        <time>2023-11-25T14:41:40Z</time>
      </trkpt>
      <trkpt lat="49.84904" lon="2.27161">
        <ele>107.9</ele>
        <time>2023-11-25T14:41:41Z</time>
      </trkpt>
      <trkpt lat="49.84903" lon="2.27162">
        <ele>107.9</ele>
        <time>2023-11-25T14:41:42Z</time>
      </trkpt>
      <trkpt lat="49.84902" lon="2.27163">
        <ele>107.9</ele>
        <time>2023-11-25T14:41:43Z</time>
      </trkpt>
      <trkpt lat="49.849" lon="2.27163">
        <ele>107.9</ele>
        <time>2023-11-25T14:41:44Z</time>
      </trkpt>
      <trkpt lat="49.84898" lon="2.27165">
        <ele>107.9</ele>
        <time>2023-11-25T14:41:46Z</time>
      </trkpt>
      <trkpt lat="49.84897" lon="2.27166">
        <ele>107.9</ele>
        <time>2023-11-25T14:41:47Z</time>
      </trkpt>
      <trkpt lat="49.84896" lon="2.27167">
        <ele>107.9</ele>
        <time>2023-11-25T14:41:48Z</time>
      </trkpt>
      <trkpt lat="49.84894" lon="2.27167">
        <ele>107.9</ele>
        <time>2023-11-25T14:41:49Z</time>
      </trkpt>
      <trkpt lat="49.84893" lon="2.27168">
        <ele>107.9</ele>
        <time>2023-11-25T14:41:50Z</time>
      </trkpt>
      <trkpt lat="49.84891" lon="2.27168">
        <ele>107.9</ele>
        <time>2023-11-25T14:41:51Z</time>
      </trkpt>
      <trkpt lat="49.8489" lon="2.27169">
        <ele>107.9</ele>
        <time>2023-11-25T14:41:53Z</time>
      </trkpt>
      <trkpt lat="49.84888" lon="2.2717">
        <ele>107.9</ele>
        <time>2023-11-25T14:41:54Z</time>
      </trkpt>
      <trkpt lat="49.84887" lon="2.27171">
        <ele>107.9</ele>
        <time>2023-11-25T14:41:55Z</time>
      </trkpt>
      <trkpt lat="49.84886" lon="2.27173">
        <ele>107.9</ele>
        <time>2023-11-25T14:41:56Z</time>
      </trkpt>
      <trkpt lat="49.84885" lon="2.27174">
        <ele>107.9</ele>
        <time>2023-11-25T14:41:57Z</time>
      </trkpt>
      <trkpt lat="49.84884" lon="2.27174">
        <ele>107.9</ele>
        <time>2023-11-25T14:41:58Z</time>
      </trkpt>
      <trkpt lat="49.84883" lon="2.27175">
        <ele>107.9</ele>
        <time>2023-11-25T14:41:59Z</time>
      </trkpt>
      <trkpt lat="49.84882" lon="2.27177">
        <ele>107.9</ele>
        <time>2023-11-25T14:42:01Z</time>
      </trkpt>
      <trkpt lat="49.8488" lon="2.27178">
        <ele>107.9</ele>
        <time>2023-11-25T14:42:02Z</time>
      </trkpt>
      <trkpt lat="49.84879" lon="2.27179">
        <ele>107.9</ele>
        <time>2023-11-25T14:42:03Z</time>
      </trkpt>
      <trkpt lat="49.84879" lon="2.27179">
        <ele>107.9</ele>
        <time>2023-11-25T14:42:04Z</time>
      </trkpt>
      <trkpt lat="49.84878" lon="2.2718">
        <ele>107.9</ele>
        <time>2023-11-25T14:42:05Z</time>
      </trkpt>
      <trkpt lat="49.84877" lon="2.27181">
        <ele>107.9</ele>
        <time>2023-11-25T14:42:07Z</time>
      </trkpt>
      <trkpt lat="49.84877" lon="2.27181">
        <ele>107.9</ele>
        <time>2023-11-25T14:42:08Z</time>
      </trkpt>
      <trkpt lat="49.84877" lon="2.27182">
        <ele>107.9</ele>
        <time>2023-11-25T14:42:09Z</time>
      </trkpt>
      <trkpt lat="49.84878" lon="2.27183">
        <ele>107.9</ele>
        <time>2023-11-25T14:42:11Z</time>
      </trkpt>
      <trkpt lat="49.84878" lon="2.27183">
        <ele>107.9</ele>
        <time>2023-11-25T14:42:12Z</time>
      </trkpt>
      <trkpt lat="49.84878" lon="2.27183">
        <ele>107.9</ele>
        <time>2023-11-25T14:42:13Z</time>
      </trkpt>
      <trkpt lat="49.84878" lon="2.27181">
        <ele>107.9</ele>
        <time>2023-11-25T14:42:15Z</time>
      </trkpt>
      <trkpt lat="49.84878" lon="2.27182">
        <ele>107.9</ele>
        <time>2023-11-25T14:42:16Z</time>
      </trkpt>
      <trkpt lat="49.84878" lon="2.27182">
        <ele>107.9</ele>
        <time>2023-11-25T14:42:18Z</time>
      </trkpt>
      <trkpt lat="49.84878" lon="2.27182">
        <ele>107.9</ele>
        <time>2023-11-25T14:42:19Z</time>
      </trkpt>
      <trkpt lat="49.84878" lon="2.27183">
        <ele>107.9</ele>
        <time>2023-11-25T14:42:20Z</time>
      </trkpt>
      <trkpt lat="49.84878" lon="2.27182">
        <ele>107.9</ele>
        <time>2023-11-25T14:42:22Z</time>
      </trkpt>
      <trkpt lat="49.84878" lon="2.27182">
        <ele>107.9</ele>
        <time>2023-11-25T14:42:23Z</time>
      </trkpt>
      <trkpt lat="49.84881" lon="2.27174">
        <ele>107.9</ele>
        <time>2023-11-25T14:43:09Z</time>
      </trkpt>
      <trkpt lat="49.84882" lon="2.27173">
        <ele>107.9</ele>
        <time>2023-11-25T14:43:10Z</time>
      </trkpt>
      <trkpt lat="49.84883" lon="2.27174">
        <ele>107.9</ele>
        <time>2023-11-25T14:43:11Z</time>
      </trkpt>
      <trkpt lat="49.84884" lon="2.27174">
        <ele>107.9</ele>
        <time>2023-11-25T14:43:13Z</time>
      </trkpt>
      <trkpt lat="49.84884" lon="2.27174">
        <ele>107.9</ele>
        <time>2023-11-25T14:43:14Z</time>
      </trkpt>
      <trkpt lat="49.84883" lon="2.27174">
        <ele>107.9</ele>
        <time>2023-11-25T14:43:16Z</time>
      </trkpt>
      <trkpt lat="49.84884" lon="2.27175">
        <ele>107.9</ele>
        <time>2023-11-25T14:43:17Z</time>
      </trkpt>
      <trkpt lat="49.84884" lon="2.27175">
        <ele>107.9</ele>
        <time>2023-11-25T14:43:19Z</time>
      </trkpt>
      <trkpt lat="49.84884" lon="2.27175">
        <ele>107.9</ele>
        <time>2023-11-25T14:43:20Z</time>
      </trkpt>
      <trkpt lat="49.84884" lon="2.27175">
        <ele>107.9</ele>
        <time>2023-11-25T14:43:22Z</time>
      </trkpt>
      <trkpt lat="49.84884" lon="2.27175">
        <ele>107.9</ele>
        <time>2023-11-25T14:43:23Z</time>
      </trkpt>
      <trkpt lat="49.84883" lon="2.27176">
        <ele>107.9</ele>
        <time>2023-11-25T14:43:24Z</time>
      </trkpt>
      <trkpt lat="49.84883" lon="2.27176">
        <ele>107.9</ele>
        <time>2023-11-25T14:43:25Z</time>
      </trkpt>
      <trkpt lat="49.84882" lon="2.27177">
        <ele>107.9</ele>
        <time>2023-11-25T14:43:26Z</time>
      </trkpt>
      <trkpt lat="49.84881" lon="2.27178">
        <ele>107.8</ele>
        <time>2023-11-25T14:43:27Z</time>
      </trkpt>
      <trkpt lat="49.84881" lon="2.27179">
        <ele>107.8</ele>
        <time>2023-11-25T14:43:28Z</time>
      </trkpt>
      <trkpt lat="49.8488" lon="2.27182">
        <ele>107.8</ele>
        <time>2023-11-25T14:43:30Z</time>
      </trkpt>
      <trkpt lat="49.84879" lon="2.27184">
        <ele>107.8</ele>
        <time>2023-11-25T14:43:32Z</time>
      </trkpt>
      <trkpt lat="49.84878" lon="2.27187">
        <ele>107.8</ele>
        <time>2023-11-25T14:43:33Z</time>
      </trkpt>
      <trkpt lat="49.84878" lon="2.27188">
        <ele>107.8</ele>
        <time>2023-11-25T14:43:34Z</time>
      </trkpt>
      <trkpt lat="49.84877" lon="2.27191">
        <ele>107.8</ele>
        <time>2023-11-25T14:43:35Z</time>
      </trkpt>
      <trkpt lat="49.84876" lon="2.27192">
        <ele>107.8</ele>
        <time>2023-11-25T14:43:36Z</time>
      </trkpt>
      <trkpt lat="49.84876" lon="2.27193">
        <ele>107.8</ele>
        <time>2023-11-25T14:43:37Z</time>
      </trkpt>
      <trkpt lat="49.84875" lon="2.27195">
        <ele>107.8</ele>
        <time>2023-11-25T14:43:39Z</time>
      </trkpt>
      <trkpt lat="49.84874" lon="2.27196">
        <ele>107.8</ele>
        <time>2023-11-25T14:43:40Z</time>
      </trkpt>
      <trkpt lat="49.84873" lon="2.27197">
        <ele>107.8</ele>
        <time>2023-11-25T14:43:41Z</time>
      </trkpt>
      <trkpt lat="49.84873" lon="2.272">
        <ele>107.8</ele>
        <time>2023-11-25T14:43:42Z</time>
      </trkpt>
      <trkpt lat="49.84872" lon="2.272">
        <ele>107.8</ele>
        <time>2023-11-25T14:43:43Z</time>
      </trkpt>
      <trkpt lat="49.84871" lon="2.27199">
        <ele>107.8</ele>
        <time>2023-11-25T14:43:44Z</time>
      </trkpt>
      <trkpt lat="49.8487" lon="2.27199">
        <ele>107.8</ele>
        <time>2023-11-25T14:43:45Z</time>
      </trkpt>
      <trkpt lat="49.84869" lon="2.27198">
        <ele>107.8</ele>
        <time>2023-11-25T14:43:47Z</time>
      </trkpt>
      <trkpt lat="49.84868" lon="2.27198">
        <ele>107.8</ele>
        <time>2023-11-25T14:43:48Z</time>
      </trkpt>
      <trkpt lat="49.84866" lon="2.27198">
        <ele>107.8</ele>
        <time>2023-11-25T14:43:49Z</time>
      </trkpt>
      <trkpt lat="49.84865" lon="2.27197">
        <ele>107.8</ele>
        <time>2023-11-25T14:43:50Z</time>
      </trkpt>
      <trkpt lat="49.84864" lon="2.27197">
        <ele>107.8</ele>
        <time>2023-11-25T14:43:51Z</time>
      </trkpt>
      <trkpt lat="49.84863" lon="2.27196">
        <ele>107.8</ele>
        <time>2023-11-25T14:43:52Z</time>
      </trkpt>
      <trkpt lat="49.84862" lon="2.27196">
        <ele>107.8</ele>
        <time>2023-11-25T14:43:54Z</time>
      </trkpt>
      <trkpt lat="49.84861" lon="2.27196">
        <ele>107.8</ele>
        <time>2023-11-25T14:43:55Z</time>
      </trkpt>
      <trkpt lat="49.8486" lon="2.27196">
        <ele>107.8</ele>
        <time>2023-11-25T14:43:56Z</time>
      </trkpt>
      <trkpt lat="49.84859" lon="2.27195">
        <ele>107.8</ele>
        <time>2023-11-25T14:43:57Z</time>
      </trkpt>
      <trkpt lat="49.84858" lon="2.27195">
        <ele>107.8</ele>
        <time>2023-11-25T14:43:58Z</time>
      </trkpt>
      <trkpt lat="49.84857" lon="2.27195">
        <ele>107.8</ele>
        <time>2023-11-25T14:43:59Z</time>
      </trkpt>
      <trkpt lat="49.84856" lon="2.27195">
        <ele>107.8</ele>
        <time>2023-11-25T14:44:00Z</time>
      </trkpt>
      <trkpt lat="49.84855" lon="2.27195">
        <ele>107.8</ele>
        <time>2023-11-25T14:44:02Z</time>
      </trkpt>
      <trkpt lat="49.84854" lon="2.27195">
        <ele>107.8</ele>
        <time>2023-11-25T14:44:03Z</time>
      </trkpt>
      <trkpt lat="49.84853" lon="2.27194">
        <ele>107.8</ele>
        <time>2023-11-25T14:44:04Z</time>
      </trkpt>
      <trkpt lat="49.84852" lon="2.27193">
        <ele>107.8</ele>
        <time>2023-11-25T14:44:05Z</time>
      </trkpt>
      <trkpt lat="49.84851" lon="2.27192">
        <ele>107.8</ele>
        <time>2023-11-25T14:44:06Z</time>
      </trkpt>
      <trkpt lat="49.8485" lon="2.27191">
        <ele>107.8</ele>
        <time>2023-11-25T14:44:08Z</time>
      </trkpt>
      <trkpt lat="49.84849" lon="2.27191">
        <ele>107.8</ele>
        <time>2023-11-25T14:44:09Z</time>
      </trkpt>
      <trkpt lat="49.84848" lon="2.27192">
        <ele>107.8</ele>
        <time>2023-11-25T14:44:10Z</time>
      </trkpt>
      <trkpt lat="49.84847" lon="2.27193">
        <ele>107.8</ele>
        <time>2023-11-25T14:44:11Z</time>
      </trkpt>
      <trkpt lat="49.84846" lon="2.27194">
        <ele>107.8</ele>
        <time>2023-11-25T14:44:13Z</time>
      </trkpt>
      <trkpt lat="49.84846" lon="2.27196">
        <ele>107.8</ele>
        <time>2023-11-25T14:44:14Z</time>
      </trkpt>
      <trkpt lat="49.84845" lon="2.27197">
        <ele>107.8</ele>
        <time>2023-11-25T14:44:15Z</time>
      </trkpt>
      <trkpt lat="49.84845" lon="2.27199">
        <ele>107.8</ele>
        <time>2023-11-25T14:44:16Z</time>
      </trkpt>
      <trkpt lat="49.84845" lon="2.27204">
        <ele>107.8</ele>
        <time>2023-11-25T14:44:17Z</time>
      </trkpt>
      <trkpt lat="49.84845" lon="2.27205">
        <ele>107.8</ele>
        <time>2023-11-25T14:44:18Z</time>
      </trkpt>
      <trkpt lat="49.84844" lon="2.27207">
        <ele>107.8</ele>
        <time>2023-11-25T14:44:20Z</time>
      </trkpt>
      <trkpt lat="49.84844" lon="2.27208">
        <ele>107.8</ele>
        <time>2023-11-25T14:44:21Z</time>
      </trkpt>
      <trkpt lat="49.84844" lon="2.2721">
        <ele>107.8</ele>
        <time>2023-11-25T14:44:23Z</time>
      </trkpt>
      <trkpt lat="49.84844" lon="2.2721">
        <ele>107.8</ele>
        <time>2023-11-25T14:44:24Z</time>
      </trkpt>
      <trkpt lat="49.84844" lon="2.2721">
        <ele>107.8</ele>
        <time>2023-11-25T14:44:25Z</time>
      </trkpt>
      <trkpt lat="49.84844" lon="2.27209">
        <ele>107.8</ele>
        <time>2023-11-25T14:44:27Z</time>
      </trkpt>
      <trkpt lat="49.84843" lon="2.27209">
        <ele>107.8</ele>
        <time>2023-11-25T14:44:28Z</time>
      </trkpt>
      <trkpt lat="49.84843" lon="2.27209">
        <ele>107.8</ele>
        <time>2023-11-25T14:44:30Z</time>
      </trkpt>
      <trkpt lat="49.84843" lon="2.27209">
        <ele>107.8</ele>
        <time>2023-11-25T14:44:31Z</time>
      </trkpt>
      <trkpt lat="49.84843" lon="2.27209">
        <ele>107.8</ele>
        <time>2023-11-25T14:44:33Z</time>
      </trkpt>
      <trkpt lat="49.84843" lon="2.27209">
        <ele>107.8</ele>
        <time>2023-11-25T14:44:34Z</time>
      </trkpt>
      <trkpt lat="49.84843" lon="2.27209">
        <ele>107.8</ele>
        <time>2023-11-25T14:44:35Z</time>
      </trkpt>
      <trkpt lat="49.84846" lon="2.27213">
        <ele>107.8</ele>
        <time>2023-11-25T14:44:46Z</time>
      </trkpt>
      <trkpt lat="49.84847" lon="2.27214">
        <ele>107.8</ele>
        <time>2023-11-25T14:44:48Z</time>
      </trkpt>
      <trkpt lat="49.84847" lon="2.27216">
        <ele>107.8</ele>
        <time>2023-11-25T14:44:49Z</time>
      </trkpt>
      <trkpt lat="49.84848" lon="2.27218">
        <ele>107.8</ele>
        <time>2023-11-25T14:44:50Z</time>
      </trkpt>
      <trkpt lat="49.84848" lon="2.27221">
        <ele>107.8</ele>
        <time>2023-11-25T14:44:51Z</time>
      </trkpt>
      <trkpt lat="49.84848" lon="2.27223">
        <ele>107.8</ele>
        <time>2023-11-25T14:44:52Z</time>
      </trkpt>
      <trkpt lat="49.84848" lon="2.27224">
        <ele>107.8</ele>
        <time>2023-11-25T14:44:53Z</time>
      </trkpt>
      <trkpt lat="49.84848" lon="2.27226">
        <ele>107.8</ele>
        <time>2023-11-25T14:44:54Z</time>
      </trkpt>
      <trkpt lat="49.84848" lon="2.27228">
        <ele>107.8</ele>
        <time>2023-11-25T14:44:55Z</time>
      </trkpt>
      <trkpt lat="49.84847" lon="2.27231">
        <ele>107.8</ele>
        <time>2023-11-25T14:44:57Z</time>
      </trkpt>
      <trkpt lat="49.84847" lon="2.27233">
        <ele>107.8</ele>
        <time>2023-11-25T14:44:58Z</time>
      </trkpt>
      <trkpt lat="49.84846" lon="2.27234">
        <ele>107.8</ele>
        <time>2023-11-25T14:44:59Z</time>
      </trkpt>
      <trkpt lat="49.84846" lon="2.27237">
        <ele>107.8</ele>
        <time>2023-11-25T14:45:00Z</time>
      </trkpt>
      <trkpt lat="49.84846" lon="2.27239">
        <ele>107.8</ele>
        <time>2023-11-25T14:45:01Z</time>
      </trkpt>
      <trkpt lat="49.84846" lon="2.27241">
        <ele>107.8</ele>
        <time>2023-11-25T14:45:02Z</time>
      </trkpt>
      <trkpt lat="49.84845" lon="2.27243">
        <ele>107.8</ele>
        <time>2023-11-25T14:45:03Z</time>
      </trkpt>
      <trkpt lat="49.84845" lon="2.27245">
        <ele>107.8</ele>
        <time>2023-11-25T14:45:05Z</time>
      </trkpt>
      <trkpt lat="49.84845" lon="2.27248">
        <ele>107.8</ele>
        <time>2023-11-25T14:45:06Z</time>
      </trkpt>
      <trkpt lat="49.84845" lon="2.27249">
        <ele>107.8</ele>
        <time>2023-11-25T14:45:07Z</time>
      </trkpt>
      <trkpt lat="49.84845" lon="2.27251">
        <ele>107.8</ele>
        <time>2023-11-25T14:45:08Z</time>
      </trkpt>
      <trkpt lat="49.84845" lon="2.27252">
        <ele>107.8</ele>
        <time>2023-11-25T14:45:09Z</time>
      </trkpt>
      <trkpt lat="49.84845" lon="2.27254">
        <ele>107.8</ele>
        <time>2023-11-25T14:45:10Z</time>
      </trkpt>
      <trkpt lat="49.84845" lon="2.27256">
        <ele>107.8</ele>
        <time>2023-11-25T14:45:12Z</time>
      </trkpt>
      <trkpt lat="49.84845" lon="2.27257">
        <ele>107.8</ele>
        <time>2023-11-25T14:45:13Z</time>
      </trkpt>
      <trkpt lat="49.84845" lon="2.27259">
        <ele>107.8</ele>
        <time>2023-11-25T14:45:14Z</time>
      </trkpt>
      <trkpt lat="49.84845" lon="2.27261">
        <ele>107.8</ele>
        <time>2023-11-25T14:45:15Z</time>
      </trkpt>
      <trkpt lat="49.84844" lon="2.27262">
        <ele>107.8</ele>
        <time>2023-11-25T14:45:16Z</time>
      </trkpt>
      <trkpt lat="49.84844" lon="2.27264">
        <ele>107.8</ele>
        <time>2023-11-25T14:45:17Z</time>
      </trkpt>
      <trkpt lat="49.84844" lon="2.27266">
        <ele>107.8</ele>
        <time>2023-11-25T14:45:18Z</time>
      </trkpt>
      <trkpt lat="49.84844" lon="2.27269">
        <ele>107.8</ele>
        <time>2023-11-25T14:45:19Z</time>
      </trkpt>
      <trkpt lat="49.84844" lon="2.2727">
        <ele>107.8</ele>
        <time>2023-11-25T14:45:21Z</time>
      </trkpt>
      <trkpt lat="49.84844" lon="2.27272">
        <ele>107.8</ele>
        <time>2023-11-25T14:45:22Z</time>
      </trkpt>
      <trkpt lat="49.84844" lon="2.27275">
        <ele>107.8</ele>
        <time>2023-11-25T14:45:23Z</time>
      </trkpt>
      <trkpt lat="49.84844" lon="2.27276">
        <ele>107.9</ele>
        <time>2023-11-25T14:45:24Z</time>
      </trkpt>
      <trkpt lat="49.84844" lon="2.27278">
        <ele>107.9</ele>
        <time>2023-11-25T14:45:25Z</time>
      </trkpt>
      <trkpt lat="49.84844" lon="2.2728">
        <ele>107.9</ele>
        <time>2023-11-25T14:45:26Z</time>
      </trkpt>
      <trkpt lat="49.84844" lon="2.27281">
        <ele>107.9</ele>
        <time>2023-11-25T14:45:27Z</time>
      </trkpt>
      <trkpt lat="49.84844" lon="2.27283">
        <ele>107.9</ele>
        <time>2023-11-25T14:45:28Z</time>
      </trkpt>
      <trkpt lat="49.84844" lon="2.27286">
        <ele>107.9</ele>
        <time>2023-11-25T14:45:30Z</time>
      </trkpt>
      <trkpt lat="49.84843" lon="2.27288">
        <ele>107.9</ele>
        <time>2023-11-25T14:45:31Z</time>
      </trkpt>
      <trkpt lat="49.84843" lon="2.27289">
        <ele>107.9</ele>
        <time>2023-11-25T14:45:32Z</time>
      </trkpt>
      <trkpt lat="49.84843" lon="2.27291">
        <ele>107.9</ele>
        <time>2023-11-25T14:45:33Z</time>
      </trkpt>
      <trkpt lat="49.84843" lon="2.27293">
        <ele>107.9</ele>
        <time>2023-11-25T14:45:34Z</time>
      </trkpt>
      <trkpt lat="49.84843" lon="2.27294">
        <ele>107.9</ele>
        <time>2023-11-25T14:45:35Z</time>
      </trkpt>
      <trkpt lat="49.84843" lon="2.27296">
        <ele>107.9</ele>
        <time>2023-11-25T14:45:36Z</time>
      </trkpt>
      <trkpt lat="49.84843" lon="2.27298">
        <ele>107.9</ele>
        <time>2023-11-25T14:45:37Z</time>
      </trkpt>
      <trkpt lat="49.84843" lon="2.27301">
        <ele>107.9</ele>
        <time>2023-11-25T14:45:39Z</time>
      </trkpt>
      <trkpt lat="49.84843" lon="2.27304">
        <ele>108</ele>
        <time>2023-11-25T14:45:40Z</time>
      </trkpt>
      <trkpt lat="49.84843" lon="2.27305">
        <ele>108</ele>
        <time>2023-11-25T14:45:41Z</time>
      </trkpt>
      <trkpt lat="49.84843" lon="2.27307">
        <ele>108</ele>
        <time>2023-11-25T14:45:42Z</time>
      </trkpt>
      <trkpt lat="49.84843" lon="2.27309">
        <ele>108</ele>
        <time>2023-11-25T14:45:44Z</time>
      </trkpt>
      <trkpt lat="49.84843" lon="2.27311">
        <ele>108</ele>
        <time>2023-11-25T14:45:45Z</time>
      </trkpt>
      <trkpt lat="49.84843" lon="2.27313">
        <ele>108</ele>
        <time>2023-11-25T14:45:46Z</time>
      </trkpt>
      <trkpt lat="49.84843" lon="2.27314">
        <ele>108</ele>
        <time>2023-11-25T14:45:47Z</time>
      </trkpt>
      <trkpt lat="49.84843" lon="2.27317">
        <ele>108</ele>
        <time>2023-11-25T14:45:48Z</time>
      </trkpt>
      <trkpt lat="49.84843" lon="2.27317">
        <ele>108</ele>
        <time>2023-11-25T14:45:49Z</time>
      </trkpt>
      <trkpt lat="49.84842" lon="2.27319">
        <ele>108</ele>
        <time>2023-11-25T14:45:50Z</time>
      </trkpt>
      <trkpt lat="49.84842" lon="2.2732">
        <ele>108</ele>
        <time>2023-11-25T14:45:52Z</time>
      </trkpt>
      <trkpt lat="49.84842" lon="2.27322">
        <ele>108</ele>
        <time>2023-11-25T14:45:53Z</time>
      </trkpt>
      <trkpt lat="49.84842" lon="2.27324">
        <ele>108</ele>
        <time>2023-11-25T14:45:54Z</time>
      </trkpt>
      <trkpt lat="49.84842" lon="2.27325">
        <ele>108.1</ele>
        <time>2023-11-25T14:45:55Z</time>
      </trkpt>
      <trkpt lat="49.84842" lon="2.27327">
        <ele>108.1</ele>
        <time>2023-11-25T14:45:56Z</time>
      </trkpt>
      <trkpt lat="49.84844" lon="2.27331">
        <ele>108.1</ele>
        <time>2023-11-25T14:45:58Z</time>
      </trkpt>
      <trkpt lat="49.84845" lon="2.27332">
        <ele>108.1</ele>
        <time>2023-11-25T14:46:00Z</time>
      </trkpt>
      <trkpt lat="49.84845" lon="2.27334">
        <ele>108.1</ele>
        <time>2023-11-25T14:46:01Z</time>
      </trkpt>
      <trkpt lat="49.84846" lon="2.27335">
        <ele>108.1</ele>
        <time>2023-11-25T14:46:02Z</time>
      </trkpt>
      <trkpt lat="49.84846" lon="2.27337">
        <ele>108.1</ele>
        <time>2023-11-25T14:46:03Z</time>
      </trkpt>
      <trkpt lat="49.84846" lon="2.27338">
        <ele>108.1</ele>
        <time>2023-11-25T14:46:04Z</time>
      </trkpt>
      <trkpt lat="49.84847" lon="2.2734">
        <ele>108.1</ele>
        <time>2023-11-25T14:46:06Z</time>
      </trkpt>
      <trkpt lat="49.84847" lon="2.27342">
        <ele>108.1</ele>
        <time>2023-11-25T14:46:07Z</time>
      </trkpt>
      <trkpt lat="49.84847" lon="2.27344">
        <ele>108.1</ele>
        <time>2023-11-25T14:46:08Z</time>
      </trkpt>
      <trkpt lat="49.84846" lon="2.27345">
        <ele>108.1</ele>
        <time>2023-11-25T14:46:09Z</time>
      </trkpt>
      <trkpt lat="49.84846" lon="2.27346">
        <ele>108.1</ele>
        <time>2023-11-25T14:46:10Z</time>
      </trkpt>
      <trkpt lat="49.84845" lon="2.27347">
        <ele>108.2</ele>
        <time>2023-11-25T14:46:12Z</time>
      </trkpt>
      <trkpt lat="49.84843" lon="2.27346">
        <ele>108.2</ele>
        <time>2023-11-25T14:46:13Z</time>
      </trkpt>
      <trkpt lat="49.84843" lon="2.27346">
        <ele>108.2</ele>
        <time>2023-11-25T14:46:14Z</time>
      </trkpt>
      <trkpt lat="49.84843" lon="2.27347">
        <ele>108.2</ele>
        <time>2023-11-25T14:46:16Z</time>
      </trkpt>
      <trkpt lat="49.84842" lon="2.27347">
        <ele>108.2</ele>
        <time>2023-11-25T14:46:17Z</time>
      </trkpt>
      <trkpt lat="49.84842" lon="2.27347">
        <ele>108.2</ele>
        <time>2023-11-25T14:46:18Z</time>
      </trkpt>
      <trkpt lat="49.84841" lon="2.27348">
        <ele>108.2</ele>
        <time>2023-11-25T14:46:19Z</time>
      </trkpt>
      <trkpt lat="49.8484" lon="2.27348">
        <ele>108.2</ele>
        <time>2023-11-25T14:46:20Z</time>
      </trkpt>
      <trkpt lat="49.84839" lon="2.27348">
        <ele>108.2</ele>
        <time>2023-11-25T14:46:22Z</time>
      </trkpt>
      <trkpt lat="49.84838" lon="2.27348">
        <ele>108.2</ele>
        <time>2023-11-25T14:46:23Z</time>
      </trkpt>
      <trkpt lat="49.84838" lon="2.27348">
        <ele>108.2</ele>
        <time>2023-11-25T14:46:24Z</time>
      </trkpt>
      <trkpt lat="49.84837" lon="2.27349">
        <ele>108.2</ele>
        <time>2023-11-25T14:46:25Z</time>
      </trkpt>
      <trkpt lat="49.84836" lon="2.27349">
        <ele>108.2</ele>
        <time>2023-11-25T14:46:26Z</time>
      </trkpt>
      <trkpt lat="49.84836" lon="2.2735">
        <ele>108.2</ele>
        <time>2023-11-25T14:46:27Z</time>
      </trkpt>
      <trkpt lat="49.84835" lon="2.27353">
        <ele>108.2</ele>
        <time>2023-11-25T14:46:29Z</time>
      </trkpt>
      <trkpt lat="49.84836" lon="2.27354">
        <ele>108.3</ele>
        <time>2023-11-25T14:46:30Z</time>
      </trkpt>
      <trkpt lat="49.84836" lon="2.27355">
        <ele>108.3</ele>
        <time>2023-11-25T14:46:31Z</time>
      </trkpt>
      <trkpt lat="49.84836" lon="2.27357">
        <ele>108.3</ele>
        <time>2023-11-25T14:46:32Z</time>
      </trkpt>
      <trkpt lat="49.84837" lon="2.27358">
        <ele>108.3</ele>
        <time>2023-11-25T14:46:33Z</time>
      </trkpt>
      <trkpt lat="49.84838" lon="2.2736">
        <ele>108.3</ele>
        <time>2023-11-25T14:46:34Z</time>
      </trkpt>
      <trkpt lat="49.84838" lon="2.27361">
        <ele>108.3</ele>
        <time>2023-11-25T14:46:36Z</time>
      </trkpt>
      <trkpt lat="49.84838" lon="2.27363">
        <ele>108.3</ele>
        <time>2023-11-25T14:46:37Z</time>
      </trkpt>
      <trkpt lat="49.84839" lon="2.27364">
        <ele>108.3</ele>
        <time>2023-11-25T14:46:38Z</time>
      </trkpt>
      <trkpt lat="49.84839" lon="2.27366">
        <ele>108.3</ele>
        <time>2023-11-25T14:46:39Z</time>
      </trkpt>
      <trkpt lat="49.8484" lon="2.27367">
        <ele>108.3</ele>
        <time>2023-11-25T14:46:41Z</time>
      </trkpt>
      <trkpt lat="49.8484" lon="2.27369">
        <ele>108.3</ele>
        <time>2023-11-25T14:46:42Z</time>
      </trkpt>
      <trkpt lat="49.8484" lon="2.2737">
        <ele>108.3</ele>
        <time>2023-11-25T14:46:43Z</time>
      </trkpt>
      <trkpt lat="49.8484" lon="2.27372">
        <ele>108.3</ele>
        <time>2023-11-25T14:46:44Z</time>
      </trkpt>
      <trkpt lat="49.8484" lon="2.27374">
        <ele>108.4</ele>
        <time>2023-11-25T14:46:45Z</time>
      </trkpt>
      <trkpt lat="49.8484" lon="2.27376">
        <ele>108.4</ele>
        <time>2023-11-25T14:46:47Z</time>
      </trkpt>
      <trkpt lat="49.8484" lon="2.27377">
        <ele>108.4</ele>
        <time>2023-11-25T14:46:48Z</time>
      </trkpt>
      <trkpt lat="49.8484" lon="2.27379">
        <ele>108.4</ele>
        <time>2023-11-25T14:46:49Z</time>
      </trkpt>
      <trkpt lat="49.84839" lon="2.27381">
        <ele>108.4</ele>
        <time>2023-11-25T14:46:50Z</time>
      </trkpt>
      <trkpt lat="49.84839" lon="2.27382">
        <ele>108.4</ele>
        <time>2023-11-25T14:46:51Z</time>
      </trkpt>
      <trkpt lat="49.84839" lon="2.27384">
        <ele>108.4</ele>
        <time>2023-11-25T14:46:52Z</time>
      </trkpt>
      <trkpt lat="49.84839" lon="2.27385">
        <ele>108.4</ele>
        <time>2023-11-25T14:46:54Z</time>
      </trkpt>
      <trkpt lat="49.84838" lon="2.27387">
        <ele>108.4</ele>
        <time>2023-11-25T14:46:55Z</time>
      </trkpt>
      <trkpt lat="49.84838" lon="2.27388">
        <ele>108.4</ele>
        <time>2023-11-25T14:46:56Z</time>
      </trkpt>
      <trkpt lat="49.84837" lon="2.27389">
        <ele>108.4</ele>
        <time>2023-11-25T14:46:57Z</time>
      </trkpt>
      <trkpt lat="49.84837" lon="2.27391">
        <ele>108.4</ele>
        <time>2023-11-25T14:46:58Z</time>
      </trkpt>
      <trkpt lat="49.84837" lon="2.27393">
        <ele>108.4</ele>
        <time>2023-11-25T14:47:00Z</time>
      </trkpt>
      <trkpt lat="49.84837" lon="2.27394">
        <ele>108.4</ele>
        <time>2023-11-25T14:47:01Z</time>
      </trkpt>
      <trkpt lat="49.84837" lon="2.27396">
        <ele>108.4</ele>
        <time>2023-11-25T14:47:02Z</time>
      </trkpt>
      <trkpt lat="49.84837" lon="2.27398">
        <ele>108.4</ele>
        <time>2023-11-25T14:47:03Z</time>
      </trkpt>
      <trkpt lat="49.84837" lon="2.274">
        <ele>108.5</ele>
        <time>2023-11-25T14:47:04Z</time>
      </trkpt>
      <trkpt lat="49.84837" lon="2.27401">
        <ele>108.5</ele>
        <time>2023-11-25T14:47:05Z</time>
      </trkpt>
      <trkpt lat="49.84837" lon="2.27403">
        <ele>108.5</ele>
        <time>2023-11-25T14:47:07Z</time>
      </trkpt>
      <trkpt lat="49.84836" lon="2.27405">
        <ele>108.5</ele>
        <time>2023-11-25T14:47:08Z</time>
      </trkpt>
      <trkpt lat="49.84836" lon="2.27406">
        <ele>108.5</ele>
        <time>2023-11-25T14:47:09Z</time>
      </trkpt>
      <trkpt lat="49.84836" lon="2.27409">
        <ele>108.5</ele>
        <time>2023-11-25T14:47:10Z</time>
      </trkpt>
      <trkpt lat="49.84836" lon="2.2741">
        <ele>108.5</ele>
        <time>2023-11-25T14:47:11Z</time>
      </trkpt>
      <trkpt lat="49.84835" lon="2.27411">
        <ele>108.5</ele>
        <time>2023-11-25T14:47:12Z</time>
      </trkpt>
      <trkpt lat="49.84835" lon="2.27412">
        <ele>108.5</ele>
        <time>2023-11-25T14:47:13Z</time>
      </trkpt>
      <trkpt lat="49.84835" lon="2.27414">
        <ele>108.5</ele>
        <time>2023-11-25T14:47:15Z</time>
      </trkpt>
      <trkpt lat="49.84835" lon="2.27415">
        <ele>108.5</ele>
        <time>2023-11-25T14:47:16Z</time>
      </trkpt>
      <trkpt lat="49.84835" lon="2.27417">
        <ele>108.5</ele>
        <time>2023-11-25T14:47:17Z</time>
      </trkpt>
      <trkpt lat="49.84835" lon="2.2742">
        <ele>108.5</ele>
        <time>2023-11-25T14:47:18Z</time>
      </trkpt>
      <trkpt lat="49.84835" lon="2.27422">
        <ele>108.6</ele>
        <time>2023-11-25T14:47:20Z</time>
      </trkpt>
      <trkpt lat="49.84835" lon="2.27423">
        <ele>108.6</ele>
        <time>2023-11-25T14:47:21Z</time>
      </trkpt>
      <trkpt lat="49.84836" lon="2.27425">
        <ele>108.6</ele>
        <time>2023-11-25T14:47:22Z</time>
      </trkpt>
      <trkpt lat="49.84836" lon="2.27427">
        <ele>108.6</ele>
        <time>2023-11-25T14:47:23Z</time>
      </trkpt>
      <trkpt lat="49.84836" lon="2.27429">
        <ele>108.6</ele>
        <time>2023-11-25T14:47:25Z</time>
      </trkpt>
      <trkpt lat="49.84836" lon="2.27432">
        <ele>108.6</ele>
        <time>2023-11-25T14:47:26Z</time>
      </trkpt>
      <trkpt lat="49.84836" lon="2.27434">
        <ele>108.6</ele>
        <time>2023-11-25T14:47:27Z</time>
      </trkpt>
      <trkpt lat="49.84836" lon="2.27435">
        <ele>108.6</ele>
        <time>2023-11-25T14:47:28Z</time>
      </trkpt>
      <trkpt lat="49.84836" lon="2.27438">
        <ele>108.6</ele>
        <time>2023-11-25T14:47:29Z</time>
      </trkpt>
      <trkpt lat="49.84836" lon="2.27438">
        <ele>108.6</ele>
        <time>2023-11-25T14:47:30Z</time>
      </trkpt>
      <trkpt lat="49.84835" lon="2.27441">
        <ele>108.7</ele>
        <time>2023-11-25T14:47:32Z</time>
      </trkpt>
      <trkpt lat="49.84836" lon="2.27442">
        <ele>108.7</ele>
        <time>2023-11-25T14:47:33Z</time>
      </trkpt>
      <trkpt lat="49.84835" lon="2.27444">
        <ele>108.7</ele>
        <time>2023-11-25T14:47:34Z</time>
      </trkpt>
      <trkpt lat="49.84835" lon="2.27446">
        <ele>108.7</ele>
        <time>2023-11-25T14:47:35Z</time>
      </trkpt>
      <trkpt lat="49.84835" lon="2.27447">
        <ele>108.7</ele>
        <time>2023-11-25T14:47:36Z</time>
      </trkpt>
      <trkpt lat="49.84835" lon="2.27449">
        <ele>108.7</ele>
        <time>2023-11-25T14:47:37Z</time>
      </trkpt>
      <trkpt lat="49.84834" lon="2.2745">
        <ele>108.7</ele>
        <time>2023-11-25T14:47:38Z</time>
      </trkpt>
      <trkpt lat="49.84834" lon="2.27452">
        <ele>108.7</ele>
        <time>2023-11-25T14:47:40Z</time>
      </trkpt>
      <trkpt lat="49.84833" lon="2.27453">
        <ele>108.7</ele>
        <time>2023-11-25T14:47:41Z</time>
      </trkpt>
      <trkpt lat="49.84832" lon="2.27453">
        <ele>108.7</ele>
        <time>2023-11-25T14:47:42Z</time>
      </trkpt>
      <trkpt lat="49.84831" lon="2.27453">
        <ele>108.7</ele>
        <time>2023-11-25T14:47:43Z</time>
      </trkpt>
      <trkpt lat="49.8483" lon="2.27453">
        <ele>108.8</ele>
        <time>2023-11-25T14:47:44Z</time>
      </trkpt>
      <trkpt lat="49.84829" lon="2.27453">
        <ele>108.8</ele>
        <time>2023-11-25T14:47:45Z</time>
      </trkpt>
      <trkpt lat="49.84829" lon="2.27454">
        <ele>108.8</ele>
        <time>2023-11-25T14:47:46Z</time>
      </trkpt>
      <trkpt lat="49.84828" lon="2.27455">
        <ele>108.8</ele>
        <time>2023-11-25T14:47:48Z</time>
      </trkpt>
      <trkpt lat="49.84828" lon="2.27455">
        <ele>108.8</ele>
        <time>2023-11-25T14:47:49Z</time>
      </trkpt>
      <trkpt lat="49.84827" lon="2.27457">
        <ele>108.8</ele>
        <time>2023-11-25T14:47:50Z</time>
      </trkpt>
      <trkpt lat="49.84827" lon="2.27458">
        <ele>108.8</ele>
        <time>2023-11-25T14:47:51Z</time>
      </trkpt>
      <trkpt lat="49.84826" lon="2.27459">
        <ele>108.8</ele>
        <time>2023-11-25T14:47:52Z</time>
      </trkpt>
      <trkpt lat="49.84825" lon="2.2746">
        <ele>108.8</ele>
        <time>2023-11-25T14:47:53Z</time>
      </trkpt>
      <trkpt lat="49.84823" lon="2.2746">
        <ele>108.8</ele>
        <time>2023-11-25T14:47:55Z</time>
      </trkpt>
      <trkpt lat="49.84823" lon="2.2746">
        <ele>108.8</ele>
        <time>2023-11-25T14:47:56Z</time>
      </trkpt>
      <trkpt lat="49.84822" lon="2.27459">
        <ele>108.8</ele>
        <time>2023-11-25T14:47:57Z</time>
      </trkpt>
      <trkpt lat="49.84821" lon="2.27459">
        <ele>108.8</ele>
        <time>2023-11-25T14:47:58Z</time>
      </trkpt>
      <trkpt lat="49.8482" lon="2.27458">
        <ele>108.9</ele>
        <time>2023-11-25T14:48:00Z</time>
      </trkpt>
      <trkpt lat="49.8482" lon="2.27458">
        <ele>108.9</ele>
        <time>2023-11-25T14:48:01Z</time>
      </trkpt>
      <trkpt lat="49.84819" lon="2.27458">
        <ele>108.9</ele>
        <time>2023-11-25T14:48:02Z</time>
      </trkpt>
      <trkpt lat="49.84819" lon="2.27457">
        <ele>108.9</ele>
        <time>2023-11-25T14:48:03Z</time>
      </trkpt>
      <trkpt lat="49.84819" lon="2.27457">
        <ele>108.9</ele>
        <time>2023-11-25T14:48:04Z</time>
      </trkpt>
      <trkpt lat="49.84819" lon="2.27457">
        <ele>108.9</ele>
        <time>2023-11-25T14:48:06Z</time>
      </trkpt>
      <trkpt lat="49.84819" lon="2.27457">
        <ele>108.9</ele>
        <time>2023-11-25T14:48:07Z</time>
      </trkpt>
      <trkpt lat="49.84818" lon="2.27456">
        <ele>108.9</ele>
        <time>2023-11-25T14:48:08Z</time>
      </trkpt>
      <trkpt lat="49.84818" lon="2.27455">
        <ele>108.9</ele>
        <time>2023-11-25T14:48:10Z</time>
      </trkpt>
      <trkpt lat="49.84818" lon="2.27453">
        <ele>108.9</ele>
        <time>2023-11-25T14:48:11Z</time>
      </trkpt>
      <trkpt lat="49.84818" lon="2.27451">
        <ele>108.9</ele>
        <time>2023-11-25T14:48:12Z</time>
      </trkpt>
      <trkpt lat="49.84819" lon="2.27449">
        <ele>108.9</ele>
        <time>2023-11-25T14:48:13Z</time>
      </trkpt>
      <trkpt lat="49.84822" lon="2.27446">
        <ele>108.9</ele>
        <time>2023-11-25T14:48:14Z</time>
      </trkpt>
      <trkpt lat="49.84823" lon="2.27445">
        <ele>109</ele>
        <time>2023-11-25T14:48:15Z</time>
      </trkpt>
      <trkpt lat="49.84825" lon="2.27444">
        <ele>109</ele>
        <time>2023-11-25T14:48:17Z</time>
      </trkpt>
      <trkpt lat="49.84825" lon="2.27443">
        <ele>109</ele>
        <time>2023-11-25T14:48:18Z</time>
      </trkpt>
      <trkpt lat="49.84826" lon="2.27442">
        <ele>109</ele>
        <time>2023-11-25T14:48:19Z</time>
      </trkpt>
      <trkpt lat="49.84826" lon="2.27441">
        <ele>109</ele>
        <time>2023-11-25T14:48:20Z</time>
      </trkpt>
      <trkpt lat="49.84826" lon="2.2744">
        <ele>109</ele>
        <time>2023-11-25T14:48:21Z</time>
      </trkpt>
      <trkpt lat="49.84826" lon="2.27439">
        <ele>109</ele>
        <time>2023-11-25T14:48:22Z</time>
      </trkpt>
      <trkpt lat="49.84825" lon="2.27438">
        <ele>109</ele>
        <time>2023-11-25T14:48:23Z</time>
      </trkpt>
      <trkpt lat="49.84824" lon="2.27437">
        <ele>109</ele>
        <time>2023-11-25T14:48:24Z</time>
      </trkpt>
      <trkpt lat="49.84823" lon="2.27436">
        <ele>109</ele>
        <time>2023-11-25T14:48:26Z</time>
      </trkpt>
      <trkpt lat="49.84821" lon="2.27436">
        <ele>109</ele>
        <time>2023-11-25T14:48:27Z</time>
      </trkpt>
      <trkpt lat="49.8482" lon="2.27436">
        <ele>109</ele>
        <time>2023-11-25T14:48:28Z</time>
      </trkpt>
      <trkpt lat="49.84818" lon="2.27435">
        <ele>109.1</ele>
        <time>2023-11-25T14:48:29Z</time>
      </trkpt>
      <trkpt lat="49.84816" lon="2.27436">
        <ele>109.1</ele>
        <time>2023-11-25T14:48:30Z</time>
      </trkpt>
      <trkpt lat="49.84815" lon="2.27436">
        <ele>109.1</ele>
        <time>2023-11-25T14:48:31Z</time>
      </trkpt>
      <trkpt lat="49.84813" lon="2.27435">
        <ele>109.1</ele>
        <time>2023-11-25T14:48:33Z</time>
      </trkpt>
      <trkpt lat="49.84812" lon="2.27434">
        <ele>109.1</ele>
        <time>2023-11-25T14:48:34Z</time>
      </trkpt>
      <trkpt lat="49.8481" lon="2.27433">
        <ele>109.1</ele>
        <time>2023-11-25T14:48:35Z</time>
      </trkpt>
      <trkpt lat="49.84809" lon="2.27432">
        <ele>109.1</ele>
        <time>2023-11-25T14:48:36Z</time>
      </trkpt>
      <trkpt lat="49.84807" lon="2.27432">
        <ele>109.1</ele>
        <time>2023-11-25T14:48:37Z</time>
      </trkpt>
      <trkpt lat="49.84804" lon="2.27432">
        <ele>109.2</ele>
        <time>2023-11-25T14:48:38Z</time>
      </trkpt>
      <trkpt lat="49.84803" lon="2.27433">
        <ele>109.2</ele>
        <time>2023-11-25T14:48:39Z</time>
      </trkpt>
      <trkpt lat="49.84801" lon="2.27434">
        <ele>109.2</ele>
        <time>2023-11-25T14:48:41Z</time>
      </trkpt>
      <trkpt lat="49.848" lon="2.27434">
        <ele>109.2</ele>
        <time>2023-11-25T14:48:42Z</time>
      </trkpt>
      <trkpt lat="49.84797" lon="2.27435">
        <ele>109.2</ele>
        <time>2023-11-25T14:48:43Z</time>
      </trkpt>
      <trkpt lat="49.84796" lon="2.27435">
        <ele>109.2</ele>
        <time>2023-11-25T14:48:44Z</time>
      </trkpt>
      <trkpt lat="49.84794" lon="2.27435">
        <ele>109.2</ele>
        <time>2023-11-25T14:48:45Z</time>
      </trkpt>
      <trkpt lat="49.84793" lon="2.27435">
        <ele>109.2</ele>
        <time>2023-11-25T14:48:46Z</time>
      </trkpt>
      <trkpt lat="49.84791" lon="2.27434">
        <ele>109.3</ele>
        <time>2023-11-25T14:48:48Z</time>
      </trkpt>
      <trkpt lat="49.8479" lon="2.27434">
        <ele>109.3</ele>
        <time>2023-11-25T14:48:49Z</time>
      </trkpt>
      <trkpt lat="49.84788" lon="2.27433">
        <ele>109.3</ele>
        <time>2023-11-25T14:48:50Z</time>
      </trkpt>
      <trkpt lat="49.84787" lon="2.27433">
        <ele>109.3</ele>
        <time>2023-11-25T14:48:51Z</time>
      </trkpt>
      <trkpt lat="49.84785" lon="2.27433">
        <ele>109.3</ele>
        <time>2023-11-25T14:48:52Z</time>
      </trkpt>
      <trkpt lat="49.84784" lon="2.27433">
        <ele>109.3</ele>
        <time>2023-11-25T14:48:53Z</time>
      </trkpt>
      <trkpt lat="49.84783" lon="2.27433">
        <ele>109.3</ele>
        <time>2023-11-25T14:48:54Z</time>
      </trkpt>
      <trkpt lat="49.84781" lon="2.27432">
        <ele>109.3</ele>
        <time>2023-11-25T14:48:56Z</time>
      </trkpt>
      <trkpt lat="49.8478" lon="2.27432">
        <ele>109.4</ele>
        <time>2023-11-25T14:48:57Z</time>
      </trkpt>
      <trkpt lat="49.84779" lon="2.27432">
        <ele>109.4</ele>
        <time>2023-11-25T14:48:58Z</time>
      </trkpt>
      <trkpt lat="49.84777" lon="2.27431">
        <ele>109.4</ele>
        <time>2023-11-25T14:48:59Z</time>
      </trkpt>
      <trkpt lat="49.84776" lon="2.2743">
        <ele>109.4</ele>
        <time>2023-11-25T14:49:00Z</time>
      </trkpt>
      <trkpt lat="49.84775" lon="2.27429">
        <ele>109.4</ele>
        <time>2023-11-25T14:49:02Z</time>
      </trkpt>
      <trkpt lat="49.84774" lon="2.27428">
        <ele>109.4</ele>
        <time>2023-11-25T14:49:03Z</time>
      </trkpt>
      <trkpt lat="49.84773" lon="2.27427">
        <ele>109.4</ele>
        <time>2023-11-25T14:49:04Z</time>
      </trkpt>
      <trkpt lat="49.84772" lon="2.27427">
        <ele>109.4</ele>
        <time>2023-11-25T14:49:05Z</time>
      </trkpt>
      <trkpt lat="49.84772" lon="2.27426">
        <ele>109.4</ele>
        <time>2023-11-25T14:49:06Z</time>
      </trkpt>
      <trkpt lat="49.84771" lon="2.27425">
        <ele>109.4</ele>
        <time>2023-11-25T14:49:08Z</time>
      </trkpt>
      <trkpt lat="49.8477" lon="2.27425">
        <ele>109.4</ele>
        <time>2023-11-25T14:49:09Z</time>
      </trkpt>
      <trkpt lat="49.84769" lon="2.27424">
        <ele>109.4</ele>
        <time>2023-11-25T14:49:10Z</time>
      </trkpt>
      <trkpt lat="49.84769" lon="2.27423">
        <ele>109.4</ele>
        <time>2023-11-25T14:49:11Z</time>
      </trkpt>
      <trkpt lat="49.84768" lon="2.27423">
        <ele>109.4</ele>
        <time>2023-11-25T14:49:12Z</time>
      </trkpt>
      <trkpt lat="49.84767" lon="2.27422">
        <ele>109.4</ele>
        <time>2023-11-25T14:49:13Z</time>
      </trkpt>
      <trkpt lat="49.84766" lon="2.27422">
        <ele>109.4</ele>
        <time>2023-11-25T14:49:15Z</time>
      </trkpt>
      <trkpt lat="49.84765" lon="2.27422">
        <ele>109.4</ele>
        <time>2023-11-25T14:49:16Z</time>
      </trkpt>
      <trkpt lat="49.84764" lon="2.27422">
        <ele>109.5</ele>
        <time>2023-11-25T14:49:17Z</time>
      </trkpt>
      <trkpt lat="49.84763" lon="2.27422">
        <ele>109.5</ele>
        <time>2023-11-25T14:49:18Z</time>
      </trkpt>
      <trkpt lat="49.84761" lon="2.27423">
        <ele>109.5</ele>
        <time>2023-11-25T14:49:19Z</time>
      </trkpt>
      <trkpt lat="49.8476" lon="2.27424">
        <ele>109.5</ele>
        <time>2023-11-25T14:49:20Z</time>
      </trkpt>
      <trkpt lat="49.84759" lon="2.27424">
        <ele>109.5</ele>
        <time>2023-11-25T14:49:21Z</time>
      </trkpt>
      <trkpt lat="49.84758" lon="2.27425">
        <ele>109.5</ele>
        <time>2023-11-25T14:49:23Z</time>
      </trkpt>
      <trkpt lat="49.84756" lon="2.27426">
        <ele>109.5</ele>
        <time>2023-11-25T14:49:24Z</time>
      </trkpt>
      <trkpt lat="49.84754" lon="2.27428">
        <ele>109.5</ele>
        <time>2023-11-25T14:49:25Z</time>
      </trkpt>
      <trkpt lat="49.84753" lon="2.27429">
        <ele>109.5</ele>
        <time>2023-11-25T14:49:26Z</time>
      </trkpt>
      <trkpt lat="49.84751" lon="2.2743">
        <ele>109.5</ele>
        <time>2023-11-25T14:49:27Z</time>
      </trkpt>
      <trkpt lat="49.8475" lon="2.27431">
        <ele>109.5</ele>
        <time>2023-11-25T14:49:28Z</time>
      </trkpt>
      <trkpt lat="49.84748" lon="2.27432">
        <ele>109.5</ele>
        <time>2023-11-25T14:49:30Z</time>
      </trkpt>
      <trkpt lat="49.84747" lon="2.27433">
        <ele>109.5</ele>
        <time>2023-11-25T14:49:31Z</time>
      </trkpt>
      <trkpt lat="49.84746" lon="2.27434">
        <ele>109.5</ele>
        <time>2023-11-25T14:49:32Z</time>
      </trkpt>
      <trkpt lat="49.84744" lon="2.27435">
        <ele>109.5</ele>
        <time>2023-11-25T14:49:33Z</time>
      </trkpt>
      <trkpt lat="49.84743" lon="2.27436">
        <ele>109.5</ele>
        <time>2023-11-25T14:49:34Z</time>
      </trkpt>
      <trkpt lat="49.84742" lon="2.27438">
        <ele>109.6</ele>
        <time>2023-11-25T14:49:35Z</time>
      </trkpt>
      <trkpt lat="49.84741" lon="2.27438">
        <ele>109.6</ele>
        <time>2023-11-25T14:49:37Z</time>
      </trkpt>
      <trkpt lat="49.84739" lon="2.2744">
        <ele>109.6</ele>
        <time>2023-11-25T14:49:38Z</time>
      </trkpt>
      <trkpt lat="49.84738" lon="2.2744">
        <ele>109.6</ele>
        <time>2023-11-25T14:49:39Z</time>
      </trkpt>
      <trkpt lat="49.84738" lon="2.27441">
        <ele>109.6</ele>
        <time>2023-11-25T14:49:40Z</time>
      </trkpt>
      <trkpt lat="49.84737" lon="2.27441">
        <ele>109.6</ele>
        <time>2023-11-25T14:49:41Z</time>
      </trkpt>
      <trkpt lat="49.84735" lon="2.27441">
        <ele>109.6</ele>
        <time>2023-11-25T14:49:42Z</time>
      </trkpt>
      <trkpt lat="49.84734" lon="2.27441">
        <ele>109.6</ele>
        <time>2023-11-25T14:49:44Z</time>
      </trkpt>
      <trkpt lat="49.84733" lon="2.27442">
        <ele>109.6</ele>
        <time>2023-11-25T14:49:45Z</time>
      </trkpt>
      <trkpt lat="49.84732" lon="2.27442">
        <ele>109.6</ele>
        <time>2023-11-25T14:49:46Z</time>
      </trkpt>
      <trkpt lat="49.84731" lon="2.27442">
        <ele>109.6</ele>
        <time>2023-11-25T14:49:47Z</time>
      </trkpt>
      <trkpt lat="49.84731" lon="2.27443">
        <ele>109.6</ele>
        <time>2023-11-25T14:49:48Z</time>
      </trkpt>
      <trkpt lat="49.8473" lon="2.27443">
        <ele>109.6</ele>
        <time>2023-11-25T14:49:49Z</time>
      </trkpt>
      <trkpt lat="49.84729" lon="2.27444">
        <ele>109.6</ele>
        <time>2023-11-25T14:49:51Z</time>
      </trkpt>
      <trkpt lat="49.84728" lon="2.27444">
        <ele>109.6</ele>
        <time>2023-11-25T14:49:52Z</time>
      </trkpt>
      <trkpt lat="49.84727" lon="2.27445">
        <ele>109.6</ele>
        <time>2023-11-25T14:49:53Z</time>
      </trkpt>
      <trkpt lat="49.84726" lon="2.27445">
        <ele>109.6</ele>
        <time>2023-11-25T14:49:54Z</time>
      </trkpt>
      <trkpt lat="49.84725" lon="2.27446">
        <ele>109.7</ele>
        <time>2023-11-25T14:49:55Z</time>
      </trkpt>
      <trkpt lat="49.84723" lon="2.27447">
        <ele>109.7</ele>
        <time>2023-11-25T14:49:57Z</time>
      </trkpt>
      <trkpt lat="49.84723" lon="2.27448">
        <ele>109.7</ele>
        <time>2023-11-25T14:49:58Z</time>
      </trkpt>
      <trkpt lat="49.84722" lon="2.27449">
        <ele>109.7</ele>
        <time>2023-11-25T14:49:59Z</time>
      </trkpt>
      <trkpt lat="49.84721" lon="2.2745">
        <ele>109.7</ele>
        <time>2023-11-25T14:50:00Z</time>
      </trkpt>
      <trkpt lat="49.8472" lon="2.2745">
        <ele>109.7</ele>
        <time>2023-11-25T14:50:02Z</time>
      </trkpt>
      <trkpt lat="49.84719" lon="2.27451">
        <ele>109.7</ele>
        <time>2023-11-25T14:50:03Z</time>
      </trkpt>
      <trkpt lat="49.84718" lon="2.27452">
        <ele>109.7</ele>
        <time>2023-11-25T14:50:04Z</time>
      </trkpt>
      <trkpt lat="49.84717" lon="2.27453">
        <ele>109.7</ele>
        <time>2023-11-25T14:50:05Z</time>
      </trkpt>
      <trkpt lat="49.84716" lon="2.27454">
        <ele>109.7</ele>
        <time>2023-11-25T14:50:06Z</time>
      </trkpt>
      <trkpt lat="49.84714" lon="2.27455">
        <ele>109.8</ele>
        <time>2023-11-25T14:50:07Z</time>
      </trkpt>
      <trkpt lat="49.84713" lon="2.27455">
        <ele>109.8</ele>
        <time>2023-11-25T14:50:09Z</time>
      </trkpt>
      <trkpt lat="49.84712" lon="2.27456">
        <ele>109.8</ele>
        <time>2023-11-25T14:50:10Z</time>
      </trkpt>
      <trkpt lat="49.84711" lon="2.27456">
        <ele>109.8</ele>
        <time>2023-11-25T14:50:11Z</time>
      </trkpt>
      <trkpt lat="49.8471" lon="2.27456">
        <ele>109.8</ele>
        <time>2023-11-25T14:50:13Z</time>
      </trkpt>
      <trkpt lat="49.84709" lon="2.27455">
        <ele>109.8</ele>
        <time>2023-11-25T14:50:14Z</time>
      </trkpt>
      <trkpt lat="49.84708" lon="2.27455">
        <ele>109.8</ele>
        <time>2023-11-25T14:50:15Z</time>
      </trkpt>
      <trkpt lat="49.84707" lon="2.27456">
        <ele>109.8</ele>
        <time>2023-11-25T14:50:16Z</time>
      </trkpt>
      <trkpt lat="49.84706" lon="2.27456">
        <ele>109.8</ele>
        <time>2023-11-25T14:50:17Z</time>
      </trkpt>
      <trkpt lat="49.84705" lon="2.27456">
        <ele>109.8</ele>
        <time>2023-11-25T14:50:18Z</time>
      </trkpt>
      <trkpt lat="49.84705" lon="2.27457">
        <ele>109.8</ele>
        <time>2023-11-25T14:50:19Z</time>
      </trkpt>
      <trkpt lat="49.84704" lon="2.27457">
        <ele>109.8</ele>
        <time>2023-11-25T14:50:20Z</time>
      </trkpt>
      <trkpt lat="49.84703" lon="2.27457">
        <ele>109.8</ele>
        <time>2023-11-25T14:50:22Z</time>
      </trkpt>
      <trkpt lat="49.84702" lon="2.27458">
        <ele>109.8</ele>
        <time>2023-11-25T14:50:23Z</time>
      </trkpt>
      <trkpt lat="49.84702" lon="2.27458">
        <ele>109.9</ele>
        <time>2023-11-25T14:50:24Z</time>
      </trkpt>
      <trkpt lat="49.84701" lon="2.27458">
        <ele>109.9</ele>
        <time>2023-11-25T14:50:25Z</time>
      </trkpt>
      <trkpt lat="49.847" lon="2.27457">
        <ele>109.9</ele>
        <time>2023-11-25T14:50:27Z</time>
      </trkpt>
      <trkpt lat="49.84699" lon="2.27455">
        <ele>109.9</ele>
        <time>2023-11-25T14:50:29Z</time>
      </trkpt>
      <trkpt lat="49.84699" lon="2.27454">
        <ele>109.9</ele>
        <time>2023-11-25T14:50:30Z</time>
      </trkpt>
      <trkpt lat="49.84698" lon="2.27451">
        <ele>109.9</ele>
        <time>2023-11-25T14:50:31Z</time>
      </trkpt>
      <trkpt lat="49.84698" lon="2.27449">
        <ele>109.9</ele>
        <time>2023-11-25T14:50:32Z</time>
      </trkpt>
      <trkpt lat="49.84699" lon="2.27446">
        <ele>109.9</ele>
        <time>2023-11-25T14:50:34Z</time>
      </trkpt>
      <trkpt lat="49.84699" lon="2.27445">
        <ele>109.9</ele>
        <time>2023-11-25T14:50:35Z</time>
      </trkpt>
      <trkpt lat="49.84699" lon="2.27444">
        <ele>109.9</ele>
        <time>2023-11-25T14:50:36Z</time>
      </trkpt>
      <trkpt lat="49.847" lon="2.27442">
        <ele>109.9</ele>
        <time>2023-11-25T14:50:37Z</time>
      </trkpt>
      <trkpt lat="49.84701" lon="2.2744">
        <ele>109.9</ele>
        <time>2023-11-25T14:50:38Z</time>
      </trkpt>
      <trkpt lat="49.84701" lon="2.27438">
        <ele>109.9</ele>
        <time>2023-11-25T14:50:40Z</time>
      </trkpt>
      <trkpt lat="49.84702" lon="2.27436">
        <ele>109.9</ele>
        <time>2023-11-25T14:50:41Z</time>
      </trkpt>
      <trkpt lat="49.84703" lon="2.27434">
        <ele>109.9</ele>
        <time>2023-11-25T14:50:42Z</time>
      </trkpt>
      <trkpt lat="49.84703" lon="2.27431">
        <ele>109.9</ele>
        <time>2023-11-25T14:50:43Z</time>
      </trkpt>
      <trkpt lat="49.84703" lon="2.2743">
        <ele>109.9</ele>
        <time>2023-11-25T14:50:44Z</time>
      </trkpt>
      <trkpt lat="49.84703" lon="2.27428">
        <ele>109.9</ele>
        <time>2023-11-25T14:50:45Z</time>
      </trkpt>
      <trkpt lat="49.84703" lon="2.27426">
        <ele>109.9</ele>
        <time>2023-11-25T14:50:46Z</time>
      </trkpt>
      <trkpt lat="49.84703" lon="2.27423">
        <ele>109.9</ele>
        <time>2023-11-25T14:50:48Z</time>
      </trkpt>
      <trkpt lat="49.84703" lon="2.27421">
        <ele>109.9</ele>
        <time>2023-11-25T14:50:49Z</time>
      </trkpt>
      <trkpt lat="49.84703" lon="2.27419">
        <ele>109.9</ele>
        <time>2023-11-25T14:50:50Z</time>
      </trkpt>
      <trkpt lat="49.84703" lon="2.27415">
        <ele>109.9</ele>
        <time>2023-11-25T14:50:51Z</time>
      </trkpt>
      <trkpt lat="49.84703" lon="2.27414">
        <ele>109.9</ele>
        <time>2023-11-25T14:50:52Z</time>
      </trkpt>
      <trkpt lat="49.84703" lon="2.27413">
        <ele>109.9</ele>
        <time>2023-11-25T14:50:53Z</time>
      </trkpt>
      <trkpt lat="49.84703" lon="2.27409">
        <ele>109.9</ele>
        <time>2023-11-25T14:50:54Z</time>
      </trkpt>
      <trkpt lat="49.84703" lon="2.27408">
        <ele>109.9</ele>
        <time>2023-11-25T14:50:56Z</time>
      </trkpt>
      <trkpt lat="49.84703" lon="2.27407">
        <ele>109.9</ele>
        <time>2023-11-25T14:50:57Z</time>
      </trkpt>
      <trkpt lat="49.84704" lon="2.27405">
        <ele>109.8</ele>
        <time>2023-11-25T14:50:58Z</time>
      </trkpt>
      <trkpt lat="49.84704" lon="2.27404">
        <ele>109.8</ele>
        <time>2023-11-25T14:50:59Z</time>
      </trkpt>
      <trkpt lat="49.84704" lon="2.27403">
        <ele>109.8</ele>
        <time>2023-11-25T14:51:00Z</time>
      </trkpt>
      <trkpt lat="49.84705" lon="2.27401">
        <ele>109.8</ele>
        <time>2023-11-25T14:51:02Z</time>
      </trkpt>
      <trkpt lat="49.84705" lon="2.274">
        <ele>109.8</ele>
        <time>2023-11-25T14:51:03Z</time>
      </trkpt>
      <trkpt lat="49.84706" lon="2.27399">
        <ele>109.8</ele>
        <time>2023-11-25T14:51:04Z</time>
      </trkpt>
      <trkpt lat="49.84706" lon="2.27396">
        <ele>109.8</ele>
        <time>2023-11-25T14:51:05Z</time>
      </trkpt>
      <trkpt lat="49.84706" lon="2.27395">
        <ele>109.8</ele>
        <time>2023-11-25T14:51:06Z</time>
      </trkpt>
      <trkpt lat="49.84706" lon="2.27393">
        <ele>109.8</ele>
        <time>2023-11-25T14:51:08Z</time>
      </trkpt>
      <trkpt lat="49.84707" lon="2.27391">
        <ele>109.8</ele>
        <time>2023-11-25T14:51:09Z</time>
      </trkpt>
      <trkpt lat="49.84707" lon="2.2739">
        <ele>109.8</ele>
        <time>2023-11-25T14:51:10Z</time>
      </trkpt>
      <trkpt lat="49.84707" lon="2.27388">
        <ele>109.8</ele>
        <time>2023-11-25T14:51:11Z</time>
      </trkpt>
      <trkpt lat="49.84707" lon="2.27386">
        <ele>109.8</ele>
        <time>2023-11-25T14:51:12Z</time>
      </trkpt>
      <trkpt lat="49.84706" lon="2.27384">
        <ele>109.8</ele>
        <time>2023-11-25T14:51:14Z</time>
      </trkpt>
      <trkpt lat="49.84706" lon="2.27382">
        <ele>109.8</ele>
        <time>2023-11-25T14:51:15Z</time>
      </trkpt>
      <trkpt lat="49.84706" lon="2.2738">
        <ele>109.8</ele>
        <time>2023-11-25T14:51:16Z</time>
      </trkpt>
      <trkpt lat="49.84705" lon="2.27376">
        <ele>109.8</ele>
        <time>2023-11-25T14:51:17Z</time>
      </trkpt>
      <trkpt lat="49.84704" lon="2.27375">
        <ele>109.8</ele>
        <time>2023-11-25T14:51:18Z</time>
      </trkpt>
      <trkpt lat="49.84704" lon="2.27374">
        <ele>109.8</ele>
        <time>2023-11-25T14:51:19Z</time>
      </trkpt>
      <trkpt lat="49.84703" lon="2.27371">
        <ele>109.7</ele>
        <time>2023-11-25T14:51:21Z</time>
      </trkpt>
      <trkpt lat="49.84702" lon="2.2737">
        <ele>109.7</ele>
        <time>2023-11-25T14:51:22Z</time>
      </trkpt>
      <trkpt lat="49.84702" lon="2.27369">
        <ele>109.7</ele>
        <time>2023-11-25T14:51:23Z</time>
      </trkpt>
      <trkpt lat="49.84702" lon="2.27367">
        <ele>109.7</ele>
        <time>2023-11-25T14:51:24Z</time>
      </trkpt>
      <trkpt lat="49.84702" lon="2.27365">
        <ele>109.7</ele>
        <time>2023-11-25T14:51:25Z</time>
      </trkpt>
      <trkpt lat="49.84702" lon="2.27363">
        <ele>109.7</ele>
        <time>2023-11-25T14:51:27Z</time>
      </trkpt>
      <trkpt lat="49.84702" lon="2.27361">
        <ele>109.7</ele>
        <time>2023-11-25T14:51:28Z</time>
      </trkpt>
      <trkpt lat="49.84702" lon="2.27359">
        <ele>109.7</ele>
        <time>2023-11-25T14:51:29Z</time>
      </trkpt>
      <trkpt lat="49.84702" lon="2.27357">
        <ele>109.7</ele>
        <time>2023-11-25T14:51:30Z</time>
      </trkpt>
      <trkpt lat="49.84702" lon="2.27356">
        <ele>109.7</ele>
        <time>2023-11-25T14:51:31Z</time>
      </trkpt>
      <trkpt lat="49.84701" lon="2.27353">
        <ele>109.7</ele>
        <time>2023-11-25T14:51:32Z</time>
      </trkpt>
      <trkpt lat="49.84701" lon="2.27351">
        <ele>109.7</ele>
        <time>2023-11-25T14:51:34Z</time>
      </trkpt>
      <trkpt lat="49.84701" lon="2.27348">
        <ele>109.7</ele>
        <time>2023-11-25T14:51:35Z</time>
      </trkpt>
      <trkpt lat="49.84701" lon="2.27347">
        <ele>109.7</ele>
        <time>2023-11-25T14:51:36Z</time>
      </trkpt>
      <trkpt lat="49.84701" lon="2.27345">
        <ele>109.7</ele>
        <time>2023-11-25T14:51:37Z</time>
      </trkpt>
      <trkpt lat="49.84702" lon="2.27343">
        <ele>109.7</ele>
        <time>2023-11-25T14:51:38Z</time>
      </trkpt>
      <trkpt lat="49.84702" lon="2.27341">
        <ele>109.7</ele>
        <time>2023-11-25T14:51:39Z</time>
      </trkpt>
      <trkpt lat="49.84703" lon="2.27339">
        <ele>109.7</ele>
        <time>2023-11-25T14:51:41Z</time>
      </trkpt>
      <trkpt lat="49.84704" lon="2.27336">
        <ele>109.7</ele>
        <time>2023-11-25T14:51:42Z</time>
      </trkpt>
      <trkpt lat="49.84705" lon="2.27334">
        <ele>109.6</ele>
        <time>2023-11-25T14:51:43Z</time>
      </trkpt>
      <trkpt lat="49.84705" lon="2.27333">
        <ele>109.6</ele>
        <time>2023-11-25T14:51:44Z</time>
      </trkpt>
      <trkpt lat="49.84705" lon="2.27331">
        <ele>109.6</ele>
        <time>2023-11-25T14:51:46Z</time>
      </trkpt>
      <trkpt lat="49.84704" lon="2.27333">
        <ele>109.6</ele>
        <time>2023-11-25T14:51:47Z</time>
      </trkpt>
      <trkpt lat="49.84703" lon="2.27333">
        <ele>109.6</ele>
        <time>2023-11-25T14:51:48Z</time>
      </trkpt>
      <trkpt lat="49.84702" lon="2.27338">
        <ele>109.6</ele>
        <time>2023-11-25T14:51:50Z</time>
      </trkpt>
      <trkpt lat="49.84703" lon="2.27338">
        <ele>109.6</ele>
        <time>2023-11-25T14:51:51Z</time>
      </trkpt>
      <trkpt lat="49.84703" lon="2.27337">
        <ele>109.6</ele>
        <time>2023-11-25T14:51:52Z</time>
      </trkpt>
      <trkpt lat="49.84703" lon="2.27336">
        <ele>109.6</ele>
        <time>2023-11-25T14:51:54Z</time>
      </trkpt>
      <trkpt lat="49.84703" lon="2.27335">
        <ele>109.6</ele>
        <time>2023-11-25T14:51:55Z</time>
      </trkpt>
      <trkpt lat="49.84704" lon="2.27334">
        <ele>109.6</ele>
        <time>2023-11-25T14:51:56Z</time>
      </trkpt>
      <trkpt lat="49.84704" lon="2.27333">
        <ele>109.6</ele>
        <time>2023-11-25T14:51:57Z</time>
      </trkpt>
      <trkpt lat="49.84704" lon="2.27332">
        <ele>109.6</ele>
        <time>2023-11-25T14:51:58Z</time>
      </trkpt>
      <trkpt lat="49.84705" lon="2.27329">
        <ele>109.6</ele>
        <time>2023-11-25T14:52:00Z</time>
      </trkpt>
      <trkpt lat="49.84706" lon="2.27327">
        <ele>109.6</ele>
        <time>2023-11-25T14:52:01Z</time>
      </trkpt>
      <trkpt lat="49.84706" lon="2.27326">
        <ele>109.6</ele>
        <time>2023-11-25T14:52:02Z</time>
      </trkpt>
      <trkpt lat="49.84707" lon="2.27324">
        <ele>109.6</ele>
        <time>2023-11-25T14:52:03Z</time>
      </trkpt>
      <trkpt lat="49.84708" lon="2.27322">
        <ele>109.6</ele>
        <time>2023-11-25T14:52:04Z</time>
      </trkpt>
      <trkpt lat="49.84708" lon="2.27319">
        <ele>109.6</ele>
        <time>2023-11-25T14:52:06Z</time>
      </trkpt>
      <trkpt lat="49.84709" lon="2.27317">
        <ele>109.6</ele>
        <time>2023-11-25T14:52:07Z</time>
      </trkpt>
      <trkpt lat="49.84709" lon="2.27316">
        <ele>109.6</ele>
        <time>2023-11-25T14:52:08Z</time>
      </trkpt>
      <trkpt lat="49.84709" lon="2.27315">
        <ele>109.6</ele>
        <time>2023-11-25T14:52:09Z</time>
      </trkpt>
      <trkpt lat="49.84709" lon="2.27314">
        <ele>109.6</ele>
        <time>2023-11-25T14:52:10Z</time>
      </trkpt>
      <trkpt lat="49.8471" lon="2.27312">
        <ele>109.6</ele>
        <time>2023-11-25T14:52:11Z</time>
      </trkpt>
      <trkpt lat="49.84711" lon="2.2731">
        <ele>109.5</ele>
        <time>2023-11-25T14:52:13Z</time>
      </trkpt>
      <trkpt lat="49.84711" lon="2.27309">
        <ele>109.5</ele>
        <time>2023-11-25T14:52:14Z</time>
      </trkpt>
      <trkpt lat="49.84712" lon="2.27308">
        <ele>109.5</ele>
        <time>2023-11-25T14:52:15Z</time>
      </trkpt>
      <trkpt lat="49.84713" lon="2.27306">
        <ele>109.5</ele>
        <time>2023-11-25T14:52:16Z</time>
      </trkpt>
      <trkpt lat="49.84714" lon="2.27303">
        <ele>109.5</ele>
        <time>2023-11-25T14:52:17Z</time>
      </trkpt>
      <trkpt lat="49.84714" lon="2.27303">
        <ele>109.5</ele>
        <time>2023-11-25T14:52:18Z</time>
      </trkpt>
      <trkpt lat="49.84715" lon="2.27302">
        <ele>109.5</ele>
        <time>2023-11-25T14:52:19Z</time>
      </trkpt>
      <trkpt lat="49.84716" lon="2.27301">
        <ele>109.5</ele>
        <time>2023-11-25T14:52:20Z</time>
      </trkpt>
      <trkpt lat="49.84717" lon="2.273">
        <ele>109.5</ele>
        <time>2023-11-25T14:52:22Z</time>
      </trkpt>
      <trkpt lat="49.84717" lon="2.27299">
        <ele>109.5</ele>
        <time>2023-11-25T14:52:23Z</time>
      </trkpt>
      <trkpt lat="49.84718" lon="2.27297">
        <ele>109.5</ele>
        <time>2023-11-25T14:52:24Z</time>
      </trkpt>
      <trkpt lat="49.84718" lon="2.27296">
        <ele>109.5</ele>
        <time>2023-11-25T14:52:25Z</time>
      </trkpt>
      <trkpt lat="49.84718" lon="2.27295">
        <ele>109.5</ele>
        <time>2023-11-25T14:52:26Z</time>
      </trkpt>
      <trkpt lat="49.84718" lon="2.27294">
        <ele>109.5</ele>
        <time>2023-11-25T14:52:28Z</time>
      </trkpt>
      <trkpt lat="49.84718" lon="2.27293">
        <ele>109.5</ele>
        <time>2023-11-25T14:52:29Z</time>
      </trkpt>
      <trkpt lat="49.84718" lon="2.27292">
        <ele>109.5</ele>
        <time>2023-11-25T14:52:31Z</time>
      </trkpt>
      <trkpt lat="49.84718" lon="2.27291">
        <ele>109.5</ele>
        <time>2023-11-25T14:52:32Z</time>
      </trkpt>
      <trkpt lat="49.84719" lon="2.2729">
        <ele>109.5</ele>
        <time>2023-11-25T14:52:34Z</time>
      </trkpt>
      <trkpt lat="49.84719" lon="2.27289">
        <ele>109.5</ele>
        <time>2023-11-25T14:52:35Z</time>
      </trkpt>
      <trkpt lat="49.84718" lon="2.27288">
        <ele>109.5</ele>
        <time>2023-11-25T14:52:36Z</time>
      </trkpt>
      <trkpt lat="49.84718" lon="2.27288">
        <ele>109.5</ele>
        <time>2023-11-25T14:52:38Z</time>
      </trkpt>
      <trkpt lat="49.84718" lon="2.27287">
        <ele>109.5</ele>
        <time>2023-11-25T14:52:39Z</time>
      </trkpt>
      <trkpt lat="49.84718" lon="2.27286">
        <ele>109.5</ele>
        <time>2023-11-25T14:52:40Z</time>
      </trkpt>
      <trkpt lat="49.84718" lon="2.27285">
        <ele>109.5</ele>
        <time>2023-11-25T14:52:41Z</time>
      </trkpt>
      <trkpt lat="49.84718" lon="2.27285">
        <ele>109.5</ele>
        <time>2023-11-25T14:52:42Z</time>
      </trkpt>
      <trkpt lat="49.84718" lon="2.27284">
        <ele>109.5</ele>
        <time>2023-11-25T14:52:44Z</time>
      </trkpt>
      <trkpt lat="49.84718" lon="2.27283">
        <ele>109.5</ele>
        <time>2023-11-25T14:52:45Z</time>
      </trkpt>
      <trkpt lat="49.84718" lon="2.27282">
        <ele>109.4</ele>
        <time>2023-11-25T14:52:46Z</time>
      </trkpt>
      <trkpt lat="49.84715" lon="2.27283">
        <ele>109.4</ele>
        <time>2023-11-25T14:52:48Z</time>
      </trkpt>
      <trkpt lat="49.84715" lon="2.27284">
        <ele>109.4</ele>
        <time>2023-11-25T14:52:49Z</time>
      </trkpt>
      <trkpt lat="49.84715" lon="2.27286">
        <ele>109.4</ele>
        <time>2023-11-25T14:52:51Z</time>
      </trkpt>
      <trkpt lat="49.84716" lon="2.27286">
        <ele>109.4</ele>
        <time>2023-11-25T14:52:52Z</time>
      </trkpt>
      <trkpt lat="49.84716" lon="2.27286">
        <ele>109.4</ele>
        <time>2023-11-25T14:52:54Z</time>
      </trkpt>
      <trkpt lat="49.84716" lon="2.27286">
        <ele>109.4</ele>
        <time>2023-11-25T14:52:55Z</time>
      </trkpt>
      <trkpt lat="49.84716" lon="2.27287">
        <ele>109.4</ele>
        <time>2023-11-25T14:52:56Z</time>
      </trkpt>
      <trkpt lat="49.84717" lon="2.27287">
        <ele>109.4</ele>
        <time>2023-11-25T14:52:58Z</time>
      </trkpt>
      <trkpt lat="49.84717" lon="2.27288">
        <ele>109.4</ele>
        <time>2023-11-25T14:52:59Z</time>
      </trkpt>
      <trkpt lat="49.84717" lon="2.27289">
        <ele>109.4</ele>
        <time>2023-11-25T14:53:00Z</time>
      </trkpt>
      <trkpt lat="49.84716" lon="2.27291">
        <ele>109.4</ele>
        <time>2023-11-25T14:53:02Z</time>
      </trkpt>
      <trkpt lat="49.84716" lon="2.27291">
        <ele>109.3</ele>
        <time>2023-11-25T14:53:03Z</time>
      </trkpt>
      <trkpt lat="49.84715" lon="2.27291">
        <ele>109.3</ele>
        <time>2023-11-25T14:53:05Z</time>
      </trkpt>
      <trkpt lat="49.84714" lon="2.27291">
        <ele>109.3</ele>
        <time>2023-11-25T14:53:06Z</time>
      </trkpt>
      <trkpt lat="49.84714" lon="2.2729">
        <ele>109.3</ele>
        <time>2023-11-25T14:53:07Z</time>
      </trkpt>
      <trkpt lat="49.84714" lon="2.2729">
        <ele>109.3</ele>
        <time>2023-11-25T14:53:09Z</time>
      </trkpt>
      <trkpt lat="49.84714" lon="2.27291">
        <ele>109.3</ele>
        <time>2023-11-25T14:53:10Z</time>
      </trkpt>
      <trkpt lat="49.84714" lon="2.27291">
        <ele>109.3</ele>
        <time>2023-11-25T14:53:12Z</time>
      </trkpt>
      <trkpt lat="49.84713" lon="2.27292">
        <ele>109.3</ele>
        <time>2023-11-25T14:53:13Z</time>
      </trkpt>
      <trkpt lat="49.84713" lon="2.27292">
        <ele>109.3</ele>
        <time>2023-11-25T14:53:14Z</time>
      </trkpt>
      <trkpt lat="49.84713" lon="2.27292">
        <ele>109.3</ele>
        <time>2023-11-25T14:53:16Z</time>
      </trkpt>
      <trkpt lat="49.84714" lon="2.27295">
        <ele>109.3</ele>
        <time>2023-11-25T14:54:45Z</time>
      </trkpt>
      <trkpt lat="49.84715" lon="2.27295">
        <ele>109.2</ele>
        <time>2023-11-25T14:54:46Z</time>
      </trkpt>
      <trkpt lat="49.84716" lon="2.27296">
        <ele>109.2</ele>
        <time>2023-11-25T14:54:47Z</time>
      </trkpt>
      <trkpt lat="49.84716" lon="2.27297">
        <ele>109.2</ele>
        <time>2023-11-25T14:54:48Z</time>
      </trkpt>
      <trkpt lat="49.84717" lon="2.27298">
        <ele>109.2</ele>
        <time>2023-11-25T14:54:49Z</time>
      </trkpt>
      <trkpt lat="49.84717" lon="2.27299">
        <ele>109.2</ele>
        <time>2023-11-25T14:54:50Z</time>
      </trkpt>
      <trkpt lat="49.84718" lon="2.273">
        <ele>109.2</ele>
        <time>2023-11-25T14:54:52Z</time>
      </trkpt>
      <trkpt lat="49.84719" lon="2.27301">
        <ele>109.2</ele>
        <time>2023-11-25T14:54:53Z</time>
      </trkpt>
      <trkpt lat="49.84719" lon="2.27302">
        <ele>109.2</ele>
        <time>2023-11-25T14:54:54Z</time>
      </trkpt>
      <trkpt lat="49.8472" lon="2.27301">
        <ele>109.1</ele>
        <time>2023-11-25T14:54:55Z</time>
      </trkpt>
      <trkpt lat="49.84721" lon="2.27301">
        <ele>109.1</ele>
        <time>2023-11-25T14:54:56Z</time>
      </trkpt>
      <trkpt lat="49.84721" lon="2.27302">
        <ele>109.1</ele>
        <time>2023-11-25T14:54:57Z</time>
      </trkpt>
      <trkpt lat="49.84722" lon="2.27302">
        <ele>109.1</ele>
        <time>2023-11-25T14:54:58Z</time>
      </trkpt>
      <trkpt lat="49.84723" lon="2.27303">
        <ele>109.1</ele>
        <time>2023-11-25T14:55:00Z</time>
      </trkpt>
      <trkpt lat="49.84723" lon="2.27303">
        <ele>109.1</ele>
        <time>2023-11-25T14:55:01Z</time>
      </trkpt>
      <trkpt lat="49.84724" lon="2.27304">
        <ele>109.1</ele>
        <time>2023-11-25T14:55:02Z</time>
      </trkpt>
      <trkpt lat="49.84725" lon="2.27304">
        <ele>109</ele>
        <time>2023-11-25T14:55:03Z</time>
      </trkpt>
      <trkpt lat="49.84727" lon="2.27302">
        <ele>109</ele>
        <time>2023-11-25T14:55:05Z</time>
      </trkpt>
      <trkpt lat="49.84727" lon="2.27302">
        <ele>109</ele>
        <time>2023-11-25T14:55:06Z</time>
      </trkpt>
      <trkpt lat="49.84728" lon="2.27301">
        <ele>109</ele>
        <time>2023-11-25T14:55:07Z</time>
      </trkpt>
      <trkpt lat="49.84729" lon="2.27299">
        <ele>108.9</ele>
        <time>2023-11-25T14:55:08Z</time>
      </trkpt>
      <trkpt lat="49.84731" lon="2.27294">
        <ele>108.9</ele>
        <time>2023-11-25T14:55:10Z</time>
      </trkpt>
      <trkpt lat="49.84732" lon="2.27293">
        <ele>108.8</ele>
        <time>2023-11-25T14:55:11Z</time>
      </trkpt>
      <trkpt lat="49.84733" lon="2.27292">
        <ele>108.8</ele>
        <time>2023-11-25T14:55:12Z</time>
      </trkpt>
      <trkpt lat="49.84734" lon="2.27291">
        <ele>108.8</ele>
        <time>2023-11-25T14:55:13Z</time>
      </trkpt>
      <trkpt lat="49.84735" lon="2.27289">
        <ele>108.8</ele>
        <time>2023-11-25T14:55:14Z</time>
      </trkpt>
      <trkpt lat="49.84736" lon="2.27288">
        <ele>108.8</ele>
        <time>2023-11-25T14:55:15Z</time>
      </trkpt>
      <trkpt lat="49.84738" lon="2.27286">
        <ele>108.7</ele>
        <time>2023-11-25T14:55:16Z</time>
      </trkpt>
      <trkpt lat="49.84739" lon="2.27286">
        <ele>108.7</ele>
        <time>2023-11-25T14:55:18Z</time>
      </trkpt>
      <trkpt lat="49.84739" lon="2.27285">
        <ele>108.7</ele>
        <time>2023-11-25T14:55:19Z</time>
      </trkpt>
      <trkpt lat="49.84741" lon="2.27281">
        <ele>108.6</ele>
        <time>2023-11-25T14:55:20Z</time>
      </trkpt>
      <trkpt lat="49.84741" lon="2.27281">
        <ele>108.6</ele>
        <time>2023-11-25T14:55:21Z</time>
      </trkpt>
      <trkpt lat="49.84742" lon="2.2728">
        <ele>108.6</ele>
        <time>2023-11-25T14:55:22Z</time>
      </trkpt>
      <trkpt lat="49.84743" lon="2.27279">
        <ele>108.6</ele>
        <time>2023-11-25T14:55:23Z</time>
      </trkpt>
      <trkpt lat="49.84744" lon="2.27277">
        <ele>108.5</ele>
        <time>2023-11-25T14:55:25Z</time>
      </trkpt>
      <trkpt lat="49.84745" lon="2.27275">
        <ele>108.5</ele>
        <time>2023-11-25T14:55:26Z</time>
      </trkpt>
      <trkpt lat="49.84746" lon="2.27275">
        <ele>108.5</ele>
        <time>2023-11-25T14:55:27Z</time>
      </trkpt>
      <trkpt lat="49.84746" lon="2.27274">
        <ele>108.5</ele>
        <time>2023-11-25T14:55:28Z</time>
      </trkpt>
      <trkpt lat="49.84747" lon="2.27273">
        <ele>108.5</ele>
        <time>2023-11-25T14:55:29Z</time>
      </trkpt>
      <trkpt lat="49.84748" lon="2.27271">
        <ele>108.4</ele>
        <time>2023-11-25T14:55:30Z</time>
      </trkpt>
      <trkpt lat="49.84749" lon="2.2727">
        <ele>108.4</ele>
        <time>2023-11-25T14:55:32Z</time>
      </trkpt>
      <trkpt lat="49.8475" lon="2.27268">
        <ele>108.4</ele>
        <time>2023-11-25T14:55:33Z</time>
      </trkpt>
      <trkpt lat="49.84751" lon="2.27266">
        <ele>108.4</ele>
        <time>2023-11-25T14:55:34Z</time>
      </trkpt>
      <trkpt lat="49.84753" lon="2.27264">
        <ele>108.3</ele>
        <time>2023-11-25T14:55:35Z</time>
      </trkpt>
      <trkpt lat="49.84754" lon="2.27263">
        <ele>108.3</ele>
        <time>2023-11-25T14:55:37Z</time>
      </trkpt>
      <trkpt lat="49.84755" lon="2.27262">
        <ele>108.3</ele>
        <time>2023-11-25T14:55:38Z</time>
      </trkpt>
      <trkpt lat="49.84756" lon="2.27261">
        <ele>108.3</ele>
        <time>2023-11-25T14:55:39Z</time>
      </trkpt>
      <trkpt lat="49.84757" lon="2.2726">
        <ele>108.3</ele>
        <time>2023-11-25T14:55:40Z</time>
      </trkpt>
      <trkpt lat="49.84758" lon="2.27259">
        <ele>108.2</ele>
        <time>2023-11-25T14:55:41Z</time>
      </trkpt>
      <trkpt lat="49.84759" lon="2.27258">
        <ele>108.2</ele>
        <time>2023-11-25T14:55:43Z</time>
      </trkpt>
      <trkpt lat="49.8476" lon="2.27256">
        <ele>108.2</ele>
        <time>2023-11-25T14:55:44Z</time>
      </trkpt>
      <trkpt lat="49.84761" lon="2.27254">
        <ele>108.2</ele>
        <time>2023-11-25T14:55:45Z</time>
      </trkpt>
      <trkpt lat="49.84762" lon="2.27252">
        <ele>108.2</ele>
        <time>2023-11-25T14:55:46Z</time>
      </trkpt>
      <trkpt lat="49.84763" lon="2.27251">
        <ele>108.2</ele>
        <time>2023-11-25T14:55:47Z</time>
      </trkpt>
      <trkpt lat="49.84764" lon="2.2725">
        <ele>108.2</ele>
        <time>2023-11-25T14:55:48Z</time>
      </trkpt>
      <trkpt lat="49.84765" lon="2.27247">
        <ele>108.2</ele>
        <time>2023-11-25T14:55:50Z</time>
      </trkpt>
      <trkpt lat="49.84765" lon="2.27245">
        <ele>108.1</ele>
        <time>2023-11-25T14:55:51Z</time>
      </trkpt>
      <trkpt lat="49.84766" lon="2.27243">
        <ele>108.1</ele>
        <time>2023-11-25T14:55:52Z</time>
      </trkpt>
      <trkpt lat="49.84767" lon="2.27241">
        <ele>108.1</ele>
        <time>2023-11-25T14:55:53Z</time>
      </trkpt>
      <trkpt lat="49.84768" lon="2.2724">
        <ele>108.1</ele>
        <time>2023-11-25T14:55:54Z</time>
      </trkpt>
      <trkpt lat="49.84769" lon="2.27237">
        <ele>108.1</ele>
        <time>2023-11-25T14:55:56Z</time>
      </trkpt>
      <trkpt lat="49.8477" lon="2.27234">
        <ele>108.1</ele>
        <time>2023-11-25T14:55:57Z</time>
      </trkpt>
      <trkpt lat="49.84771" lon="2.27233">
        <ele>108.1</ele>
        <time>2023-11-25T14:55:58Z</time>
      </trkpt>
      <trkpt lat="49.84771" lon="2.27233">
        <ele>108.1</ele>
        <time>2023-11-25T14:55:59Z</time>
      </trkpt>
      <trkpt lat="49.84772" lon="2.2723">
        <ele>108.1</ele>
        <time>2023-11-25T14:56:00Z</time>
      </trkpt>
      <trkpt lat="49.84773" lon="2.27229">
        <ele>108.1</ele>
        <time>2023-11-25T14:56:01Z</time>
      </trkpt>
      <trkpt lat="49.84774" lon="2.27228">
        <ele>108.1</ele>
        <time>2023-11-25T14:56:03Z</time>
      </trkpt>
      <trkpt lat="49.84775" lon="2.27226">
        <ele>108.1</ele>
        <time>2023-11-25T14:56:04Z</time>
      </trkpt>
      <trkpt lat="49.84775" lon="2.27225">
        <ele>108.1</ele>
        <time>2023-11-25T14:56:05Z</time>
      </trkpt>
      <trkpt lat="49.84776" lon="2.27224">
        <ele>108.1</ele>
        <time>2023-11-25T14:56:07Z</time>
      </trkpt>
      <trkpt lat="49.84777" lon="2.27223">
        <ele>108.1</ele>
        <time>2023-11-25T14:56:08Z</time>
      </trkpt>
      <trkpt lat="49.84778" lon="2.27221">
        <ele>108.1</ele>
        <time>2023-11-25T14:56:09Z</time>
      </trkpt>
      <trkpt lat="49.84778" lon="2.2722">
        <ele>108.1</ele>
        <time>2023-11-25T14:56:10Z</time>
      </trkpt>
      <trkpt lat="49.84778" lon="2.2722">
        <ele>108.1</ele>
        <time>2023-11-25T14:56:11Z</time>
      </trkpt>
      <trkpt lat="49.84779" lon="2.27219">
        <ele>108.1</ele>
        <time>2023-11-25T14:56:13Z</time>
      </trkpt>
      <trkpt lat="49.8478" lon="2.27218">
        <ele>108.1</ele>
        <time>2023-11-25T14:56:14Z</time>
      </trkpt>
      <trkpt lat="49.84779" lon="2.27216">
        <ele>108.1</ele>
        <time>2023-11-25T14:56:16Z</time>
      </trkpt>
      <trkpt lat="49.84778" lon="2.27215">
        <ele>108.1</ele>
        <time>2023-11-25T14:56:17Z</time>
      </trkpt>
      <trkpt lat="49.84778" lon="2.27213">
        <ele>108.1</ele>
        <time>2023-11-25T14:56:18Z</time>
      </trkpt>
      <trkpt lat="49.84777" lon="2.27212">
        <ele>108.1</ele>
        <time>2023-11-25T14:56:19Z</time>
      </trkpt>
      <trkpt lat="49.84776" lon="2.27211">
        <ele>108.1</ele>
        <time>2023-11-25T14:56:20Z</time>
      </trkpt>
      <trkpt lat="49.84774" lon="2.2721">
        <ele>108.1</ele>
        <time>2023-11-25T14:56:21Z</time>
      </trkpt>
      <trkpt lat="49.84772" lon="2.2721">
        <ele>108.1</ele>
        <time>2023-11-25T14:56:23Z</time>
      </trkpt>
      <trkpt lat="49.84771" lon="2.2721">
        <ele>108.1</ele>
        <time>2023-11-25T14:56:24Z</time>
      </trkpt>
      <trkpt lat="49.84769" lon="2.27209">
        <ele>108.1</ele>
        <time>2023-11-25T14:56:25Z</time>
      </trkpt>
      <trkpt lat="49.84767" lon="2.27208">
        <ele>108.1</ele>
        <time>2023-11-25T14:56:26Z</time>
      </trkpt>
      <trkpt lat="49.84766" lon="2.27208">
        <ele>108.1</ele>
        <time>2023-11-25T14:56:27Z</time>
      </trkpt>
      <trkpt lat="49.84765" lon="2.27207">
        <ele>108.1</ele>
        <time>2023-11-25T14:56:28Z</time>
      </trkpt>
      <trkpt lat="49.84764" lon="2.27207">
        <ele>108.1</ele>
        <time>2023-11-25T14:56:30Z</time>
      </trkpt>
      <trkpt lat="49.84762" lon="2.27206">
        <ele>108.1</ele>
        <time>2023-11-25T14:56:31Z</time>
      </trkpt>
      <trkpt lat="49.84761" lon="2.27206">
        <ele>108.1</ele>
        <time>2023-11-25T14:56:32Z</time>
      </trkpt>
      <trkpt lat="49.8476" lon="2.27205">
        <ele>108.1</ele>
        <time>2023-11-25T14:56:33Z</time>
      </trkpt>
      <trkpt lat="49.84759" lon="2.27205">
        <ele>108.1</ele>
        <time>2023-11-25T14:56:34Z</time>
      </trkpt>
      <trkpt lat="49.84757" lon="2.27204">
        <ele>108.1</ele>
        <time>2023-11-25T14:56:36Z</time>
      </trkpt>
      <trkpt lat="49.84757" lon="2.27204">
        <ele>108.1</ele>
        <time>2023-11-25T14:56:37Z</time>
      </trkpt>
      <trkpt lat="49.84756" lon="2.27204">
        <ele>108.1</ele>
        <time>2023-11-25T14:56:38Z</time>
      </trkpt>
      <trkpt lat="49.84755" lon="2.27204">
        <ele>108.1</ele>
        <time>2023-11-25T14:56:39Z</time>
      </trkpt>
      <trkpt lat="49.84754" lon="2.27203">
        <ele>108.1</ele>
        <time>2023-11-25T14:56:40Z</time>
      </trkpt>
      <trkpt lat="49.84753" lon="2.27203">
        <ele>108.1</ele>
        <time>2023-11-25T14:56:41Z</time>
      </trkpt>
      <trkpt lat="49.84752" lon="2.27203">
        <ele>108.1</ele>
        <time>2023-11-25T14:56:42Z</time>
      </trkpt>
      <trkpt lat="49.84751" lon="2.27203">
        <ele>108.1</ele>
        <time>2023-11-25T14:56:44Z</time>
      </trkpt>
      <trkpt lat="49.8475" lon="2.27203">
        <ele>108.1</ele>
        <time>2023-11-25T14:56:45Z</time>
      </trkpt>
      <trkpt lat="49.84749" lon="2.27203">
        <ele>108.1</ele>
        <time>2023-11-25T14:56:46Z</time>
      </trkpt>
      <trkpt lat="49.84748" lon="2.27203">
        <ele>108.1</ele>
        <time>2023-11-25T14:56:47Z</time>
      </trkpt>
      <trkpt lat="49.84747" lon="2.27205">
        <ele>108.1</ele>
        <time>2023-11-25T14:56:48Z</time>
      </trkpt>
      <trkpt lat="49.84746" lon="2.27205">
        <ele>108.1</ele>
        <time>2023-11-25T14:56:50Z</time>
      </trkpt>
      <trkpt lat="49.84745" lon="2.27205">
        <ele>108.1</ele>
        <time>2023-11-25T14:56:51Z</time>
      </trkpt>
      <trkpt lat="49.84744" lon="2.27204">
        <ele>108.1</ele>
        <time>2023-11-25T14:56:52Z</time>
      </trkpt>
      <trkpt lat="49.84743" lon="2.27204">
        <ele>108.1</ele>
        <time>2023-11-25T14:56:53Z</time>
      </trkpt>
      <trkpt lat="49.84742" lon="2.27203">
        <ele>108.1</ele>
        <time>2023-11-25T14:56:54Z</time>
      </trkpt>
      <trkpt lat="49.8474" lon="2.27203">
        <ele>108.1</ele>
        <time>2023-11-25T14:56:56Z</time>
      </trkpt>
      <trkpt lat="49.84739" lon="2.27202">
        <ele>108.1</ele>
        <time>2023-11-25T14:56:57Z</time>
      </trkpt>
      <trkpt lat="49.84737" lon="2.272">
        <ele>108.1</ele>
        <time>2023-11-25T14:56:58Z</time>
      </trkpt>
      <trkpt lat="49.84737" lon="2.272">
        <ele>108.1</ele>
        <time>2023-11-25T14:56:59Z</time>
      </trkpt>
      <trkpt lat="49.84736" lon="2.27199">
        <ele>108.1</ele>
        <time>2023-11-25T14:57:00Z</time>
      </trkpt>
      <trkpt lat="49.84734" lon="2.27197">
        <ele>108.1</ele>
        <time>2023-11-25T14:57:02Z</time>
      </trkpt>
      <trkpt lat="49.84733" lon="2.27197">
        <ele>108.1</ele>
        <time>2023-11-25T14:57:04Z</time>
      </trkpt>
      <trkpt lat="49.84732" lon="2.27196">
        <ele>108.1</ele>
        <time>2023-11-25T14:57:05Z</time>
      </trkpt>
      <trkpt lat="49.84731" lon="2.27194">
        <ele>108.1</ele>
        <time>2023-11-25T14:57:06Z</time>
      </trkpt>
      <trkpt lat="49.8473" lon="2.27193">
        <ele>108.2</ele>
        <time>2023-11-25T14:57:07Z</time>
      </trkpt>
      <trkpt lat="49.84729" lon="2.27193">
        <ele>108.2</ele>
        <time>2023-11-25T14:57:08Z</time>
      </trkpt>
      <trkpt lat="49.84728" lon="2.27192">
        <ele>108.2</ele>
        <time>2023-11-25T14:57:09Z</time>
      </trkpt>
      <trkpt lat="49.84728" lon="2.27191">
        <ele>108.2</ele>
        <time>2023-11-25T14:57:11Z</time>
      </trkpt>
      <trkpt lat="49.84727" lon="2.27189">
        <ele>108.2</ele>
        <time>2023-11-25T14:57:12Z</time>
      </trkpt>
      <trkpt lat="49.84727" lon="2.27189">
        <ele>108.2</ele>
        <time>2023-11-25T14:57:13Z</time>
      </trkpt>
      <trkpt lat="49.84726" lon="2.27188">
        <ele>108.2</ele>
        <time>2023-11-25T14:57:14Z</time>
      </trkpt>
      <trkpt lat="49.84725" lon="2.27187">
        <ele>108.2</ele>
        <time>2023-11-25T14:57:15Z</time>
      </trkpt>
      <trkpt lat="49.84725" lon="2.27185">
        <ele>108.2</ele>
        <time>2023-11-25T14:57:17Z</time>
      </trkpt>
      <trkpt lat="49.84725" lon="2.27184">
        <ele>108.2</ele>
        <time>2023-11-25T14:57:18Z</time>
      </trkpt>
      <trkpt lat="49.84726" lon="2.27184">
        <ele>108.2</ele>
        <time>2023-11-25T14:57:19Z</time>
      </trkpt>
      <trkpt lat="49.84727" lon="2.27185">
        <ele>108.2</ele>
        <time>2023-11-25T14:57:21Z</time>
      </trkpt>
      <trkpt lat="49.84727" lon="2.27185">
        <ele>108.2</ele>
        <time>2023-11-25T14:57:22Z</time>
      </trkpt>
      <trkpt lat="49.84728" lon="2.27185">
        <ele>108.2</ele>
        <time>2023-11-25T14:57:24Z</time>
      </trkpt>
      <trkpt lat="49.84728" lon="2.27185">
        <ele>108.2</ele>
        <time>2023-11-25T14:57:25Z</time>
      </trkpt>
      <trkpt lat="49.84729" lon="2.27186">
        <ele>108.2</ele>
        <time>2023-11-25T14:57:27Z</time>
      </trkpt>
      <trkpt lat="49.84729" lon="2.27186">
        <ele>108.2</ele>
        <time>2023-11-25T14:57:28Z</time>
      </trkpt>
      <trkpt lat="49.84729" lon="2.27186">
        <ele>108.2</ele>
        <time>2023-11-25T14:57:29Z</time>
      </trkpt>
      <trkpt lat="49.8473" lon="2.27186">
        <ele>108.2</ele>
        <time>2023-11-25T14:57:30Z</time>
      </trkpt>
      <trkpt lat="49.8473" lon="2.27181">
        <ele>108.2</ele>
        <time>2023-11-25T14:57:41Z</time>
      </trkpt>
      <trkpt lat="49.8473" lon="2.2718">
        <ele>108.2</ele>
        <time>2023-11-25T14:57:43Z</time>
      </trkpt>
      <trkpt lat="49.84731" lon="2.27179">
        <ele>108.2</ele>
        <time>2023-11-25T14:57:44Z</time>
      </trkpt>
      <trkpt lat="49.84732" lon="2.27179">
        <ele>108.2</ele>
        <time>2023-11-25T14:57:45Z</time>
      </trkpt>
      <trkpt lat="49.84734" lon="2.27178">
        <ele>108.2</ele>
        <time>2023-11-25T14:57:46Z</time>
      </trkpt>
      <trkpt lat="49.84734" lon="2.27177">
        <ele>108.2</ele>
        <time>2023-11-25T14:57:47Z</time>
      </trkpt>
      <trkpt lat="49.84735" lon="2.27176">
        <ele>108.2</ele>
        <time>2023-11-25T14:57:48Z</time>
      </trkpt>
      <trkpt lat="49.84736" lon="2.27174">
        <ele>108.2</ele>
        <time>2023-11-25T14:57:49Z</time>
      </trkpt>
      <trkpt lat="49.84735" lon="2.27172">
        <ele>108.2</ele>
        <time>2023-11-25T14:57:51Z</time>
      </trkpt>
      <trkpt lat="49.84735" lon="2.27171">
        <ele>108.2</ele>
        <time>2023-11-25T14:57:52Z</time>
      </trkpt>
      <trkpt lat="49.84735" lon="2.27169">
        <ele>108.2</ele>
        <time>2023-11-25T14:57:53Z</time>
      </trkpt>
      <trkpt lat="49.84734" lon="2.27168">
        <ele>108.2</ele>
        <time>2023-11-25T14:57:54Z</time>
      </trkpt>
      <trkpt lat="49.84733" lon="2.27167">
        <ele>108.2</ele>
        <time>2023-11-25T14:57:55Z</time>
      </trkpt>
      <trkpt lat="49.84731" lon="2.27166">
        <ele>108.2</ele>
        <time>2023-11-25T14:57:56Z</time>
      </trkpt>
      <trkpt lat="49.84727" lon="2.27166">
        <ele>108.2</ele>
        <time>2023-11-25T14:57:58Z</time>
      </trkpt>
      <trkpt lat="49.84724" lon="2.27165">
        <ele>108.2</ele>
        <time>2023-11-25T14:58:00Z</time>
      </trkpt>
      <trkpt lat="49.84723" lon="2.27165">
        <ele>108.2</ele>
        <time>2023-11-25T14:58:01Z</time>
      </trkpt>
      <trkpt lat="49.84722" lon="2.27165">
        <ele>108.2</ele>
        <time>2023-11-25T14:58:02Z</time>
      </trkpt>
      <trkpt lat="49.8472" lon="2.27164">
        <ele>108.2</ele>
        <time>2023-11-25T14:58:03Z</time>
      </trkpt>
      <trkpt lat="49.8472" lon="2.27162">
        <ele>108.2</ele>
        <time>2023-11-25T14:58:05Z</time>
      </trkpt>
      <trkpt lat="49.84719" lon="2.27161">
        <ele>108.2</ele>
        <time>2023-11-25T14:58:06Z</time>
      </trkpt>
      <trkpt lat="49.84718" lon="2.27161">
        <ele>108.3</ele>
        <time>2023-11-25T14:58:07Z</time>
      </trkpt>
      <trkpt lat="49.84717" lon="2.2716">
        <ele>108.3</ele>
        <time>2023-11-25T14:58:08Z</time>
      </trkpt>
      <trkpt lat="49.84716" lon="2.27158">
        <ele>108.3</ele>
        <time>2023-11-25T14:58:10Z</time>
      </trkpt>
      <trkpt lat="49.84716" lon="2.27157">
        <ele>108.3</ele>
        <time>2023-11-25T14:58:11Z</time>
      </trkpt>
      <trkpt lat="49.84715" lon="2.27157">
        <ele>108.3</ele>
        <time>2023-11-25T14:58:12Z</time>
      </trkpt>
      <trkpt lat="49.84714" lon="2.27156">
        <ele>108.3</ele>
        <time>2023-11-25T14:58:13Z</time>
      </trkpt>
      <trkpt lat="49.84714" lon="2.27155">
        <ele>108.3</ele>
        <time>2023-11-25T14:58:14Z</time>
      </trkpt>
      <trkpt lat="49.84713" lon="2.27154">
        <ele>108.3</ele>
        <time>2023-11-25T14:58:15Z</time>
      </trkpt>
      <trkpt lat="49.84712" lon="2.27153">
        <ele>108.3</ele>
        <time>2023-11-25T14:58:16Z</time>
      </trkpt>
      <trkpt lat="49.84712" lon="2.27152">
        <ele>108.3</ele>
        <time>2023-11-25T14:58:17Z</time>
      </trkpt>
      <trkpt lat="49.84711" lon="2.2715">
        <ele>108.3</ele>
        <time>2023-11-25T14:58:19Z</time>
      </trkpt>
      <trkpt lat="49.84711" lon="2.27149">
        <ele>108.3</ele>
        <time>2023-11-25T14:58:20Z</time>
      </trkpt>
      <trkpt lat="49.8471" lon="2.27148">
        <ele>108.3</ele>
        <time>2023-11-25T14:58:21Z</time>
      </trkpt>
      <trkpt lat="49.8471" lon="2.27148">
        <ele>108.3</ele>
        <time>2023-11-25T14:58:22Z</time>
      </trkpt>
      <trkpt lat="49.84709" lon="2.27147">
        <ele>108.3</ele>
        <time>2023-11-25T14:58:24Z</time>
      </trkpt>
      <trkpt lat="49.84709" lon="2.27147">
        <ele>108.3</ele>
        <time>2023-11-25T14:58:25Z</time>
      </trkpt>
      <trkpt lat="49.84708" lon="2.27146">
        <ele>108.3</ele>
        <time>2023-11-25T14:58:26Z</time>
      </trkpt>
      <trkpt lat="49.84707" lon="2.27145">
        <ele>108.3</ele>
        <time>2023-11-25T14:58:27Z</time>
      </trkpt>
      <trkpt lat="49.84706" lon="2.27145">
        <ele>108.3</ele>
        <time>2023-11-25T14:58:28Z</time>
      </trkpt>
      <trkpt lat="49.84704" lon="2.27144">
        <ele>108.3</ele>
        <time>2023-11-25T14:58:29Z</time>
      </trkpt>
      <trkpt lat="49.84702" lon="2.27141">
        <ele>108.4</ele>
        <time>2023-11-25T14:58:31Z</time>
      </trkpt>
      <trkpt lat="49.84701" lon="2.2714">
        <ele>108.4</ele>
        <time>2023-11-25T14:58:32Z</time>
      </trkpt>
      <trkpt lat="49.84701" lon="2.27139">
        <ele>108.4</ele>
        <time>2023-11-25T14:58:33Z</time>
      </trkpt>
      <trkpt lat="49.847" lon="2.27138">
        <ele>108.4</ele>
        <time>2023-11-25T14:58:34Z</time>
      </trkpt>
      <trkpt lat="49.84699" lon="2.27137">
        <ele>108.4</ele>
        <time>2023-11-25T14:58:35Z</time>
      </trkpt>
      <trkpt lat="49.84698" lon="2.27136">
        <ele>108.4</ele>
        <time>2023-11-25T14:58:36Z</time>
      </trkpt>
      <trkpt lat="49.84697" lon="2.27135">
        <ele>108.4</ele>
        <time>2023-11-25T14:58:37Z</time>
      </trkpt>
      <trkpt lat="49.84695" lon="2.27134">
        <ele>108.4</ele>
        <time>2023-11-25T14:58:39Z</time>
      </trkpt>
      <trkpt lat="49.84694" lon="2.27133">
        <ele>108.4</ele>
        <time>2023-11-25T14:58:40Z</time>
      </trkpt>
      <trkpt lat="49.84692" lon="2.27132">
        <ele>108.4</ele>
        <time>2023-11-25T14:58:41Z</time>
      </trkpt>
      <trkpt lat="49.84691" lon="2.27131">
        <ele>108.4</ele>
        <time>2023-11-25T14:58:43Z</time>
      </trkpt>
      <trkpt lat="49.8469" lon="2.2713">
        <ele>108.4</ele>
        <time>2023-11-25T14:58:44Z</time>
      </trkpt>
      <trkpt lat="49.84688" lon="2.27129">
        <ele>108.5</ele>
        <time>2023-11-25T14:58:45Z</time>
      </trkpt>
      <trkpt lat="49.84687" lon="2.27128">
        <ele>108.5</ele>
        <time>2023-11-25T14:58:46Z</time>
      </trkpt>
      <trkpt lat="49.84686" lon="2.27127">
        <ele>108.5</ele>
        <time>2023-11-25T14:58:47Z</time>
      </trkpt>
      <trkpt lat="49.84684" lon="2.27126">
        <ele>108.5</ele>
        <time>2023-11-25T14:58:48Z</time>
      </trkpt>
      <trkpt lat="49.84683" lon="2.27126">
        <ele>108.5</ele>
        <time>2023-11-25T14:58:50Z</time>
      </trkpt>
      <trkpt lat="49.84683" lon="2.27125">
        <ele>108.5</ele>
        <time>2023-11-25T14:58:51Z</time>
      </trkpt>
      <trkpt lat="49.84682" lon="2.27124">
        <ele>108.5</ele>
        <time>2023-11-25T14:58:52Z</time>
      </trkpt>
      <trkpt lat="49.84681" lon="2.27124">
        <ele>108.5</ele>
        <time>2023-11-25T14:58:53Z</time>
      </trkpt>
      <trkpt lat="49.8468" lon="2.27123">
        <ele>108.5</ele>
        <time>2023-11-25T14:58:54Z</time>
      </trkpt>
      <trkpt lat="49.84679" lon="2.27122">
        <ele>108.5</ele>
        <time>2023-11-25T14:58:55Z</time>
      </trkpt>
      <trkpt lat="49.84678" lon="2.27122">
        <ele>108.5</ele>
        <time>2023-11-25T14:58:56Z</time>
      </trkpt>
      <trkpt lat="49.84677" lon="2.27121">
        <ele>108.5</ele>
        <time>2023-11-25T14:58:58Z</time>
      </trkpt>
      <trkpt lat="49.84676" lon="2.27121">
        <ele>108.5</ele>
        <time>2023-11-25T14:58:59Z</time>
      </trkpt>
      <trkpt lat="49.84675" lon="2.2712">
        <ele>108.5</ele>
        <time>2023-11-25T14:59:00Z</time>
      </trkpt>
      <trkpt lat="49.84674" lon="2.2712">
        <ele>108.5</ele>
        <time>2023-11-25T14:59:01Z</time>
      </trkpt>
      <trkpt lat="49.84672" lon="2.27118">
        <ele>108.5</ele>
        <time>2023-11-25T14:59:02Z</time>
      </trkpt>
      <trkpt lat="49.84672" lon="2.27118">
        <ele>108.5</ele>
        <time>2023-11-25T14:59:03Z</time>
      </trkpt>
      <trkpt lat="49.84671" lon="2.27117">
        <ele>108.5</ele>
        <time>2023-11-25T14:59:05Z</time>
      </trkpt>
      <trkpt lat="49.8467" lon="2.27116">
        <ele>108.5</ele>
        <time>2023-11-25T14:59:06Z</time>
      </trkpt>
      <trkpt lat="49.84668" lon="2.27116">
        <ele>108.5</ele>
        <time>2023-11-25T14:59:07Z</time>
      </trkpt>
      <trkpt lat="49.84667" lon="2.27116">
        <ele>108.6</ele>
        <time>2023-11-25T14:59:08Z</time>
      </trkpt>
      <trkpt lat="49.84666" lon="2.27115">
        <ele>108.6</ele>
        <time>2023-11-25T14:59:09Z</time>
      </trkpt>
      <trkpt lat="49.84665" lon="2.27114">
        <ele>108.6</ele>
        <time>2023-11-25T14:59:11Z</time>
      </trkpt>
      <trkpt lat="49.84664" lon="2.27112">
        <ele>108.6</ele>
        <time>2023-11-25T14:59:12Z</time>
      </trkpt>
      <trkpt lat="49.84662" lon="2.27112">
        <ele>108.6</ele>
        <time>2023-11-25T14:59:13Z</time>
      </trkpt>
      <trkpt lat="49.84661" lon="2.27112">
        <ele>108.6</ele>
        <time>2023-11-25T14:59:14Z</time>
      </trkpt>
      <trkpt lat="49.8466" lon="2.27111">
        <ele>108.6</ele>
        <time>2023-11-25T14:59:15Z</time>
      </trkpt>
      <trkpt lat="49.84659" lon="2.2711">
        <ele>108.6</ele>
        <time>2023-11-25T14:59:16Z</time>
      </trkpt>
      <trkpt lat="49.84658" lon="2.27109">
        <ele>108.6</ele>
        <time>2023-11-25T14:59:17Z</time>
      </trkpt>
      <trkpt lat="49.84656" lon="2.27108">
        <ele>108.6</ele>
        <time>2023-11-25T14:59:19Z</time>
      </trkpt>
      <trkpt lat="49.84656" lon="2.27107">
        <ele>108.6</ele>
        <time>2023-11-25T14:59:20Z</time>
      </trkpt>
      <trkpt lat="49.84655" lon="2.27106">
        <ele>108.6</ele>
        <time>2023-11-25T14:59:21Z</time>
      </trkpt>
      <trkpt lat="49.84655" lon="2.27105">
        <ele>108.6</ele>
        <time>2023-11-25T14:59:22Z</time>
      </trkpt>
      <trkpt lat="49.84653" lon="2.27104">
        <ele>108.6</ele>
        <time>2023-11-25T14:59:23Z</time>
      </trkpt>
      <trkpt lat="49.84652" lon="2.27103">
        <ele>108.6</ele>
        <time>2023-11-25T14:59:24Z</time>
      </trkpt>
      <trkpt lat="49.84651" lon="2.27102">
        <ele>108.6</ele>
        <time>2023-11-25T14:59:26Z</time>
      </trkpt>
      <trkpt lat="49.84649" lon="2.27101">
        <ele>108.6</ele>
        <time>2023-11-25T14:59:27Z</time>
      </trkpt>
      <trkpt lat="49.84648" lon="2.27101">
        <ele>108.6</ele>
        <time>2023-11-25T14:59:28Z</time>
      </trkpt>
      <trkpt lat="49.84647" lon="2.27101">
        <ele>108.6</ele>
        <time>2023-11-25T14:59:29Z</time>
      </trkpt>
      <trkpt lat="49.84645" lon="2.27099">
        <ele>108.6</ele>
        <time>2023-11-25T14:59:30Z</time>
      </trkpt>
      <trkpt lat="49.84645" lon="2.27098">
        <ele>108.6</ele>
        <time>2023-11-25T14:59:31Z</time>
      </trkpt>
      <trkpt lat="49.84644" lon="2.27097">
        <ele>108.6</ele>
        <time>2023-11-25T14:59:32Z</time>
      </trkpt>
      <trkpt lat="49.84643" lon="2.27094">
        <ele>108.6</ele>
        <time>2023-11-25T14:59:34Z</time>
      </trkpt>
      <trkpt lat="49.84642" lon="2.27094">
        <ele>108.6</ele>
        <time>2023-11-25T14:59:35Z</time>
      </trkpt>
      <trkpt lat="49.84641" lon="2.27093">
        <ele>108.6</ele>
        <time>2023-11-25T14:59:36Z</time>
      </trkpt>
      <trkpt lat="49.84641" lon="2.27091">
        <ele>108.6</ele>
        <time>2023-11-25T14:59:37Z</time>
      </trkpt>
      <trkpt lat="49.8464" lon="2.2709">
        <ele>108.6</ele>
        <time>2023-11-25T14:59:38Z</time>
      </trkpt>
      <trkpt lat="49.84639" lon="2.27089">
        <ele>108.6</ele>
        <time>2023-11-25T14:59:39Z</time>
      </trkpt>
      <trkpt lat="49.84638" lon="2.27088">
        <ele>108.6</ele>
        <time>2023-11-25T14:59:40Z</time>
      </trkpt>
      <trkpt lat="49.84637" lon="2.27088">
        <ele>108.6</ele>
        <time>2023-11-25T14:59:41Z</time>
      </trkpt>
      <trkpt lat="49.84636" lon="2.27087">
        <ele>108.6</ele>
        <time>2023-11-25T14:59:43Z</time>
      </trkpt>
      <trkpt lat="49.84635" lon="2.27087">
        <ele>108.6</ele>
        <time>2023-11-25T14:59:44Z</time>
      </trkpt>
      <trkpt lat="49.84634" lon="2.27087">
        <ele>108.6</ele>
        <time>2023-11-25T14:59:45Z</time>
      </trkpt>
      <trkpt lat="49.84633" lon="2.27086">
        <ele>108.6</ele>
        <time>2023-11-25T14:59:46Z</time>
      </trkpt>
      <trkpt lat="49.84631" lon="2.27085">
        <ele>108.6</ele>
        <time>2023-11-25T14:59:47Z</time>
      </trkpt>
      <trkpt lat="49.8463" lon="2.27085">
        <ele>108.6</ele>
        <time>2023-11-25T14:59:48Z</time>
      </trkpt>
      <trkpt lat="49.84629" lon="2.27085">
        <ele>108.6</ele>
        <time>2023-11-25T14:59:49Z</time>
      </trkpt>
      <trkpt lat="49.84627" lon="2.27083">
        <ele>108.6</ele>
        <time>2023-11-25T14:59:50Z</time>
      </trkpt>
      <trkpt lat="49.84626" lon="2.27083">
        <ele>108.6</ele>
        <time>2023-11-25T14:59:51Z</time>
      </trkpt>
      <trkpt lat="49.84625" lon="2.27082">
        <ele>108.6</ele>
        <time>2023-11-25T14:59:52Z</time>
      </trkpt>
      <trkpt lat="49.84624" lon="2.2708">
        <ele>108.6</ele>
        <time>2023-11-25T14:59:54Z</time>
      </trkpt>
      <trkpt lat="49.84623" lon="2.27079">
        <ele>108.6</ele>
        <time>2023-11-25T14:59:55Z</time>
      </trkpt>
      <trkpt lat="49.84622" lon="2.27078">
        <ele>108.6</ele>
        <time>2023-11-25T14:59:56Z</time>
      </trkpt>
      <trkpt lat="49.84621" lon="2.27076">
        <ele>108.6</ele>
        <time>2023-11-25T14:59:57Z</time>
      </trkpt>
      <trkpt lat="49.8462" lon="2.27075">
        <ele>108.6</ele>
        <time>2023-11-25T14:59:58Z</time>
      </trkpt>
      <trkpt lat="49.8462" lon="2.27074">
        <ele>108.6</ele>
        <time>2023-11-25T14:59:59Z</time>
      </trkpt>
      <trkpt lat="49.84619" lon="2.27072">
        <ele>108.6</ele>
        <time>2023-11-25T15:00:00Z</time>
      </trkpt>
      <trkpt lat="49.84618" lon="2.2707">
        <ele>108.6</ele>
        <time>2023-11-25T15:00:01Z</time>
      </trkpt>
      <trkpt lat="49.84617" lon="2.27069">
        <ele>108.6</ele>
        <time>2023-11-25T15:00:03Z</time>
      </trkpt>
      <trkpt lat="49.84616" lon="2.27068">
        <ele>108.6</ele>
        <time>2023-11-25T15:00:04Z</time>
      </trkpt>
      <trkpt lat="49.84615" lon="2.27067">
        <ele>108.6</ele>
        <time>2023-11-25T15:00:05Z</time>
      </trkpt>
      <trkpt lat="49.84615" lon="2.27065">
        <ele>108.6</ele>
        <time>2023-11-25T15:00:06Z</time>
      </trkpt>
      <trkpt lat="49.84614" lon="2.27063">
        <ele>108.6</ele>
        <time>2023-11-25T15:00:07Z</time>
      </trkpt>
      <trkpt lat="49.84614" lon="2.27061">
        <ele>108.6</ele>
        <time>2023-11-25T15:00:08Z</time>
      </trkpt>
      <trkpt lat="49.84613" lon="2.27059">
        <ele>108.6</ele>
        <time>2023-11-25T15:00:09Z</time>
      </trkpt>
      <trkpt lat="49.84612" lon="2.27056">
        <ele>108.6</ele>
        <time>2023-11-25T15:00:11Z</time>
      </trkpt>
      <trkpt lat="49.84611" lon="2.27055">
        <ele>108.6</ele>
        <time>2023-11-25T15:00:12Z</time>
      </trkpt>
      <trkpt lat="49.8461" lon="2.27054">
        <ele>108.6</ele>
        <time>2023-11-25T15:00:13Z</time>
      </trkpt>
      <trkpt lat="49.8461" lon="2.27054">
        <ele>108.6</ele>
        <time>2023-11-25T15:00:14Z</time>
      </trkpt>
      <trkpt lat="49.84609" lon="2.27052">
        <ele>108.5</ele>
        <time>2023-11-25T15:00:16Z</time>
      </trkpt>
      <trkpt lat="49.84608" lon="2.27051">
        <ele>108.5</ele>
        <time>2023-11-25T15:00:17Z</time>
      </trkpt>
      <trkpt lat="49.84607" lon="2.27049">
        <ele>108.5</ele>
        <time>2023-11-25T15:00:18Z</time>
      </trkpt>
      <trkpt lat="49.84607" lon="2.27049">
        <ele>108.5</ele>
        <time>2023-11-25T15:00:20Z</time>
      </trkpt>
      <trkpt lat="49.84607" lon="2.27048">
        <ele>108.5</ele>
        <time>2023-11-25T15:00:21Z</time>
      </trkpt>
      <trkpt lat="49.84607" lon="2.27048">
        <ele>108.5</ele>
        <time>2023-11-25T15:00:22Z</time>
      </trkpt>
      <trkpt lat="49.84606" lon="2.27047">
        <ele>108.5</ele>
        <time>2023-11-25T15:00:23Z</time>
      </trkpt>
      <trkpt lat="49.84606" lon="2.27046">
        <ele>108.5</ele>
        <time>2023-11-25T15:00:24Z</time>
      </trkpt>
      <trkpt lat="49.84605" lon="2.27046">
        <ele>108.5</ele>
        <time>2023-11-25T15:00:25Z</time>
      </trkpt>
      <trkpt lat="49.84605" lon="2.27044">
        <ele>108.5</ele>
        <time>2023-11-25T15:00:26Z</time>
      </trkpt>
      <trkpt lat="49.84605" lon="2.27042">
        <ele>108.4</ele>
        <time>2023-11-25T15:00:27Z</time>
      </trkpt>
      <trkpt lat="49.84604" lon="2.2704">
        <ele>108.4</ele>
        <time>2023-11-25T15:00:29Z</time>
      </trkpt>
      <trkpt lat="49.84604" lon="2.27039">
        <ele>108.4</ele>
        <time>2023-11-25T15:00:30Z</time>
      </trkpt>
      <trkpt lat="49.84603" lon="2.27038">
        <ele>108.4</ele>
        <time>2023-11-25T15:00:31Z</time>
      </trkpt>
      <trkpt lat="49.84602" lon="2.27037">
        <ele>108.4</ele>
        <time>2023-11-25T15:00:32Z</time>
      </trkpt>
      <trkpt lat="49.84602" lon="2.27036">
        <ele>108.4</ele>
        <time>2023-11-25T15:00:34Z</time>
      </trkpt>
      <trkpt lat="49.84601" lon="2.27035">
        <ele>108.4</ele>
        <time>2023-11-25T15:00:35Z</time>
      </trkpt>
      <trkpt lat="49.84599" lon="2.27032">
        <ele>108.3</ele>
        <time>2023-11-25T15:00:36Z</time>
      </trkpt>
      <trkpt lat="49.84598" lon="2.27031">
        <ele>108.3</ele>
        <time>2023-11-25T15:00:37Z</time>
      </trkpt>
      <trkpt lat="49.84597" lon="2.2703">
        <ele>108.2</ele>
        <time>2023-11-25T15:00:38Z</time>
      </trkpt>
      <trkpt lat="49.84598" lon="2.27028">
        <ele>108.2</ele>
        <time>2023-11-25T15:00:39Z</time>
      </trkpt>
      <trkpt lat="49.84598" lon="2.27026">
        <ele>108.2</ele>
        <time>2023-11-25T15:00:41Z</time>
      </trkpt>
      <trkpt lat="49.84598" lon="2.27025">
        <ele>108.1</ele>
        <time>2023-11-25T15:00:42Z</time>
      </trkpt>
      <trkpt lat="49.84598" lon="2.27023">
        <ele>108.1</ele>
        <time>2023-11-25T15:00:43Z</time>
      </trkpt>
      <trkpt lat="49.84598" lon="2.2702">
        <ele>108.1</ele>
        <time>2023-11-25T15:00:45Z</time>
      </trkpt>
      <trkpt lat="49.84598" lon="2.27019">
        <ele>108</ele>
        <time>2023-11-25T15:00:46Z</time>
      </trkpt>
      <trkpt lat="49.84597" lon="2.27018">
        <ele>108</ele>
        <time>2023-11-25T15:00:47Z</time>
      </trkpt>
      <trkpt lat="49.84597" lon="2.27015">
        <ele>108</ele>
        <time>2023-11-25T15:00:48Z</time>
      </trkpt>
      <trkpt lat="49.84597" lon="2.27013">
        <ele>108</ele>
        <time>2023-11-25T15:00:49Z</time>
      </trkpt>
      <trkpt lat="49.84597" lon="2.27011">
        <ele>107.9</ele>
        <time>2023-11-25T15:00:50Z</time>
      </trkpt>
      <trkpt lat="49.84597" lon="2.2701">
        <ele>107.9</ele>
        <time>2023-11-25T15:00:51Z</time>
      </trkpt>
      <trkpt lat="49.84598" lon="2.27008">
        <ele>107.9</ele>
        <time>2023-11-25T15:00:52Z</time>
      </trkpt>
      <trkpt lat="49.84597" lon="2.27007">
        <ele>107.9</ele>
        <time>2023-11-25T15:00:54Z</time>
      </trkpt>
      <trkpt lat="49.84598" lon="2.27005">
        <ele>107.8</ele>
        <time>2023-11-25T15:00:55Z</time>
      </trkpt>
      <trkpt lat="49.84598" lon="2.27003">
        <ele>107.8</ele>
        <time>2023-11-25T15:00:56Z</time>
      </trkpt>
      <trkpt lat="49.84599" lon="2.27002">
        <ele>107.8</ele>
        <time>2023-11-25T15:00:57Z</time>
      </trkpt>
      <trkpt lat="49.846" lon="2.26999">
        <ele>107.7</ele>
        <time>2023-11-25T15:00:58Z</time>
      </trkpt>
      <trkpt lat="49.846" lon="2.26997">
        <ele>107.7</ele>
        <time>2023-11-25T15:01:00Z</time>
      </trkpt>
      <trkpt lat="49.846" lon="2.26996">
        <ele>107.7</ele>
        <time>2023-11-25T15:01:01Z</time>
      </trkpt>
      <trkpt lat="49.84601" lon="2.26995">
        <ele>107.7</ele>
        <time>2023-11-25T15:01:02Z</time>
      </trkpt>
      <trkpt lat="49.84601" lon="2.26994">
        <ele>107.7</ele>
        <time>2023-11-25T15:01:03Z</time>
      </trkpt>
      <trkpt lat="49.84601" lon="2.26993">
        <ele>107.6</ele>
        <time>2023-11-25T15:01:04Z</time>
      </trkpt>
      <trkpt lat="49.84602" lon="2.26991">
        <ele>107.6</ele>
        <time>2023-11-25T15:01:06Z</time>
      </trkpt>
      <trkpt lat="49.84603" lon="2.2699">
        <ele>107.6</ele>
        <time>2023-11-25T15:01:07Z</time>
      </trkpt>
      <trkpt lat="49.84604" lon="2.26988">
        <ele>107.6</ele>
        <time>2023-11-25T15:01:08Z</time>
      </trkpt>
      <trkpt lat="49.84605" lon="2.26986">
        <ele>107.5</ele>
        <time>2023-11-25T15:01:09Z</time>
      </trkpt>
      <trkpt lat="49.84605" lon="2.26983">
        <ele>107.5</ele>
        <time>2023-11-25T15:01:10Z</time>
      </trkpt>
      <trkpt lat="49.84604" lon="2.26982">
        <ele>107.5</ele>
        <time>2023-11-25T15:01:11Z</time>
      </trkpt>
      <trkpt lat="49.84604" lon="2.2698">
        <ele>107.5</ele>
        <time>2023-11-25T15:01:13Z</time>
      </trkpt>
      <trkpt lat="49.84604" lon="2.26978">
        <ele>107.4</ele>
        <time>2023-11-25T15:01:14Z</time>
      </trkpt>
      <trkpt lat="49.84604" lon="2.26977">
        <ele>107.4</ele>
        <time>2023-11-25T15:01:15Z</time>
      </trkpt>
      <trkpt lat="49.84604" lon="2.26974">
        <ele>107.4</ele>
        <time>2023-11-25T15:01:16Z</time>
      </trkpt>
      <trkpt lat="49.84605" lon="2.26973">
        <ele>107.4</ele>
        <time>2023-11-25T15:01:17Z</time>
      </trkpt>
      <trkpt lat="49.84605" lon="2.26972">
        <ele>107.4</ele>
        <time>2023-11-25T15:01:18Z</time>
      </trkpt>
      <trkpt lat="49.84606" lon="2.2697">
        <ele>107.4</ele>
        <time>2023-11-25T15:01:20Z</time>
      </trkpt>
      <trkpt lat="49.84606" lon="2.26968">
        <ele>107.3</ele>
        <time>2023-11-25T15:01:21Z</time>
      </trkpt>
      <trkpt lat="49.84607" lon="2.26967">
        <ele>107.3</ele>
        <time>2023-11-25T15:01:22Z</time>
      </trkpt>
      <trkpt lat="49.84607" lon="2.26965">
        <ele>107.3</ele>
        <time>2023-11-25T15:01:23Z</time>
      </trkpt>
      <trkpt lat="49.84607" lon="2.26962">
        <ele>107.3</ele>
        <time>2023-11-25T15:01:24Z</time>
      </trkpt>
      <trkpt lat="49.84608" lon="2.26961">
        <ele>107.3</ele>
        <time>2023-11-25T15:01:25Z</time>
      </trkpt>
      <trkpt lat="49.84608" lon="2.2696">
        <ele>107.2</ele>
        <time>2023-11-25T15:01:27Z</time>
      </trkpt>
      <trkpt lat="49.84609" lon="2.26958">
        <ele>107.2</ele>
        <time>2023-11-25T15:01:28Z</time>
      </trkpt>
      <trkpt lat="49.84609" lon="2.26956">
        <ele>107.2</ele>
        <time>2023-11-25T15:01:29Z</time>
      </trkpt>
      <trkpt lat="49.84609" lon="2.26954">
        <ele>107.2</ele>
        <time>2023-11-25T15:01:30Z</time>
      </trkpt>
      <trkpt lat="49.8461" lon="2.26953">
        <ele>107.2</ele>
        <time>2023-11-25T15:01:31Z</time>
      </trkpt>
      <trkpt lat="49.8461" lon="2.26951">
        <ele>107.1</ele>
        <time>2023-11-25T15:01:32Z</time>
      </trkpt>
      <trkpt lat="49.8461" lon="2.26949">
        <ele>107.1</ele>
        <time>2023-11-25T15:01:34Z</time>
      </trkpt>
      <trkpt lat="49.8461" lon="2.26948">
        <ele>107.1</ele>
        <time>2023-11-25T15:01:35Z</time>
      </trkpt>
      <trkpt lat="49.84611" lon="2.26945">
        <ele>107.1</ele>
        <time>2023-11-25T15:01:36Z</time>
      </trkpt>
      <trkpt lat="49.84611" lon="2.26944">
        <ele>107.1</ele>
        <time>2023-11-25T15:01:37Z</time>
      </trkpt>
      <trkpt lat="49.84612" lon="2.26943">
        <ele>107.1</ele>
        <time>2023-11-25T15:01:38Z</time>
      </trkpt>
      <trkpt lat="49.84612" lon="2.26941">
        <ele>107.1</ele>
        <time>2023-11-25T15:01:39Z</time>
      </trkpt>
      <trkpt lat="49.84612" lon="2.2694">
        <ele>107</ele>
        <time>2023-11-25T15:01:41Z</time>
      </trkpt>
      <trkpt lat="49.84613" lon="2.26938">
        <ele>107</ele>
        <time>2023-11-25T15:01:42Z</time>
      </trkpt>
      <trkpt lat="49.84613" lon="2.26937">
        <ele>107</ele>
        <time>2023-11-25T15:01:43Z</time>
      </trkpt>
      <trkpt lat="49.84614" lon="2.26936">
        <ele>107</ele>
        <time>2023-11-25T15:01:44Z</time>
      </trkpt>
      <trkpt lat="49.84615" lon="2.26935">
        <ele>107</ele>
        <time>2023-11-25T15:01:45Z</time>
      </trkpt>
      <trkpt lat="49.84615" lon="2.26933">
        <ele>107</ele>
        <time>2023-11-25T15:01:47Z</time>
      </trkpt>
      <trkpt lat="49.84615" lon="2.26932">
        <ele>107</ele>
        <time>2023-11-25T15:01:48Z</time>
      </trkpt>
      <trkpt lat="49.84616" lon="2.26932">
        <ele>107</ele>
        <time>2023-11-25T15:01:49Z</time>
      </trkpt>
      <trkpt lat="49.84616" lon="2.26931">
        <ele>106.9</ele>
        <time>2023-11-25T15:01:50Z</time>
      </trkpt>
      <trkpt lat="49.84617" lon="2.2693">
        <ele>106.9</ele>
        <time>2023-11-25T15:01:51Z</time>
      </trkpt>
      <trkpt lat="49.84617" lon="2.26928">
        <ele>106.9</ele>
        <time>2023-11-25T15:01:53Z</time>
      </trkpt>
      <trkpt lat="49.84618" lon="2.26927">
        <ele>106.9</ele>
        <time>2023-11-25T15:01:54Z</time>
      </trkpt>
      <trkpt lat="49.84618" lon="2.26925">
        <ele>106.9</ele>
        <time>2023-11-25T15:01:55Z</time>
      </trkpt>
      <trkpt lat="49.84619" lon="2.26924">
        <ele>106.9</ele>
        <time>2023-11-25T15:01:56Z</time>
      </trkpt>
      <trkpt lat="49.8462" lon="2.26923">
        <ele>106.9</ele>
        <time>2023-11-25T15:01:57Z</time>
      </trkpt>
      <trkpt lat="49.8462" lon="2.26922">
        <ele>106.9</ele>
        <time>2023-11-25T15:01:58Z</time>
      </trkpt>
      <trkpt lat="49.84622" lon="2.2692">
        <ele>106.8</ele>
        <time>2023-11-25T15:02:00Z</time>
      </trkpt>
      <trkpt lat="49.84622" lon="2.26919">
        <ele>106.8</ele>
        <time>2023-11-25T15:02:01Z</time>
      </trkpt>
      <trkpt lat="49.84622" lon="2.26919">
        <ele>106.8</ele>
        <time>2023-11-25T15:02:02Z</time>
      </trkpt>
      <trkpt lat="49.84622" lon="2.26918">
        <ele>106.8</ele>
        <time>2023-11-25T15:02:03Z</time>
      </trkpt>
      <trkpt lat="49.84623" lon="2.26918">
        <ele>106.8</ele>
        <time>2023-11-25T15:02:04Z</time>
      </trkpt>
      <trkpt lat="49.84623" lon="2.26917">
        <ele>106.8</ele>
        <time>2023-11-25T15:02:05Z</time>
      </trkpt>
      <trkpt lat="49.84624" lon="2.26917">
        <ele>106.8</ele>
        <time>2023-11-25T15:02:07Z</time>
      </trkpt>
      <trkpt lat="49.84624" lon="2.26916">
        <ele>106.8</ele>
        <time>2023-11-25T15:02:08Z</time>
      </trkpt>
      <trkpt lat="49.84625" lon="2.26916">
        <ele>106.8</ele>
        <time>2023-11-25T15:02:10Z</time>
      </trkpt>
      <trkpt lat="49.84625" lon="2.26917">
        <ele>106.8</ele>
        <time>2023-11-25T15:02:11Z</time>
      </trkpt>
      <trkpt lat="49.84625" lon="2.26917">
        <ele>106.8</ele>
        <time>2023-11-25T15:02:12Z</time>
      </trkpt>
      <trkpt lat="49.84625" lon="2.26918">
        <ele>106.8</ele>
        <time>2023-11-25T15:02:14Z</time>
      </trkpt>
      <trkpt lat="49.84625" lon="2.26919">
        <ele>106.8</ele>
        <time>2023-11-25T15:02:15Z</time>
      </trkpt>
      <trkpt lat="49.84625" lon="2.2692">
        <ele>106.8</ele>
        <time>2023-11-25T15:02:16Z</time>
      </trkpt>
      <trkpt lat="49.84625" lon="2.2692">
        <ele>106.8</ele>
        <time>2023-11-25T15:02:17Z</time>
      </trkpt>
      <trkpt lat="49.84625" lon="2.2692">
        <ele>106.8</ele>
        <time>2023-11-25T15:02:18Z</time>
      </trkpt>
      <trkpt lat="49.84625" lon="2.2692">
        <ele>106.8</ele>
        <time>2023-11-25T15:02:19Z</time>
      </trkpt>
      <trkpt lat="49.84625" lon="2.2692">
        <ele>106.8</ele>
        <time>2023-11-25T15:02:20Z</time>
      </trkpt>
      <trkpt lat="49.84625" lon="2.26919">
        <ele>106.8</ele>
        <time>2023-11-25T15:02:22Z</time>
      </trkpt>
      <trkpt lat="49.84625" lon="2.26919">
        <ele>106.8</ele>
        <time>2023-11-25T15:02:23Z</time>
      </trkpt>
      <trkpt lat="49.84625" lon="2.26918">
        <ele>106.8</ele>
        <time>2023-11-25T15:02:24Z</time>
      </trkpt>
      <trkpt lat="49.84625" lon="2.26917">
        <ele>106.7</ele>
        <time>2023-11-25T15:02:25Z</time>
      </trkpt>
      <trkpt lat="49.84625" lon="2.26916">
        <ele>106.7</ele>
        <time>2023-11-25T15:02:26Z</time>
      </trkpt>
      <trkpt lat="49.84625" lon="2.26915">
        <ele>106.7</ele>
        <time>2023-11-25T15:02:28Z</time>
      </trkpt>
      <trkpt lat="49.84624" lon="2.26912">
        <ele>106.7</ele>
        <time>2023-11-25T15:02:29Z</time>
      </trkpt>
      <trkpt lat="49.84624" lon="2.26912">
        <ele>106.7</ele>
        <time>2023-11-25T15:02:31Z</time>
      </trkpt>
      <trkpt lat="49.84624" lon="2.26912">
        <ele>106.7</ele>
        <time>2023-11-25T15:02:32Z</time>
      </trkpt>
      <trkpt lat="49.84624" lon="2.26912">
        <ele>106.7</ele>
        <time>2023-11-25T15:02:33Z</time>
      </trkpt>
      <trkpt lat="49.84623" lon="2.2691">
        <ele>106.7</ele>
        <time>2023-11-25T15:02:35Z</time>
      </trkpt>
      <trkpt lat="49.84623" lon="2.2691">
        <ele>106.7</ele>
        <time>2023-11-25T15:02:36Z</time>
      </trkpt>
      <trkpt lat="49.84622" lon="2.2691">
        <ele>106.7</ele>
        <time>2023-11-25T15:02:38Z</time>
      </trkpt>
      <trkpt lat="49.84622" lon="2.26909">
        <ele>106.7</ele>
        <time>2023-11-25T15:02:39Z</time>
      </trkpt>
      <trkpt lat="49.84621" lon="2.26908">
        <ele>106.7</ele>
        <time>2023-11-25T15:02:40Z</time>
      </trkpt>
      <trkpt lat="49.8462" lon="2.26908">
        <ele>106.7</ele>
        <time>2023-11-25T15:02:42Z</time>
      </trkpt>
      <trkpt lat="49.8462" lon="2.26907">
        <ele>106.7</ele>
        <time>2023-11-25T15:03:41Z</time>
      </trkpt>
      <trkpt lat="49.84619" lon="2.26907">
        <ele>106.7</ele>
        <time>2023-11-25T15:03:42Z</time>
      </trkpt>
      <trkpt lat="49.84618" lon="2.26906">
        <ele>106.6</ele>
        <time>2023-11-25T15:03:43Z</time>
      </trkpt>
      <trkpt lat="49.84618" lon="2.26906">
        <ele>106.6</ele>
        <time>2023-11-25T15:03:44Z</time>
      </trkpt>
      <trkpt lat="49.84617" lon="2.26905">
        <ele>106.6</ele>
        <time>2023-11-25T15:03:45Z</time>
      </trkpt>
      <trkpt lat="49.84616" lon="2.26905">
        <ele>106.6</ele>
        <time>2023-11-25T15:03:47Z</time>
      </trkpt>
      <trkpt lat="49.84616" lon="2.26904">
        <ele>106.6</ele>
        <time>2023-11-25T15:03:48Z</time>
      </trkpt>
      <trkpt lat="49.84615" lon="2.26904">
        <ele>106.6</ele>
        <time>2023-11-25T15:03:49Z</time>
      </trkpt>
      <trkpt lat="49.84614" lon="2.26901">
        <ele>106.6</ele>
        <time>2023-11-25T15:03:50Z</time>
      </trkpt>
      <trkpt lat="49.84614" lon="2.26899">
        <ele>106.6</ele>
        <time>2023-11-25T15:03:51Z</time>
      </trkpt>
      <trkpt lat="49.84613" lon="2.26898">
        <ele>106.5</ele>
        <time>2023-11-25T15:03:53Z</time>
      </trkpt>
      <trkpt lat="49.84612" lon="2.26897">
        <ele>106.5</ele>
        <time>2023-11-25T15:03:54Z</time>
      </trkpt>
      <trkpt lat="49.84611" lon="2.26896">
        <ele>106.5</ele>
        <time>2023-11-25T15:03:55Z</time>
      </trkpt>
      <trkpt lat="49.84611" lon="2.26896">
        <ele>106.5</ele>
        <time>2023-11-25T15:03:56Z</time>
      </trkpt>
      <trkpt lat="49.84612" lon="2.26897">
        <ele>106.5</ele>
        <time>2023-11-25T15:03:57Z</time>
      </trkpt>
      <trkpt lat="49.84612" lon="2.26897">
        <ele>106.5</ele>
        <time>2023-11-25T15:03:58Z</time>
      </trkpt>
      <trkpt lat="49.84613" lon="2.26898">
        <ele>106.5</ele>
        <time>2023-11-25T15:04:00Z</time>
      </trkpt>
      <trkpt lat="49.84613" lon="2.26898">
        <ele>106.5</ele>
        <time>2023-11-25T15:04:01Z</time>
      </trkpt>
      <trkpt lat="49.84613" lon="2.26898">
        <ele>106.5</ele>
        <time>2023-11-25T15:04:03Z</time>
      </trkpt>
      <trkpt lat="49.84613" lon="2.26898">
        <ele>106.5</ele>
        <time>2023-11-25T15:04:04Z</time>
      </trkpt>
      <trkpt lat="49.84613" lon="2.26898">
        <ele>106.5</ele>
        <time>2023-11-25T15:04:05Z</time>
      </trkpt>
      <trkpt lat="49.84613" lon="2.26898">
        <ele>106.5</ele>
        <time>2023-11-25T15:04:07Z</time>
      </trkpt>
      <trkpt lat="49.8461" lon="2.26892">
        <ele>106.4</ele>
        <time>2023-11-25T15:04:14Z</time>
      </trkpt>
      <trkpt lat="49.84609" lon="2.26891">
        <ele>106.4</ele>
        <time>2023-11-25T15:04:15Z</time>
      </trkpt>
      <trkpt lat="49.84608" lon="2.26889">
        <ele>106.4</ele>
        <time>2023-11-25T15:04:16Z</time>
      </trkpt>
      <trkpt lat="49.84607" lon="2.26887">
        <ele>106.3</ele>
        <time>2023-11-25T15:04:18Z</time>
      </trkpt>
      <trkpt lat="49.84606" lon="2.26885">
        <ele>106.3</ele>
        <time>2023-11-25T15:04:19Z</time>
      </trkpt>
      <trkpt lat="49.84606" lon="2.26883">
        <ele>106.3</ele>
        <time>2023-11-25T15:04:20Z</time>
      </trkpt>
      <trkpt lat="49.84605" lon="2.26881">
        <ele>106.3</ele>
        <time>2023-11-25T15:04:21Z</time>
      </trkpt>
      <trkpt lat="49.84605" lon="2.2688">
        <ele>106.3</ele>
        <time>2023-11-25T15:04:22Z</time>
      </trkpt>
      <trkpt lat="49.84604" lon="2.26878">
        <ele>106.2</ele>
        <time>2023-11-25T15:04:23Z</time>
      </trkpt>
      <trkpt lat="49.84604" lon="2.26877">
        <ele>106.2</ele>
        <time>2023-11-25T15:04:24Z</time>
      </trkpt>
      <trkpt lat="49.84603" lon="2.26875">
        <ele>106.2</ele>
        <time>2023-11-25T15:04:26Z</time>
      </trkpt>
      <trkpt lat="49.84603" lon="2.26874">
        <ele>106.2</ele>
        <time>2023-11-25T15:04:28Z</time>
      </trkpt>
      <trkpt lat="49.84602" lon="2.26872">
        <ele>106.2</ele>
        <time>2023-11-25T15:04:29Z</time>
      </trkpt>
      <trkpt lat="49.84602" lon="2.26871">
        <ele>106.1</ele>
        <time>2023-11-25T15:04:30Z</time>
      </trkpt>
      <trkpt lat="49.84601" lon="2.2687">
        <ele>106.1</ele>
        <time>2023-11-25T15:04:31Z</time>
      </trkpt>
      <trkpt lat="49.84601" lon="2.26868">
        <ele>106.1</ele>
        <time>2023-11-25T15:04:32Z</time>
      </trkpt>
      <trkpt lat="49.846" lon="2.26867">
        <ele>106.1</ele>
        <time>2023-11-25T15:04:33Z</time>
      </trkpt>
      <trkpt lat="49.846" lon="2.26866">
        <ele>106.1</ele>
        <time>2023-11-25T15:04:34Z</time>
      </trkpt>
      <trkpt lat="49.846" lon="2.26864">
        <ele>106.1</ele>
        <time>2023-11-25T15:04:36Z</time>
      </trkpt>
      <trkpt lat="49.846" lon="2.26862">
        <ele>106</ele>
        <time>2023-11-25T15:04:38Z</time>
      </trkpt>
      <trkpt lat="49.846" lon="2.26861">
        <ele>106</ele>
        <time>2023-11-25T15:04:39Z</time>
      </trkpt>
      <trkpt lat="49.846" lon="2.2686">
        <ele>106</ele>
        <time>2023-11-25T15:04:40Z</time>
      </trkpt>
      <trkpt lat="49.846" lon="2.26859">
        <ele>106</ele>
        <time>2023-11-25T15:04:41Z</time>
      </trkpt>
      <trkpt lat="49.846" lon="2.26859">
        <ele>106</ele>
        <time>2023-11-25T15:04:42Z</time>
      </trkpt>
      <trkpt lat="49.846" lon="2.26858">
        <ele>106</ele>
        <time>2023-11-25T15:04:44Z</time>
      </trkpt>
      <trkpt lat="49.846" lon="2.26856">
        <ele>106</ele>
        <time>2023-11-25T15:04:45Z</time>
      </trkpt>
      <trkpt lat="49.84601" lon="2.26856">
        <ele>106</ele>
        <time>2023-11-25T15:04:46Z</time>
      </trkpt>
      <trkpt lat="49.84601" lon="2.26856">
        <ele>106</ele>
        <time>2023-11-25T15:04:47Z</time>
      </trkpt>
      <trkpt lat="49.84601" lon="2.26855">
        <ele>106</ele>
        <time>2023-11-25T15:04:49Z</time>
      </trkpt>
      <trkpt lat="49.846" lon="2.26855">
        <ele>105.9</ele>
        <time>2023-11-25T15:04:50Z</time>
      </trkpt>
      <trkpt lat="49.846" lon="2.26855">
        <ele>105.9</ele>
        <time>2023-11-25T15:04:51Z</time>
      </trkpt>
      <trkpt lat="49.84601" lon="2.26854">
        <ele>105.9</ele>
        <time>2023-11-25T15:04:52Z</time>
      </trkpt>
      <trkpt lat="49.84601" lon="2.26854">
        <ele>105.9</ele>
        <time>2023-11-25T15:04:53Z</time>
      </trkpt>
      <trkpt lat="49.84601" lon="2.26853">
        <ele>105.9</ele>
        <time>2023-11-25T15:04:55Z</time>
      </trkpt>
      <trkpt lat="49.84602" lon="2.26852">
        <ele>105.9</ele>
        <time>2023-11-25T15:04:56Z</time>
      </trkpt>
      <trkpt lat="49.84603" lon="2.26851">
        <ele>105.9</ele>
        <time>2023-11-25T15:04:57Z</time>
      </trkpt>
      <trkpt lat="49.84603" lon="2.2685">
        <ele>105.9</ele>
        <time>2023-11-25T15:04:58Z</time>
      </trkpt>
      <trkpt lat="49.84604" lon="2.26849">
        <ele>105.8</ele>
        <time>2023-11-25T15:04:59Z</time>
      </trkpt>
      <trkpt lat="49.84605" lon="2.26848">
        <ele>105.8</ele>
        <time>2023-11-25T15:05:00Z</time>
      </trkpt>
      <trkpt lat="49.84605" lon="2.26846">
        <ele>105.8</ele>
        <time>2023-11-25T15:05:02Z</time>
      </trkpt>
      <trkpt lat="49.84606" lon="2.26844">
        <ele>105.8</ele>
        <time>2023-11-25T15:05:03Z</time>
      </trkpt>
      <trkpt lat="49.84607" lon="2.26841">
        <ele>105.7</ele>
        <time>2023-11-25T15:05:04Z</time>
      </trkpt>
      <trkpt lat="49.84607" lon="2.26839">
        <ele>105.7</ele>
        <time>2023-11-25T15:05:05Z</time>
      </trkpt>
      <trkpt lat="49.84609" lon="2.26834">
        <ele>105.6</ele>
        <time>2023-11-25T15:05:07Z</time>
      </trkpt>
      <trkpt lat="49.8461" lon="2.26832">
        <ele>105.6</ele>
        <time>2023-11-25T15:05:09Z</time>
      </trkpt>
      <trkpt lat="49.84611" lon="2.26829">
        <ele>105.6</ele>
        <time>2023-11-25T15:05:10Z</time>
      </trkpt>
      <trkpt lat="49.84612" lon="2.26827">
        <ele>105.5</ele>
        <time>2023-11-25T15:05:11Z</time>
      </trkpt>
      <trkpt lat="49.84612" lon="2.26826">
        <ele>105.5</ele>
        <time>2023-11-25T15:05:12Z</time>
      </trkpt>
      <trkpt lat="49.84613" lon="2.26824">
        <ele>105.5</ele>
        <time>2023-11-25T15:05:13Z</time>
      </trkpt>
      <trkpt lat="49.84615" lon="2.26822">
        <ele>105.5</ele>
        <time>2023-11-25T15:05:15Z</time>
      </trkpt>
      <trkpt lat="49.84616" lon="2.26821">
        <ele>105.5</ele>
        <time>2023-11-25T15:05:16Z</time>
      </trkpt>
      <trkpt lat="49.84616" lon="2.26819">
        <ele>105.4</ele>
        <time>2023-11-25T15:05:17Z</time>
      </trkpt>
      <trkpt lat="49.84617" lon="2.26818">
        <ele>105.4</ele>
        <time>2023-11-25T15:05:18Z</time>
      </trkpt>
      <trkpt lat="49.84619" lon="2.26816">
        <ele>105.4</ele>
        <time>2023-11-25T15:05:20Z</time>
      </trkpt>
      <trkpt lat="49.84619" lon="2.26815">
        <ele>105.4</ele>
        <time>2023-11-25T15:05:21Z</time>
      </trkpt>
      <trkpt lat="49.8462" lon="2.26814">
        <ele>105.4</ele>
        <time>2023-11-25T15:05:22Z</time>
      </trkpt>
      <trkpt lat="49.8462" lon="2.26812">
        <ele>105.4</ele>
        <time>2023-11-25T15:05:23Z</time>
      </trkpt>
      <trkpt lat="49.8462" lon="2.26811">
        <ele>105.5</ele>
        <time>2023-11-25T15:05:24Z</time>
      </trkpt>
      <trkpt lat="49.84619" lon="2.26809">
        <ele>105.5</ele>
        <time>2023-11-25T15:05:26Z</time>
      </trkpt>
      <trkpt lat="49.84618" lon="2.26808">
        <ele>105.5</ele>
        <time>2023-11-25T15:05:27Z</time>
      </trkpt>
      <trkpt lat="49.84618" lon="2.26807">
        <ele>105.5</ele>
        <time>2023-11-25T15:05:28Z</time>
      </trkpt>
      <trkpt lat="49.84618" lon="2.26806">
        <ele>105.5</ele>
        <time>2023-11-25T15:05:29Z</time>
      </trkpt>
      <trkpt lat="49.84617" lon="2.26806">
        <ele>105.5</ele>
        <time>2023-11-25T15:05:31Z</time>
      </trkpt>
      <trkpt lat="49.84617" lon="2.26806">
        <ele>105.5</ele>
        <time>2023-11-25T15:05:32Z</time>
      </trkpt>
      <trkpt lat="49.84616" lon="2.26806">
        <ele>105.5</ele>
        <time>2023-11-25T15:05:33Z</time>
      </trkpt>
      <trkpt lat="49.84615" lon="2.26807">
        <ele>105.5</ele>
        <time>2023-11-25T15:05:34Z</time>
      </trkpt>
      <trkpt lat="49.84615" lon="2.26808">
        <ele>105.5</ele>
        <time>2023-11-25T15:05:36Z</time>
      </trkpt>
      <trkpt lat="49.84614" lon="2.26808">
        <ele>105.5</ele>
        <time>2023-11-25T15:05:37Z</time>
      </trkpt>
      <trkpt lat="49.84614" lon="2.26808">
        <ele>105.5</ele>
        <time>2023-11-25T15:05:38Z</time>
      </trkpt>
      <trkpt lat="49.84613" lon="2.2681">
        <ele>105.5</ele>
        <time>2023-11-25T15:05:39Z</time>
      </trkpt>
      <trkpt lat="49.84612" lon="2.26811">
        <ele>105.5</ele>
        <time>2023-11-25T15:05:40Z</time>
      </trkpt>
      <trkpt lat="49.84612" lon="2.26811">
        <ele>105.5</ele>
        <time>2023-11-25T15:05:41Z</time>
      </trkpt>
      <trkpt lat="49.84611" lon="2.26811">
        <ele>105.5</ele>
        <time>2023-11-25T15:05:43Z</time>
      </trkpt>
      <trkpt lat="49.84611" lon="2.26812">
        <ele>105.5</ele>
        <time>2023-11-25T15:05:44Z</time>
      </trkpt>
      <trkpt lat="49.8461" lon="2.26811">
        <ele>105.5</ele>
        <time>2023-11-25T15:05:45Z</time>
      </trkpt>
      <trkpt lat="49.8461" lon="2.26812">
        <ele>105.5</ele>
        <time>2023-11-25T15:05:46Z</time>
      </trkpt>
      <trkpt lat="49.84609" lon="2.26812">
        <ele>105.5</ele>
        <time>2023-11-25T15:05:47Z</time>
      </trkpt>
      <trkpt lat="49.84609" lon="2.26812">
        <ele>105.5</ele>
        <time>2023-11-25T15:05:48Z</time>
      </trkpt>
      <trkpt lat="49.84607" lon="2.26814">
        <ele>105.5</ele>
        <time>2023-11-25T15:05:49Z</time>
      </trkpt>
      <trkpt lat="49.84607" lon="2.26815">
        <ele>105.5</ele>
        <time>2023-11-25T15:05:51Z</time>
      </trkpt>
      <trkpt lat="49.84606" lon="2.26815">
        <ele>105.5</ele>
        <time>2023-11-25T15:05:52Z</time>
      </trkpt>
      <trkpt lat="49.84605" lon="2.26816">
        <ele>105.6</ele>
        <time>2023-11-25T15:05:53Z</time>
      </trkpt>
      <trkpt lat="49.84604" lon="2.26816">
        <ele>105.6</ele>
        <time>2023-11-25T15:05:54Z</time>
      </trkpt>
      <trkpt lat="49.84603" lon="2.26816">
        <ele>105.6</ele>
        <time>2023-11-25T15:05:55Z</time>
      </trkpt>
      <trkpt lat="49.84602" lon="2.26815">
        <ele>105.6</ele>
        <time>2023-11-25T15:05:57Z</time>
      </trkpt>
      <trkpt lat="49.84601" lon="2.26815">
        <ele>105.6</ele>
        <time>2023-11-25T15:05:59Z</time>
      </trkpt>
      <trkpt lat="49.846" lon="2.26815">
        <ele>105.6</ele>
        <time>2023-11-25T15:06:00Z</time>
      </trkpt>
      <trkpt lat="49.84599" lon="2.26816">
        <ele>105.6</ele>
        <time>2023-11-25T15:06:02Z</time>
      </trkpt>
      <trkpt lat="49.84598" lon="2.26817">
        <ele>105.6</ele>
        <time>2023-11-25T15:06:03Z</time>
      </trkpt>
      <trkpt lat="49.84599" lon="2.26817">
        <ele>105.6</ele>
        <time>2023-11-25T15:06:04Z</time>
      </trkpt>
      <trkpt lat="49.84599" lon="2.26817">
        <ele>105.6</ele>
        <time>2023-11-25T15:06:05Z</time>
      </trkpt>
      <trkpt lat="49.84599" lon="2.26817">
        <ele>105.6</ele>
        <time>2023-11-25T15:06:07Z</time>
      </trkpt>
      <trkpt lat="49.84599" lon="2.26816">
        <ele>105.6</ele>
        <time>2023-11-25T15:06:08Z</time>
      </trkpt>
      <trkpt lat="49.84599" lon="2.26816">
        <ele>105.6</ele>
        <time>2023-11-25T15:06:10Z</time>
      </trkpt>
      <trkpt lat="49.84599" lon="2.26816">
        <ele>105.6</ele>
        <time>2023-11-25T15:06:11Z</time>
      </trkpt>
      <trkpt lat="49.84599" lon="2.26816">
        <ele>105.6</ele>
        <time>2023-11-25T15:06:12Z</time>
      </trkpt>
      <trkpt lat="49.84598" lon="2.26815">
        <ele>105.6</ele>
        <time>2023-11-25T15:06:14Z</time>
      </trkpt>
      <trkpt lat="49.84598" lon="2.26814">
        <ele>105.6</ele>
        <time>2023-11-25T15:06:15Z</time>
      </trkpt>
      <trkpt lat="49.84598" lon="2.26814">
        <ele>105.6</ele>
        <time>2023-11-25T15:06:17Z</time>
      </trkpt>
      <trkpt lat="49.84598" lon="2.26813">
        <ele>105.6</ele>
        <time>2023-11-25T15:06:18Z</time>
      </trkpt>
      <trkpt lat="49.84598" lon="2.26813">
        <ele>105.6</ele>
        <time>2023-11-25T15:06:20Z</time>
      </trkpt>
      <trkpt lat="49.84599" lon="2.26813">
        <ele>105.6</ele>
        <time>2023-11-25T15:06:21Z</time>
      </trkpt>
      <trkpt lat="49.84599" lon="2.26813">
        <ele>105.6</ele>
        <time>2023-11-25T15:06:22Z</time>
      </trkpt>
      <trkpt lat="49.84597" lon="2.2681">
        <ele>105.7</ele>
        <time>2023-11-25T15:06:30Z</time>
      </trkpt>
      <trkpt lat="49.84596" lon="2.26809">
        <ele>105.7</ele>
        <time>2023-11-25T15:06:31Z</time>
      </trkpt>
      <trkpt lat="49.84596" lon="2.26808">
        <ele>105.7</ele>
        <time>2023-11-25T15:06:32Z</time>
      </trkpt>
      <trkpt lat="49.84595" lon="2.26806">
        <ele>105.7</ele>
        <time>2023-11-25T15:06:34Z</time>
      </trkpt>
      <trkpt lat="49.84593" lon="2.26805">
        <ele>105.7</ele>
        <time>2023-11-25T15:06:35Z</time>
      </trkpt>
      <trkpt lat="49.84592" lon="2.26804">
        <ele>105.7</ele>
        <time>2023-11-25T15:06:36Z</time>
      </trkpt>
      <trkpt lat="49.8459" lon="2.26803">
        <ele>105.7</ele>
        <time>2023-11-25T15:06:38Z</time>
      </trkpt>
      <trkpt lat="49.84589" lon="2.26802">
        <ele>105.7</ele>
        <time>2023-11-25T15:06:40Z</time>
      </trkpt>
      <trkpt lat="49.84589" lon="2.26801">
        <ele>105.7</ele>
        <time>2023-11-25T15:06:41Z</time>
      </trkpt>
      <trkpt lat="49.84589" lon="2.26801">
        <ele>105.7</ele>
        <time>2023-11-25T15:06:43Z</time>
      </trkpt>
      <trkpt lat="49.84589" lon="2.268">
        <ele>105.8</ele>
        <time>2023-11-25T15:06:44Z</time>
      </trkpt>
      <trkpt lat="49.84589" lon="2.26799">
        <ele>105.8</ele>
        <time>2023-11-25T15:06:45Z</time>
      </trkpt>
      <trkpt lat="49.84589" lon="2.26799">
        <ele>105.8</ele>
        <time>2023-11-25T15:06:46Z</time>
      </trkpt>
      <trkpt lat="49.84589" lon="2.26798">
        <ele>105.8</ele>
        <time>2023-11-25T15:06:47Z</time>
      </trkpt>
      <trkpt lat="49.84588" lon="2.26796">
        <ele>105.8</ele>
        <time>2023-11-25T15:06:48Z</time>
      </trkpt>
      <trkpt lat="49.84588" lon="2.26795">
        <ele>105.8</ele>
        <time>2023-11-25T15:06:50Z</time>
      </trkpt>
      <trkpt lat="49.84587" lon="2.26794">
        <ele>105.8</ele>
        <time>2023-11-25T15:06:51Z</time>
      </trkpt>
      <trkpt lat="49.84585" lon="2.26793">
        <ele>105.8</ele>
        <time>2023-11-25T15:06:52Z</time>
      </trkpt>
      <trkpt lat="49.84584" lon="2.26793">
        <ele>105.8</ele>
        <time>2023-11-25T15:06:53Z</time>
      </trkpt>
      <trkpt lat="49.84583" lon="2.26792">
        <ele>105.8</ele>
        <time>2023-11-25T15:06:54Z</time>
      </trkpt>
      <trkpt lat="49.84582" lon="2.26791">
        <ele>105.8</ele>
        <time>2023-11-25T15:06:56Z</time>
      </trkpt>
      <trkpt lat="49.84581" lon="2.2679">
        <ele>105.8</ele>
        <time>2023-11-25T15:06:57Z</time>
      </trkpt>
      <trkpt lat="49.8458" lon="2.26789">
        <ele>105.8</ele>
        <time>2023-11-25T15:06:58Z</time>
      </trkpt>
      <trkpt lat="49.84579" lon="2.26788">
        <ele>105.8</ele>
        <time>2023-11-25T15:06:59Z</time>
      </trkpt>
      <trkpt lat="49.84577" lon="2.26787">
        <ele>105.8</ele>
        <time>2023-11-25T15:07:00Z</time>
      </trkpt>
      <trkpt lat="49.84577" lon="2.26787">
        <ele>105.8</ele>
        <time>2023-11-25T15:07:02Z</time>
      </trkpt>
      <trkpt lat="49.84576" lon="2.26786">
        <ele>105.8</ele>
        <time>2023-11-25T15:07:03Z</time>
      </trkpt>
      <trkpt lat="49.84576" lon="2.26785">
        <ele>105.8</ele>
        <time>2023-11-25T15:07:04Z</time>
      </trkpt>
      <trkpt lat="49.84574" lon="2.26783">
        <ele>105.8</ele>
        <time>2023-11-25T15:07:05Z</time>
      </trkpt>
      <trkpt lat="49.84574" lon="2.26783">
        <ele>105.8</ele>
        <time>2023-11-25T15:07:06Z</time>
      </trkpt>
      <trkpt lat="49.84574" lon="2.26782">
        <ele>105.8</ele>
        <time>2023-11-25T15:07:08Z</time>
      </trkpt>
      <trkpt lat="49.84573" lon="2.26781">
        <ele>105.8</ele>
        <time>2023-11-25T15:07:10Z</time>
      </trkpt>
      <trkpt lat="49.84572" lon="2.2678">
        <ele>105.8</ele>
        <time>2023-11-25T15:07:11Z</time>
      </trkpt>
      <trkpt lat="49.8457" lon="2.26779">
        <ele>105.8</ele>
        <time>2023-11-25T15:07:12Z</time>
      </trkpt>
      <trkpt lat="49.84569" lon="2.26778">
        <ele>105.8</ele>
        <time>2023-11-25T15:07:13Z</time>
      </trkpt>
      <trkpt lat="49.84568" lon="2.26777">
        <ele>105.8</ele>
        <time>2023-11-25T15:07:14Z</time>
      </trkpt>
      <trkpt lat="49.84566" lon="2.26774">
        <ele>105.8</ele>
        <time>2023-11-25T15:07:15Z</time>
      </trkpt>
      <trkpt lat="49.84566" lon="2.26774">
        <ele>105.8</ele>
        <time>2023-11-25T15:07:17Z</time>
      </trkpt>
      <trkpt lat="49.84565" lon="2.26773">
        <ele>105.8</ele>
        <time>2023-11-25T15:07:18Z</time>
      </trkpt>
      <trkpt lat="49.84564" lon="2.26772">
        <ele>105.8</ele>
        <time>2023-11-25T15:07:19Z</time>
      </trkpt>
      <trkpt lat="49.84564" lon="2.26771">
        <ele>105.8</ele>
        <time>2023-11-25T15:07:20Z</time>
      </trkpt>
      <trkpt lat="49.84562" lon="2.2677">
        <ele>105.8</ele>
        <time>2023-11-25T15:07:21Z</time>
      </trkpt>
      <trkpt lat="49.84562" lon="2.26769">
        <ele>105.8</ele>
        <time>2023-11-25T15:07:22Z</time>
      </trkpt>
      <trkpt lat="49.84561" lon="2.26768">
        <ele>105.7</ele>
        <time>2023-11-25T15:07:23Z</time>
      </trkpt>
      <trkpt lat="49.84559" lon="2.26767">
        <ele>105.7</ele>
        <time>2023-11-25T15:07:25Z</time>
      </trkpt>
      <trkpt lat="49.84558" lon="2.26767">
        <ele>105.7</ele>
        <time>2023-11-25T15:07:26Z</time>
      </trkpt>
      <trkpt lat="49.84556" lon="2.26765">
        <ele>105.7</ele>
        <time>2023-11-25T15:07:27Z</time>
      </trkpt>
      <trkpt lat="49.84556" lon="2.26765">
        <ele>105.7</ele>
        <time>2023-11-25T15:07:28Z</time>
      </trkpt>
      <trkpt lat="49.84555" lon="2.26764">
        <ele>105.7</ele>
        <time>2023-11-25T15:07:29Z</time>
      </trkpt>
      <trkpt lat="49.84553" lon="2.26761">
        <ele>105.7</ele>
        <time>2023-11-25T15:07:30Z</time>
      </trkpt>
      <trkpt lat="49.84552" lon="2.2676">
        <ele>105.7</ele>
        <time>2023-11-25T15:07:32Z</time>
      </trkpt>
      <trkpt lat="49.84552" lon="2.26759">
        <ele>105.7</ele>
        <time>2023-11-25T15:07:33Z</time>
      </trkpt>
      <trkpt lat="49.84551" lon="2.26758">
        <ele>105.7</ele>
        <time>2023-11-25T15:07:34Z</time>
      </trkpt>
      <trkpt lat="49.8455" lon="2.26757">
        <ele>105.7</ele>
        <time>2023-11-25T15:07:35Z</time>
      </trkpt>
      <trkpt lat="49.84549" lon="2.26756">
        <ele>105.7</ele>
        <time>2023-11-25T15:07:36Z</time>
      </trkpt>
      <trkpt lat="49.84548" lon="2.26756">
        <ele>105.7</ele>
        <time>2023-11-25T15:07:37Z</time>
      </trkpt>
      <trkpt lat="49.84547" lon="2.26755">
        <ele>105.7</ele>
        <time>2023-11-25T15:07:39Z</time>
      </trkpt>
      <trkpt lat="49.84546" lon="2.26754">
        <ele>105.7</ele>
        <time>2023-11-25T15:07:40Z</time>
      </trkpt>
      <trkpt lat="49.84545" lon="2.26754">
        <ele>105.7</ele>
        <time>2023-11-25T15:07:41Z</time>
      </trkpt>
      <trkpt lat="49.84544" lon="2.26753">
        <ele>105.7</ele>
        <time>2023-11-25T15:07:42Z</time>
      </trkpt>
      <trkpt lat="49.84543" lon="2.26753">
        <ele>105.7</ele>
        <time>2023-11-25T15:07:43Z</time>
      </trkpt>
      <trkpt lat="49.84541" lon="2.26752">
        <ele>105.7</ele>
        <time>2023-11-25T15:07:44Z</time>
      </trkpt>
      <trkpt lat="49.84539" lon="2.26751">
        <ele>105.7</ele>
        <time>2023-11-25T15:07:46Z</time>
      </trkpt>
      <trkpt lat="49.84538" lon="2.26751">
        <ele>105.7</ele>
        <time>2023-11-25T15:07:47Z</time>
      </trkpt>
      <trkpt lat="49.84537" lon="2.2675">
        <ele>105.7</ele>
        <time>2023-11-25T15:07:48Z</time>
      </trkpt>
      <trkpt lat="49.84536" lon="2.26749">
        <ele>105.7</ele>
        <time>2023-11-25T15:07:49Z</time>
      </trkpt>
      <trkpt lat="49.84534" lon="2.26747">
        <ele>105.7</ele>
        <time>2023-11-25T15:07:50Z</time>
      </trkpt>
      <trkpt lat="49.84533" lon="2.26746">
        <ele>105.7</ele>
        <time>2023-11-25T15:07:52Z</time>
      </trkpt>
      <trkpt lat="49.84532" lon="2.26745">
        <ele>105.7</ele>
        <time>2023-11-25T15:07:53Z</time>
      </trkpt>
      <trkpt lat="49.84532" lon="2.26744">
        <ele>105.7</ele>
        <time>2023-11-25T15:07:54Z</time>
      </trkpt>
      <trkpt lat="49.84531" lon="2.26743">
        <ele>105.7</ele>
        <time>2023-11-25T15:07:55Z</time>
      </trkpt>
      <trkpt lat="49.8453" lon="2.26742">
        <ele>105.7</ele>
        <time>2023-11-25T15:07:56Z</time>
      </trkpt>
      <trkpt lat="49.84529" lon="2.2674">
        <ele>105.7</ele>
        <time>2023-11-25T15:07:58Z</time>
      </trkpt>
      <trkpt lat="49.84528" lon="2.26739">
        <ele>105.7</ele>
        <time>2023-11-25T15:07:59Z</time>
      </trkpt>
      <trkpt lat="49.84528" lon="2.26737">
        <ele>105.7</ele>
        <time>2023-11-25T15:08:00Z</time>
      </trkpt>
      <trkpt lat="49.84528" lon="2.26735">
        <ele>105.7</ele>
        <time>2023-11-25T15:08:01Z</time>
      </trkpt>
      <trkpt lat="49.84527" lon="2.26733">
        <ele>105.7</ele>
        <time>2023-11-25T15:08:02Z</time>
      </trkpt>
      <trkpt lat="49.84527" lon="2.26731">
        <ele>105.7</ele>
        <time>2023-11-25T15:08:03Z</time>
      </trkpt>
      <trkpt lat="49.84526" lon="2.26728">
        <ele>105.7</ele>
        <time>2023-11-25T15:08:05Z</time>
      </trkpt>
      <trkpt lat="49.84526" lon="2.26726">
        <ele>105.7</ele>
        <time>2023-11-25T15:08:06Z</time>
      </trkpt>
      <trkpt lat="49.84526" lon="2.26724">
        <ele>105.7</ele>
        <time>2023-11-25T15:08:07Z</time>
      </trkpt>
      <trkpt lat="49.84526" lon="2.26723">
        <ele>105.7</ele>
        <time>2023-11-25T15:08:08Z</time>
      </trkpt>
      <trkpt lat="49.84527" lon="2.26721">
        <ele>105.7</ele>
        <time>2023-11-25T15:08:09Z</time>
      </trkpt>
      <trkpt lat="49.84528" lon="2.26719">
        <ele>105.7</ele>
        <time>2023-11-25T15:08:11Z</time>
      </trkpt>
      <trkpt lat="49.84527" lon="2.26718">
        <ele>105.7</ele>
        <time>2023-11-25T15:08:12Z</time>
      </trkpt>
      <trkpt lat="49.84527" lon="2.26716">
        <ele>105.7</ele>
        <time>2023-11-25T15:08:13Z</time>
      </trkpt>
      <trkpt lat="49.84526" lon="2.26713">
        <ele>105.7</ele>
        <time>2023-11-25T15:08:14Z</time>
      </trkpt>
      <trkpt lat="49.84526" lon="2.26712">
        <ele>105.7</ele>
        <time>2023-11-25T15:08:15Z</time>
      </trkpt>
      <trkpt lat="49.84525" lon="2.26711">
        <ele>105.7</ele>
        <time>2023-11-25T15:08:16Z</time>
      </trkpt>
      <trkpt lat="49.84525" lon="2.26709">
        <ele>105.7</ele>
        <time>2023-11-25T15:08:18Z</time>
      </trkpt>
      <trkpt lat="49.84524" lon="2.26707">
        <ele>105.7</ele>
        <time>2023-11-25T15:08:19Z</time>
      </trkpt>
      <trkpt lat="49.84523" lon="2.26704">
        <ele>105.8</ele>
        <time>2023-11-25T15:08:20Z</time>
      </trkpt>
      <trkpt lat="49.84522" lon="2.26702">
        <ele>105.8</ele>
        <time>2023-11-25T15:08:21Z</time>
      </trkpt>
      <trkpt lat="49.84522" lon="2.26701">
        <ele>105.8</ele>
        <time>2023-11-25T15:08:22Z</time>
      </trkpt>
      <trkpt lat="49.84521" lon="2.267">
        <ele>105.8</ele>
        <time>2023-11-25T15:08:23Z</time>
      </trkpt>
      <trkpt lat="49.84521" lon="2.26699">
        <ele>105.8</ele>
        <time>2023-11-25T15:08:24Z</time>
      </trkpt>
      <trkpt lat="49.8452" lon="2.26697">
        <ele>105.8</ele>
        <time>2023-11-25T15:08:26Z</time>
      </trkpt>
      <trkpt lat="49.84519" lon="2.26696">
        <ele>105.8</ele>
        <time>2023-11-25T15:08:27Z</time>
      </trkpt>
      <trkpt lat="49.84518" lon="2.26694">
        <ele>105.8</ele>
        <time>2023-11-25T15:08:28Z</time>
      </trkpt>
      <trkpt lat="49.84518" lon="2.26694">
        <ele>105.8</ele>
        <time>2023-11-25T15:08:29Z</time>
      </trkpt>
      <trkpt lat="49.84518" lon="2.26693">
        <ele>105.8</ele>
        <time>2023-11-25T15:08:30Z</time>
      </trkpt>
      <trkpt lat="49.84518" lon="2.26692">
        <ele>105.8</ele>
        <time>2023-11-25T15:08:31Z</time>
      </trkpt>
      <trkpt lat="49.84518" lon="2.26692">
        <ele>105.8</ele>
        <time>2023-11-25T15:08:33Z</time>
      </trkpt>
      <trkpt lat="49.84517" lon="2.26691">
        <ele>105.8</ele>
        <time>2023-11-25T15:08:34Z</time>
      </trkpt>
      <trkpt lat="49.84517" lon="2.26689">
        <ele>105.8</ele>
        <time>2023-11-25T15:08:35Z</time>
      </trkpt>
      <trkpt lat="49.84516" lon="2.26688">
        <ele>105.8</ele>
        <time>2023-11-25T15:08:36Z</time>
      </trkpt>
      <trkpt lat="49.84515" lon="2.26687">
        <ele>105.8</ele>
        <time>2023-11-25T15:08:37Z</time>
      </trkpt>
      <trkpt lat="49.84514" lon="2.26685">
        <ele>105.8</ele>
        <time>2023-11-25T15:08:39Z</time>
      </trkpt>
      <trkpt lat="49.84513" lon="2.26684">
        <ele>105.8</ele>
        <time>2023-11-25T15:08:40Z</time>
      </trkpt>
      <trkpt lat="49.84512" lon="2.26682">
        <ele>105.8</ele>
        <time>2023-11-25T15:08:41Z</time>
      </trkpt>
      <trkpt lat="49.84511" lon="2.26681">
        <ele>105.8</ele>
        <time>2023-11-25T15:08:42Z</time>
      </trkpt>
      <trkpt lat="49.8451" lon="2.26681">
        <ele>105.8</ele>
        <time>2023-11-25T15:08:43Z</time>
      </trkpt>
      <trkpt lat="49.84509" lon="2.2668">
        <ele>105.8</ele>
        <time>2023-11-25T15:08:44Z</time>
      </trkpt>
      <trkpt lat="49.84508" lon="2.2668">
        <ele>105.8</ele>
        <time>2023-11-25T15:08:46Z</time>
      </trkpt>
      <trkpt lat="49.84507" lon="2.26677">
        <ele>105.8</ele>
        <time>2023-11-25T15:08:47Z</time>
      </trkpt>
      <trkpt lat="49.84507" lon="2.26677">
        <ele>105.8</ele>
        <time>2023-11-25T15:08:48Z</time>
      </trkpt>
      <trkpt lat="49.84506" lon="2.26676">
        <ele>105.8</ele>
        <time>2023-11-25T15:08:49Z</time>
      </trkpt>
      <trkpt lat="49.84505" lon="2.26674">
        <ele>105.8</ele>
        <time>2023-11-25T15:08:50Z</time>
      </trkpt>
      <trkpt lat="49.84504" lon="2.26674">
        <ele>105.8</ele>
        <time>2023-11-25T15:08:51Z</time>
      </trkpt>
      <trkpt lat="49.84503" lon="2.26673">
        <ele>105.8</ele>
        <time>2023-11-25T15:08:52Z</time>
      </trkpt>
      <trkpt lat="49.84501" lon="2.26671">
        <ele>105.8</ele>
        <time>2023-11-25T15:08:54Z</time>
      </trkpt>
      <trkpt lat="49.84501" lon="2.2667">
        <ele>105.8</ele>
        <time>2023-11-25T15:08:55Z</time>
      </trkpt>
      <trkpt lat="49.845" lon="2.2667">
        <ele>105.8</ele>
        <time>2023-11-25T15:08:56Z</time>
      </trkpt>
      <trkpt lat="49.84498" lon="2.2667">
        <ele>105.8</ele>
        <time>2023-11-25T15:08:57Z</time>
      </trkpt>
      <trkpt lat="49.84497" lon="2.26669">
        <ele>105.8</ele>
        <time>2023-11-25T15:08:58Z</time>
      </trkpt>
      <trkpt lat="49.84496" lon="2.26666">
        <ele>105.8</ele>
        <time>2023-11-25T15:08:59Z</time>
      </trkpt>
      <trkpt lat="49.84496" lon="2.26664">
        <ele>105.8</ele>
        <time>2023-11-25T15:09:01Z</time>
      </trkpt>
      <trkpt lat="49.84495" lon="2.26662">
        <ele>105.8</ele>
        <time>2023-11-25T15:09:02Z</time>
      </trkpt>
      <trkpt lat="49.84495" lon="2.26662">
        <ele>105.8</ele>
        <time>2023-11-25T15:09:03Z</time>
      </trkpt>
      <trkpt lat="49.84495" lon="2.26662">
        <ele>105.8</ele>
        <time>2023-11-25T15:09:04Z</time>
      </trkpt>
      <trkpt lat="49.84495" lon="2.26663">
        <ele>105.8</ele>
        <time>2023-11-25T15:09:05Z</time>
      </trkpt>
      <trkpt lat="49.84496" lon="2.26666">
        <ele>105.7</ele>
        <time>2023-11-25T15:09:06Z</time>
      </trkpt>
      <trkpt lat="49.84496" lon="2.26665">
        <ele>105.7</ele>
        <time>2023-11-25T15:09:08Z</time>
      </trkpt>
      <trkpt lat="49.84497" lon="2.26665">
        <ele>105.7</ele>
        <time>2023-11-25T15:09:09Z</time>
      </trkpt>
      <trkpt lat="49.84497" lon="2.26664">
        <ele>105.7</ele>
        <time>2023-11-25T15:09:10Z</time>
      </trkpt>
      <trkpt lat="49.84498" lon="2.26662">
        <ele>105.6</ele>
        <time>2023-11-25T15:09:11Z</time>
      </trkpt>
      <trkpt lat="49.84498" lon="2.26661">
        <ele>105.6</ele>
        <time>2023-11-25T15:09:12Z</time>
      </trkpt>
      <trkpt lat="49.84499" lon="2.2666">
        <ele>105.6</ele>
        <time>2023-11-25T15:09:13Z</time>
      </trkpt>
      <trkpt lat="49.845" lon="2.26659">
        <ele>105.5</ele>
        <time>2023-11-25T15:09:14Z</time>
      </trkpt>
      <trkpt lat="49.84501" lon="2.26657">
        <ele>105.5</ele>
        <time>2023-11-25T15:09:16Z</time>
      </trkpt>
      <trkpt lat="49.84503" lon="2.26655">
        <ele>105.4</ele>
        <time>2023-11-25T15:09:17Z</time>
      </trkpt>
      <trkpt lat="49.84503" lon="2.26654">
        <ele>105.4</ele>
        <time>2023-11-25T15:09:18Z</time>
      </trkpt>
      <trkpt lat="49.84504" lon="2.26653">
        <ele>105.3</ele>
        <time>2023-11-25T15:09:19Z</time>
      </trkpt>
      <trkpt lat="49.84505" lon="2.26652">
        <ele>105.3</ele>
        <time>2023-11-25T15:09:20Z</time>
      </trkpt>
      <trkpt lat="49.84507" lon="2.26652">
        <ele>105.2</ele>
        <time>2023-11-25T15:09:21Z</time>
      </trkpt>
      <trkpt lat="49.84508" lon="2.26651">
        <ele>105.1</ele>
        <time>2023-11-25T15:09:23Z</time>
      </trkpt>
      <trkpt lat="49.8451" lon="2.26651">
        <ele>105</ele>
        <time>2023-11-25T15:09:24Z</time>
      </trkpt>
      <trkpt lat="49.84512" lon="2.26651">
        <ele>105</ele>
        <time>2023-11-25T15:09:25Z</time>
      </trkpt>
      <trkpt lat="49.84514" lon="2.26651">
        <ele>104.9</ele>
        <time>2023-11-25T15:09:26Z</time>
      </trkpt>
      <trkpt lat="49.84515" lon="2.26651">
        <ele>104.8</ele>
        <time>2023-11-25T15:09:27Z</time>
      </trkpt>
      <trkpt lat="49.84516" lon="2.2665">
        <ele>104.8</ele>
        <time>2023-11-25T15:09:28Z</time>
      </trkpt>
      <trkpt lat="49.84517" lon="2.26649">
        <ele>104.7</ele>
        <time>2023-11-25T15:09:30Z</time>
      </trkpt>
      <trkpt lat="49.84518" lon="2.26648">
        <ele>104.7</ele>
        <time>2023-11-25T15:09:31Z</time>
      </trkpt>
      <trkpt lat="49.84519" lon="2.26644">
        <ele>104.6</ele>
        <time>2023-11-25T15:09:32Z</time>
      </trkpt>
      <trkpt lat="49.84519" lon="2.26643">
        <ele>104.5</ele>
        <time>2023-11-25T15:09:33Z</time>
      </trkpt>
      <trkpt lat="49.84519" lon="2.26642">
        <ele>104.5</ele>
        <time>2023-11-25T15:09:34Z</time>
      </trkpt>
      <trkpt lat="49.84519" lon="2.26639">
        <ele>104.4</ele>
        <time>2023-11-25T15:09:36Z</time>
      </trkpt>
      <trkpt lat="49.8452" lon="2.26637">
        <ele>104.3</ele>
        <time>2023-11-25T15:09:37Z</time>
      </trkpt>
      <trkpt lat="49.84521" lon="2.26637">
        <ele>104.3</ele>
        <time>2023-11-25T15:09:38Z</time>
      </trkpt>
      <trkpt lat="49.84522" lon="2.26637">
        <ele>104.3</ele>
        <time>2023-11-25T15:09:40Z</time>
      </trkpt>
      <trkpt lat="49.84523" lon="2.26637">
        <ele>104.3</ele>
        <time>2023-11-25T15:09:41Z</time>
      </trkpt>
      <trkpt lat="49.84524" lon="2.26638">
        <ele>104.2</ele>
        <time>2023-11-25T15:09:42Z</time>
      </trkpt>
      <trkpt lat="49.84524" lon="2.26638">
        <ele>104.2</ele>
        <time>2023-11-25T15:09:43Z</time>
      </trkpt>
      <trkpt lat="49.84525" lon="2.26638">
        <ele>104.1</ele>
        <time>2023-11-25T15:09:44Z</time>
      </trkpt>
      <trkpt lat="49.84526" lon="2.26639">
        <ele>104.1</ele>
        <time>2023-11-25T15:09:46Z</time>
      </trkpt>
      <trkpt lat="49.84527" lon="2.26639">
        <ele>104.1</ele>
        <time>2023-11-25T15:09:47Z</time>
      </trkpt>
      <trkpt lat="49.84527" lon="2.26639">
        <ele>104.1</ele>
        <time>2023-11-25T15:09:48Z</time>
      </trkpt>
      <trkpt lat="49.84528" lon="2.2664">
        <ele>104</ele>
        <time>2023-11-25T15:09:49Z</time>
      </trkpt>
      <trkpt lat="49.84529" lon="2.2664">
        <ele>104</ele>
        <time>2023-11-25T15:09:50Z</time>
      </trkpt>
      <trkpt lat="49.8453" lon="2.2664">
        <ele>104</ele>
        <time>2023-11-25T15:09:51Z</time>
      </trkpt>
      <trkpt lat="49.84531" lon="2.2664">
        <ele>103.9</ele>
        <time>2023-11-25T15:09:53Z</time>
      </trkpt>
      <trkpt lat="49.84532" lon="2.26641">
        <ele>103.9</ele>
        <time>2023-11-25T15:09:54Z</time>
      </trkpt>
      <trkpt lat="49.84533" lon="2.26641">
        <ele>103.9</ele>
        <time>2023-11-25T15:09:55Z</time>
      </trkpt>
      <trkpt lat="49.84534" lon="2.26642">
        <ele>103.8</ele>
        <time>2023-11-25T15:09:56Z</time>
      </trkpt>
      <trkpt lat="49.84535" lon="2.26642">
        <ele>103.8</ele>
        <time>2023-11-25T15:09:57Z</time>
      </trkpt>
      <trkpt lat="49.84536" lon="2.26641">
        <ele>103.7</ele>
        <time>2023-11-25T15:09:59Z</time>
      </trkpt>
      <trkpt lat="49.84537" lon="2.2664">
        <ele>103.7</ele>
        <time>2023-11-25T15:10:00Z</time>
      </trkpt>
      <trkpt lat="49.84538" lon="2.26639">
        <ele>103.6</ele>
        <time>2023-11-25T15:10:01Z</time>
      </trkpt>
      <trkpt lat="49.84539" lon="2.26638">
        <ele>103.6</ele>
        <time>2023-11-25T15:10:02Z</time>
      </trkpt>
      <trkpt lat="49.84539" lon="2.26637">
        <ele>103.6</ele>
        <time>2023-11-25T15:10:03Z</time>
      </trkpt>
      <trkpt lat="49.8454" lon="2.26634">
        <ele>103.5</ele>
        <time>2023-11-25T15:10:05Z</time>
      </trkpt>
      <trkpt lat="49.8454" lon="2.26631">
        <ele>103.3</ele>
        <time>2023-11-25T15:10:06Z</time>
      </trkpt>
      <trkpt lat="49.8454" lon="2.2663">
        <ele>103.3</ele>
        <time>2023-11-25T15:10:07Z</time>
      </trkpt>
      <trkpt lat="49.8454" lon="2.26628">
        <ele>103.2</ele>
        <time>2023-11-25T15:10:08Z</time>
      </trkpt>
      <trkpt lat="49.84541" lon="2.26626">
        <ele>103</ele>
        <time>2023-11-25T15:10:09Z</time>
      </trkpt>
      <trkpt lat="49.84541" lon="2.26624">
        <ele>103</ele>
        <time>2023-11-25T15:10:10Z</time>
      </trkpt>
      <trkpt lat="49.84542" lon="2.26623">
        <ele>102.9</ele>
        <time>2023-11-25T15:10:11Z</time>
      </trkpt>
      <trkpt lat="49.84543" lon="2.2662">
        <ele>102.8</ele>
        <time>2023-11-25T15:10:13Z</time>
      </trkpt>
      <trkpt lat="49.84544" lon="2.2662">
        <ele>102.7</ele>
        <time>2023-11-25T15:10:14Z</time>
      </trkpt>
      <trkpt lat="49.84544" lon="2.26619">
        <ele>102.7</ele>
        <time>2023-11-25T15:10:15Z</time>
      </trkpt>
      <trkpt lat="49.84545" lon="2.26619">
        <ele>102.7</ele>
        <time>2023-11-25T15:10:16Z</time>
      </trkpt>
      <trkpt lat="49.84545" lon="2.26619">
        <ele>102.6</ele>
        <time>2023-11-25T15:10:17Z</time>
      </trkpt>
      <trkpt lat="49.84546" lon="2.26619">
        <ele>102.4</ele>
        <time>2023-11-25T15:10:19Z</time>
      </trkpt>
      <trkpt lat="49.84547" lon="2.26619">
        <ele>102.4</ele>
        <time>2023-11-25T15:10:20Z</time>
      </trkpt>
      <trkpt lat="49.84548" lon="2.26619">
        <ele>102.4</ele>
        <time>2023-11-25T15:10:21Z</time>
      </trkpt>
      <trkpt lat="49.84549" lon="2.26619">
        <ele>102.4</ele>
        <time>2023-11-25T15:10:22Z</time>
      </trkpt>
      <trkpt lat="49.84549" lon="2.26619">
        <ele>102.4</ele>
        <time>2023-11-25T15:10:23Z</time>
      </trkpt>
      <trkpt lat="49.8455" lon="2.26617">
        <ele>102.2</ele>
        <time>2023-11-25T15:10:25Z</time>
      </trkpt>
      <trkpt lat="49.84549" lon="2.26615">
        <ele>102.2</ele>
        <time>2023-11-25T15:10:26Z</time>
      </trkpt>
      <trkpt lat="49.84549" lon="2.26614">
        <ele>102.1</ele>
        <time>2023-11-25T15:10:27Z</time>
      </trkpt>
      <trkpt lat="49.84549" lon="2.26613">
        <ele>102.1</ele>
        <time>2023-11-25T15:10:28Z</time>
      </trkpt>
      <trkpt lat="49.84549" lon="2.26611">
        <ele>102.1</ele>
        <time>2023-11-25T15:10:30Z</time>
      </trkpt>
      <trkpt lat="49.84549" lon="2.2661">
        <ele>101.9</ele>
        <time>2023-11-25T15:10:31Z</time>
      </trkpt>
      <trkpt lat="49.84549" lon="2.26608">
        <ele>101.9</ele>
        <time>2023-11-25T15:10:32Z</time>
      </trkpt>
      <trkpt lat="49.84549" lon="2.26607">
        <ele>101.9</ele>
        <time>2023-11-25T15:10:33Z</time>
      </trkpt>
      <trkpt lat="49.84549" lon="2.26607">
        <ele>101.9</ele>
        <time>2023-11-25T15:10:34Z</time>
      </trkpt>
      <trkpt lat="49.8455" lon="2.26606">
        <ele>101.9</ele>
        <time>2023-11-25T15:10:35Z</time>
      </trkpt>
      <trkpt lat="49.8455" lon="2.26606">
        <ele>101.8</ele>
        <time>2023-11-25T15:10:36Z</time>
      </trkpt>
      <trkpt lat="49.8455" lon="2.26605">
        <ele>101.7</ele>
        <time>2023-11-25T15:10:37Z</time>
      </trkpt>
      <trkpt lat="49.8455" lon="2.26604">
        <ele>101.7</ele>
        <time>2023-11-25T15:10:38Z</time>
      </trkpt>
      <trkpt lat="49.8455" lon="2.26603">
        <ele>101.7</ele>
        <time>2023-11-25T15:10:39Z</time>
      </trkpt>
      <trkpt lat="49.84551" lon="2.26602">
        <ele>101.7</ele>
        <time>2023-11-25T15:10:40Z</time>
      </trkpt>
      <trkpt lat="49.84551" lon="2.26602">
        <ele>101.6</ele>
        <time>2023-11-25T15:10:41Z</time>
      </trkpt>
      <trkpt lat="49.84552" lon="2.26601">
        <ele>101.4</ele>
        <time>2023-11-25T15:10:42Z</time>
      </trkpt>
      <trkpt lat="49.84551" lon="2.26601">
        <ele>101.4</ele>
        <time>2023-11-25T15:10:44Z</time>
      </trkpt>
      <trkpt lat="49.84552" lon="2.26601">
        <ele>101.4</ele>
        <time>2023-11-25T15:10:45Z</time>
      </trkpt>
      <trkpt lat="49.84552" lon="2.26601">
        <ele>101.4</ele>
        <time>2023-11-25T15:10:46Z</time>
      </trkpt>
      <trkpt lat="49.84552" lon="2.26601">
        <ele>101.4</ele>
        <time>2023-11-25T15:10:48Z</time>
      </trkpt>
      <trkpt lat="49.84553" lon="2.26601">
        <ele>101.3</ele>
        <time>2023-11-25T15:10:49Z</time>
      </trkpt>
      <trkpt lat="49.84554" lon="2.26601">
        <ele>101.3</ele>
        <time>2023-11-25T15:10:50Z</time>
      </trkpt>
      <trkpt lat="49.84555" lon="2.266">
        <ele>101.2</ele>
        <time>2023-11-25T15:10:52Z</time>
      </trkpt>
      <trkpt lat="49.84555" lon="2.266">
        <ele>101.2</ele>
        <time>2023-11-25T15:10:53Z</time>
      </trkpt>
      <trkpt lat="49.84556" lon="2.266">
        <ele>101.1</ele>
        <time>2023-11-25T15:10:54Z</time>
      </trkpt>
      <trkpt lat="49.84557" lon="2.26599">
        <ele>101</ele>
        <time>2023-11-25T15:10:55Z</time>
      </trkpt>
      <trkpt lat="49.84557" lon="2.26594">
        <ele>100.8</ele>
        <time>2023-11-25T15:10:57Z</time>
      </trkpt>
      <trkpt lat="49.84557" lon="2.26592">
        <ele>100.7</ele>
        <time>2023-11-25T15:10:59Z</time>
      </trkpt>
      <trkpt lat="49.84557" lon="2.2659">
        <ele>100.7</ele>
        <time>2023-11-25T15:11:00Z</time>
      </trkpt>
      <trkpt lat="49.84557" lon="2.26588">
        <ele>100.6</ele>
        <time>2023-11-25T15:11:01Z</time>
      </trkpt>
      <trkpt lat="49.84557" lon="2.26586">
        <ele>100.5</ele>
        <time>2023-11-25T15:11:02Z</time>
      </trkpt>
      <trkpt lat="49.84557" lon="2.26584">
        <ele>100.4</ele>
        <time>2023-11-25T15:11:03Z</time>
      </trkpt>
      <trkpt lat="49.84557" lon="2.26581">
        <ele>100.4</ele>
        <time>2023-11-25T15:11:04Z</time>
      </trkpt>
      <trkpt lat="49.84557" lon="2.26579">
        <ele>100.3</ele>
        <time>2023-11-25T15:11:06Z</time>
      </trkpt>
      <trkpt lat="49.84557" lon="2.26576">
        <ele>100.3</ele>
        <time>2023-11-25T15:11:07Z</time>
      </trkpt>
      <trkpt lat="49.84557" lon="2.26574">
        <ele>100.1</ele>
        <time>2023-11-25T15:11:08Z</time>
      </trkpt>
      <trkpt lat="49.84558" lon="2.26572">
        <ele>100.1</ele>
        <time>2023-11-25T15:11:09Z</time>
      </trkpt>
      <trkpt lat="49.8456" lon="2.26571">
        <ele>100.1</ele>
        <time>2023-11-25T15:11:11Z</time>
      </trkpt>
      <trkpt lat="49.84561" lon="2.26571">
        <ele>100.1</ele>
        <time>2023-11-25T15:11:12Z</time>
      </trkpt>
      <trkpt lat="49.84563" lon="2.26571">
        <ele>100.1</ele>
        <time>2023-11-25T15:11:13Z</time>
      </trkpt>
      <trkpt lat="49.84563" lon="2.26572">
        <ele>100.1</ele>
        <time>2023-11-25T15:11:14Z</time>
      </trkpt>
      <trkpt lat="49.84564" lon="2.26572">
        <ele>100.1</ele>
        <time>2023-11-25T15:11:15Z</time>
      </trkpt>
      <trkpt lat="49.84565" lon="2.26572">
        <ele>100.1</ele>
        <time>2023-11-25T15:11:16Z</time>
      </trkpt>
      <trkpt lat="49.84565" lon="2.26572">
        <ele>100.1</ele>
        <time>2023-11-25T15:11:18Z</time>
      </trkpt>
      <trkpt lat="49.84565" lon="2.26572">
        <ele>100.1</ele>
        <time>2023-11-25T15:11:19Z</time>
      </trkpt>
      <trkpt lat="49.84565" lon="2.26572">
        <ele>100.1</ele>
        <time>2023-11-25T15:11:21Z</time>
      </trkpt>
      <trkpt lat="49.84565" lon="2.26572">
        <ele>100.1</ele>
        <time>2023-11-25T15:11:22Z</time>
      </trkpt>
      <trkpt lat="49.84564" lon="2.26572">
        <ele>100.1</ele>
        <time>2023-11-25T15:11:24Z</time>
      </trkpt>
      <trkpt lat="49.84564" lon="2.26572">
        <ele>100.1</ele>
        <time>2023-11-25T15:11:25Z</time>
      </trkpt>
      <trkpt lat="49.84564" lon="2.26572">
        <ele>100.1</ele>
        <time>2023-11-25T15:11:27Z</time>
      </trkpt>
      <trkpt lat="49.84564" lon="2.26572">
        <ele>100.1</ele>
        <time>2023-11-25T15:11:28Z</time>
      </trkpt>
      <trkpt lat="49.84559" lon="2.26567">
        <ele>100.1</ele>
        <time>2023-11-25T15:12:24Z</time>
      </trkpt>
      <trkpt lat="49.84558" lon="2.26568">
        <ele>100.1</ele>
        <time>2023-11-25T15:12:25Z</time>
      </trkpt>
      <trkpt lat="49.84558" lon="2.26568">
        <ele>100.1</ele>
        <time>2023-11-25T15:12:27Z</time>
      </trkpt>
      <trkpt lat="49.84558" lon="2.26568">
        <ele>100.1</ele>
        <time>2023-11-25T15:12:28Z</time>
      </trkpt>
      <trkpt lat="49.84558" lon="2.26568">
        <ele>100.1</ele>
        <time>2023-11-25T15:12:30Z</time>
      </trkpt>
      <trkpt lat="49.84558" lon="2.26569">
        <ele>100.1</ele>
        <time>2023-11-25T15:12:31Z</time>
      </trkpt>
      <trkpt lat="49.84559" lon="2.26569">
        <ele>100.1</ele>
        <time>2023-11-25T15:12:33Z</time>
      </trkpt>
      <trkpt lat="49.84559" lon="2.26569">
        <ele>100.1</ele>
        <time>2023-11-25T15:12:34Z</time>
      </trkpt>
      <trkpt lat="49.84559" lon="2.26569">
        <ele>100.1</ele>
        <time>2023-11-25T15:12:35Z</time>
      </trkpt>
      <trkpt lat="49.84559" lon="2.26569">
        <ele>100.1</ele>
        <time>2023-11-25T15:12:37Z</time>
      </trkpt>
      <trkpt lat="49.84559" lon="2.26569">
        <ele>100.1</ele>
        <time>2023-11-25T15:12:38Z</time>
      </trkpt>
      <trkpt lat="49.84563" lon="2.26574">
        <ele>100.1</ele>
        <time>2023-11-25T15:13:24Z</time>
      </trkpt>
      <trkpt lat="49.84563" lon="2.26574">
        <ele>100.1</ele>
        <time>2023-11-25T15:13:25Z</time>
      </trkpt>
      <trkpt lat="49.84563" lon="2.26574">
        <ele>100.1</ele>
        <time>2023-11-25T15:13:27Z</time>
      </trkpt>
      <trkpt lat="49.84564" lon="2.26575">
        <ele>100.1</ele>
        <time>2023-11-25T15:13:28Z</time>
      </trkpt>
      <trkpt lat="49.84564" lon="2.26576">
        <ele>100.1</ele>
        <time>2023-11-25T15:13:29Z</time>
      </trkpt>
      <trkpt lat="49.84565" lon="2.26577">
        <ele>100.1</ele>
        <time>2023-11-25T15:13:30Z</time>
      </trkpt>
      <trkpt lat="49.84566" lon="2.26577">
        <ele>100.1</ele>
        <time>2023-11-25T15:13:31Z</time>
      </trkpt>
      <trkpt lat="49.84567" lon="2.26578">
        <ele>100.1</ele>
        <time>2023-11-25T15:13:32Z</time>
      </trkpt>
      <trkpt lat="49.84568" lon="2.26579">
        <ele>100.1</ele>
        <time>2023-11-25T15:13:33Z</time>
      </trkpt>
      <trkpt lat="49.84569" lon="2.2658">
        <ele>100.1</ele>
        <time>2023-11-25T15:13:35Z</time>
      </trkpt>
      <trkpt lat="49.8457" lon="2.26581">
        <ele>100.1</ele>
        <time>2023-11-25T15:13:36Z</time>
      </trkpt>
      <trkpt lat="49.8457" lon="2.26581">
        <ele>100.1</ele>
        <time>2023-11-25T15:13:37Z</time>
      </trkpt>
      <trkpt lat="49.84571" lon="2.26582">
        <ele>100.1</ele>
        <time>2023-11-25T15:13:38Z</time>
      </trkpt>
      <trkpt lat="49.84572" lon="2.26583">
        <ele>100.1</ele>
        <time>2023-11-25T15:13:39Z</time>
      </trkpt>
      <trkpt lat="49.84573" lon="2.26584">
        <ele>100.1</ele>
        <time>2023-11-25T15:13:40Z</time>
      </trkpt>
      <trkpt lat="49.84573" lon="2.26585">
        <ele>100.1</ele>
        <time>2023-11-25T15:13:41Z</time>
      </trkpt>
      <trkpt lat="49.84574" lon="2.26585">
        <ele>100.1</ele>
        <time>2023-11-25T15:13:43Z</time>
      </trkpt>
      <trkpt lat="49.84575" lon="2.26586">
        <ele>100.1</ele>
        <time>2023-11-25T15:13:44Z</time>
      </trkpt>
      <trkpt lat="49.84575" lon="2.26586">
        <ele>100.1</ele>
        <time>2023-11-25T15:13:45Z</time>
      </trkpt>
      <trkpt lat="49.84576" lon="2.26585">
        <ele>100.1</ele>
        <time>2023-11-25T15:13:46Z</time>
      </trkpt>
      <trkpt lat="49.84576" lon="2.26585">
        <ele>100.1</ele>
        <time>2023-11-25T15:13:47Z</time>
      </trkpt>
      <trkpt lat="49.84576" lon="2.26584">
        <ele>100.1</ele>
        <time>2023-11-25T15:13:49Z</time>
      </trkpt>
      <trkpt lat="49.84576" lon="2.26585">
        <ele>100.1</ele>
        <time>2023-11-25T15:13:50Z</time>
      </trkpt>
      <trkpt lat="49.84578" lon="2.26585">
        <ele>100.1</ele>
        <time>2023-11-25T15:13:51Z</time>
      </trkpt>
      <trkpt lat="49.84578" lon="2.26585">
        <ele>100.1</ele>
        <time>2023-11-25T15:13:52Z</time>
      </trkpt>
      <trkpt lat="49.84578" lon="2.26585">
        <ele>100.1</ele>
        <time>2023-11-25T15:13:54Z</time>
      </trkpt>
      <trkpt lat="49.84577" lon="2.26586">
        <ele>100.1</ele>
        <time>2023-11-25T15:13:55Z</time>
      </trkpt>
      <trkpt lat="49.84577" lon="2.26586">
        <ele>100.1</ele>
        <time>2023-11-25T15:13:56Z</time>
      </trkpt>
      <trkpt lat="49.84577" lon="2.26586">
        <ele>100.1</ele>
        <time>2023-11-25T15:13:58Z</time>
      </trkpt>
      <trkpt lat="49.84577" lon="2.26586">
        <ele>100.1</ele>
        <time>2023-11-25T15:13:59Z</time>
      </trkpt>
      <trkpt lat="49.84577" lon="2.26586">
        <ele>100.1</ele>
        <time>2023-11-25T15:14:01Z</time>
      </trkpt>
      <trkpt lat="49.84577" lon="2.26587">
        <ele>100.1</ele>
        <time>2023-11-25T15:14:02Z</time>
      </trkpt>
      <trkpt lat="49.84577" lon="2.26587">
        <ele>100.1</ele>
        <time>2023-11-25T15:14:03Z</time>
      </trkpt>
      <trkpt lat="49.84577" lon="2.26587">
        <ele>100.1</ele>
        <time>2023-11-25T15:14:05Z</time>
      </trkpt>
    </trkseg>
  </trk>
</gpx>